<?xml version="1.0" encoding="UTF-8" standalone="no" ?>
<gpx xmlns="http://www.topografix.com/GPX/1/1" xmlns:xsi="http://www.w3.org/2001/XMLSchema-instance" xsi:schemaLocation="http://www.topografix.com/GPX/1/1 http://www.topografix.com/GPX/1/1/gpx.xsd" version="1.1" creator="VisuGPX - https://www.visugpx.com">
  <metadata>
    <name>Course à pied en soirée</name>
    <desc><![CDATA[sortie en soirée ]]></desc>
  </metadata>
  <trk>
    <name><![CDATA[Course à pied en soirée]]></name>
    <trkseg>
      <trkpt lat="45.16287" lon="5.28207">
        <ele>319.3</ele>
        <time>2020-05-26T16:34:36Z</time>
      </trkpt>
      <trkpt lat="45.16284" lon="5.28209">
        <ele>319.2</ele>
        <time>2020-05-26T16:34:37Z</time>
      </trkpt>
      <trkpt lat="45.16282" lon="5.28213">
        <ele>319.1</ele>
        <time>2020-05-26T16:34:38Z</time>
      </trkpt>
      <trkpt lat="45.1628" lon="5.28216">
        <ele>319</ele>
        <time>2020-05-26T16:34:39Z</time>
      </trkpt>
      <trkpt lat="45.16277" lon="5.28219">
        <ele>318.9</ele>
        <time>2020-05-26T16:34:40Z</time>
      </trkpt>
      <trkpt lat="45.16275" lon="5.28223">
        <ele>318.8</ele>
        <time>2020-05-26T16:34:41Z</time>
      </trkpt>
      <trkpt lat="45.16273" lon="5.28227">
        <ele>318.8</ele>
        <time>2020-05-26T16:34:42Z</time>
      </trkpt>
      <trkpt lat="45.16271" lon="5.2823">
        <ele>318.7</ele>
        <time>2020-05-26T16:34:43Z</time>
      </trkpt>
      <trkpt lat="45.16269" lon="5.28234">
        <ele>318.7</ele>
        <time>2020-05-26T16:34:44Z</time>
      </trkpt>
      <trkpt lat="45.16266" lon="5.28238">
        <ele>318.6</ele>
        <time>2020-05-26T16:34:45Z</time>
      </trkpt>
      <trkpt lat="45.16263" lon="5.28241">
        <ele>318.5</ele>
        <time>2020-05-26T16:34:46Z</time>
      </trkpt>
      <trkpt lat="45.1626" lon="5.28244">
        <ele>318.5</ele>
        <time>2020-05-26T16:34:47Z</time>
      </trkpt>
      <trkpt lat="45.16257" lon="5.28248">
        <ele>318.4</ele>
        <time>2020-05-26T16:34:48Z</time>
      </trkpt>
      <trkpt lat="45.16254" lon="5.28251">
        <ele>318.3</ele>
        <time>2020-05-26T16:34:49Z</time>
      </trkpt>
      <trkpt lat="45.16251" lon="5.28254">
        <ele>318.2</ele>
        <time>2020-05-26T16:34:50Z</time>
      </trkpt>
      <trkpt lat="45.16248" lon="5.28257">
        <ele>318</ele>
        <time>2020-05-26T16:34:51Z</time>
      </trkpt>
      <trkpt lat="45.16245" lon="5.2826">
        <ele>317.9</ele>
        <time>2020-05-26T16:34:52Z</time>
      </trkpt>
      <trkpt lat="45.16242" lon="5.28263">
        <ele>317.7</ele>
        <time>2020-05-26T16:34:53Z</time>
      </trkpt>
      <trkpt lat="45.1624" lon="5.28266">
        <ele>317.6</ele>
        <time>2020-05-26T16:34:54Z</time>
      </trkpt>
      <trkpt lat="45.16237" lon="5.28269">
        <ele>317.4</ele>
        <time>2020-05-26T16:34:55Z</time>
      </trkpt>
      <trkpt lat="45.16234" lon="5.28272">
        <ele>317.3</ele>
        <time>2020-05-26T16:34:56Z</time>
      </trkpt>
      <trkpt lat="45.16232" lon="5.28275">
        <ele>317.1</ele>
        <time>2020-05-26T16:34:57Z</time>
      </trkpt>
      <trkpt lat="45.16229" lon="5.28278">
        <ele>317</ele>
        <time>2020-05-26T16:34:58Z</time>
      </trkpt>
      <trkpt lat="45.16226" lon="5.28281">
        <ele>316.9</ele>
        <time>2020-05-26T16:34:59Z</time>
      </trkpt>
      <trkpt lat="45.16224" lon="5.28284">
        <ele>316.8</ele>
        <time>2020-05-26T16:35:00Z</time>
      </trkpt>
      <trkpt lat="45.16221" lon="5.28288">
        <ele>316.7</ele>
        <time>2020-05-26T16:35:01Z</time>
      </trkpt>
      <trkpt lat="45.16218" lon="5.28291">
        <ele>316.5</ele>
        <time>2020-05-26T16:35:02Z</time>
      </trkpt>
      <trkpt lat="45.16215" lon="5.28294">
        <ele>316.4</ele>
        <time>2020-05-26T16:35:03Z</time>
      </trkpt>
      <trkpt lat="45.16212" lon="5.28296">
        <ele>316.3</ele>
        <time>2020-05-26T16:35:04Z</time>
      </trkpt>
      <trkpt lat="45.1621" lon="5.28299">
        <ele>316.2</ele>
        <time>2020-05-26T16:35:05Z</time>
      </trkpt>
      <trkpt lat="45.16207" lon="5.28301">
        <ele>316.1</ele>
        <time>2020-05-26T16:35:06Z</time>
      </trkpt>
      <trkpt lat="45.16204" lon="5.28304">
        <ele>316</ele>
        <time>2020-05-26T16:35:07Z</time>
      </trkpt>
      <trkpt lat="45.16201" lon="5.28307">
        <ele>315.9</ele>
        <time>2020-05-26T16:35:08Z</time>
      </trkpt>
      <trkpt lat="45.16198" lon="5.2831">
        <ele>315.8</ele>
        <time>2020-05-26T16:35:09Z</time>
      </trkpt>
      <trkpt lat="45.16195" lon="5.28313">
        <ele>315.7</ele>
        <time>2020-05-26T16:35:10Z</time>
      </trkpt>
      <trkpt lat="45.16193" lon="5.28316">
        <ele>315.7</ele>
        <time>2020-05-26T16:35:11Z</time>
      </trkpt>
      <trkpt lat="45.1619" lon="5.28319">
        <ele>315.6</ele>
        <time>2020-05-26T16:35:12Z</time>
      </trkpt>
      <trkpt lat="45.16188" lon="5.28323">
        <ele>315.5</ele>
        <time>2020-05-26T16:35:13Z</time>
      </trkpt>
      <trkpt lat="45.16185" lon="5.28326">
        <ele>315.5</ele>
        <time>2020-05-26T16:35:14Z</time>
      </trkpt>
      <trkpt lat="45.16183" lon="5.28329">
        <ele>315.4</ele>
        <time>2020-05-26T16:35:15Z</time>
      </trkpt>
      <trkpt lat="45.1618" lon="5.28332">
        <ele>315.3</ele>
        <time>2020-05-26T16:35:16Z</time>
      </trkpt>
      <trkpt lat="45.16177" lon="5.28335">
        <ele>315.2</ele>
        <time>2020-05-26T16:35:17Z</time>
      </trkpt>
      <trkpt lat="45.16174" lon="5.28339">
        <ele>315.1</ele>
        <time>2020-05-26T16:35:18Z</time>
      </trkpt>
      <trkpt lat="45.16171" lon="5.28342">
        <ele>315</ele>
        <time>2020-05-26T16:35:19Z</time>
      </trkpt>
      <trkpt lat="45.16169" lon="5.28345">
        <ele>315</ele>
        <time>2020-05-26T16:35:20Z</time>
      </trkpt>
      <trkpt lat="45.16166" lon="5.28348">
        <ele>314.9</ele>
        <time>2020-05-26T16:35:21Z</time>
      </trkpt>
      <trkpt lat="45.16164" lon="5.28351">
        <ele>314.8</ele>
        <time>2020-05-26T16:35:22Z</time>
      </trkpt>
      <trkpt lat="45.16161" lon="5.28354">
        <ele>314.7</ele>
        <time>2020-05-26T16:35:23Z</time>
      </trkpt>
      <trkpt lat="45.16158" lon="5.28357">
        <ele>314.7</ele>
        <time>2020-05-26T16:35:24Z</time>
      </trkpt>
      <trkpt lat="45.16156" lon="5.28359">
        <ele>314.6</ele>
        <time>2020-05-26T16:35:25Z</time>
      </trkpt>
      <trkpt lat="45.16153" lon="5.28362">
        <ele>314.5</ele>
        <time>2020-05-26T16:35:26Z</time>
      </trkpt>
      <trkpt lat="45.1615" lon="5.28365">
        <ele>314.4</ele>
        <time>2020-05-26T16:35:27Z</time>
      </trkpt>
      <trkpt lat="45.16148" lon="5.28368">
        <ele>314.4</ele>
        <time>2020-05-26T16:35:28Z</time>
      </trkpt>
      <trkpt lat="45.16145" lon="5.2837">
        <ele>314.3</ele>
        <time>2020-05-26T16:35:29Z</time>
      </trkpt>
      <trkpt lat="45.16143" lon="5.28372">
        <ele>314.2</ele>
        <time>2020-05-26T16:35:30Z</time>
      </trkpt>
      <trkpt lat="45.1614" lon="5.28374">
        <ele>314.2</ele>
        <time>2020-05-26T16:35:31Z</time>
      </trkpt>
      <trkpt lat="45.16137" lon="5.28376">
        <ele>314.1</ele>
        <time>2020-05-26T16:35:32Z</time>
      </trkpt>
      <trkpt lat="45.16133" lon="5.28378">
        <ele>314.1</ele>
        <time>2020-05-26T16:35:33Z</time>
      </trkpt>
      <trkpt lat="45.16131" lon="5.2838">
        <ele>314</ele>
        <time>2020-05-26T16:35:34Z</time>
      </trkpt>
      <trkpt lat="45.16128" lon="5.28382">
        <ele>314</ele>
        <time>2020-05-26T16:35:35Z</time>
      </trkpt>
      <trkpt lat="45.16126" lon="5.28385">
        <ele>313.9</ele>
        <time>2020-05-26T16:35:36Z</time>
      </trkpt>
      <trkpt lat="45.16124" lon="5.28388">
        <ele>313.9</ele>
        <time>2020-05-26T16:35:37Z</time>
      </trkpt>
      <trkpt lat="45.16121" lon="5.28392">
        <ele>313.8</ele>
        <time>2020-05-26T16:35:38Z</time>
      </trkpt>
      <trkpt lat="45.16118" lon="5.28395">
        <ele>313.8</ele>
        <time>2020-05-26T16:35:39Z</time>
      </trkpt>
      <trkpt lat="45.16115" lon="5.28398">
        <ele>313.7</ele>
        <time>2020-05-26T16:35:40Z</time>
      </trkpt>
      <trkpt lat="45.16113" lon="5.284">
        <ele>313.7</ele>
        <time>2020-05-26T16:35:41Z</time>
      </trkpt>
      <trkpt lat="45.1611" lon="5.28403">
        <ele>313.7</ele>
        <time>2020-05-26T16:35:42Z</time>
      </trkpt>
      <trkpt lat="45.16106" lon="5.28407">
        <ele>313.6</ele>
        <time>2020-05-26T16:35:43Z</time>
      </trkpt>
      <trkpt lat="45.16103" lon="5.2841">
        <ele>313.6</ele>
        <time>2020-05-26T16:35:44Z</time>
      </trkpt>
      <trkpt lat="45.161" lon="5.28413">
        <ele>313.6</ele>
        <time>2020-05-26T16:35:45Z</time>
      </trkpt>
      <trkpt lat="45.16098" lon="5.28416">
        <ele>313.6</ele>
        <time>2020-05-26T16:35:46Z</time>
      </trkpt>
      <trkpt lat="45.16095" lon="5.28419">
        <ele>313.5</ele>
        <time>2020-05-26T16:35:47Z</time>
      </trkpt>
      <trkpt lat="45.16093" lon="5.28422">
        <ele>313.5</ele>
        <time>2020-05-26T16:35:48Z</time>
      </trkpt>
      <trkpt lat="45.1609" lon="5.28424">
        <ele>313.5</ele>
        <time>2020-05-26T16:35:49Z</time>
      </trkpt>
      <trkpt lat="45.16088" lon="5.28427">
        <ele>313.4</ele>
        <time>2020-05-26T16:35:50Z</time>
      </trkpt>
      <trkpt lat="45.16084" lon="5.28429">
        <ele>313.2</ele>
        <time>2020-05-26T16:35:51Z</time>
      </trkpt>
      <trkpt lat="45.16081" lon="5.2843">
        <ele>313.1</ele>
        <time>2020-05-26T16:35:52Z</time>
      </trkpt>
      <trkpt lat="45.16078" lon="5.28431">
        <ele>313</ele>
        <time>2020-05-26T16:35:53Z</time>
      </trkpt>
      <trkpt lat="45.16073" lon="5.28431">
        <ele>312.9</ele>
        <time>2020-05-26T16:35:54Z</time>
      </trkpt>
      <trkpt lat="45.16069" lon="5.28431">
        <ele>312.8</ele>
        <time>2020-05-26T16:35:55Z</time>
      </trkpt>
      <trkpt lat="45.16065" lon="5.28431">
        <ele>312.7</ele>
        <time>2020-05-26T16:35:56Z</time>
      </trkpt>
      <trkpt lat="45.16062" lon="5.28431">
        <ele>312.6</ele>
        <time>2020-05-26T16:35:57Z</time>
      </trkpt>
      <trkpt lat="45.16058" lon="5.2843">
        <ele>312.5</ele>
        <time>2020-05-26T16:35:58Z</time>
      </trkpt>
      <trkpt lat="45.16055" lon="5.28429">
        <ele>312.4</ele>
        <time>2020-05-26T16:35:59Z</time>
      </trkpt>
      <trkpt lat="45.16052" lon="5.28428">
        <ele>312.3</ele>
        <time>2020-05-26T16:36:00Z</time>
      </trkpt>
      <trkpt lat="45.16049" lon="5.28427">
        <ele>312.3</ele>
        <time>2020-05-26T16:36:01Z</time>
      </trkpt>
      <trkpt lat="45.16045" lon="5.28426">
        <ele>312.2</ele>
        <time>2020-05-26T16:36:02Z</time>
      </trkpt>
      <trkpt lat="45.16042" lon="5.28424">
        <ele>312</ele>
        <time>2020-05-26T16:36:03Z</time>
      </trkpt>
      <trkpt lat="45.1604" lon="5.28422">
        <ele>312</ele>
        <time>2020-05-26T16:36:04Z</time>
      </trkpt>
      <trkpt lat="45.16037" lon="5.2842">
        <ele>312</ele>
        <time>2020-05-26T16:36:05Z</time>
      </trkpt>
      <trkpt lat="45.16034" lon="5.28418">
        <ele>311.9</ele>
        <time>2020-05-26T16:36:06Z</time>
      </trkpt>
      <trkpt lat="45.16032" lon="5.28416">
        <ele>311.9</ele>
        <time>2020-05-26T16:36:07Z</time>
      </trkpt>
      <trkpt lat="45.16028" lon="5.28414">
        <ele>311.9</ele>
        <time>2020-05-26T16:36:08Z</time>
      </trkpt>
      <trkpt lat="45.16025" lon="5.28412">
        <ele>311.8</ele>
        <time>2020-05-26T16:36:09Z</time>
      </trkpt>
      <trkpt lat="45.16023" lon="5.28409">
        <ele>311.8</ele>
        <time>2020-05-26T16:36:10Z</time>
      </trkpt>
      <trkpt lat="45.1602" lon="5.28406">
        <ele>311.7</ele>
        <time>2020-05-26T16:36:11Z</time>
      </trkpt>
      <trkpt lat="45.16017" lon="5.28402">
        <ele>311.6</ele>
        <time>2020-05-26T16:36:12Z</time>
      </trkpt>
      <trkpt lat="45.16015" lon="5.28399">
        <ele>311.5</ele>
        <time>2020-05-26T16:36:13Z</time>
      </trkpt>
      <trkpt lat="45.16012" lon="5.28396">
        <ele>311.4</ele>
        <time>2020-05-26T16:36:14Z</time>
      </trkpt>
      <trkpt lat="45.16009" lon="5.28394">
        <ele>311.3</ele>
        <time>2020-05-26T16:36:15Z</time>
      </trkpt>
      <trkpt lat="45.16006" lon="5.28392">
        <ele>311.2</ele>
        <time>2020-05-26T16:36:16Z</time>
      </trkpt>
      <trkpt lat="45.16003" lon="5.28391">
        <ele>311.1</ele>
        <time>2020-05-26T16:36:17Z</time>
      </trkpt>
      <trkpt lat="45.16" lon="5.2839">
        <ele>311</ele>
        <time>2020-05-26T16:36:18Z</time>
      </trkpt>
      <trkpt lat="45.15997" lon="5.28389">
        <ele>311</ele>
        <time>2020-05-26T16:36:19Z</time>
      </trkpt>
      <trkpt lat="45.15994" lon="5.28388">
        <ele>310.9</ele>
        <time>2020-05-26T16:36:20Z</time>
      </trkpt>
      <trkpt lat="45.15991" lon="5.28387">
        <ele>310.8</ele>
        <time>2020-05-26T16:36:21Z</time>
      </trkpt>
      <trkpt lat="45.15988" lon="5.28386">
        <ele>310.7</ele>
        <time>2020-05-26T16:36:22Z</time>
      </trkpt>
      <trkpt lat="45.15984" lon="5.28384">
        <ele>310.7</ele>
        <time>2020-05-26T16:36:23Z</time>
      </trkpt>
      <trkpt lat="45.15981" lon="5.28382">
        <ele>310.6</ele>
        <time>2020-05-26T16:36:24Z</time>
      </trkpt>
      <trkpt lat="45.15979" lon="5.28381">
        <ele>310.5</ele>
        <time>2020-05-26T16:36:25Z</time>
      </trkpt>
      <trkpt lat="45.15975" lon="5.28378">
        <ele>310.4</ele>
        <time>2020-05-26T16:36:26Z</time>
      </trkpt>
      <trkpt lat="45.15972" lon="5.28377">
        <ele>310.4</ele>
        <time>2020-05-26T16:36:27Z</time>
      </trkpt>
      <trkpt lat="45.15969" lon="5.28375">
        <ele>310.3</ele>
        <time>2020-05-26T16:36:28Z</time>
      </trkpt>
      <trkpt lat="45.15966" lon="5.28375">
        <ele>310.2</ele>
        <time>2020-05-26T16:36:29Z</time>
      </trkpt>
      <trkpt lat="45.15963" lon="5.28374">
        <ele>310.2</ele>
        <time>2020-05-26T16:36:30Z</time>
      </trkpt>
      <trkpt lat="45.1596" lon="5.28373">
        <ele>310.1</ele>
        <time>2020-05-26T16:36:31Z</time>
      </trkpt>
      <trkpt lat="45.15956" lon="5.28372">
        <ele>310.1</ele>
        <time>2020-05-26T16:36:32Z</time>
      </trkpt>
      <trkpt lat="45.15953" lon="5.28372">
        <ele>310</ele>
        <time>2020-05-26T16:36:33Z</time>
      </trkpt>
      <trkpt lat="45.15949" lon="5.28371">
        <ele>310</ele>
        <time>2020-05-26T16:36:34Z</time>
      </trkpt>
      <trkpt lat="45.15946" lon="5.28371">
        <ele>310</ele>
        <time>2020-05-26T16:36:35Z</time>
      </trkpt>
      <trkpt lat="45.15943" lon="5.2837">
        <ele>309.9</ele>
        <time>2020-05-26T16:36:36Z</time>
      </trkpt>
      <trkpt lat="45.1594" lon="5.28369">
        <ele>309.9</ele>
        <time>2020-05-26T16:36:37Z</time>
      </trkpt>
      <trkpt lat="45.15936" lon="5.28368">
        <ele>309.8</ele>
        <time>2020-05-26T16:36:38Z</time>
      </trkpt>
      <trkpt lat="45.15934" lon="5.28367">
        <ele>309.8</ele>
        <time>2020-05-26T16:36:39Z</time>
      </trkpt>
      <trkpt lat="45.15931" lon="5.28366">
        <ele>309.7</ele>
        <time>2020-05-26T16:36:40Z</time>
      </trkpt>
      <trkpt lat="45.15927" lon="5.28365">
        <ele>309.6</ele>
        <time>2020-05-26T16:36:41Z</time>
      </trkpt>
      <trkpt lat="45.15924" lon="5.28364">
        <ele>309.6</ele>
        <time>2020-05-26T16:36:42Z</time>
      </trkpt>
      <trkpt lat="45.15921" lon="5.28363">
        <ele>309.5</ele>
        <time>2020-05-26T16:36:43Z</time>
      </trkpt>
      <trkpt lat="45.15917" lon="5.28362">
        <ele>309.4</ele>
        <time>2020-05-26T16:36:44Z</time>
      </trkpt>
      <trkpt lat="45.15913" lon="5.2836">
        <ele>309.4</ele>
        <time>2020-05-26T16:36:45Z</time>
      </trkpt>
      <trkpt lat="45.1591" lon="5.28359">
        <ele>309.3</ele>
        <time>2020-05-26T16:36:46Z</time>
      </trkpt>
      <trkpt lat="45.15906" lon="5.28357">
        <ele>309.3</ele>
        <time>2020-05-26T16:36:47Z</time>
      </trkpt>
      <trkpt lat="45.15903" lon="5.28356">
        <ele>309.3</ele>
        <time>2020-05-26T16:36:48Z</time>
      </trkpt>
      <trkpt lat="45.159" lon="5.28355">
        <ele>309.2</ele>
        <time>2020-05-26T16:36:49Z</time>
      </trkpt>
      <trkpt lat="45.15896" lon="5.28354">
        <ele>309.2</ele>
        <time>2020-05-26T16:36:50Z</time>
      </trkpt>
      <trkpt lat="45.15892" lon="5.28352">
        <ele>309.1</ele>
        <time>2020-05-26T16:36:51Z</time>
      </trkpt>
      <trkpt lat="45.15889" lon="5.28352">
        <ele>309.1</ele>
        <time>2020-05-26T16:36:52Z</time>
      </trkpt>
      <trkpt lat="45.15886" lon="5.2835">
        <ele>309</ele>
        <time>2020-05-26T16:36:53Z</time>
      </trkpt>
      <trkpt lat="45.15883" lon="5.28349">
        <ele>309</ele>
        <time>2020-05-26T16:36:54Z</time>
      </trkpt>
      <trkpt lat="45.1588" lon="5.28348">
        <ele>309</ele>
        <time>2020-05-26T16:36:55Z</time>
      </trkpt>
      <trkpt lat="45.15877" lon="5.28348">
        <ele>308.9</ele>
        <time>2020-05-26T16:36:56Z</time>
      </trkpt>
      <trkpt lat="45.15873" lon="5.28348">
        <ele>308.9</ele>
        <time>2020-05-26T16:36:57Z</time>
      </trkpt>
      <trkpt lat="45.15871" lon="5.28347">
        <ele>308.9</ele>
        <time>2020-05-26T16:36:58Z</time>
      </trkpt>
      <trkpt lat="45.15868" lon="5.28347">
        <ele>308.9</ele>
        <time>2020-05-26T16:36:59Z</time>
      </trkpt>
      <trkpt lat="45.15864" lon="5.28346">
        <ele>308.8</ele>
        <time>2020-05-26T16:37:00Z</time>
      </trkpt>
      <trkpt lat="45.15861" lon="5.28346">
        <ele>308.8</ele>
        <time>2020-05-26T16:37:01Z</time>
      </trkpt>
      <trkpt lat="45.15858" lon="5.28345">
        <ele>308.8</ele>
        <time>2020-05-26T16:37:02Z</time>
      </trkpt>
      <trkpt lat="45.15855" lon="5.28345">
        <ele>308.8</ele>
        <time>2020-05-26T16:37:03Z</time>
      </trkpt>
      <trkpt lat="45.15852" lon="5.28344">
        <ele>308.7</ele>
        <time>2020-05-26T16:37:04Z</time>
      </trkpt>
      <trkpt lat="45.15849" lon="5.28343">
        <ele>308.7</ele>
        <time>2020-05-26T16:37:05Z</time>
      </trkpt>
      <trkpt lat="45.15845" lon="5.28342">
        <ele>308.7</ele>
        <time>2020-05-26T16:37:06Z</time>
      </trkpt>
      <trkpt lat="45.15842" lon="5.28341">
        <ele>308.6</ele>
        <time>2020-05-26T16:37:07Z</time>
      </trkpt>
      <trkpt lat="45.15839" lon="5.2834">
        <ele>308.5</ele>
        <time>2020-05-26T16:37:08Z</time>
      </trkpt>
      <trkpt lat="45.15835" lon="5.28339">
        <ele>308.5</ele>
        <time>2020-05-26T16:37:09Z</time>
      </trkpt>
      <trkpt lat="45.15831" lon="5.28338">
        <ele>308.4</ele>
        <time>2020-05-26T16:37:10Z</time>
      </trkpt>
      <trkpt lat="45.15827" lon="5.28337">
        <ele>308.3</ele>
        <time>2020-05-26T16:37:11Z</time>
      </trkpt>
      <trkpt lat="45.15823" lon="5.28337">
        <ele>308.3</ele>
        <time>2020-05-26T16:37:12Z</time>
      </trkpt>
      <trkpt lat="45.1582" lon="5.28336">
        <ele>308.2</ele>
        <time>2020-05-26T16:37:13Z</time>
      </trkpt>
      <trkpt lat="45.15818" lon="5.28334">
        <ele>308.2</ele>
        <time>2020-05-26T16:37:14Z</time>
      </trkpt>
      <trkpt lat="45.15814" lon="5.28332">
        <ele>308.1</ele>
        <time>2020-05-26T16:37:15Z</time>
      </trkpt>
      <trkpt lat="45.15812" lon="5.28329">
        <ele>308.1</ele>
        <time>2020-05-26T16:37:16Z</time>
      </trkpt>
      <trkpt lat="45.15809" lon="5.28328">
        <ele>308.1</ele>
        <time>2020-05-26T16:37:17Z</time>
      </trkpt>
      <trkpt lat="45.15805" lon="5.28327">
        <ele>308</ele>
        <time>2020-05-26T16:37:18Z</time>
      </trkpt>
      <trkpt lat="45.15802" lon="5.28327">
        <ele>308</ele>
        <time>2020-05-26T16:37:19Z</time>
      </trkpt>
      <trkpt lat="45.15799" lon="5.28327">
        <ele>307.9</ele>
        <time>2020-05-26T16:37:20Z</time>
      </trkpt>
      <trkpt lat="45.15795" lon="5.28327">
        <ele>307.9</ele>
        <time>2020-05-26T16:37:21Z</time>
      </trkpt>
      <trkpt lat="45.15792" lon="5.28327">
        <ele>307.8</ele>
        <time>2020-05-26T16:37:22Z</time>
      </trkpt>
      <trkpt lat="45.15789" lon="5.28328">
        <ele>307.8</ele>
        <time>2020-05-26T16:37:23Z</time>
      </trkpt>
      <trkpt lat="45.15786" lon="5.28328">
        <ele>307.7</ele>
        <time>2020-05-26T16:37:24Z</time>
      </trkpt>
      <trkpt lat="45.15783" lon="5.28328">
        <ele>307.7</ele>
        <time>2020-05-26T16:37:25Z</time>
      </trkpt>
      <trkpt lat="45.1578" lon="5.28327">
        <ele>307.6</ele>
        <time>2020-05-26T16:37:26Z</time>
      </trkpt>
      <trkpt lat="45.15777" lon="5.28327">
        <ele>307.6</ele>
        <time>2020-05-26T16:37:27Z</time>
      </trkpt>
      <trkpt lat="45.15774" lon="5.28325">
        <ele>307.5</ele>
        <time>2020-05-26T16:37:28Z</time>
      </trkpt>
      <trkpt lat="45.15771" lon="5.28324">
        <ele>307.5</ele>
        <time>2020-05-26T16:37:29Z</time>
      </trkpt>
      <trkpt lat="45.15768" lon="5.28323">
        <ele>307.4</ele>
        <time>2020-05-26T16:37:30Z</time>
      </trkpt>
      <trkpt lat="45.15764" lon="5.28323">
        <ele>307.3</ele>
        <time>2020-05-26T16:37:31Z</time>
      </trkpt>
      <trkpt lat="45.15761" lon="5.28323">
        <ele>307.3</ele>
        <time>2020-05-26T16:37:32Z</time>
      </trkpt>
      <trkpt lat="45.15758" lon="5.28323">
        <ele>307.2</ele>
        <time>2020-05-26T16:37:33Z</time>
      </trkpt>
      <trkpt lat="45.15754" lon="5.28323">
        <ele>307.1</ele>
        <time>2020-05-26T16:37:34Z</time>
      </trkpt>
      <trkpt lat="45.15751" lon="5.28323">
        <ele>307.1</ele>
        <time>2020-05-26T16:37:35Z</time>
      </trkpt>
      <trkpt lat="45.15748" lon="5.28323">
        <ele>307.1</ele>
        <time>2020-05-26T16:37:36Z</time>
      </trkpt>
      <trkpt lat="45.15745" lon="5.28323">
        <ele>307</ele>
        <time>2020-05-26T16:37:37Z</time>
      </trkpt>
      <trkpt lat="45.15741" lon="5.28324">
        <ele>307</ele>
        <time>2020-05-26T16:37:38Z</time>
      </trkpt>
      <trkpt lat="45.1574" lon="5.28325">
        <ele>307</ele>
        <time>2020-05-26T16:37:39Z</time>
      </trkpt>
      <trkpt lat="45.15737" lon="5.28325">
        <ele>306.9</ele>
        <time>2020-05-26T16:37:40Z</time>
      </trkpt>
      <trkpt lat="45.15734" lon="5.28324">
        <ele>306.9</ele>
        <time>2020-05-26T16:37:41Z</time>
      </trkpt>
      <trkpt lat="45.15731" lon="5.28324">
        <ele>306.9</ele>
        <time>2020-05-26T16:37:42Z</time>
      </trkpt>
      <trkpt lat="45.15728" lon="5.28323">
        <ele>306.8</ele>
        <time>2020-05-26T16:37:43Z</time>
      </trkpt>
      <trkpt lat="45.15725" lon="5.28322">
        <ele>306.8</ele>
        <time>2020-05-26T16:37:44Z</time>
      </trkpt>
      <trkpt lat="45.15721" lon="5.28322">
        <ele>306.7</ele>
        <time>2020-05-26T16:37:45Z</time>
      </trkpt>
      <trkpt lat="45.15717" lon="5.2832">
        <ele>306.7</ele>
        <time>2020-05-26T16:37:46Z</time>
      </trkpt>
      <trkpt lat="45.15714" lon="5.2832">
        <ele>306.6</ele>
        <time>2020-05-26T16:37:47Z</time>
      </trkpt>
      <trkpt lat="45.15711" lon="5.2832">
        <ele>306.6</ele>
        <time>2020-05-26T16:37:48Z</time>
      </trkpt>
      <trkpt lat="45.15708" lon="5.28319">
        <ele>306.6</ele>
        <time>2020-05-26T16:37:49Z</time>
      </trkpt>
      <trkpt lat="45.15705" lon="5.28318">
        <ele>306.5</ele>
        <time>2020-05-26T16:37:50Z</time>
      </trkpt>
      <trkpt lat="45.15701" lon="5.28317">
        <ele>306.5</ele>
        <time>2020-05-26T16:37:51Z</time>
      </trkpt>
      <trkpt lat="45.15699" lon="5.28315">
        <ele>306.5</ele>
        <time>2020-05-26T16:37:52Z</time>
      </trkpt>
      <trkpt lat="45.15695" lon="5.28312">
        <ele>306.5</ele>
        <time>2020-05-26T16:37:53Z</time>
      </trkpt>
      <trkpt lat="45.15694" lon="5.28311">
        <ele>306.5</ele>
        <time>2020-05-26T16:37:54Z</time>
      </trkpt>
      <trkpt lat="45.15693" lon="5.28307">
        <ele>306.5</ele>
        <time>2020-05-26T16:37:55Z</time>
      </trkpt>
      <trkpt lat="45.15692" lon="5.28303">
        <ele>306.6</ele>
        <time>2020-05-26T16:37:56Z</time>
      </trkpt>
      <trkpt lat="45.15692" lon="5.28298">
        <ele>306.6</ele>
        <time>2020-05-26T16:37:57Z</time>
      </trkpt>
      <trkpt lat="45.15693" lon="5.28294">
        <ele>306.6</ele>
        <time>2020-05-26T16:37:58Z</time>
      </trkpt>
      <trkpt lat="45.15694" lon="5.2829">
        <ele>306.6</ele>
        <time>2020-05-26T16:37:59Z</time>
      </trkpt>
      <trkpt lat="45.15696" lon="5.28285">
        <ele>306.6</ele>
        <time>2020-05-26T16:38:00Z</time>
      </trkpt>
      <trkpt lat="45.15698" lon="5.28281">
        <ele>306.7</ele>
        <time>2020-05-26T16:38:01Z</time>
      </trkpt>
      <trkpt lat="45.15699" lon="5.28277">
        <ele>306.7</ele>
        <time>2020-05-26T16:38:02Z</time>
      </trkpt>
      <trkpt lat="45.157" lon="5.28273">
        <ele>306.7</ele>
        <time>2020-05-26T16:38:03Z</time>
      </trkpt>
      <trkpt lat="45.15701" lon="5.28268">
        <ele>306.7</ele>
        <time>2020-05-26T16:38:04Z</time>
      </trkpt>
      <trkpt lat="45.15703" lon="5.28264">
        <ele>306.7</ele>
        <time>2020-05-26T16:38:05Z</time>
      </trkpt>
      <trkpt lat="45.15703" lon="5.28261">
        <ele>306.7</ele>
        <time>2020-05-26T16:38:06Z</time>
      </trkpt>
      <trkpt lat="45.15705" lon="5.28256">
        <ele>306.7</ele>
        <time>2020-05-26T16:38:07Z</time>
      </trkpt>
      <trkpt lat="45.15706" lon="5.28252">
        <ele>306.7</ele>
        <time>2020-05-26T16:38:08Z</time>
      </trkpt>
      <trkpt lat="45.15707" lon="5.28248">
        <ele>306.7</ele>
        <time>2020-05-26T16:38:09Z</time>
      </trkpt>
      <trkpt lat="45.15708" lon="5.28243">
        <ele>306.7</ele>
        <time>2020-05-26T16:38:10Z</time>
      </trkpt>
      <trkpt lat="45.15709" lon="5.28239">
        <ele>306.7</ele>
        <time>2020-05-26T16:38:11Z</time>
      </trkpt>
      <trkpt lat="45.15709" lon="5.28235">
        <ele>306.6</ele>
        <time>2020-05-26T16:38:12Z</time>
      </trkpt>
      <trkpt lat="45.1571" lon="5.2823">
        <ele>306.6</ele>
        <time>2020-05-26T16:38:13Z</time>
      </trkpt>
      <trkpt lat="45.15711" lon="5.28226">
        <ele>306.6</ele>
        <time>2020-05-26T16:38:14Z</time>
      </trkpt>
      <trkpt lat="45.15712" lon="5.28222">
        <ele>306.6</ele>
        <time>2020-05-26T16:38:15Z</time>
      </trkpt>
      <trkpt lat="45.15712" lon="5.28217">
        <ele>306.6</ele>
        <time>2020-05-26T16:38:16Z</time>
      </trkpt>
      <trkpt lat="45.15713" lon="5.28213">
        <ele>306.6</ele>
        <time>2020-05-26T16:38:17Z</time>
      </trkpt>
      <trkpt lat="45.15713" lon="5.28208">
        <ele>306.6</ele>
        <time>2020-05-26T16:38:18Z</time>
      </trkpt>
      <trkpt lat="45.15713" lon="5.28204">
        <ele>306.5</ele>
        <time>2020-05-26T16:38:19Z</time>
      </trkpt>
      <trkpt lat="45.15712" lon="5.282">
        <ele>306.5</ele>
        <time>2020-05-26T16:38:20Z</time>
      </trkpt>
      <trkpt lat="45.15709" lon="5.28197">
        <ele>306.5</ele>
        <time>2020-05-26T16:38:21Z</time>
      </trkpt>
      <trkpt lat="45.15705" lon="5.28194">
        <ele>306.4</ele>
        <time>2020-05-26T16:38:22Z</time>
      </trkpt>
      <trkpt lat="45.15701" lon="5.28192">
        <ele>306.3</ele>
        <time>2020-05-26T16:38:23Z</time>
      </trkpt>
      <trkpt lat="45.15697" lon="5.28191">
        <ele>306.3</ele>
        <time>2020-05-26T16:38:24Z</time>
      </trkpt>
      <trkpt lat="45.15694" lon="5.28191">
        <ele>306.2</ele>
        <time>2020-05-26T16:38:25Z</time>
      </trkpt>
      <trkpt lat="45.1569" lon="5.28191">
        <ele>306.1</ele>
        <time>2020-05-26T16:38:26Z</time>
      </trkpt>
      <trkpt lat="45.15687" lon="5.28191">
        <ele>306.1</ele>
        <time>2020-05-26T16:38:27Z</time>
      </trkpt>
      <trkpt lat="45.15683" lon="5.28191">
        <ele>306</ele>
        <time>2020-05-26T16:38:28Z</time>
      </trkpt>
      <trkpt lat="45.1568" lon="5.2819">
        <ele>305.9</ele>
        <time>2020-05-26T16:38:29Z</time>
      </trkpt>
      <trkpt lat="45.15677" lon="5.28189">
        <ele>305.9</ele>
        <time>2020-05-26T16:38:30Z</time>
      </trkpt>
      <trkpt lat="45.15674" lon="5.28189">
        <ele>305.9</ele>
        <time>2020-05-26T16:38:31Z</time>
      </trkpt>
      <trkpt lat="45.1567" lon="5.28189">
        <ele>305.8</ele>
        <time>2020-05-26T16:38:32Z</time>
      </trkpt>
      <trkpt lat="45.15667" lon="5.28189">
        <ele>305.8</ele>
        <time>2020-05-26T16:38:33Z</time>
      </trkpt>
      <trkpt lat="45.15664" lon="5.28188">
        <ele>305.7</ele>
        <time>2020-05-26T16:38:34Z</time>
      </trkpt>
      <trkpt lat="45.15661" lon="5.28187">
        <ele>305.7</ele>
        <time>2020-05-26T16:38:35Z</time>
      </trkpt>
      <trkpt lat="45.15658" lon="5.28186">
        <ele>305.7</ele>
        <time>2020-05-26T16:38:36Z</time>
      </trkpt>
      <trkpt lat="45.15655" lon="5.28186">
        <ele>305.6</ele>
        <time>2020-05-26T16:38:37Z</time>
      </trkpt>
      <trkpt lat="45.15652" lon="5.28185">
        <ele>305.6</ele>
        <time>2020-05-26T16:38:38Z</time>
      </trkpt>
      <trkpt lat="45.15649" lon="5.28185">
        <ele>305.6</ele>
        <time>2020-05-26T16:38:39Z</time>
      </trkpt>
      <trkpt lat="45.15646" lon="5.28184">
        <ele>305.5</ele>
        <time>2020-05-26T16:38:40Z</time>
      </trkpt>
      <trkpt lat="45.15642" lon="5.28184">
        <ele>305.5</ele>
        <time>2020-05-26T16:38:41Z</time>
      </trkpt>
      <trkpt lat="45.15639" lon="5.28183">
        <ele>305.5</ele>
        <time>2020-05-26T16:38:42Z</time>
      </trkpt>
      <trkpt lat="45.15636" lon="5.28183">
        <ele>305.4</ele>
        <time>2020-05-26T16:38:43Z</time>
      </trkpt>
      <trkpt lat="45.15632" lon="5.28182">
        <ele>305.3</ele>
        <time>2020-05-26T16:38:44Z</time>
      </trkpt>
      <trkpt lat="45.15629" lon="5.28182">
        <ele>305.2</ele>
        <time>2020-05-26T16:38:45Z</time>
      </trkpt>
      <trkpt lat="45.15626" lon="5.28181">
        <ele>305.2</ele>
        <time>2020-05-26T16:38:46Z</time>
      </trkpt>
      <trkpt lat="45.15623" lon="5.2818">
        <ele>305.1</ele>
        <time>2020-05-26T16:38:47Z</time>
      </trkpt>
      <trkpt lat="45.1562" lon="5.28179">
        <ele>305.1</ele>
        <time>2020-05-26T16:38:48Z</time>
      </trkpt>
      <trkpt lat="45.15617" lon="5.28179">
        <ele>305</ele>
        <time>2020-05-26T16:38:49Z</time>
      </trkpt>
      <trkpt lat="45.15613" lon="5.28178">
        <ele>305</ele>
        <time>2020-05-26T16:38:50Z</time>
      </trkpt>
      <trkpt lat="45.1561" lon="5.28177">
        <ele>305</ele>
        <time>2020-05-26T16:38:51Z</time>
      </trkpt>
      <trkpt lat="45.15607" lon="5.28175">
        <ele>304.9</ele>
        <time>2020-05-26T16:38:52Z</time>
      </trkpt>
      <trkpt lat="45.15603" lon="5.28172">
        <ele>304.9</ele>
        <time>2020-05-26T16:38:53Z</time>
      </trkpt>
      <trkpt lat="45.15601" lon="5.2817">
        <ele>304.9</ele>
        <time>2020-05-26T16:38:54Z</time>
      </trkpt>
      <trkpt lat="45.15598" lon="5.28169">
        <ele>304.8</ele>
        <time>2020-05-26T16:38:55Z</time>
      </trkpt>
      <trkpt lat="45.15595" lon="5.28167">
        <ele>304.8</ele>
        <time>2020-05-26T16:38:56Z</time>
      </trkpt>
      <trkpt lat="45.15592" lon="5.28164">
        <ele>304.8</ele>
        <time>2020-05-26T16:38:57Z</time>
      </trkpt>
      <trkpt lat="45.1559" lon="5.28163">
        <ele>304.7</ele>
        <time>2020-05-26T16:38:58Z</time>
      </trkpt>
      <trkpt lat="45.15588" lon="5.28161">
        <ele>304.7</ele>
        <time>2020-05-26T16:38:59Z</time>
      </trkpt>
      <trkpt lat="45.15585" lon="5.2816">
        <ele>304.7</ele>
        <time>2020-05-26T16:39:00Z</time>
      </trkpt>
      <trkpt lat="45.15581" lon="5.28157">
        <ele>304.7</ele>
        <time>2020-05-26T16:39:01Z</time>
      </trkpt>
      <trkpt lat="45.15578" lon="5.28155">
        <ele>304.6</ele>
        <time>2020-05-26T16:39:02Z</time>
      </trkpt>
      <trkpt lat="45.15575" lon="5.28153">
        <ele>304.6</ele>
        <time>2020-05-26T16:39:03Z</time>
      </trkpt>
      <trkpt lat="45.15572" lon="5.28151">
        <ele>304.5</ele>
        <time>2020-05-26T16:39:04Z</time>
      </trkpt>
      <trkpt lat="45.15569" lon="5.28149">
        <ele>304.5</ele>
        <time>2020-05-26T16:39:05Z</time>
      </trkpt>
      <trkpt lat="45.15565" lon="5.28147">
        <ele>304.4</ele>
        <time>2020-05-26T16:39:06Z</time>
      </trkpt>
      <trkpt lat="45.15564" lon="5.28147">
        <ele>304.4</ele>
        <time>2020-05-26T16:39:07Z</time>
      </trkpt>
      <trkpt lat="45.15561" lon="5.28145">
        <ele>304.4</ele>
        <time>2020-05-26T16:39:08Z</time>
      </trkpt>
      <trkpt lat="45.15559" lon="5.28143">
        <ele>304.4</ele>
        <time>2020-05-26T16:39:09Z</time>
      </trkpt>
      <trkpt lat="45.15556" lon="5.28141">
        <ele>304.3</ele>
        <time>2020-05-26T16:39:10Z</time>
      </trkpt>
      <trkpt lat="45.15552" lon="5.28139">
        <ele>304.3</ele>
        <time>2020-05-26T16:39:11Z</time>
      </trkpt>
      <trkpt lat="45.1555" lon="5.28137">
        <ele>304.3</ele>
        <time>2020-05-26T16:39:12Z</time>
      </trkpt>
      <trkpt lat="45.15547" lon="5.28135">
        <ele>304.3</ele>
        <time>2020-05-26T16:39:13Z</time>
      </trkpt>
      <trkpt lat="45.15544" lon="5.28133">
        <ele>304.3</ele>
        <time>2020-05-26T16:39:14Z</time>
      </trkpt>
      <trkpt lat="45.15542" lon="5.28131">
        <ele>304.3</ele>
        <time>2020-05-26T16:39:15Z</time>
      </trkpt>
      <trkpt lat="45.15539" lon="5.28128">
        <ele>304.3</ele>
        <time>2020-05-26T16:39:16Z</time>
      </trkpt>
      <trkpt lat="45.15536" lon="5.28125">
        <ele>304.2</ele>
        <time>2020-05-26T16:39:17Z</time>
      </trkpt>
      <trkpt lat="45.15533" lon="5.28123">
        <ele>304.2</ele>
        <time>2020-05-26T16:39:18Z</time>
      </trkpt>
      <trkpt lat="45.15531" lon="5.28121">
        <ele>304.2</ele>
        <time>2020-05-26T16:39:19Z</time>
      </trkpt>
      <trkpt lat="45.15527" lon="5.28119">
        <ele>304.1</ele>
        <time>2020-05-26T16:39:20Z</time>
      </trkpt>
      <trkpt lat="45.15525" lon="5.28116">
        <ele>304.1</ele>
        <time>2020-05-26T16:39:21Z</time>
      </trkpt>
      <trkpt lat="45.15522" lon="5.28114">
        <ele>304</ele>
        <time>2020-05-26T16:39:22Z</time>
      </trkpt>
      <trkpt lat="45.15519" lon="5.28111">
        <ele>304</ele>
        <time>2020-05-26T16:39:23Z</time>
      </trkpt>
      <trkpt lat="45.15516" lon="5.28108">
        <ele>304</ele>
        <time>2020-05-26T16:39:24Z</time>
      </trkpt>
      <trkpt lat="45.15513" lon="5.28106">
        <ele>303.9</ele>
        <time>2020-05-26T16:39:25Z</time>
      </trkpt>
      <trkpt lat="45.15511" lon="5.28104">
        <ele>303.9</ele>
        <time>2020-05-26T16:39:26Z</time>
      </trkpt>
      <trkpt lat="45.15508" lon="5.28101">
        <ele>303.9</ele>
        <time>2020-05-26T16:39:27Z</time>
      </trkpt>
      <trkpt lat="45.15505" lon="5.28099">
        <ele>303.8</ele>
        <time>2020-05-26T16:39:28Z</time>
      </trkpt>
      <trkpt lat="45.15502" lon="5.28097">
        <ele>303.8</ele>
        <time>2020-05-26T16:39:29Z</time>
      </trkpt>
      <trkpt lat="45.15498" lon="5.28095">
        <ele>303.7</ele>
        <time>2020-05-26T16:39:30Z</time>
      </trkpt>
      <trkpt lat="45.15495" lon="5.28093">
        <ele>303.7</ele>
        <time>2020-05-26T16:39:31Z</time>
      </trkpt>
      <trkpt lat="45.15493" lon="5.28091">
        <ele>303.6</ele>
        <time>2020-05-26T16:39:32Z</time>
      </trkpt>
      <trkpt lat="45.1549" lon="5.2809">
        <ele>303.6</ele>
        <time>2020-05-26T16:39:33Z</time>
      </trkpt>
      <trkpt lat="45.15487" lon="5.28089">
        <ele>303.5</ele>
        <time>2020-05-26T16:39:34Z</time>
      </trkpt>
      <trkpt lat="45.15484" lon="5.28087">
        <ele>303.5</ele>
        <time>2020-05-26T16:39:35Z</time>
      </trkpt>
      <trkpt lat="45.1548" lon="5.28086">
        <ele>303.4</ele>
        <time>2020-05-26T16:39:36Z</time>
      </trkpt>
      <trkpt lat="45.15477" lon="5.28085">
        <ele>303.3</ele>
        <time>2020-05-26T16:39:37Z</time>
      </trkpt>
      <trkpt lat="45.15474" lon="5.28083">
        <ele>303.2</ele>
        <time>2020-05-26T16:39:38Z</time>
      </trkpt>
      <trkpt lat="45.1547" lon="5.28081">
        <ele>303.2</ele>
        <time>2020-05-26T16:39:39Z</time>
      </trkpt>
      <trkpt lat="45.15467" lon="5.28081">
        <ele>303.1</ele>
        <time>2020-05-26T16:39:40Z</time>
      </trkpt>
      <trkpt lat="45.15465" lon="5.2808">
        <ele>303.1</ele>
        <time>2020-05-26T16:39:41Z</time>
      </trkpt>
      <trkpt lat="45.15461" lon="5.28079">
        <ele>303</ele>
        <time>2020-05-26T16:39:42Z</time>
      </trkpt>
      <trkpt lat="45.15459" lon="5.28079">
        <ele>303</ele>
        <time>2020-05-26T16:39:43Z</time>
      </trkpt>
      <trkpt lat="45.15455" lon="5.28078">
        <ele>303</ele>
        <time>2020-05-26T16:39:44Z</time>
      </trkpt>
      <trkpt lat="45.15451" lon="5.28076">
        <ele>302.9</ele>
        <time>2020-05-26T16:39:45Z</time>
      </trkpt>
      <trkpt lat="45.15447" lon="5.28074">
        <ele>302.9</ele>
        <time>2020-05-26T16:39:46Z</time>
      </trkpt>
      <trkpt lat="45.15444" lon="5.28073">
        <ele>302.8</ele>
        <time>2020-05-26T16:39:47Z</time>
      </trkpt>
      <trkpt lat="45.15441" lon="5.28072">
        <ele>302.8</ele>
        <time>2020-05-26T16:39:48Z</time>
      </trkpt>
      <trkpt lat="45.15438" lon="5.28072">
        <ele>302.7</ele>
        <time>2020-05-26T16:39:49Z</time>
      </trkpt>
      <trkpt lat="45.15434" lon="5.2807">
        <ele>302.6</ele>
        <time>2020-05-26T16:39:50Z</time>
      </trkpt>
      <trkpt lat="45.15432" lon="5.2807">
        <ele>302.6</ele>
        <time>2020-05-26T16:39:51Z</time>
      </trkpt>
      <trkpt lat="45.15429" lon="5.28069">
        <ele>302.5</ele>
        <time>2020-05-26T16:39:52Z</time>
      </trkpt>
      <trkpt lat="45.15426" lon="5.28068">
        <ele>302.4</ele>
        <time>2020-05-26T16:39:53Z</time>
      </trkpt>
      <trkpt lat="45.15422" lon="5.28067">
        <ele>302.4</ele>
        <time>2020-05-26T16:39:54Z</time>
      </trkpt>
      <trkpt lat="45.15419" lon="5.28066">
        <ele>302.3</ele>
        <time>2020-05-26T16:39:55Z</time>
      </trkpt>
      <trkpt lat="45.15417" lon="5.28066">
        <ele>302.2</ele>
        <time>2020-05-26T16:39:56Z</time>
      </trkpt>
      <trkpt lat="45.15413" lon="5.28065">
        <ele>302.2</ele>
        <time>2020-05-26T16:39:57Z</time>
      </trkpt>
      <trkpt lat="45.15409" lon="5.28065">
        <ele>302.1</ele>
        <time>2020-05-26T16:39:58Z</time>
      </trkpt>
      <trkpt lat="45.15408" lon="5.28065">
        <ele>302.1</ele>
        <time>2020-05-26T16:39:59Z</time>
      </trkpt>
      <trkpt lat="45.15404" lon="5.28064">
        <ele>302</ele>
        <time>2020-05-26T16:40:00Z</time>
      </trkpt>
      <trkpt lat="45.15401" lon="5.28064">
        <ele>302</ele>
        <time>2020-05-26T16:40:01Z</time>
      </trkpt>
      <trkpt lat="45.15398" lon="5.28063">
        <ele>301.9</ele>
        <time>2020-05-26T16:40:02Z</time>
      </trkpt>
      <trkpt lat="45.15395" lon="5.28061">
        <ele>301.9</ele>
        <time>2020-05-26T16:40:03Z</time>
      </trkpt>
      <trkpt lat="45.15392" lon="5.2806">
        <ele>301.8</ele>
        <time>2020-05-26T16:40:04Z</time>
      </trkpt>
      <trkpt lat="45.15388" lon="5.28057">
        <ele>301.7</ele>
        <time>2020-05-26T16:40:05Z</time>
      </trkpt>
      <trkpt lat="45.15384" lon="5.28055">
        <ele>301.6</ele>
        <time>2020-05-26T16:40:06Z</time>
      </trkpt>
      <trkpt lat="45.15381" lon="5.28053">
        <ele>301.5</ele>
        <time>2020-05-26T16:40:07Z</time>
      </trkpt>
      <trkpt lat="45.15377" lon="5.28052">
        <ele>301.4</ele>
        <time>2020-05-26T16:40:08Z</time>
      </trkpt>
      <trkpt lat="45.15373" lon="5.2805">
        <ele>301.4</ele>
        <time>2020-05-26T16:40:09Z</time>
      </trkpt>
      <trkpt lat="45.1537" lon="5.28049">
        <ele>301.3</ele>
        <time>2020-05-26T16:40:10Z</time>
      </trkpt>
      <trkpt lat="45.15367" lon="5.28049">
        <ele>301.3</ele>
        <time>2020-05-26T16:40:11Z</time>
      </trkpt>
      <trkpt lat="45.15363" lon="5.28047">
        <ele>301.2</ele>
        <time>2020-05-26T16:40:12Z</time>
      </trkpt>
      <trkpt lat="45.15361" lon="5.28046">
        <ele>301.2</ele>
        <time>2020-05-26T16:40:13Z</time>
      </trkpt>
      <trkpt lat="45.15357" lon="5.28045">
        <ele>301.2</ele>
        <time>2020-05-26T16:40:14Z</time>
      </trkpt>
      <trkpt lat="45.15356" lon="5.28044">
        <ele>301.2</ele>
        <time>2020-05-26T16:40:15Z</time>
      </trkpt>
      <trkpt lat="45.15352" lon="5.28044">
        <ele>301.1</ele>
        <time>2020-05-26T16:40:16Z</time>
      </trkpt>
      <trkpt lat="45.1535" lon="5.28044">
        <ele>301.1</ele>
        <time>2020-05-26T16:40:17Z</time>
      </trkpt>
      <trkpt lat="45.15347" lon="5.28044">
        <ele>301.1</ele>
        <time>2020-05-26T16:40:18Z</time>
      </trkpt>
      <trkpt lat="45.15343" lon="5.28044">
        <ele>301</ele>
        <time>2020-05-26T16:40:19Z</time>
      </trkpt>
      <trkpt lat="45.1534" lon="5.28044">
        <ele>300.9</ele>
        <time>2020-05-26T16:40:20Z</time>
      </trkpt>
      <trkpt lat="45.15337" lon="5.28044">
        <ele>300.9</ele>
        <time>2020-05-26T16:40:21Z</time>
      </trkpt>
      <trkpt lat="45.15334" lon="5.28044">
        <ele>300.8</ele>
        <time>2020-05-26T16:40:22Z</time>
      </trkpt>
      <trkpt lat="45.1533" lon="5.28044">
        <ele>300.7</ele>
        <time>2020-05-26T16:40:23Z</time>
      </trkpt>
      <trkpt lat="45.15326" lon="5.28043">
        <ele>300.7</ele>
        <time>2020-05-26T16:40:24Z</time>
      </trkpt>
      <trkpt lat="45.15323" lon="5.28042">
        <ele>300.6</ele>
        <time>2020-05-26T16:40:25Z</time>
      </trkpt>
      <trkpt lat="45.1532" lon="5.28041">
        <ele>300.6</ele>
        <time>2020-05-26T16:40:26Z</time>
      </trkpt>
      <trkpt lat="45.15316" lon="5.28041">
        <ele>300.5</ele>
        <time>2020-05-26T16:40:27Z</time>
      </trkpt>
      <trkpt lat="45.15313" lon="5.28039">
        <ele>300.5</ele>
        <time>2020-05-26T16:40:28Z</time>
      </trkpt>
      <trkpt lat="45.15309" lon="5.28038">
        <ele>300.4</ele>
        <time>2020-05-26T16:40:29Z</time>
      </trkpt>
      <trkpt lat="45.15306" lon="5.28037">
        <ele>300.4</ele>
        <time>2020-05-26T16:40:30Z</time>
      </trkpt>
      <trkpt lat="45.15303" lon="5.28036">
        <ele>300.4</ele>
        <time>2020-05-26T16:40:31Z</time>
      </trkpt>
      <trkpt lat="45.15299" lon="5.28034">
        <ele>300.3</ele>
        <time>2020-05-26T16:40:32Z</time>
      </trkpt>
      <trkpt lat="45.15296" lon="5.28032">
        <ele>300.2</ele>
        <time>2020-05-26T16:40:33Z</time>
      </trkpt>
      <trkpt lat="45.15292" lon="5.28029">
        <ele>300.2</ele>
        <time>2020-05-26T16:40:34Z</time>
      </trkpt>
      <trkpt lat="45.15289" lon="5.28027">
        <ele>300.1</ele>
        <time>2020-05-26T16:40:35Z</time>
      </trkpt>
      <trkpt lat="45.15286" lon="5.28025">
        <ele>300</ele>
        <time>2020-05-26T16:40:36Z</time>
      </trkpt>
      <trkpt lat="45.15283" lon="5.28023">
        <ele>300</ele>
        <time>2020-05-26T16:40:37Z</time>
      </trkpt>
      <trkpt lat="45.1528" lon="5.28022">
        <ele>299.9</ele>
        <time>2020-05-26T16:40:38Z</time>
      </trkpt>
      <trkpt lat="45.15277" lon="5.28021">
        <ele>299.9</ele>
        <time>2020-05-26T16:40:39Z</time>
      </trkpt>
      <trkpt lat="45.15273" lon="5.28019">
        <ele>299.8</ele>
        <time>2020-05-26T16:40:40Z</time>
      </trkpt>
      <trkpt lat="45.1527" lon="5.28017">
        <ele>299.7</ele>
        <time>2020-05-26T16:40:41Z</time>
      </trkpt>
      <trkpt lat="45.15267" lon="5.28015">
        <ele>299.7</ele>
        <time>2020-05-26T16:40:42Z</time>
      </trkpt>
      <trkpt lat="45.15264" lon="5.28014">
        <ele>299.7</ele>
        <time>2020-05-26T16:40:43Z</time>
      </trkpt>
      <trkpt lat="45.1526" lon="5.28013">
        <ele>299.6</ele>
        <time>2020-05-26T16:40:44Z</time>
      </trkpt>
      <trkpt lat="45.15257" lon="5.28013">
        <ele>299.6</ele>
        <time>2020-05-26T16:40:45Z</time>
      </trkpt>
      <trkpt lat="45.15253" lon="5.28012">
        <ele>299.6</ele>
        <time>2020-05-26T16:40:46Z</time>
      </trkpt>
      <trkpt lat="45.15249" lon="5.2801">
        <ele>299.5</ele>
        <time>2020-05-26T16:40:47Z</time>
      </trkpt>
      <trkpt lat="45.15246" lon="5.28009">
        <ele>299.5</ele>
        <time>2020-05-26T16:40:48Z</time>
      </trkpt>
      <trkpt lat="45.15242" lon="5.28008">
        <ele>299.5</ele>
        <time>2020-05-26T16:40:49Z</time>
      </trkpt>
      <trkpt lat="45.15239" lon="5.28006">
        <ele>299.5</ele>
        <time>2020-05-26T16:40:50Z</time>
      </trkpt>
      <trkpt lat="45.15236" lon="5.28005">
        <ele>299.4</ele>
        <time>2020-05-26T16:40:51Z</time>
      </trkpt>
      <trkpt lat="45.15233" lon="5.28004">
        <ele>299.4</ele>
        <time>2020-05-26T16:40:52Z</time>
      </trkpt>
      <trkpt lat="45.15229" lon="5.28002">
        <ele>299.4</ele>
        <time>2020-05-26T16:40:53Z</time>
      </trkpt>
      <trkpt lat="45.15226" lon="5.28001">
        <ele>299.3</ele>
        <time>2020-05-26T16:40:54Z</time>
      </trkpt>
      <trkpt lat="45.15222" lon="5.28">
        <ele>299.3</ele>
        <time>2020-05-26T16:40:55Z</time>
      </trkpt>
      <trkpt lat="45.15219" lon="5.27998">
        <ele>299.2</ele>
        <time>2020-05-26T16:40:56Z</time>
      </trkpt>
      <trkpt lat="45.15216" lon="5.27996">
        <ele>299.1</ele>
        <time>2020-05-26T16:40:57Z</time>
      </trkpt>
      <trkpt lat="45.15215" lon="5.27996">
        <ele>299</ele>
        <time>2020-05-26T16:40:58Z</time>
      </trkpt>
      <trkpt lat="45.15212" lon="5.27992">
        <ele>298.9</ele>
        <time>2020-05-26T16:40:59Z</time>
      </trkpt>
      <trkpt lat="45.15211" lon="5.27987">
        <ele>298.6</ele>
        <time>2020-05-26T16:41:00Z</time>
      </trkpt>
      <trkpt lat="45.15211" lon="5.27985">
        <ele>299.2</ele>
        <time>2020-05-26T16:41:01Z</time>
      </trkpt>
      <trkpt lat="45.15211" lon="5.2798">
        <ele>299.4</ele>
        <time>2020-05-26T16:41:02Z</time>
      </trkpt>
      <trkpt lat="45.15211" lon="5.27975">
        <ele>299.6</ele>
        <time>2020-05-26T16:41:03Z</time>
      </trkpt>
      <trkpt lat="45.15211" lon="5.27971">
        <ele>299.8</ele>
        <time>2020-05-26T16:41:04Z</time>
      </trkpt>
      <trkpt lat="45.15211" lon="5.27966">
        <ele>300</ele>
        <time>2020-05-26T16:41:05Z</time>
      </trkpt>
      <trkpt lat="45.15212" lon="5.27964">
        <ele>300.1</ele>
        <time>2020-05-26T16:41:06Z</time>
      </trkpt>
      <trkpt lat="45.15212" lon="5.2796">
        <ele>300.3</ele>
        <time>2020-05-26T16:41:07Z</time>
      </trkpt>
      <trkpt lat="45.15213" lon="5.27956">
        <ele>300.5</ele>
        <time>2020-05-26T16:41:08Z</time>
      </trkpt>
      <trkpt lat="45.15214" lon="5.2795">
        <ele>300.7</ele>
        <time>2020-05-26T16:41:09Z</time>
      </trkpt>
      <trkpt lat="45.15214" lon="5.27948">
        <ele>300.8</ele>
        <time>2020-05-26T16:41:10Z</time>
      </trkpt>
      <trkpt lat="45.15215" lon="5.27943">
        <ele>301.1</ele>
        <time>2020-05-26T16:41:11Z</time>
      </trkpt>
      <trkpt lat="45.15215" lon="5.27941">
        <ele>301.1</ele>
        <time>2020-05-26T16:41:12Z</time>
      </trkpt>
      <trkpt lat="45.15216" lon="5.27936">
        <ele>301.3</ele>
        <time>2020-05-26T16:41:13Z</time>
      </trkpt>
      <trkpt lat="45.15217" lon="5.27932">
        <ele>301.5</ele>
        <time>2020-05-26T16:41:14Z</time>
      </trkpt>
      <trkpt lat="45.15217" lon="5.27928">
        <ele>301.7</ele>
        <time>2020-05-26T16:41:15Z</time>
      </trkpt>
      <trkpt lat="45.15218" lon="5.27924">
        <ele>301.9</ele>
        <time>2020-05-26T16:41:16Z</time>
      </trkpt>
      <trkpt lat="45.15218" lon="5.27919">
        <ele>302.1</ele>
        <time>2020-05-26T16:41:17Z</time>
      </trkpt>
      <trkpt lat="45.15218" lon="5.27917">
        <ele>302.2</ele>
        <time>2020-05-26T16:41:18Z</time>
      </trkpt>
      <trkpt lat="45.15218" lon="5.27913">
        <ele>302.5</ele>
        <time>2020-05-26T16:41:19Z</time>
      </trkpt>
      <trkpt lat="45.15219" lon="5.27909">
        <ele>302.7</ele>
        <time>2020-05-26T16:41:20Z</time>
      </trkpt>
      <trkpt lat="45.15219" lon="5.27904">
        <ele>303</ele>
        <time>2020-05-26T16:41:21Z</time>
      </trkpt>
      <trkpt lat="45.1522" lon="5.27899">
        <ele>303.3</ele>
        <time>2020-05-26T16:41:22Z</time>
      </trkpt>
      <trkpt lat="45.1522" lon="5.27896">
        <ele>303.6</ele>
        <time>2020-05-26T16:41:23Z</time>
      </trkpt>
      <trkpt lat="45.1522" lon="5.27892">
        <ele>303.9</ele>
        <time>2020-05-26T16:41:24Z</time>
      </trkpt>
      <trkpt lat="45.1522" lon="5.27888">
        <ele>304.2</ele>
        <time>2020-05-26T16:41:25Z</time>
      </trkpt>
      <trkpt lat="45.15219" lon="5.27882">
        <ele>304.7</ele>
        <time>2020-05-26T16:41:26Z</time>
      </trkpt>
      <trkpt lat="45.15219" lon="5.2788">
        <ele>304.9</ele>
        <time>2020-05-26T16:41:27Z</time>
      </trkpt>
      <trkpt lat="45.15219" lon="5.27875">
        <ele>305.3</ele>
        <time>2020-05-26T16:41:28Z</time>
      </trkpt>
      <trkpt lat="45.15219" lon="5.27874">
        <ele>305.4</ele>
        <time>2020-05-26T16:41:29Z</time>
      </trkpt>
      <trkpt lat="45.15218" lon="5.27868">
        <ele>305.9</ele>
        <time>2020-05-26T16:41:30Z</time>
      </trkpt>
      <trkpt lat="45.15218" lon="5.27867">
        <ele>306</ele>
        <time>2020-05-26T16:41:31Z</time>
      </trkpt>
      <trkpt lat="45.15218" lon="5.27861">
        <ele>306.5</ele>
        <time>2020-05-26T16:41:32Z</time>
      </trkpt>
      <trkpt lat="45.15218" lon="5.27859">
        <ele>306.7</ele>
        <time>2020-05-26T16:41:33Z</time>
      </trkpt>
      <trkpt lat="45.15218" lon="5.27853">
        <ele>307.2</ele>
        <time>2020-05-26T16:41:34Z</time>
      </trkpt>
      <trkpt lat="45.15218" lon="5.27851">
        <ele>307.4</ele>
        <time>2020-05-26T16:41:35Z</time>
      </trkpt>
      <trkpt lat="45.15217" lon="5.27847">
        <ele>307.8</ele>
        <time>2020-05-26T16:41:36Z</time>
      </trkpt>
      <trkpt lat="45.15217" lon="5.27843">
        <ele>308.2</ele>
        <time>2020-05-26T16:41:37Z</time>
      </trkpt>
      <trkpt lat="45.15216" lon="5.27839">
        <ele>308.7</ele>
        <time>2020-05-26T16:41:38Z</time>
      </trkpt>
      <trkpt lat="45.15215" lon="5.27833">
        <ele>309.2</ele>
        <time>2020-05-26T16:41:39Z</time>
      </trkpt>
      <trkpt lat="45.15215" lon="5.27832">
        <ele>309.4</ele>
        <time>2020-05-26T16:41:40Z</time>
      </trkpt>
      <trkpt lat="45.15214" lon="5.27826">
        <ele>309.9</ele>
        <time>2020-05-26T16:41:41Z</time>
      </trkpt>
      <trkpt lat="45.15214" lon="5.27825">
        <ele>310.1</ele>
        <time>2020-05-26T16:41:42Z</time>
      </trkpt>
      <trkpt lat="45.15213" lon="5.27821">
        <ele>310.4</ele>
        <time>2020-05-26T16:41:43Z</time>
      </trkpt>
      <trkpt lat="45.15212" lon="5.27817">
        <ele>310.8</ele>
        <time>2020-05-26T16:41:44Z</time>
      </trkpt>
      <trkpt lat="45.15212" lon="5.27812">
        <ele>311.3</ele>
        <time>2020-05-26T16:41:45Z</time>
      </trkpt>
      <trkpt lat="45.15212" lon="5.27809">
        <ele>311.5</ele>
        <time>2020-05-26T16:41:46Z</time>
      </trkpt>
      <trkpt lat="45.15214" lon="5.27804">
        <ele>312.1</ele>
        <time>2020-05-26T16:41:47Z</time>
      </trkpt>
      <trkpt lat="45.15214" lon="5.27803">
        <ele>312.3</ele>
        <time>2020-05-26T16:41:48Z</time>
      </trkpt>
      <trkpt lat="45.15217" lon="5.27799">
        <ele>312.8</ele>
        <time>2020-05-26T16:41:49Z</time>
      </trkpt>
      <trkpt lat="45.1522" lon="5.27796">
        <ele>313.3</ele>
        <time>2020-05-26T16:41:50Z</time>
      </trkpt>
      <trkpt lat="45.15221" lon="5.27795">
        <ele>313.5</ele>
        <time>2020-05-26T16:41:51Z</time>
      </trkpt>
      <trkpt lat="45.15224" lon="5.27794">
        <ele>313.9</ele>
        <time>2020-05-26T16:41:52Z</time>
      </trkpt>
      <trkpt lat="45.15227" lon="5.27793">
        <ele>314.3</ele>
        <time>2020-05-26T16:41:53Z</time>
      </trkpt>
      <trkpt lat="45.1523" lon="5.27792">
        <ele>314.8</ele>
        <time>2020-05-26T16:41:54Z</time>
      </trkpt>
      <trkpt lat="45.15233" lon="5.2779">
        <ele>315.2</ele>
        <time>2020-05-26T16:41:55Z</time>
      </trkpt>
      <trkpt lat="45.15235" lon="5.27789">
        <ele>315.7</ele>
        <time>2020-05-26T16:41:56Z</time>
      </trkpt>
      <trkpt lat="45.15239" lon="5.27789">
        <ele>316.2</ele>
        <time>2020-05-26T16:41:57Z</time>
      </trkpt>
      <trkpt lat="45.1524" lon="5.27789">
        <ele>316.4</ele>
        <time>2020-05-26T16:41:58Z</time>
      </trkpt>
      <trkpt lat="45.15244" lon="5.27789">
        <ele>317</ele>
        <time>2020-05-26T16:41:59Z</time>
      </trkpt>
      <trkpt lat="45.15245" lon="5.27789">
        <ele>317.2</ele>
        <time>2020-05-26T16:42:00Z</time>
      </trkpt>
      <trkpt lat="45.15249" lon="5.2779">
        <ele>317.8</ele>
        <time>2020-05-26T16:42:01Z</time>
      </trkpt>
      <trkpt lat="45.1525" lon="5.2779">
        <ele>318</ele>
        <time>2020-05-26T16:42:02Z</time>
      </trkpt>
      <trkpt lat="45.15254" lon="5.27791">
        <ele>318.6</ele>
        <time>2020-05-26T16:42:03Z</time>
      </trkpt>
      <trkpt lat="45.15255" lon="5.27792">
        <ele>318.9</ele>
        <time>2020-05-26T16:42:04Z</time>
      </trkpt>
      <trkpt lat="45.15258" lon="5.27792">
        <ele>319.5</ele>
        <time>2020-05-26T16:42:05Z</time>
      </trkpt>
      <trkpt lat="45.1526" lon="5.27792">
        <ele>319.8</ele>
        <time>2020-05-26T16:42:06Z</time>
      </trkpt>
      <trkpt lat="45.15263" lon="5.27793">
        <ele>320.4</ele>
        <time>2020-05-26T16:42:07Z</time>
      </trkpt>
      <trkpt lat="45.15266" lon="5.27793">
        <ele>321.1</ele>
        <time>2020-05-26T16:42:08Z</time>
      </trkpt>
      <trkpt lat="45.15267" lon="5.27793">
        <ele>321.4</ele>
        <time>2020-05-26T16:42:09Z</time>
      </trkpt>
      <trkpt lat="45.1527" lon="5.27794">
        <ele>322</ele>
        <time>2020-05-26T16:42:10Z</time>
      </trkpt>
      <trkpt lat="45.15271" lon="5.27795">
        <ele>322.2</ele>
        <time>2020-05-26T16:42:11Z</time>
      </trkpt>
      <trkpt lat="45.15274" lon="5.27796">
        <ele>322.9</ele>
        <time>2020-05-26T16:42:12Z</time>
      </trkpt>
      <trkpt lat="45.15275" lon="5.27797">
        <ele>323.1</ele>
        <time>2020-05-26T16:42:13Z</time>
      </trkpt>
      <trkpt lat="45.15278" lon="5.27799">
        <ele>323.8</ele>
        <time>2020-05-26T16:42:14Z</time>
      </trkpt>
      <trkpt lat="45.15279" lon="5.27799">
        <ele>324.1</ele>
        <time>2020-05-26T16:42:15Z</time>
      </trkpt>
      <trkpt lat="45.15282" lon="5.27801">
        <ele>324.6</ele>
        <time>2020-05-26T16:42:16Z</time>
      </trkpt>
      <trkpt lat="45.15283" lon="5.27801">
        <ele>324.9</ele>
        <time>2020-05-26T16:42:17Z</time>
      </trkpt>
      <trkpt lat="45.15285" lon="5.27801">
        <ele>325.3</ele>
        <time>2020-05-26T16:42:18Z</time>
      </trkpt>
      <trkpt lat="45.15286" lon="5.27801">
        <ele>325.6</ele>
        <time>2020-05-26T16:42:19Z</time>
      </trkpt>
      <trkpt lat="45.15289" lon="5.27801">
        <ele>326.2</ele>
        <time>2020-05-26T16:42:20Z</time>
      </trkpt>
      <trkpt lat="45.1529" lon="5.27802">
        <ele>326.4</ele>
        <time>2020-05-26T16:42:21Z</time>
      </trkpt>
      <trkpt lat="45.15293" lon="5.27801">
        <ele>327.1</ele>
        <time>2020-05-26T16:42:22Z</time>
      </trkpt>
      <trkpt lat="45.15294" lon="5.27801">
        <ele>327.4</ele>
        <time>2020-05-26T16:42:23Z</time>
      </trkpt>
      <trkpt lat="45.15298" lon="5.27802">
        <ele>328</ele>
        <time>2020-05-26T16:42:24Z</time>
      </trkpt>
      <trkpt lat="45.15299" lon="5.27803">
        <ele>328.2</ele>
        <time>2020-05-26T16:42:25Z</time>
      </trkpt>
      <trkpt lat="45.153" lon="5.27804">
        <ele>328.6</ele>
        <time>2020-05-26T16:42:26Z</time>
      </trkpt>
      <trkpt lat="45.15302" lon="5.27803">
        <ele>328.9</ele>
        <time>2020-05-26T16:42:27Z</time>
      </trkpt>
      <trkpt lat="45.15305" lon="5.27802">
        <ele>329.4</ele>
        <time>2020-05-26T16:42:28Z</time>
      </trkpt>
      <trkpt lat="45.15306" lon="5.27801">
        <ele>329.6</ele>
        <time>2020-05-26T16:42:29Z</time>
      </trkpt>
      <trkpt lat="45.15309" lon="5.27799">
        <ele>330.2</ele>
        <time>2020-05-26T16:42:30Z</time>
      </trkpt>
      <trkpt lat="45.15309" lon="5.27798">
        <ele>330.4</ele>
        <time>2020-05-26T16:42:31Z</time>
      </trkpt>
      <trkpt lat="45.15313" lon="5.27797">
        <ele>331</ele>
        <time>2020-05-26T16:42:32Z</time>
      </trkpt>
      <trkpt lat="45.15314" lon="5.27796">
        <ele>331.2</ele>
        <time>2020-05-26T16:42:33Z</time>
      </trkpt>
      <trkpt lat="45.15316" lon="5.27795">
        <ele>331.7</ele>
        <time>2020-05-26T16:42:34Z</time>
      </trkpt>
      <trkpt lat="45.15317" lon="5.27794">
        <ele>331.9</ele>
        <time>2020-05-26T16:42:35Z</time>
      </trkpt>
      <trkpt lat="45.15321" lon="5.27793">
        <ele>332.4</ele>
        <time>2020-05-26T16:42:36Z</time>
      </trkpt>
      <trkpt lat="45.15322" lon="5.27793">
        <ele>332.6</ele>
        <time>2020-05-26T16:42:37Z</time>
      </trkpt>
      <trkpt lat="45.15325" lon="5.27792">
        <ele>333.1</ele>
        <time>2020-05-26T16:42:38Z</time>
      </trkpt>
      <trkpt lat="45.15325" lon="5.27791">
        <ele>333.2</ele>
        <time>2020-05-26T16:42:39Z</time>
      </trkpt>
      <trkpt lat="45.15329" lon="5.2779">
        <ele>333.7</ele>
        <time>2020-05-26T16:42:40Z</time>
      </trkpt>
      <trkpt lat="45.1533" lon="5.2779">
        <ele>333.9</ele>
        <time>2020-05-26T16:42:41Z</time>
      </trkpt>
      <trkpt lat="45.15332" lon="5.27789">
        <ele>334.2</ele>
        <time>2020-05-26T16:42:42Z</time>
      </trkpt>
      <trkpt lat="45.15333" lon="5.27788">
        <ele>334.4</ele>
        <time>2020-05-26T16:42:43Z</time>
      </trkpt>
      <trkpt lat="45.15336" lon="5.27788">
        <ele>334.8</ele>
        <time>2020-05-26T16:42:44Z</time>
      </trkpt>
      <trkpt lat="45.15337" lon="5.27787">
        <ele>334.9</ele>
        <time>2020-05-26T16:42:45Z</time>
      </trkpt>
      <trkpt lat="45.15341" lon="5.27787">
        <ele>335.3</ele>
        <time>2020-05-26T16:42:46Z</time>
      </trkpt>
      <trkpt lat="45.15342" lon="5.27787">
        <ele>335.5</ele>
        <time>2020-05-26T16:42:47Z</time>
      </trkpt>
      <trkpt lat="45.15346" lon="5.27786">
        <ele>335.9</ele>
        <time>2020-05-26T16:42:48Z</time>
      </trkpt>
      <trkpt lat="45.15347" lon="5.27786">
        <ele>336</ele>
        <time>2020-05-26T16:42:49Z</time>
      </trkpt>
      <trkpt lat="45.15351" lon="5.27786">
        <ele>336.4</ele>
        <time>2020-05-26T16:42:50Z</time>
      </trkpt>
      <trkpt lat="45.15352" lon="5.27786">
        <ele>336.5</ele>
        <time>2020-05-26T16:42:51Z</time>
      </trkpt>
      <trkpt lat="45.15356" lon="5.27786">
        <ele>336.8</ele>
        <time>2020-05-26T16:42:52Z</time>
      </trkpt>
      <trkpt lat="45.15357" lon="5.27786">
        <ele>337</ele>
        <time>2020-05-26T16:42:53Z</time>
      </trkpt>
      <trkpt lat="45.15361" lon="5.27785">
        <ele>337.3</ele>
        <time>2020-05-26T16:42:54Z</time>
      </trkpt>
      <trkpt lat="45.15362" lon="5.27785">
        <ele>337.5</ele>
        <time>2020-05-26T16:42:55Z</time>
      </trkpt>
      <trkpt lat="45.15365" lon="5.27785">
        <ele>337.9</ele>
        <time>2020-05-26T16:42:56Z</time>
      </trkpt>
      <trkpt lat="45.15367" lon="5.27785">
        <ele>338</ele>
        <time>2020-05-26T16:42:57Z</time>
      </trkpt>
      <trkpt lat="45.1537" lon="5.27785">
        <ele>338.4</ele>
        <time>2020-05-26T16:42:58Z</time>
      </trkpt>
      <trkpt lat="45.15374" lon="5.27784">
        <ele>338.9</ele>
        <time>2020-05-26T16:42:59Z</time>
      </trkpt>
      <trkpt lat="45.15375" lon="5.27784">
        <ele>339.1</ele>
        <time>2020-05-26T16:43:00Z</time>
      </trkpt>
      <trkpt lat="45.15379" lon="5.27783">
        <ele>339.6</ele>
        <time>2020-05-26T16:43:01Z</time>
      </trkpt>
      <trkpt lat="45.1538" lon="5.27783">
        <ele>339.7</ele>
        <time>2020-05-26T16:43:02Z</time>
      </trkpt>
      <trkpt lat="45.15384" lon="5.27783">
        <ele>340.2</ele>
        <time>2020-05-26T16:43:03Z</time>
      </trkpt>
      <trkpt lat="45.15385" lon="5.27783">
        <ele>340.3</ele>
        <time>2020-05-26T16:43:04Z</time>
      </trkpt>
      <trkpt lat="45.15388" lon="5.27782">
        <ele>340.8</ele>
        <time>2020-05-26T16:43:05Z</time>
      </trkpt>
      <trkpt lat="45.15389" lon="5.27782">
        <ele>340.9</ele>
        <time>2020-05-26T16:43:06Z</time>
      </trkpt>
      <trkpt lat="45.15392" lon="5.27782">
        <ele>341.3</ele>
        <time>2020-05-26T16:43:07Z</time>
      </trkpt>
      <trkpt lat="45.15393" lon="5.27781">
        <ele>341.4</ele>
        <time>2020-05-26T16:43:08Z</time>
      </trkpt>
      <trkpt lat="45.15397" lon="5.2778">
        <ele>341.8</ele>
        <time>2020-05-26T16:43:09Z</time>
      </trkpt>
      <trkpt lat="45.15398" lon="5.2778">
        <ele>342</ele>
        <time>2020-05-26T16:43:10Z</time>
      </trkpt>
      <trkpt lat="45.15402" lon="5.27779">
        <ele>342.4</ele>
        <time>2020-05-26T16:43:11Z</time>
      </trkpt>
      <trkpt lat="45.15403" lon="5.27778">
        <ele>342.6</ele>
        <time>2020-05-26T16:43:12Z</time>
      </trkpt>
      <trkpt lat="45.15407" lon="5.27776">
        <ele>343</ele>
        <time>2020-05-26T16:43:13Z</time>
      </trkpt>
      <trkpt lat="45.15408" lon="5.27776">
        <ele>343.1</ele>
        <time>2020-05-26T16:43:14Z</time>
      </trkpt>
      <trkpt lat="45.15412" lon="5.27775">
        <ele>343.5</ele>
        <time>2020-05-26T16:43:15Z</time>
      </trkpt>
      <trkpt lat="45.15413" lon="5.27775">
        <ele>343.6</ele>
        <time>2020-05-26T16:43:16Z</time>
      </trkpt>
      <trkpt lat="45.15416" lon="5.27774">
        <ele>343.9</ele>
        <time>2020-05-26T16:43:17Z</time>
      </trkpt>
      <trkpt lat="45.15417" lon="5.27773">
        <ele>343.9</ele>
        <time>2020-05-26T16:43:18Z</time>
      </trkpt>
      <trkpt lat="45.15421" lon="5.27772">
        <ele>344.2</ele>
        <time>2020-05-26T16:43:19Z</time>
      </trkpt>
      <trkpt lat="45.15422" lon="5.27771">
        <ele>344.3</ele>
        <time>2020-05-26T16:43:20Z</time>
      </trkpt>
      <trkpt lat="45.15425" lon="5.27769">
        <ele>344.6</ele>
        <time>2020-05-26T16:43:21Z</time>
      </trkpt>
      <trkpt lat="45.15426" lon="5.27768">
        <ele>344.7</ele>
        <time>2020-05-26T16:43:22Z</time>
      </trkpt>
      <trkpt lat="45.15429" lon="5.27764">
        <ele>345.1</ele>
        <time>2020-05-26T16:43:23Z</time>
      </trkpt>
      <trkpt lat="45.1543" lon="5.27763">
        <ele>345.2</ele>
        <time>2020-05-26T16:43:24Z</time>
      </trkpt>
      <trkpt lat="45.15433" lon="5.27759">
        <ele>345.6</ele>
        <time>2020-05-26T16:43:25Z</time>
      </trkpt>
      <trkpt lat="45.15434" lon="5.27758">
        <ele>345.7</ele>
        <time>2020-05-26T16:43:26Z</time>
      </trkpt>
      <trkpt lat="45.15436" lon="5.27754">
        <ele>346</ele>
        <time>2020-05-26T16:43:27Z</time>
      </trkpt>
      <trkpt lat="45.15436" lon="5.27753">
        <ele>346.1</ele>
        <time>2020-05-26T16:43:28Z</time>
      </trkpt>
      <trkpt lat="45.15439" lon="5.27749">
        <ele>346.4</ele>
        <time>2020-05-26T16:43:29Z</time>
      </trkpt>
      <trkpt lat="45.15439" lon="5.27747">
        <ele>346.5</ele>
        <time>2020-05-26T16:43:30Z</time>
      </trkpt>
      <trkpt lat="45.15441" lon="5.27743">
        <ele>346.8</ele>
        <time>2020-05-26T16:43:31Z</time>
      </trkpt>
      <trkpt lat="45.15441" lon="5.27742">
        <ele>346.9</ele>
        <time>2020-05-26T16:43:32Z</time>
      </trkpt>
      <trkpt lat="45.15443" lon="5.27737">
        <ele>347.2</ele>
        <time>2020-05-26T16:43:33Z</time>
      </trkpt>
      <trkpt lat="45.15443" lon="5.27735">
        <ele>347.4</ele>
        <time>2020-05-26T16:43:34Z</time>
      </trkpt>
      <trkpt lat="45.15444" lon="5.2773">
        <ele>347.7</ele>
        <time>2020-05-26T16:43:35Z</time>
      </trkpt>
      <trkpt lat="45.15444" lon="5.27729">
        <ele>347.9</ele>
        <time>2020-05-26T16:43:36Z</time>
      </trkpt>
      <trkpt lat="45.15444" lon="5.27725">
        <ele>348.2</ele>
        <time>2020-05-26T16:43:37Z</time>
      </trkpt>
      <trkpt lat="45.15444" lon="5.2772">
        <ele>348.6</ele>
        <time>2020-05-26T16:43:38Z</time>
      </trkpt>
      <trkpt lat="45.15444" lon="5.27718">
        <ele>348.8</ele>
        <time>2020-05-26T16:43:39Z</time>
      </trkpt>
      <trkpt lat="45.15445" lon="5.27715">
        <ele>349.1</ele>
        <time>2020-05-26T16:43:40Z</time>
      </trkpt>
      <trkpt lat="45.15446" lon="5.27709">
        <ele>349.7</ele>
        <time>2020-05-26T16:43:41Z</time>
      </trkpt>
      <trkpt lat="45.15446" lon="5.27707">
        <ele>349.9</ele>
        <time>2020-05-26T16:43:42Z</time>
      </trkpt>
      <trkpt lat="45.15447" lon="5.27703">
        <ele>350.4</ele>
        <time>2020-05-26T16:43:43Z</time>
      </trkpt>
      <trkpt lat="45.15447" lon="5.277">
        <ele>350.8</ele>
        <time>2020-05-26T16:43:44Z</time>
      </trkpt>
      <trkpt lat="45.15448" lon="5.27696">
        <ele>351.3</ele>
        <time>2020-05-26T16:43:45Z</time>
      </trkpt>
      <trkpt lat="45.15448" lon="5.27691">
        <ele>351.9</ele>
        <time>2020-05-26T16:43:46Z</time>
      </trkpt>
      <trkpt lat="45.15448" lon="5.27689">
        <ele>352.1</ele>
        <time>2020-05-26T16:43:47Z</time>
      </trkpt>
      <trkpt lat="45.15447" lon="5.27684">
        <ele>352.8</ele>
        <time>2020-05-26T16:43:48Z</time>
      </trkpt>
      <trkpt lat="45.15448" lon="5.27682">
        <ele>353</ele>
        <time>2020-05-26T16:43:49Z</time>
      </trkpt>
      <trkpt lat="45.15448" lon="5.27677">
        <ele>353.7</ele>
        <time>2020-05-26T16:43:50Z</time>
      </trkpt>
      <trkpt lat="45.15447" lon="5.27675">
        <ele>353.9</ele>
        <time>2020-05-26T16:43:51Z</time>
      </trkpt>
      <trkpt lat="45.15447" lon="5.27671">
        <ele>354.6</ele>
        <time>2020-05-26T16:43:52Z</time>
      </trkpt>
      <trkpt lat="45.15447" lon="5.2767">
        <ele>354.8</ele>
        <time>2020-05-26T16:43:53Z</time>
      </trkpt>
      <trkpt lat="45.15447" lon="5.27667">
        <ele>355.2</ele>
        <time>2020-05-26T16:43:54Z</time>
      </trkpt>
      <trkpt lat="45.15447" lon="5.27665">
        <ele>355.6</ele>
        <time>2020-05-26T16:43:55Z</time>
      </trkpt>
      <trkpt lat="45.15448" lon="5.2766">
        <ele>356.3</ele>
        <time>2020-05-26T16:43:56Z</time>
      </trkpt>
      <trkpt lat="45.15448" lon="5.27659">
        <ele>356.5</ele>
        <time>2020-05-26T16:43:57Z</time>
      </trkpt>
      <trkpt lat="45.15451" lon="5.27656">
        <ele>357.3</ele>
        <time>2020-05-26T16:43:58Z</time>
      </trkpt>
      <trkpt lat="45.15452" lon="5.27655">
        <ele>357.5</ele>
        <time>2020-05-26T16:43:59Z</time>
      </trkpt>
      <trkpt lat="45.15456" lon="5.27654">
        <ele>358.3</ele>
        <time>2020-05-26T16:44:00Z</time>
      </trkpt>
      <trkpt lat="45.15457" lon="5.27653">
        <ele>358.6</ele>
        <time>2020-05-26T16:44:01Z</time>
      </trkpt>
      <trkpt lat="45.15461" lon="5.27653">
        <ele>359.4</ele>
        <time>2020-05-26T16:44:02Z</time>
      </trkpt>
      <trkpt lat="45.15462" lon="5.27653">
        <ele>359.6</ele>
        <time>2020-05-26T16:44:03Z</time>
      </trkpt>
      <trkpt lat="45.15464" lon="5.27652">
        <ele>360.1</ele>
        <time>2020-05-26T16:44:04Z</time>
      </trkpt>
      <trkpt lat="45.15465" lon="5.27651">
        <ele>360.4</ele>
        <time>2020-05-26T16:44:05Z</time>
      </trkpt>
      <trkpt lat="45.15468" lon="5.2765">
        <ele>361.1</ele>
        <time>2020-05-26T16:44:06Z</time>
      </trkpt>
      <trkpt lat="45.15469" lon="5.27649">
        <ele>361.3</ele>
        <time>2020-05-26T16:44:07Z</time>
      </trkpt>
      <trkpt lat="45.15472" lon="5.27647">
        <ele>362.1</ele>
        <time>2020-05-26T16:44:08Z</time>
      </trkpt>
      <trkpt lat="45.15473" lon="5.27646">
        <ele>362.3</ele>
        <time>2020-05-26T16:44:09Z</time>
      </trkpt>
      <trkpt lat="45.15476" lon="5.27644">
        <ele>362.9</ele>
        <time>2020-05-26T16:44:10Z</time>
      </trkpt>
      <trkpt lat="45.15477" lon="5.27643">
        <ele>363.1</ele>
        <time>2020-05-26T16:44:11Z</time>
      </trkpt>
      <trkpt lat="45.1548" lon="5.27642">
        <ele>363.6</ele>
        <time>2020-05-26T16:44:12Z</time>
      </trkpt>
      <trkpt lat="45.15481" lon="5.27641">
        <ele>363.8</ele>
        <time>2020-05-26T16:44:13Z</time>
      </trkpt>
      <trkpt lat="45.15484" lon="5.2764">
        <ele>364.4</ele>
        <time>2020-05-26T16:44:14Z</time>
      </trkpt>
      <trkpt lat="45.15485" lon="5.27639">
        <ele>364.6</ele>
        <time>2020-05-26T16:44:15Z</time>
      </trkpt>
      <trkpt lat="45.15488" lon="5.27637">
        <ele>365.1</ele>
        <time>2020-05-26T16:44:16Z</time>
      </trkpt>
      <trkpt lat="45.15489" lon="5.27637">
        <ele>365.3</ele>
        <time>2020-05-26T16:44:17Z</time>
      </trkpt>
      <trkpt lat="45.15492" lon="5.27634">
        <ele>365.9</ele>
        <time>2020-05-26T16:44:18Z</time>
      </trkpt>
      <trkpt lat="45.15493" lon="5.27633">
        <ele>366.1</ele>
        <time>2020-05-26T16:44:19Z</time>
      </trkpt>
      <trkpt lat="45.15496" lon="5.2763">
        <ele>366.6</ele>
        <time>2020-05-26T16:44:20Z</time>
      </trkpt>
      <trkpt lat="45.15497" lon="5.27629">
        <ele>366.8</ele>
        <time>2020-05-26T16:44:21Z</time>
      </trkpt>
      <trkpt lat="45.155" lon="5.27627">
        <ele>367.2</ele>
        <time>2020-05-26T16:44:22Z</time>
      </trkpt>
      <trkpt lat="45.15501" lon="5.27627">
        <ele>367.4</ele>
        <time>2020-05-26T16:44:23Z</time>
      </trkpt>
      <trkpt lat="45.15504" lon="5.27625">
        <ele>367.8</ele>
        <time>2020-05-26T16:44:24Z</time>
      </trkpt>
      <trkpt lat="45.15505" lon="5.27624">
        <ele>367.9</ele>
        <time>2020-05-26T16:44:25Z</time>
      </trkpt>
      <trkpt lat="45.15508" lon="5.27622">
        <ele>368.3</ele>
        <time>2020-05-26T16:44:26Z</time>
      </trkpt>
      <trkpt lat="45.15509" lon="5.27622">
        <ele>368.4</ele>
        <time>2020-05-26T16:44:27Z</time>
      </trkpt>
      <trkpt lat="45.15512" lon="5.2762">
        <ele>368.8</ele>
        <time>2020-05-26T16:44:28Z</time>
      </trkpt>
      <trkpt lat="45.15513" lon="5.2762">
        <ele>368.9</ele>
        <time>2020-05-26T16:44:29Z</time>
      </trkpt>
      <trkpt lat="45.15515" lon="5.27617">
        <ele>369.3</ele>
        <time>2020-05-26T16:44:30Z</time>
      </trkpt>
      <trkpt lat="45.15516" lon="5.27617">
        <ele>369.4</ele>
        <time>2020-05-26T16:44:31Z</time>
      </trkpt>
      <trkpt lat="45.15519" lon="5.27614">
        <ele>369.7</ele>
        <time>2020-05-26T16:44:32Z</time>
      </trkpt>
      <trkpt lat="45.1552" lon="5.27613">
        <ele>369.9</ele>
        <time>2020-05-26T16:44:33Z</time>
      </trkpt>
      <trkpt lat="45.15523" lon="5.27611">
        <ele>370.3</ele>
        <time>2020-05-26T16:44:34Z</time>
      </trkpt>
      <trkpt lat="45.15524" lon="5.2761">
        <ele>370.4</ele>
        <time>2020-05-26T16:44:35Z</time>
      </trkpt>
      <trkpt lat="45.15527" lon="5.27608">
        <ele>370.8</ele>
        <time>2020-05-26T16:44:36Z</time>
      </trkpt>
      <trkpt lat="45.15528" lon="5.27607">
        <ele>371</ele>
        <time>2020-05-26T16:44:37Z</time>
      </trkpt>
      <trkpt lat="45.15531" lon="5.27605">
        <ele>371.3</ele>
        <time>2020-05-26T16:44:38Z</time>
      </trkpt>
      <trkpt lat="45.15532" lon="5.27604">
        <ele>371.5</ele>
        <time>2020-05-26T16:44:39Z</time>
      </trkpt>
      <trkpt lat="45.15535" lon="5.27602">
        <ele>371.8</ele>
        <time>2020-05-26T16:44:40Z</time>
      </trkpt>
      <trkpt lat="45.15536" lon="5.27601">
        <ele>372</ele>
        <time>2020-05-26T16:44:41Z</time>
      </trkpt>
      <trkpt lat="45.15539" lon="5.27599">
        <ele>372.4</ele>
        <time>2020-05-26T16:44:42Z</time>
      </trkpt>
      <trkpt lat="45.1554" lon="5.27598">
        <ele>372.5</ele>
        <time>2020-05-26T16:44:43Z</time>
      </trkpt>
      <trkpt lat="45.15542" lon="5.27597">
        <ele>372.8</ele>
        <time>2020-05-26T16:44:44Z</time>
      </trkpt>
      <trkpt lat="45.15543" lon="5.27596">
        <ele>372.9</ele>
        <time>2020-05-26T16:44:45Z</time>
      </trkpt>
      <trkpt lat="45.15546" lon="5.27594">
        <ele>373.3</ele>
        <time>2020-05-26T16:44:46Z</time>
      </trkpt>
      <trkpt lat="45.15547" lon="5.27593">
        <ele>373.5</ele>
        <time>2020-05-26T16:44:47Z</time>
      </trkpt>
      <trkpt lat="45.1555" lon="5.2759">
        <ele>374</ele>
        <time>2020-05-26T16:44:48Z</time>
      </trkpt>
      <trkpt lat="45.15551" lon="5.27589">
        <ele>374.2</ele>
        <time>2020-05-26T16:44:49Z</time>
      </trkpt>
      <trkpt lat="45.15553" lon="5.27587">
        <ele>374.6</ele>
        <time>2020-05-26T16:44:50Z</time>
      </trkpt>
      <trkpt lat="45.15555" lon="5.27585">
        <ele>375.2</ele>
        <time>2020-05-26T16:44:51Z</time>
      </trkpt>
      <trkpt lat="45.15556" lon="5.27584">
        <ele>375.3</ele>
        <time>2020-05-26T16:44:52Z</time>
      </trkpt>
      <trkpt lat="45.15559" lon="5.27582">
        <ele>375.9</ele>
        <time>2020-05-26T16:44:53Z</time>
      </trkpt>
      <trkpt lat="45.1556" lon="5.27581">
        <ele>376.1</ele>
        <time>2020-05-26T16:44:54Z</time>
      </trkpt>
      <trkpt lat="45.15563" lon="5.27578">
        <ele>376.8</ele>
        <time>2020-05-26T16:44:55Z</time>
      </trkpt>
      <trkpt lat="45.15564" lon="5.27577">
        <ele>377</ele>
        <time>2020-05-26T16:44:56Z</time>
      </trkpt>
      <trkpt lat="45.15566" lon="5.27575">
        <ele>377.5</ele>
        <time>2020-05-26T16:44:57Z</time>
      </trkpt>
      <trkpt lat="45.15567" lon="5.27574">
        <ele>377.7</ele>
        <time>2020-05-26T16:44:58Z</time>
      </trkpt>
      <trkpt lat="45.1557" lon="5.27571">
        <ele>378.5</ele>
        <time>2020-05-26T16:44:59Z</time>
      </trkpt>
      <trkpt lat="45.15571" lon="5.2757">
        <ele>378.7</ele>
        <time>2020-05-26T16:45:00Z</time>
      </trkpt>
      <trkpt lat="45.15574" lon="5.27568">
        <ele>379.4</ele>
        <time>2020-05-26T16:45:01Z</time>
      </trkpt>
      <trkpt lat="45.15575" lon="5.27567">
        <ele>379.7</ele>
        <time>2020-05-26T16:45:02Z</time>
      </trkpt>
      <trkpt lat="45.15578" lon="5.27565">
        <ele>380.3</ele>
        <time>2020-05-26T16:45:03Z</time>
      </trkpt>
      <trkpt lat="45.15579" lon="5.27564">
        <ele>380.6</ele>
        <time>2020-05-26T16:45:04Z</time>
      </trkpt>
      <trkpt lat="45.15581" lon="5.27562">
        <ele>381.1</ele>
        <time>2020-05-26T16:45:05Z</time>
      </trkpt>
      <trkpt lat="45.15582" lon="5.27561">
        <ele>381.4</ele>
        <time>2020-05-26T16:45:06Z</time>
      </trkpt>
      <trkpt lat="45.15585" lon="5.27559">
        <ele>382.1</ele>
        <time>2020-05-26T16:45:07Z</time>
      </trkpt>
      <trkpt lat="45.15586" lon="5.27558">
        <ele>382.3</ele>
        <time>2020-05-26T16:45:08Z</time>
      </trkpt>
      <trkpt lat="45.15588" lon="5.27555">
        <ele>383</ele>
        <time>2020-05-26T16:45:09Z</time>
      </trkpt>
      <trkpt lat="45.15589" lon="5.27554">
        <ele>383.2</ele>
        <time>2020-05-26T16:45:10Z</time>
      </trkpt>
      <trkpt lat="45.15592" lon="5.2755">
        <ele>383.8</ele>
        <time>2020-05-26T16:45:11Z</time>
      </trkpt>
      <trkpt lat="45.15593" lon="5.27549">
        <ele>384</ele>
        <time>2020-05-26T16:45:12Z</time>
      </trkpt>
      <trkpt lat="45.15595" lon="5.27547">
        <ele>384.5</ele>
        <time>2020-05-26T16:45:13Z</time>
      </trkpt>
      <trkpt lat="45.15596" lon="5.27546">
        <ele>384.6</ele>
        <time>2020-05-26T16:45:14Z</time>
      </trkpt>
      <trkpt lat="45.15598" lon="5.27543">
        <ele>385.1</ele>
        <time>2020-05-26T16:45:15Z</time>
      </trkpt>
      <trkpt lat="45.15599" lon="5.27542">
        <ele>385.2</ele>
        <time>2020-05-26T16:45:16Z</time>
      </trkpt>
      <trkpt lat="45.156" lon="5.27541">
        <ele>385.3</ele>
        <time>2020-05-26T16:45:17Z</time>
      </trkpt>
      <trkpt lat="45.15601" lon="5.27539">
        <ele>385.5</ele>
        <time>2020-05-26T16:45:18Z</time>
      </trkpt>
      <trkpt lat="45.15603" lon="5.27538">
        <ele>385.7</ele>
        <time>2020-05-26T16:45:19Z</time>
      </trkpt>
      <trkpt lat="45.15605" lon="5.27537">
        <ele>385.8</ele>
        <time>2020-05-26T16:45:20Z</time>
      </trkpt>
      <trkpt lat="45.15607" lon="5.27534">
        <ele>386.1</ele>
        <time>2020-05-26T16:45:21Z</time>
      </trkpt>
      <trkpt lat="45.15608" lon="5.27533">
        <ele>386.2</ele>
        <time>2020-05-26T16:45:22Z</time>
      </trkpt>
      <trkpt lat="45.15611" lon="5.27531">
        <ele>386.4</ele>
        <time>2020-05-26T16:45:23Z</time>
      </trkpt>
      <trkpt lat="45.15612" lon="5.2753">
        <ele>386.4</ele>
        <time>2020-05-26T16:45:24Z</time>
      </trkpt>
      <trkpt lat="45.15615" lon="5.27528">
        <ele>386.7</ele>
        <time>2020-05-26T16:45:25Z</time>
      </trkpt>
      <trkpt lat="45.15616" lon="5.27527">
        <ele>386.7</ele>
        <time>2020-05-26T16:45:26Z</time>
      </trkpt>
      <trkpt lat="45.15619" lon="5.27524">
        <ele>386.9</ele>
        <time>2020-05-26T16:45:27Z</time>
      </trkpt>
      <trkpt lat="45.1562" lon="5.27523">
        <ele>386.9</ele>
        <time>2020-05-26T16:45:28Z</time>
      </trkpt>
      <trkpt lat="45.15622" lon="5.27521">
        <ele>387.1</ele>
        <time>2020-05-26T16:45:29Z</time>
      </trkpt>
      <trkpt lat="45.15623" lon="5.27521">
        <ele>387.1</ele>
        <time>2020-05-26T16:45:30Z</time>
      </trkpt>
      <trkpt lat="45.15627" lon="5.27519">
        <ele>387.3</ele>
        <time>2020-05-26T16:45:31Z</time>
      </trkpt>
      <trkpt lat="45.15628" lon="5.27518">
        <ele>387.3</ele>
        <time>2020-05-26T16:45:32Z</time>
      </trkpt>
      <trkpt lat="45.15631" lon="5.27516">
        <ele>387.5</ele>
        <time>2020-05-26T16:45:33Z</time>
      </trkpt>
      <trkpt lat="45.15632" lon="5.27515">
        <ele>387.5</ele>
        <time>2020-05-26T16:45:34Z</time>
      </trkpt>
      <trkpt lat="45.15635" lon="5.27513">
        <ele>387.7</ele>
        <time>2020-05-26T16:45:35Z</time>
      </trkpt>
      <trkpt lat="45.15636" lon="5.27512">
        <ele>387.8</ele>
        <time>2020-05-26T16:45:36Z</time>
      </trkpt>
      <trkpt lat="45.15638" lon="5.27511">
        <ele>387.9</ele>
        <time>2020-05-26T16:45:37Z</time>
      </trkpt>
      <trkpt lat="45.15639" lon="5.27511">
        <ele>388</ele>
        <time>2020-05-26T16:45:38Z</time>
      </trkpt>
      <trkpt lat="45.15642" lon="5.27508">
        <ele>388.1</ele>
        <time>2020-05-26T16:45:39Z</time>
      </trkpt>
      <trkpt lat="45.15643" lon="5.27507">
        <ele>388.2</ele>
        <time>2020-05-26T16:45:40Z</time>
      </trkpt>
      <trkpt lat="45.15646" lon="5.27504">
        <ele>388.4</ele>
        <time>2020-05-26T16:45:41Z</time>
      </trkpt>
      <trkpt lat="45.15647" lon="5.27503">
        <ele>388.5</ele>
        <time>2020-05-26T16:45:42Z</time>
      </trkpt>
      <trkpt lat="45.1565" lon="5.275">
        <ele>388.7</ele>
        <time>2020-05-26T16:45:43Z</time>
      </trkpt>
      <trkpt lat="45.15651" lon="5.27499">
        <ele>388.8</ele>
        <time>2020-05-26T16:45:44Z</time>
      </trkpt>
      <trkpt lat="45.15654" lon="5.27495">
        <ele>389.1</ele>
        <time>2020-05-26T16:45:45Z</time>
      </trkpt>
      <trkpt lat="45.15654" lon="5.27493">
        <ele>389.1</ele>
        <time>2020-05-26T16:45:46Z</time>
      </trkpt>
      <trkpt lat="45.15656" lon="5.2749">
        <ele>389.3</ele>
        <time>2020-05-26T16:45:47Z</time>
      </trkpt>
      <trkpt lat="45.15658" lon="5.27487">
        <ele>389.6</ele>
        <time>2020-05-26T16:45:48Z</time>
      </trkpt>
      <trkpt lat="45.15659" lon="5.27487">
        <ele>389.6</ele>
        <time>2020-05-26T16:45:49Z</time>
      </trkpt>
      <trkpt lat="45.15663" lon="5.27486">
        <ele>389.9</ele>
        <time>2020-05-26T16:45:50Z</time>
      </trkpt>
      <trkpt lat="45.15664" lon="5.27486">
        <ele>390</ele>
        <time>2020-05-26T16:45:51Z</time>
      </trkpt>
      <trkpt lat="45.15667" lon="5.27485">
        <ele>390.4</ele>
        <time>2020-05-26T16:45:52Z</time>
      </trkpt>
      <trkpt lat="45.15668" lon="5.27485">
        <ele>390.5</ele>
        <time>2020-05-26T16:45:53Z</time>
      </trkpt>
      <trkpt lat="45.15672" lon="5.27485">
        <ele>391</ele>
        <time>2020-05-26T16:45:54Z</time>
      </trkpt>
      <trkpt lat="45.15673" lon="5.27486">
        <ele>391</ele>
        <time>2020-05-26T16:45:55Z</time>
      </trkpt>
      <trkpt lat="45.15676" lon="5.27486">
        <ele>391.1</ele>
        <time>2020-05-26T16:45:56Z</time>
      </trkpt>
      <trkpt lat="45.15677" lon="5.27487">
        <ele>391.1</ele>
        <time>2020-05-26T16:45:57Z</time>
      </trkpt>
      <trkpt lat="45.15681" lon="5.27487">
        <ele>391.1</ele>
        <time>2020-05-26T16:45:58Z</time>
      </trkpt>
      <trkpt lat="45.15682" lon="5.27487">
        <ele>391.1</ele>
        <time>2020-05-26T16:45:59Z</time>
      </trkpt>
      <trkpt lat="45.15685" lon="5.27488">
        <ele>391.1</ele>
        <time>2020-05-26T16:46:00Z</time>
      </trkpt>
      <trkpt lat="45.15686" lon="5.27488">
        <ele>391.2</ele>
        <time>2020-05-26T16:46:01Z</time>
      </trkpt>
      <trkpt lat="45.1569" lon="5.27489">
        <ele>391.7</ele>
        <time>2020-05-26T16:46:02Z</time>
      </trkpt>
      <trkpt lat="45.15691" lon="5.2749">
        <ele>391.8</ele>
        <time>2020-05-26T16:46:03Z</time>
      </trkpt>
      <trkpt lat="45.15694" lon="5.27491">
        <ele>392.1</ele>
        <time>2020-05-26T16:46:04Z</time>
      </trkpt>
      <trkpt lat="45.15695" lon="5.27491">
        <ele>392.2</ele>
        <time>2020-05-26T16:46:05Z</time>
      </trkpt>
      <trkpt lat="45.15698" lon="5.27491">
        <ele>392.5</ele>
        <time>2020-05-26T16:46:06Z</time>
      </trkpt>
      <trkpt lat="45.15699" lon="5.27491">
        <ele>392.7</ele>
        <time>2020-05-26T16:46:07Z</time>
      </trkpt>
      <trkpt lat="45.15703" lon="5.27491">
        <ele>393</ele>
        <time>2020-05-26T16:46:08Z</time>
      </trkpt>
      <trkpt lat="45.15704" lon="5.2749">
        <ele>393.1</ele>
        <time>2020-05-26T16:46:09Z</time>
      </trkpt>
      <trkpt lat="45.15706" lon="5.27489">
        <ele>393.5</ele>
        <time>2020-05-26T16:46:10Z</time>
      </trkpt>
      <trkpt lat="45.15708" lon="5.27488">
        <ele>393.6</ele>
        <time>2020-05-26T16:46:11Z</time>
      </trkpt>
      <trkpt lat="45.1571" lon="5.27488">
        <ele>393.9</ele>
        <time>2020-05-26T16:46:12Z</time>
      </trkpt>
      <trkpt lat="45.15711" lon="5.27489">
        <ele>394</ele>
        <time>2020-05-26T16:46:13Z</time>
      </trkpt>
      <trkpt lat="45.15715" lon="5.27489">
        <ele>394.5</ele>
        <time>2020-05-26T16:46:14Z</time>
      </trkpt>
      <trkpt lat="45.15716" lon="5.27488">
        <ele>394.6</ele>
        <time>2020-05-26T16:46:15Z</time>
      </trkpt>
      <trkpt lat="45.15719" lon="5.27488">
        <ele>395</ele>
        <time>2020-05-26T16:46:16Z</time>
      </trkpt>
      <trkpt lat="45.1572" lon="5.27487">
        <ele>395.1</ele>
        <time>2020-05-26T16:46:17Z</time>
      </trkpt>
      <trkpt lat="45.15721" lon="5.27487">
        <ele>395.3</ele>
        <time>2020-05-26T16:46:18Z</time>
      </trkpt>
      <trkpt lat="45.15723" lon="5.27487">
        <ele>395.5</ele>
        <time>2020-05-26T16:46:19Z</time>
      </trkpt>
      <trkpt lat="45.15726" lon="5.27486">
        <ele>395.9</ele>
        <time>2020-05-26T16:46:20Z</time>
      </trkpt>
      <trkpt lat="45.15727" lon="5.27485">
        <ele>396</ele>
        <time>2020-05-26T16:46:21Z</time>
      </trkpt>
      <trkpt lat="45.15729" lon="5.27485">
        <ele>396.2</ele>
        <time>2020-05-26T16:46:22Z</time>
      </trkpt>
      <trkpt lat="45.15731" lon="5.27484">
        <ele>396.4</ele>
        <time>2020-05-26T16:46:23Z</time>
      </trkpt>
      <trkpt lat="45.15733" lon="5.27483">
        <ele>396.6</ele>
        <time>2020-05-26T16:46:24Z</time>
      </trkpt>
      <trkpt lat="45.15734" lon="5.27483">
        <ele>396.8</ele>
        <time>2020-05-26T16:46:25Z</time>
      </trkpt>
      <trkpt lat="45.15737" lon="5.27482">
        <ele>397.2</ele>
        <time>2020-05-26T16:46:26Z</time>
      </trkpt>
      <trkpt lat="45.15738" lon="5.27482">
        <ele>397.3</ele>
        <time>2020-05-26T16:46:27Z</time>
      </trkpt>
      <trkpt lat="45.1574" lon="5.27481">
        <ele>397.6</ele>
        <time>2020-05-26T16:46:28Z</time>
      </trkpt>
      <trkpt lat="45.15741" lon="5.27481">
        <ele>397.7</ele>
        <time>2020-05-26T16:46:29Z</time>
      </trkpt>
      <trkpt lat="45.15742" lon="5.27481">
        <ele>397.8</ele>
        <time>2020-05-26T16:46:30Z</time>
      </trkpt>
      <trkpt lat="45.15743" lon="5.2748">
        <ele>397.9</ele>
        <time>2020-05-26T16:46:31Z</time>
      </trkpt>
      <trkpt lat="45.15745" lon="5.2748">
        <ele>398.2</ele>
        <time>2020-05-26T16:46:32Z</time>
      </trkpt>
      <trkpt lat="45.15748" lon="5.27479">
        <ele>398.5</ele>
        <time>2020-05-26T16:46:33Z</time>
      </trkpt>
      <trkpt lat="45.15748" lon="5.27479">
        <ele>398.6</ele>
        <time>2020-05-26T16:46:34Z</time>
      </trkpt>
      <trkpt lat="45.1575" lon="5.27479">
        <ele>398.8</ele>
        <time>2020-05-26T16:46:35Z</time>
      </trkpt>
      <trkpt lat="45.15752" lon="5.27478">
        <ele>399.1</ele>
        <time>2020-05-26T16:46:36Z</time>
      </trkpt>
      <trkpt lat="45.15755" lon="5.27477">
        <ele>399.5</ele>
        <time>2020-05-26T16:46:37Z</time>
      </trkpt>
      <trkpt lat="45.15755" lon="5.27477">
        <ele>399.6</ele>
        <time>2020-05-26T16:46:38Z</time>
      </trkpt>
      <trkpt lat="45.15758" lon="5.27475">
        <ele>400</ele>
        <time>2020-05-26T16:46:39Z</time>
      </trkpt>
      <trkpt lat="45.15759" lon="5.27474">
        <ele>400.2</ele>
        <time>2020-05-26T16:46:40Z</time>
      </trkpt>
      <trkpt lat="45.15762" lon="5.27473">
        <ele>400.5</ele>
        <time>2020-05-26T16:46:41Z</time>
      </trkpt>
      <trkpt lat="45.15763" lon="5.27472">
        <ele>400.7</ele>
        <time>2020-05-26T16:46:42Z</time>
      </trkpt>
      <trkpt lat="45.15765" lon="5.27471">
        <ele>400.9</ele>
        <time>2020-05-26T16:46:43Z</time>
      </trkpt>
      <trkpt lat="45.15766" lon="5.27471">
        <ele>401.1</ele>
        <time>2020-05-26T16:46:44Z</time>
      </trkpt>
      <trkpt lat="45.15769" lon="5.2747">
        <ele>401.4</ele>
        <time>2020-05-26T16:46:45Z</time>
      </trkpt>
      <trkpt lat="45.1577" lon="5.27469">
        <ele>401.5</ele>
        <time>2020-05-26T16:46:46Z</time>
      </trkpt>
      <trkpt lat="45.15773" lon="5.27468">
        <ele>401.9</ele>
        <time>2020-05-26T16:46:47Z</time>
      </trkpt>
      <trkpt lat="45.15774" lon="5.27467">
        <ele>402</ele>
        <time>2020-05-26T16:46:48Z</time>
      </trkpt>
      <trkpt lat="45.15776" lon="5.27466">
        <ele>402.4</ele>
        <time>2020-05-26T16:46:49Z</time>
      </trkpt>
      <trkpt lat="45.15777" lon="5.27465">
        <ele>402.4</ele>
        <time>2020-05-26T16:46:50Z</time>
      </trkpt>
      <trkpt lat="45.15779" lon="5.27465">
        <ele>402.6</ele>
        <time>2020-05-26T16:46:51Z</time>
      </trkpt>
      <trkpt lat="45.1578" lon="5.27464">
        <ele>402.8</ele>
        <time>2020-05-26T16:46:52Z</time>
      </trkpt>
      <trkpt lat="45.15781" lon="5.27464">
        <ele>402.9</ele>
        <time>2020-05-26T16:46:53Z</time>
      </trkpt>
      <trkpt lat="45.15783" lon="5.27463">
        <ele>403.2</ele>
        <time>2020-05-26T16:46:54Z</time>
      </trkpt>
      <trkpt lat="45.15784" lon="5.27463">
        <ele>403.3</ele>
        <time>2020-05-26T16:46:55Z</time>
      </trkpt>
      <trkpt lat="45.15785" lon="5.27462">
        <ele>403.5</ele>
        <time>2020-05-26T16:46:56Z</time>
      </trkpt>
      <trkpt lat="45.15786" lon="5.27462">
        <ele>403.6</ele>
        <time>2020-05-26T16:46:57Z</time>
      </trkpt>
      <trkpt lat="45.15788" lon="5.27462">
        <ele>403.8</ele>
        <time>2020-05-26T16:46:58Z</time>
      </trkpt>
      <trkpt lat="45.15789" lon="5.27461">
        <ele>403.9</ele>
        <time>2020-05-26T16:46:59Z</time>
      </trkpt>
      <trkpt lat="45.15791" lon="5.2746">
        <ele>404.2</ele>
        <time>2020-05-26T16:47:00Z</time>
      </trkpt>
      <trkpt lat="45.15794" lon="5.27458">
        <ele>404.6</ele>
        <time>2020-05-26T16:47:01Z</time>
      </trkpt>
      <trkpt lat="45.15795" lon="5.27458">
        <ele>404.7</ele>
        <time>2020-05-26T16:47:02Z</time>
      </trkpt>
      <trkpt lat="45.15798" lon="5.27457">
        <ele>406.4</ele>
        <time>2020-05-26T16:47:03Z</time>
      </trkpt>
      <trkpt lat="45.15799" lon="5.27456">
        <ele>406.5</ele>
        <time>2020-05-26T16:47:04Z</time>
      </trkpt>
      <trkpt lat="45.15802" lon="5.27453">
        <ele>407</ele>
        <time>2020-05-26T16:47:05Z</time>
      </trkpt>
      <trkpt lat="45.15802" lon="5.27452">
        <ele>407.1</ele>
        <time>2020-05-26T16:47:06Z</time>
      </trkpt>
      <trkpt lat="45.15803" lon="5.27447">
        <ele>407.6</ele>
        <time>2020-05-26T16:47:07Z</time>
      </trkpt>
      <trkpt lat="45.15803" lon="5.27445">
        <ele>407.8</ele>
        <time>2020-05-26T16:47:08Z</time>
      </trkpt>
      <trkpt lat="45.15803" lon="5.27442">
        <ele>408.2</ele>
        <time>2020-05-26T16:47:09Z</time>
      </trkpt>
      <trkpt lat="45.15803" lon="5.2744">
        <ele>408.3</ele>
        <time>2020-05-26T16:47:10Z</time>
      </trkpt>
      <trkpt lat="45.15804" lon="5.27436">
        <ele>408.7</ele>
        <time>2020-05-26T16:47:11Z</time>
      </trkpt>
      <trkpt lat="45.15804" lon="5.27435">
        <ele>408.8</ele>
        <time>2020-05-26T16:47:12Z</time>
      </trkpt>
      <trkpt lat="45.15803" lon="5.27431">
        <ele>409.2</ele>
        <time>2020-05-26T16:47:13Z</time>
      </trkpt>
      <trkpt lat="45.15803" lon="5.2743">
        <ele>409.3</ele>
        <time>2020-05-26T16:47:14Z</time>
      </trkpt>
      <trkpt lat="45.15803" lon="5.27426">
        <ele>409.7</ele>
        <time>2020-05-26T16:47:15Z</time>
      </trkpt>
      <trkpt lat="45.15803" lon="5.27424">
        <ele>409.9</ele>
        <time>2020-05-26T16:47:16Z</time>
      </trkpt>
      <trkpt lat="45.15803" lon="5.27422">
        <ele>410.1</ele>
        <time>2020-05-26T16:47:17Z</time>
      </trkpt>
      <trkpt lat="45.15803" lon="5.27419">
        <ele>410.3</ele>
        <time>2020-05-26T16:47:18Z</time>
      </trkpt>
      <trkpt lat="45.15804" lon="5.27414">
        <ele>410.8</ele>
        <time>2020-05-26T16:47:19Z</time>
      </trkpt>
      <trkpt lat="45.15804" lon="5.27413">
        <ele>410.9</ele>
        <time>2020-05-26T16:47:20Z</time>
      </trkpt>
      <trkpt lat="45.15804" lon="5.2741">
        <ele>411.2</ele>
        <time>2020-05-26T16:47:21Z</time>
      </trkpt>
      <trkpt lat="45.15804" lon="5.27408">
        <ele>411.4</ele>
        <time>2020-05-26T16:47:22Z</time>
      </trkpt>
      <trkpt lat="45.15804" lon="5.27406">
        <ele>411.6</ele>
        <time>2020-05-26T16:47:23Z</time>
      </trkpt>
      <trkpt lat="45.15805" lon="5.27404">
        <ele>411.8</ele>
        <time>2020-05-26T16:47:24Z</time>
      </trkpt>
      <trkpt lat="45.15805" lon="5.274">
        <ele>412.1</ele>
        <time>2020-05-26T16:47:25Z</time>
      </trkpt>
      <trkpt lat="45.15805" lon="5.27398">
        <ele>412.2</ele>
        <time>2020-05-26T16:47:26Z</time>
      </trkpt>
      <trkpt lat="45.15805" lon="5.27394">
        <ele>412.7</ele>
        <time>2020-05-26T16:47:27Z</time>
      </trkpt>
      <trkpt lat="45.15805" lon="5.27392">
        <ele>412.8</ele>
        <time>2020-05-26T16:47:28Z</time>
      </trkpt>
      <trkpt lat="45.15806" lon="5.27387">
        <ele>413.3</ele>
        <time>2020-05-26T16:47:29Z</time>
      </trkpt>
      <trkpt lat="45.15806" lon="5.27385">
        <ele>413.4</ele>
        <time>2020-05-26T16:47:30Z</time>
      </trkpt>
      <trkpt lat="45.15807" lon="5.27382">
        <ele>413.7</ele>
        <time>2020-05-26T16:47:31Z</time>
      </trkpt>
      <trkpt lat="45.15808" lon="5.27377">
        <ele>414.2</ele>
        <time>2020-05-26T16:47:32Z</time>
      </trkpt>
      <trkpt lat="45.15808" lon="5.27375">
        <ele>414.3</ele>
        <time>2020-05-26T16:47:33Z</time>
      </trkpt>
      <trkpt lat="45.15808" lon="5.2737">
        <ele>414.7</ele>
        <time>2020-05-26T16:47:34Z</time>
      </trkpt>
      <trkpt lat="45.15808" lon="5.27368">
        <ele>414.8</ele>
        <time>2020-05-26T16:47:35Z</time>
      </trkpt>
      <trkpt lat="45.15808" lon="5.27363">
        <ele>415.1</ele>
        <time>2020-05-26T16:47:36Z</time>
      </trkpt>
      <trkpt lat="45.15808" lon="5.27362">
        <ele>415.2</ele>
        <time>2020-05-26T16:47:37Z</time>
      </trkpt>
      <trkpt lat="45.15808" lon="5.27357">
        <ele>415.5</ele>
        <time>2020-05-26T16:47:38Z</time>
      </trkpt>
      <trkpt lat="45.15807" lon="5.27355">
        <ele>415.7</ele>
        <time>2020-05-26T16:47:39Z</time>
      </trkpt>
      <trkpt lat="45.15807" lon="5.2735">
        <ele>416</ele>
        <time>2020-05-26T16:47:40Z</time>
      </trkpt>
      <trkpt lat="45.15807" lon="5.27348">
        <ele>416.1</ele>
        <time>2020-05-26T16:47:41Z</time>
      </trkpt>
      <trkpt lat="45.15808" lon="5.27343">
        <ele>416.4</ele>
        <time>2020-05-26T16:47:42Z</time>
      </trkpt>
      <trkpt lat="45.15808" lon="5.27342">
        <ele>416.5</ele>
        <time>2020-05-26T16:47:43Z</time>
      </trkpt>
      <trkpt lat="45.15809" lon="5.27338">
        <ele>416.7</ele>
        <time>2020-05-26T16:47:44Z</time>
      </trkpt>
      <trkpt lat="45.15809" lon="5.27336">
        <ele>416.8</ele>
        <time>2020-05-26T16:47:45Z</time>
      </trkpt>
      <trkpt lat="45.15809" lon="5.27332">
        <ele>417</ele>
        <time>2020-05-26T16:47:46Z</time>
      </trkpt>
      <trkpt lat="45.15809" lon="5.27331">
        <ele>417</ele>
        <time>2020-05-26T16:47:47Z</time>
      </trkpt>
      <trkpt lat="45.15809" lon="5.27327">
        <ele>417.2</ele>
        <time>2020-05-26T16:47:48Z</time>
      </trkpt>
      <trkpt lat="45.15809" lon="5.27325">
        <ele>417.3</ele>
        <time>2020-05-26T16:47:49Z</time>
      </trkpt>
      <trkpt lat="45.15808" lon="5.27321">
        <ele>417.4</ele>
        <time>2020-05-26T16:47:50Z</time>
      </trkpt>
      <trkpt lat="45.15808" lon="5.2732">
        <ele>417.4</ele>
        <time>2020-05-26T16:47:51Z</time>
      </trkpt>
      <trkpt lat="45.15807" lon="5.27315">
        <ele>417.6</ele>
        <time>2020-05-26T16:47:52Z</time>
      </trkpt>
      <trkpt lat="45.15808" lon="5.27314">
        <ele>417.6</ele>
        <time>2020-05-26T16:47:53Z</time>
      </trkpt>
      <trkpt lat="45.15809" lon="5.2731">
        <ele>417.8</ele>
        <time>2020-05-26T16:47:54Z</time>
      </trkpt>
      <trkpt lat="45.1581" lon="5.27309">
        <ele>417.8</ele>
        <time>2020-05-26T16:47:55Z</time>
      </trkpt>
      <trkpt lat="45.15814" lon="5.27306">
        <ele>417.9</ele>
        <time>2020-05-26T16:47:56Z</time>
      </trkpt>
      <trkpt lat="45.15815" lon="5.27305">
        <ele>417.9</ele>
        <time>2020-05-26T16:47:57Z</time>
      </trkpt>
      <trkpt lat="45.15817" lon="5.27304">
        <ele>418</ele>
        <time>2020-05-26T16:47:58Z</time>
      </trkpt>
      <trkpt lat="45.1582" lon="5.27303">
        <ele>418</ele>
        <time>2020-05-26T16:47:59Z</time>
      </trkpt>
      <trkpt lat="45.15823" lon="5.27302">
        <ele>418</ele>
        <time>2020-05-26T16:48:00Z</time>
      </trkpt>
      <trkpt lat="45.15824" lon="5.27302">
        <ele>418</ele>
        <time>2020-05-26T16:48:01Z</time>
      </trkpt>
      <trkpt lat="45.15828" lon="5.27301">
        <ele>418</ele>
        <time>2020-05-26T16:48:02Z</time>
      </trkpt>
      <trkpt lat="45.15829" lon="5.27301">
        <ele>418</ele>
        <time>2020-05-26T16:48:03Z</time>
      </trkpt>
      <trkpt lat="45.15832" lon="5.273">
        <ele>418</ele>
        <time>2020-05-26T16:48:04Z</time>
      </trkpt>
      <trkpt lat="45.15835" lon="5.27299">
        <ele>417.9</ele>
        <time>2020-05-26T16:48:05Z</time>
      </trkpt>
      <trkpt lat="45.15838" lon="5.27297">
        <ele>417.9</ele>
        <time>2020-05-26T16:48:06Z</time>
      </trkpt>
      <trkpt lat="45.15842" lon="5.27295">
        <ele>417.9</ele>
        <time>2020-05-26T16:48:07Z</time>
      </trkpt>
      <trkpt lat="45.15843" lon="5.27294">
        <ele>417.9</ele>
        <time>2020-05-26T16:48:08Z</time>
      </trkpt>
      <trkpt lat="45.15846" lon="5.27294">
        <ele>417.8</ele>
        <time>2020-05-26T16:48:09Z</time>
      </trkpt>
      <trkpt lat="45.1585" lon="5.27294">
        <ele>417.8</ele>
        <time>2020-05-26T16:48:10Z</time>
      </trkpt>
      <trkpt lat="45.15851" lon="5.27294">
        <ele>417.8</ele>
        <time>2020-05-26T16:48:11Z</time>
      </trkpt>
      <trkpt lat="45.15854" lon="5.27295">
        <ele>417.7</ele>
        <time>2020-05-26T16:48:12Z</time>
      </trkpt>
      <trkpt lat="45.15857" lon="5.27294">
        <ele>417.7</ele>
        <time>2020-05-26T16:48:13Z</time>
      </trkpt>
      <trkpt lat="45.1586" lon="5.27293">
        <ele>417.7</ele>
        <time>2020-05-26T16:48:14Z</time>
      </trkpt>
      <trkpt lat="45.15863" lon="5.27292">
        <ele>417.7</ele>
        <time>2020-05-26T16:48:15Z</time>
      </trkpt>
      <trkpt lat="45.15866" lon="5.2729">
        <ele>417.6</ele>
        <time>2020-05-26T16:48:16Z</time>
      </trkpt>
      <trkpt lat="45.1587" lon="5.27288">
        <ele>417.6</ele>
        <time>2020-05-26T16:48:17Z</time>
      </trkpt>
      <trkpt lat="45.15872" lon="5.27288">
        <ele>417.6</ele>
        <time>2020-05-26T16:48:18Z</time>
      </trkpt>
      <trkpt lat="45.15874" lon="5.27286">
        <ele>417.7</ele>
        <time>2020-05-26T16:48:19Z</time>
      </trkpt>
      <trkpt lat="45.15878" lon="5.27284">
        <ele>417.7</ele>
        <time>2020-05-26T16:48:20Z</time>
      </trkpt>
      <trkpt lat="45.15879" lon="5.27283">
        <ele>417.8</ele>
        <time>2020-05-26T16:48:21Z</time>
      </trkpt>
      <trkpt lat="45.15882" lon="5.27282">
        <ele>417.8</ele>
        <time>2020-05-26T16:48:22Z</time>
      </trkpt>
      <trkpt lat="45.15885" lon="5.27279">
        <ele>417.8</ele>
        <time>2020-05-26T16:48:23Z</time>
      </trkpt>
      <trkpt lat="45.15886" lon="5.27278">
        <ele>417.8</ele>
        <time>2020-05-26T16:48:24Z</time>
      </trkpt>
      <trkpt lat="45.15889" lon="5.27277">
        <ele>417.8</ele>
        <time>2020-05-26T16:48:25Z</time>
      </trkpt>
      <trkpt lat="45.15893" lon="5.27276">
        <ele>417.9</ele>
        <time>2020-05-26T16:48:26Z</time>
      </trkpt>
      <trkpt lat="45.15894" lon="5.27275">
        <ele>417.9</ele>
        <time>2020-05-26T16:48:27Z</time>
      </trkpt>
      <trkpt lat="45.15897" lon="5.27274">
        <ele>417.9</ele>
        <time>2020-05-26T16:48:28Z</time>
      </trkpt>
      <trkpt lat="45.159" lon="5.27271">
        <ele>417.9</ele>
        <time>2020-05-26T16:48:29Z</time>
      </trkpt>
      <trkpt lat="45.15901" lon="5.2727">
        <ele>417.9</ele>
        <time>2020-05-26T16:48:30Z</time>
      </trkpt>
      <trkpt lat="45.15904" lon="5.27267">
        <ele>417.9</ele>
        <time>2020-05-26T16:48:31Z</time>
      </trkpt>
      <trkpt lat="45.15906" lon="5.27265">
        <ele>417.8</ele>
        <time>2020-05-26T16:48:32Z</time>
      </trkpt>
      <trkpt lat="45.1591" lon="5.27262">
        <ele>417.8</ele>
        <time>2020-05-26T16:48:33Z</time>
      </trkpt>
      <trkpt lat="45.15911" lon="5.27261">
        <ele>417.8</ele>
        <time>2020-05-26T16:48:34Z</time>
      </trkpt>
      <trkpt lat="45.15914" lon="5.2726">
        <ele>417.8</ele>
        <time>2020-05-26T16:48:35Z</time>
      </trkpt>
      <trkpt lat="45.15917" lon="5.27257">
        <ele>417.8</ele>
        <time>2020-05-26T16:48:36Z</time>
      </trkpt>
      <trkpt lat="45.15918" lon="5.27257">
        <ele>417.8</ele>
        <time>2020-05-26T16:48:37Z</time>
      </trkpt>
      <trkpt lat="45.15921" lon="5.27255">
        <ele>417.8</ele>
        <time>2020-05-26T16:48:38Z</time>
      </trkpt>
      <trkpt lat="45.15924" lon="5.27252">
        <ele>417.8</ele>
        <time>2020-05-26T16:48:39Z</time>
      </trkpt>
      <trkpt lat="45.15926" lon="5.27251">
        <ele>417.8</ele>
        <time>2020-05-26T16:48:40Z</time>
      </trkpt>
      <trkpt lat="45.15928" lon="5.2725">
        <ele>417.8</ele>
        <time>2020-05-26T16:48:41Z</time>
      </trkpt>
      <trkpt lat="45.15932" lon="5.27249">
        <ele>417.8</ele>
        <time>2020-05-26T16:48:42Z</time>
      </trkpt>
      <trkpt lat="45.15934" lon="5.27249">
        <ele>417.8</ele>
        <time>2020-05-26T16:48:43Z</time>
      </trkpt>
      <trkpt lat="45.15937" lon="5.27248">
        <ele>417.9</ele>
        <time>2020-05-26T16:48:44Z</time>
      </trkpt>
      <trkpt lat="45.1594" lon="5.27247">
        <ele>417.9</ele>
        <time>2020-05-26T16:48:45Z</time>
      </trkpt>
      <trkpt lat="45.15944" lon="5.27246">
        <ele>417.9</ele>
        <time>2020-05-26T16:48:46Z</time>
      </trkpt>
      <trkpt lat="45.15945" lon="5.27245">
        <ele>417.9</ele>
        <time>2020-05-26T16:48:47Z</time>
      </trkpt>
      <trkpt lat="45.15949" lon="5.27244">
        <ele>418</ele>
        <time>2020-05-26T16:48:48Z</time>
      </trkpt>
      <trkpt lat="45.1595" lon="5.27244">
        <ele>418</ele>
        <time>2020-05-26T16:48:49Z</time>
      </trkpt>
      <trkpt lat="45.15953" lon="5.27243">
        <ele>418</ele>
        <time>2020-05-26T16:48:50Z</time>
      </trkpt>
      <trkpt lat="45.15956" lon="5.27242">
        <ele>418</ele>
        <time>2020-05-26T16:48:51Z</time>
      </trkpt>
      <trkpt lat="45.1596" lon="5.27241">
        <ele>418.1</ele>
        <time>2020-05-26T16:48:52Z</time>
      </trkpt>
      <trkpt lat="45.15961" lon="5.2724">
        <ele>418.1</ele>
        <time>2020-05-26T16:48:53Z</time>
      </trkpt>
      <trkpt lat="45.15964" lon="5.27239">
        <ele>418.1</ele>
        <time>2020-05-26T16:48:54Z</time>
      </trkpt>
      <trkpt lat="45.15968" lon="5.27238">
        <ele>418.2</ele>
        <time>2020-05-26T16:48:55Z</time>
      </trkpt>
      <trkpt lat="45.1597" lon="5.27238">
        <ele>418.2</ele>
        <time>2020-05-26T16:48:56Z</time>
      </trkpt>
      <trkpt lat="45.15973" lon="5.27237">
        <ele>418.2</ele>
        <time>2020-05-26T16:48:57Z</time>
      </trkpt>
      <trkpt lat="45.15976" lon="5.27237">
        <ele>418.2</ele>
        <time>2020-05-26T16:48:58Z</time>
      </trkpt>
      <trkpt lat="45.15978" lon="5.27236">
        <ele>418.3</ele>
        <time>2020-05-26T16:48:59Z</time>
      </trkpt>
      <trkpt lat="45.15981" lon="5.27236">
        <ele>418.3</ele>
        <time>2020-05-26T16:49:00Z</time>
      </trkpt>
      <trkpt lat="45.15984" lon="5.27235">
        <ele>418.3</ele>
        <time>2020-05-26T16:49:01Z</time>
      </trkpt>
      <trkpt lat="45.15988" lon="5.27235">
        <ele>418.4</ele>
        <time>2020-05-26T16:49:02Z</time>
      </trkpt>
      <trkpt lat="45.15989" lon="5.27234">
        <ele>418.4</ele>
        <time>2020-05-26T16:49:03Z</time>
      </trkpt>
      <trkpt lat="45.15992" lon="5.27234">
        <ele>418.4</ele>
        <time>2020-05-26T16:49:04Z</time>
      </trkpt>
      <trkpt lat="45.15997" lon="5.27233">
        <ele>418.5</ele>
        <time>2020-05-26T16:49:05Z</time>
      </trkpt>
      <trkpt lat="45.15998" lon="5.27233">
        <ele>418.5</ele>
        <time>2020-05-26T16:49:06Z</time>
      </trkpt>
      <trkpt lat="45.16001" lon="5.27232">
        <ele>418.5</ele>
        <time>2020-05-26T16:49:07Z</time>
      </trkpt>
      <trkpt lat="45.16005" lon="5.27231">
        <ele>418.5</ele>
        <time>2020-05-26T16:49:08Z</time>
      </trkpt>
      <trkpt lat="45.16006" lon="5.27231">
        <ele>418.5</ele>
        <time>2020-05-26T16:49:09Z</time>
      </trkpt>
      <trkpt lat="45.1601" lon="5.2723">
        <ele>418.5</ele>
        <time>2020-05-26T16:49:10Z</time>
      </trkpt>
      <trkpt lat="45.16014" lon="5.27229">
        <ele>418.4</ele>
        <time>2020-05-26T16:49:11Z</time>
      </trkpt>
      <trkpt lat="45.16015" lon="5.27229">
        <ele>418.4</ele>
        <time>2020-05-26T16:49:12Z</time>
      </trkpt>
      <trkpt lat="45.16019" lon="5.27229">
        <ele>418.4</ele>
        <time>2020-05-26T16:49:13Z</time>
      </trkpt>
      <trkpt lat="45.16022" lon="5.27229">
        <ele>418.3</ele>
        <time>2020-05-26T16:49:14Z</time>
      </trkpt>
      <trkpt lat="45.16025" lon="5.27229">
        <ele>418.3</ele>
        <time>2020-05-26T16:49:15Z</time>
      </trkpt>
      <trkpt lat="45.16028" lon="5.2723">
        <ele>418.2</ele>
        <time>2020-05-26T16:49:16Z</time>
      </trkpt>
      <trkpt lat="45.16031" lon="5.2723">
        <ele>418.2</ele>
        <time>2020-05-26T16:49:17Z</time>
      </trkpt>
      <trkpt lat="45.16034" lon="5.27231">
        <ele>418.1</ele>
        <time>2020-05-26T16:49:18Z</time>
      </trkpt>
      <trkpt lat="45.16037" lon="5.27232">
        <ele>418.1</ele>
        <time>2020-05-26T16:49:19Z</time>
      </trkpt>
      <trkpt lat="45.16038" lon="5.27232">
        <ele>418.1</ele>
        <time>2020-05-26T16:49:20Z</time>
      </trkpt>
      <trkpt lat="45.16042" lon="5.27234">
        <ele>418</ele>
        <time>2020-05-26T16:49:21Z</time>
      </trkpt>
      <trkpt lat="45.16043" lon="5.27234">
        <ele>418</ele>
        <time>2020-05-26T16:49:22Z</time>
      </trkpt>
      <trkpt lat="45.16046" lon="5.27236">
        <ele>417.9</ele>
        <time>2020-05-26T16:49:23Z</time>
      </trkpt>
      <trkpt lat="45.16049" lon="5.27237">
        <ele>417.9</ele>
        <time>2020-05-26T16:49:24Z</time>
      </trkpt>
      <trkpt lat="45.16051" lon="5.27238">
        <ele>417.8</ele>
        <time>2020-05-26T16:49:25Z</time>
      </trkpt>
      <trkpt lat="45.16054" lon="5.2724">
        <ele>417.7</ele>
        <time>2020-05-26T16:49:26Z</time>
      </trkpt>
      <trkpt lat="45.16057" lon="5.27241">
        <ele>417.7</ele>
        <time>2020-05-26T16:49:27Z</time>
      </trkpt>
      <trkpt lat="45.1606" lon="5.27241">
        <ele>417.6</ele>
        <time>2020-05-26T16:49:28Z</time>
      </trkpt>
      <trkpt lat="45.16063" lon="5.27241">
        <ele>417.5</ele>
        <time>2020-05-26T16:49:29Z</time>
      </trkpt>
      <trkpt lat="45.16066" lon="5.27241">
        <ele>417.5</ele>
        <time>2020-05-26T16:49:30Z</time>
      </trkpt>
      <trkpt lat="45.16071" lon="5.27241">
        <ele>417.4</ele>
        <time>2020-05-26T16:49:31Z</time>
      </trkpt>
      <trkpt lat="45.16072" lon="5.27241">
        <ele>417.4</ele>
        <time>2020-05-26T16:49:32Z</time>
      </trkpt>
      <trkpt lat="45.16075" lon="5.27241">
        <ele>417.3</ele>
        <time>2020-05-26T16:49:33Z</time>
      </trkpt>
      <trkpt lat="45.16079" lon="5.27241">
        <ele>417.3</ele>
        <time>2020-05-26T16:49:34Z</time>
      </trkpt>
      <trkpt lat="45.16082" lon="5.27241">
        <ele>417.2</ele>
        <time>2020-05-26T16:49:35Z</time>
      </trkpt>
      <trkpt lat="45.16085" lon="5.2724">
        <ele>417.1</ele>
        <time>2020-05-26T16:49:36Z</time>
      </trkpt>
      <trkpt lat="45.16089" lon="5.27241">
        <ele>417.1</ele>
        <time>2020-05-26T16:49:37Z</time>
      </trkpt>
      <trkpt lat="45.16092" lon="5.27241">
        <ele>417.1</ele>
        <time>2020-05-26T16:49:38Z</time>
      </trkpt>
      <trkpt lat="45.16095" lon="5.27241">
        <ele>417</ele>
        <time>2020-05-26T16:49:39Z</time>
      </trkpt>
      <trkpt lat="45.16098" lon="5.27241">
        <ele>417</ele>
        <time>2020-05-26T16:49:40Z</time>
      </trkpt>
      <trkpt lat="45.16101" lon="5.27241">
        <ele>416.9</ele>
        <time>2020-05-26T16:49:41Z</time>
      </trkpt>
      <trkpt lat="45.16105" lon="5.27242">
        <ele>416.9</ele>
        <time>2020-05-26T16:49:42Z</time>
      </trkpt>
      <trkpt lat="45.16108" lon="5.27243">
        <ele>416.8</ele>
        <time>2020-05-26T16:49:43Z</time>
      </trkpt>
      <trkpt lat="45.16111" lon="5.27244">
        <ele>416.8</ele>
        <time>2020-05-26T16:49:44Z</time>
      </trkpt>
      <trkpt lat="45.16114" lon="5.27243">
        <ele>416.7</ele>
        <time>2020-05-26T16:49:45Z</time>
      </trkpt>
      <trkpt lat="45.16118" lon="5.27242">
        <ele>416.7</ele>
        <time>2020-05-26T16:49:46Z</time>
      </trkpt>
      <trkpt lat="45.16121" lon="5.27243">
        <ele>416.6</ele>
        <time>2020-05-26T16:49:47Z</time>
      </trkpt>
      <trkpt lat="45.16123" lon="5.27243">
        <ele>416.6</ele>
        <time>2020-05-26T16:49:48Z</time>
      </trkpt>
      <trkpt lat="45.16126" lon="5.27244">
        <ele>416.6</ele>
        <time>2020-05-26T16:49:49Z</time>
      </trkpt>
      <trkpt lat="45.16127" lon="5.27244">
        <ele>416.6</ele>
        <time>2020-05-26T16:49:50Z</time>
      </trkpt>
      <trkpt lat="45.1613" lon="5.27245">
        <ele>416.5</ele>
        <time>2020-05-26T16:49:51Z</time>
      </trkpt>
      <trkpt lat="45.16133" lon="5.27244">
        <ele>416.5</ele>
        <time>2020-05-26T16:49:52Z</time>
      </trkpt>
      <trkpt lat="45.16137" lon="5.27244">
        <ele>416.5</ele>
        <time>2020-05-26T16:49:53Z</time>
      </trkpt>
      <trkpt lat="45.1614" lon="5.27243">
        <ele>416.5</ele>
        <time>2020-05-26T16:49:54Z</time>
      </trkpt>
      <trkpt lat="45.16143" lon="5.27243">
        <ele>416.5</ele>
        <time>2020-05-26T16:49:55Z</time>
      </trkpt>
      <trkpt lat="45.16146" lon="5.27243">
        <ele>416.5</ele>
        <time>2020-05-26T16:49:56Z</time>
      </trkpt>
      <trkpt lat="45.16149" lon="5.27242">
        <ele>416.5</ele>
        <time>2020-05-26T16:49:57Z</time>
      </trkpt>
      <trkpt lat="45.16153" lon="5.27241">
        <ele>416.5</ele>
        <time>2020-05-26T16:49:58Z</time>
      </trkpt>
      <trkpt lat="45.16154" lon="5.27241">
        <ele>416.5</ele>
        <time>2020-05-26T16:49:59Z</time>
      </trkpt>
      <trkpt lat="45.16158" lon="5.27242">
        <ele>416.5</ele>
        <time>2020-05-26T16:50:00Z</time>
      </trkpt>
      <trkpt lat="45.16159" lon="5.27242">
        <ele>416.6</ele>
        <time>2020-05-26T16:50:01Z</time>
      </trkpt>
      <trkpt lat="45.16163" lon="5.27243">
        <ele>416.6</ele>
        <time>2020-05-26T16:50:02Z</time>
      </trkpt>
      <trkpt lat="45.16164" lon="5.27243">
        <ele>416.6</ele>
        <time>2020-05-26T16:50:03Z</time>
      </trkpt>
      <trkpt lat="45.16167" lon="5.27244">
        <ele>416.7</ele>
        <time>2020-05-26T16:50:04Z</time>
      </trkpt>
      <trkpt lat="45.16171" lon="5.27244">
        <ele>416.7</ele>
        <time>2020-05-26T16:50:05Z</time>
      </trkpt>
      <trkpt lat="45.16174" lon="5.27245">
        <ele>416.7</ele>
        <time>2020-05-26T16:50:06Z</time>
      </trkpt>
      <trkpt lat="45.16176" lon="5.27245">
        <ele>416.8</ele>
        <time>2020-05-26T16:50:07Z</time>
      </trkpt>
      <trkpt lat="45.1618" lon="5.27246">
        <ele>416.8</ele>
        <time>2020-05-26T16:50:08Z</time>
      </trkpt>
      <trkpt lat="45.16181" lon="5.27246">
        <ele>416.9</ele>
        <time>2020-05-26T16:50:09Z</time>
      </trkpt>
      <trkpt lat="45.16185" lon="5.27245">
        <ele>416.9</ele>
        <time>2020-05-26T16:50:10Z</time>
      </trkpt>
      <trkpt lat="45.16186" lon="5.27245">
        <ele>416.9</ele>
        <time>2020-05-26T16:50:11Z</time>
      </trkpt>
      <trkpt lat="45.1619" lon="5.27245">
        <ele>416.9</ele>
        <time>2020-05-26T16:50:12Z</time>
      </trkpt>
      <trkpt lat="45.16191" lon="5.27244">
        <ele>416.9</ele>
        <time>2020-05-26T16:50:13Z</time>
      </trkpt>
      <trkpt lat="45.16195" lon="5.27244">
        <ele>416.9</ele>
        <time>2020-05-26T16:50:14Z</time>
      </trkpt>
      <trkpt lat="45.16198" lon="5.27243">
        <ele>416.9</ele>
        <time>2020-05-26T16:50:15Z</time>
      </trkpt>
      <trkpt lat="45.16201" lon="5.27243">
        <ele>416.9</ele>
        <time>2020-05-26T16:50:16Z</time>
      </trkpt>
      <trkpt lat="45.16204" lon="5.27242">
        <ele>416.8</ele>
        <time>2020-05-26T16:50:17Z</time>
      </trkpt>
      <trkpt lat="45.16207" lon="5.27242">
        <ele>416.8</ele>
        <time>2020-05-26T16:50:18Z</time>
      </trkpt>
      <trkpt lat="45.1621" lon="5.27242">
        <ele>416.8</ele>
        <time>2020-05-26T16:50:19Z</time>
      </trkpt>
      <trkpt lat="45.16213" lon="5.27241">
        <ele>416.8</ele>
        <time>2020-05-26T16:50:20Z</time>
      </trkpt>
      <trkpt lat="45.16216" lon="5.27241">
        <ele>416.8</ele>
        <time>2020-05-26T16:50:21Z</time>
      </trkpt>
      <trkpt lat="45.16219" lon="5.2724">
        <ele>416.7</ele>
        <time>2020-05-26T16:50:22Z</time>
      </trkpt>
      <trkpt lat="45.16222" lon="5.27239">
        <ele>416.7</ele>
        <time>2020-05-26T16:50:23Z</time>
      </trkpt>
      <trkpt lat="45.16225" lon="5.27238">
        <ele>416.6</ele>
        <time>2020-05-26T16:50:24Z</time>
      </trkpt>
      <trkpt lat="45.16227" lon="5.27236">
        <ele>416.6</ele>
        <time>2020-05-26T16:50:25Z</time>
      </trkpt>
      <trkpt lat="45.16231" lon="5.27233">
        <ele>416.4</ele>
        <time>2020-05-26T16:50:26Z</time>
      </trkpt>
      <trkpt lat="45.16233" lon="5.27232">
        <ele>416.4</ele>
        <time>2020-05-26T16:50:27Z</time>
      </trkpt>
      <trkpt lat="45.16236" lon="5.2723">
        <ele>416.2</ele>
        <time>2020-05-26T16:50:28Z</time>
      </trkpt>
      <trkpt lat="45.16239" lon="5.27227">
        <ele>416</ele>
        <time>2020-05-26T16:50:29Z</time>
      </trkpt>
      <trkpt lat="45.16242" lon="5.27224">
        <ele>415.8</ele>
        <time>2020-05-26T16:50:30Z</time>
      </trkpt>
      <trkpt lat="45.16245" lon="5.27222">
        <ele>415.6</ele>
        <time>2020-05-26T16:50:31Z</time>
      </trkpt>
      <trkpt lat="45.16248" lon="5.27219">
        <ele>415.3</ele>
        <time>2020-05-26T16:50:32Z</time>
      </trkpt>
      <trkpt lat="45.16251" lon="5.27217">
        <ele>415.1</ele>
        <time>2020-05-26T16:50:33Z</time>
      </trkpt>
      <trkpt lat="45.16253" lon="5.27214">
        <ele>414.8</ele>
        <time>2020-05-26T16:50:34Z</time>
      </trkpt>
      <trkpt lat="45.16257" lon="5.27211">
        <ele>414.4</ele>
        <time>2020-05-26T16:50:35Z</time>
      </trkpt>
      <trkpt lat="45.16261" lon="5.27209">
        <ele>414.1</ele>
        <time>2020-05-26T16:50:36Z</time>
      </trkpt>
      <trkpt lat="45.16264" lon="5.27207">
        <ele>413.8</ele>
        <time>2020-05-26T16:50:37Z</time>
      </trkpt>
      <trkpt lat="45.16267" lon="5.27205">
        <ele>413.5</ele>
        <time>2020-05-26T16:50:38Z</time>
      </trkpt>
      <trkpt lat="45.1627" lon="5.27204">
        <ele>413.3</ele>
        <time>2020-05-26T16:50:39Z</time>
      </trkpt>
      <trkpt lat="45.16274" lon="5.27201">
        <ele>412.9</ele>
        <time>2020-05-26T16:50:40Z</time>
      </trkpt>
      <trkpt lat="45.16275" lon="5.272">
        <ele>412.8</ele>
        <time>2020-05-26T16:50:41Z</time>
      </trkpt>
      <trkpt lat="45.16279" lon="5.27197">
        <ele>412.5</ele>
        <time>2020-05-26T16:50:42Z</time>
      </trkpt>
      <trkpt lat="45.16282" lon="5.27194">
        <ele>412.2</ele>
        <time>2020-05-26T16:50:43Z</time>
      </trkpt>
      <trkpt lat="45.16285" lon="5.27192">
        <ele>412</ele>
        <time>2020-05-26T16:50:44Z</time>
      </trkpt>
      <trkpt lat="45.16287" lon="5.27189">
        <ele>411.8</ele>
        <time>2020-05-26T16:50:45Z</time>
      </trkpt>
      <trkpt lat="45.1629" lon="5.27186">
        <ele>411.7</ele>
        <time>2020-05-26T16:50:46Z</time>
      </trkpt>
      <trkpt lat="45.16293" lon="5.27183">
        <ele>411.5</ele>
        <time>2020-05-26T16:50:47Z</time>
      </trkpt>
      <trkpt lat="45.16297" lon="5.2718">
        <ele>411.3</ele>
        <time>2020-05-26T16:50:48Z</time>
      </trkpt>
      <trkpt lat="45.163" lon="5.27177">
        <ele>411.1</ele>
        <time>2020-05-26T16:50:49Z</time>
      </trkpt>
      <trkpt lat="45.16303" lon="5.27175">
        <ele>410.9</ele>
        <time>2020-05-26T16:50:50Z</time>
      </trkpt>
      <trkpt lat="45.16306" lon="5.27173">
        <ele>410.7</ele>
        <time>2020-05-26T16:50:51Z</time>
      </trkpt>
      <trkpt lat="45.1631" lon="5.2717">
        <ele>410.5</ele>
        <time>2020-05-26T16:50:52Z</time>
      </trkpt>
      <trkpt lat="45.16313" lon="5.27168">
        <ele>410.3</ele>
        <time>2020-05-26T16:50:53Z</time>
      </trkpt>
      <trkpt lat="45.16317" lon="5.27166">
        <ele>410.2</ele>
        <time>2020-05-26T16:50:54Z</time>
      </trkpt>
      <trkpt lat="45.1632" lon="5.27165">
        <ele>410.1</ele>
        <time>2020-05-26T16:50:55Z</time>
      </trkpt>
      <trkpt lat="45.16324" lon="5.27163">
        <ele>410</ele>
        <time>2020-05-26T16:50:56Z</time>
      </trkpt>
      <trkpt lat="45.16325" lon="5.27162">
        <ele>410</ele>
        <time>2020-05-26T16:50:57Z</time>
      </trkpt>
      <trkpt lat="45.16328" lon="5.2716">
        <ele>409.9</ele>
        <time>2020-05-26T16:50:58Z</time>
      </trkpt>
      <trkpt lat="45.1633" lon="5.27157">
        <ele>409.8</ele>
        <time>2020-05-26T16:50:59Z</time>
      </trkpt>
      <trkpt lat="45.16333" lon="5.27154">
        <ele>409.8</ele>
        <time>2020-05-26T16:51:00Z</time>
      </trkpt>
      <trkpt lat="45.16335" lon="5.2715">
        <ele>409.8</ele>
        <time>2020-05-26T16:51:01Z</time>
      </trkpt>
      <trkpt lat="45.16337" lon="5.27146">
        <ele>409.7</ele>
        <time>2020-05-26T16:51:02Z</time>
      </trkpt>
      <trkpt lat="45.16338" lon="5.27142">
        <ele>409.7</ele>
        <time>2020-05-26T16:51:03Z</time>
      </trkpt>
      <trkpt lat="45.16339" lon="5.27138">
        <ele>409.6</ele>
        <time>2020-05-26T16:51:04Z</time>
      </trkpt>
      <trkpt lat="45.16341" lon="5.27133">
        <ele>409.5</ele>
        <time>2020-05-26T16:51:05Z</time>
      </trkpt>
      <trkpt lat="45.16341" lon="5.27129">
        <ele>409.5</ele>
        <time>2020-05-26T16:51:06Z</time>
      </trkpt>
      <trkpt lat="45.16342" lon="5.27125">
        <ele>409.4</ele>
        <time>2020-05-26T16:51:07Z</time>
      </trkpt>
      <trkpt lat="45.16343" lon="5.27121">
        <ele>409.4</ele>
        <time>2020-05-26T16:51:08Z</time>
      </trkpt>
      <trkpt lat="45.16344" lon="5.27117">
        <ele>409.4</ele>
        <time>2020-05-26T16:51:09Z</time>
      </trkpt>
      <trkpt lat="45.16344" lon="5.27113">
        <ele>409.4</ele>
        <time>2020-05-26T16:51:10Z</time>
      </trkpt>
      <trkpt lat="45.16345" lon="5.27108">
        <ele>409.4</ele>
        <time>2020-05-26T16:51:11Z</time>
      </trkpt>
      <trkpt lat="45.16346" lon="5.27103">
        <ele>409.4</ele>
        <time>2020-05-26T16:51:12Z</time>
      </trkpt>
      <trkpt lat="45.16347" lon="5.27099">
        <ele>409.4</ele>
        <time>2020-05-26T16:51:13Z</time>
      </trkpt>
      <trkpt lat="45.16349" lon="5.27096">
        <ele>409.4</ele>
        <time>2020-05-26T16:51:14Z</time>
      </trkpt>
      <trkpt lat="45.16351" lon="5.27093">
        <ele>409.4</ele>
        <time>2020-05-26T16:51:15Z</time>
      </trkpt>
      <trkpt lat="45.16354" lon="5.27089">
        <ele>409.4</ele>
        <time>2020-05-26T16:51:16Z</time>
      </trkpt>
      <trkpt lat="45.16355" lon="5.27088">
        <ele>409.4</ele>
        <time>2020-05-26T16:51:17Z</time>
      </trkpt>
      <trkpt lat="45.16358" lon="5.27085">
        <ele>409.5</ele>
        <time>2020-05-26T16:51:18Z</time>
      </trkpt>
      <trkpt lat="45.1636" lon="5.27082">
        <ele>409.5</ele>
        <time>2020-05-26T16:51:19Z</time>
      </trkpt>
      <trkpt lat="45.16363" lon="5.2708">
        <ele>409.5</ele>
        <time>2020-05-26T16:51:20Z</time>
      </trkpt>
      <trkpt lat="45.16365" lon="5.27077">
        <ele>409.5</ele>
        <time>2020-05-26T16:51:21Z</time>
      </trkpt>
      <trkpt lat="45.16368" lon="5.27073">
        <ele>409.5</ele>
        <time>2020-05-26T16:51:22Z</time>
      </trkpt>
      <trkpt lat="45.16369" lon="5.27071">
        <ele>409.5</ele>
        <time>2020-05-26T16:51:23Z</time>
      </trkpt>
      <trkpt lat="45.1637" lon="5.27067">
        <ele>409.5</ele>
        <time>2020-05-26T16:51:24Z</time>
      </trkpt>
      <trkpt lat="45.16372" lon="5.27063">
        <ele>409.4</ele>
        <time>2020-05-26T16:51:25Z</time>
      </trkpt>
      <trkpt lat="45.16373" lon="5.27059">
        <ele>409.4</ele>
        <time>2020-05-26T16:51:26Z</time>
      </trkpt>
      <trkpt lat="45.16375" lon="5.27054">
        <ele>409.3</ele>
        <time>2020-05-26T16:51:27Z</time>
      </trkpt>
      <trkpt lat="45.16376" lon="5.2705">
        <ele>409.2</ele>
        <time>2020-05-26T16:51:28Z</time>
      </trkpt>
      <trkpt lat="45.16378" lon="5.27047">
        <ele>409.2</ele>
        <time>2020-05-26T16:51:29Z</time>
      </trkpt>
      <trkpt lat="45.1638" lon="5.27042">
        <ele>409.1</ele>
        <time>2020-05-26T16:51:30Z</time>
      </trkpt>
      <trkpt lat="45.16382" lon="5.27038">
        <ele>409</ele>
        <time>2020-05-26T16:51:31Z</time>
      </trkpt>
      <trkpt lat="45.16385" lon="5.27033">
        <ele>408.9</ele>
        <time>2020-05-26T16:51:32Z</time>
      </trkpt>
      <trkpt lat="45.16386" lon="5.27032">
        <ele>408.9</ele>
        <time>2020-05-26T16:51:33Z</time>
      </trkpt>
      <trkpt lat="45.16388" lon="5.27028">
        <ele>408.9</ele>
        <time>2020-05-26T16:51:34Z</time>
      </trkpt>
      <trkpt lat="45.1639" lon="5.27026">
        <ele>408.8</ele>
        <time>2020-05-26T16:51:35Z</time>
      </trkpt>
      <trkpt lat="45.16393" lon="5.27022">
        <ele>408.8</ele>
        <time>2020-05-26T16:51:36Z</time>
      </trkpt>
      <trkpt lat="45.16395" lon="5.27018">
        <ele>408.8</ele>
        <time>2020-05-26T16:51:37Z</time>
      </trkpt>
      <trkpt lat="45.16396" lon="5.27014">
        <ele>408.8</ele>
        <time>2020-05-26T16:51:38Z</time>
      </trkpt>
      <trkpt lat="45.16397" lon="5.2701">
        <ele>408.9</ele>
        <time>2020-05-26T16:51:39Z</time>
      </trkpt>
      <trkpt lat="45.16398" lon="5.27005">
        <ele>408.9</ele>
        <time>2020-05-26T16:51:40Z</time>
      </trkpt>
      <trkpt lat="45.16399" lon="5.27001">
        <ele>409</ele>
        <time>2020-05-26T16:51:41Z</time>
      </trkpt>
      <trkpt lat="45.16399" lon="5.26997">
        <ele>409.1</ele>
        <time>2020-05-26T16:51:42Z</time>
      </trkpt>
      <trkpt lat="45.16399" lon="5.26993">
        <ele>409.2</ele>
        <time>2020-05-26T16:51:43Z</time>
      </trkpt>
      <trkpt lat="45.16398" lon="5.26988">
        <ele>409.4</ele>
        <time>2020-05-26T16:51:44Z</time>
      </trkpt>
      <trkpt lat="45.16398" lon="5.26986">
        <ele>409.4</ele>
        <time>2020-05-26T16:51:45Z</time>
      </trkpt>
      <trkpt lat="45.16396" lon="5.26982">
        <ele>409.6</ele>
        <time>2020-05-26T16:51:46Z</time>
      </trkpt>
      <trkpt lat="45.16395" lon="5.26978">
        <ele>409.8</ele>
        <time>2020-05-26T16:51:47Z</time>
      </trkpt>
      <trkpt lat="45.16394" lon="5.26974">
        <ele>409.9</ele>
        <time>2020-05-26T16:51:48Z</time>
      </trkpt>
      <trkpt lat="45.16393" lon="5.2697">
        <ele>410.2</ele>
        <time>2020-05-26T16:51:49Z</time>
      </trkpt>
      <trkpt lat="45.16392" lon="5.26965">
        <ele>410.4</ele>
        <time>2020-05-26T16:51:50Z</time>
      </trkpt>
      <trkpt lat="45.16392" lon="5.26961">
        <ele>410.6</ele>
        <time>2020-05-26T16:51:51Z</time>
      </trkpt>
      <trkpt lat="45.16391" lon="5.26956">
        <ele>410.8</ele>
        <time>2020-05-26T16:51:52Z</time>
      </trkpt>
      <trkpt lat="45.1639" lon="5.26952">
        <ele>411.1</ele>
        <time>2020-05-26T16:51:53Z</time>
      </trkpt>
      <trkpt lat="45.16389" lon="5.26949">
        <ele>411.2</ele>
        <time>2020-05-26T16:51:54Z</time>
      </trkpt>
      <trkpt lat="45.16388" lon="5.26945">
        <ele>411.4</ele>
        <time>2020-05-26T16:51:55Z</time>
      </trkpt>
      <trkpt lat="45.16386" lon="5.26942">
        <ele>411.6</ele>
        <time>2020-05-26T16:51:56Z</time>
      </trkpt>
      <trkpt lat="45.16384" lon="5.26937">
        <ele>411.9</ele>
        <time>2020-05-26T16:51:57Z</time>
      </trkpt>
      <trkpt lat="45.16384" lon="5.26936">
        <ele>412</ele>
        <time>2020-05-26T16:51:58Z</time>
      </trkpt>
      <trkpt lat="45.16384" lon="5.26931">
        <ele>412.2</ele>
        <time>2020-05-26T16:51:59Z</time>
      </trkpt>
      <trkpt lat="45.16384" lon="5.2693">
        <ele>412.2</ele>
        <time>2020-05-26T16:52:00Z</time>
      </trkpt>
      <trkpt lat="45.16385" lon="5.26926">
        <ele>412.4</ele>
        <time>2020-05-26T16:52:01Z</time>
      </trkpt>
      <trkpt lat="45.16387" lon="5.26923">
        <ele>412.6</ele>
        <time>2020-05-26T16:52:02Z</time>
      </trkpt>
      <trkpt lat="45.16389" lon="5.26918">
        <ele>412.8</ele>
        <time>2020-05-26T16:52:03Z</time>
      </trkpt>
      <trkpt lat="45.16391" lon="5.26913">
        <ele>413.1</ele>
        <time>2020-05-26T16:52:04Z</time>
      </trkpt>
      <trkpt lat="45.16394" lon="5.26909">
        <ele>413.3</ele>
        <time>2020-05-26T16:52:05Z</time>
      </trkpt>
      <trkpt lat="45.16396" lon="5.26904">
        <ele>413.5</ele>
        <time>2020-05-26T16:52:06Z</time>
      </trkpt>
      <trkpt lat="45.16398" lon="5.26901">
        <ele>413.6</ele>
        <time>2020-05-26T16:52:07Z</time>
      </trkpt>
      <trkpt lat="45.16401" lon="5.26898">
        <ele>413.8</ele>
        <time>2020-05-26T16:52:08Z</time>
      </trkpt>
      <trkpt lat="45.16403" lon="5.26894">
        <ele>413.9</ele>
        <time>2020-05-26T16:52:09Z</time>
      </trkpt>
      <trkpt lat="45.16406" lon="5.26891">
        <ele>414</ele>
        <time>2020-05-26T16:52:10Z</time>
      </trkpt>
      <trkpt lat="45.16408" lon="5.26888">
        <ele>414.1</ele>
        <time>2020-05-26T16:52:11Z</time>
      </trkpt>
      <trkpt lat="45.1641" lon="5.26885">
        <ele>414.2</ele>
        <time>2020-05-26T16:52:12Z</time>
      </trkpt>
      <trkpt lat="45.16412" lon="5.26881">
        <ele>414.3</ele>
        <time>2020-05-26T16:52:13Z</time>
      </trkpt>
      <trkpt lat="45.16414" lon="5.26878">
        <ele>414.4</ele>
        <time>2020-05-26T16:52:14Z</time>
      </trkpt>
      <trkpt lat="45.16417" lon="5.26874">
        <ele>414.4</ele>
        <time>2020-05-26T16:52:15Z</time>
      </trkpt>
      <trkpt lat="45.16419" lon="5.2687">
        <ele>414.4</ele>
        <time>2020-05-26T16:52:16Z</time>
      </trkpt>
      <trkpt lat="45.1642" lon="5.26866">
        <ele>414.4</ele>
        <time>2020-05-26T16:52:17Z</time>
      </trkpt>
      <trkpt lat="45.16422" lon="5.26862">
        <ele>414.5</ele>
        <time>2020-05-26T16:52:18Z</time>
      </trkpt>
      <trkpt lat="45.16424" lon="5.26859">
        <ele>414.5</ele>
        <time>2020-05-26T16:52:19Z</time>
      </trkpt>
      <trkpt lat="45.16425" lon="5.26856">
        <ele>414.5</ele>
        <time>2020-05-26T16:52:20Z</time>
      </trkpt>
      <trkpt lat="45.16427" lon="5.26852">
        <ele>414.6</ele>
        <time>2020-05-26T16:52:21Z</time>
      </trkpt>
      <trkpt lat="45.16429" lon="5.26848">
        <ele>414.6</ele>
        <time>2020-05-26T16:52:22Z</time>
      </trkpt>
      <trkpt lat="45.1643" lon="5.26845">
        <ele>414.7</ele>
        <time>2020-05-26T16:52:23Z</time>
      </trkpt>
      <trkpt lat="45.16432" lon="5.26842">
        <ele>414.7</ele>
        <time>2020-05-26T16:52:24Z</time>
      </trkpt>
      <trkpt lat="45.16434" lon="5.26838">
        <ele>414.7</ele>
        <time>2020-05-26T16:52:25Z</time>
      </trkpt>
      <trkpt lat="45.16435" lon="5.26834">
        <ele>414.8</ele>
        <time>2020-05-26T16:52:26Z</time>
      </trkpt>
      <trkpt lat="45.16437" lon="5.26831">
        <ele>414.8</ele>
        <time>2020-05-26T16:52:27Z</time>
      </trkpt>
      <trkpt lat="45.16439" lon="5.26827">
        <ele>414.9</ele>
        <time>2020-05-26T16:52:28Z</time>
      </trkpt>
      <trkpt lat="45.1644" lon="5.26825">
        <ele>414.9</ele>
        <time>2020-05-26T16:52:29Z</time>
      </trkpt>
      <trkpt lat="45.16443" lon="5.26821">
        <ele>414.9</ele>
        <time>2020-05-26T16:52:30Z</time>
      </trkpt>
      <trkpt lat="45.16445" lon="5.26818">
        <ele>415</ele>
        <time>2020-05-26T16:52:31Z</time>
      </trkpt>
      <trkpt lat="45.16447" lon="5.26815">
        <ele>415</ele>
        <time>2020-05-26T16:52:32Z</time>
      </trkpt>
      <trkpt lat="45.1645" lon="5.26811">
        <ele>415.1</ele>
        <time>2020-05-26T16:52:33Z</time>
      </trkpt>
      <trkpt lat="45.1645" lon="5.26809">
        <ele>415.1</ele>
        <time>2020-05-26T16:52:34Z</time>
      </trkpt>
      <trkpt lat="45.16452" lon="5.26804">
        <ele>415.2</ele>
        <time>2020-05-26T16:52:35Z</time>
      </trkpt>
      <trkpt lat="45.16453" lon="5.26803">
        <ele>415.2</ele>
        <time>2020-05-26T16:52:36Z</time>
      </trkpt>
      <trkpt lat="45.16454" lon="5.26798">
        <ele>415.3</ele>
        <time>2020-05-26T16:52:37Z</time>
      </trkpt>
      <trkpt lat="45.16454" lon="5.26796">
        <ele>415.3</ele>
        <time>2020-05-26T16:52:38Z</time>
      </trkpt>
      <trkpt lat="45.16457" lon="5.26791">
        <ele>415.5</ele>
        <time>2020-05-26T16:52:39Z</time>
      </trkpt>
      <trkpt lat="45.16458" lon="5.26789">
        <ele>415.5</ele>
        <time>2020-05-26T16:52:40Z</time>
      </trkpt>
      <trkpt lat="45.1646" lon="5.26786">
        <ele>415.6</ele>
        <time>2020-05-26T16:52:41Z</time>
      </trkpt>
      <trkpt lat="45.16461" lon="5.26783">
        <ele>415.7</ele>
        <time>2020-05-26T16:52:42Z</time>
      </trkpt>
      <trkpt lat="45.16464" lon="5.2678">
        <ele>415.9</ele>
        <time>2020-05-26T16:52:43Z</time>
      </trkpt>
      <trkpt lat="45.16466" lon="5.26777">
        <ele>416</ele>
        <time>2020-05-26T16:52:44Z</time>
      </trkpt>
      <trkpt lat="45.16467" lon="5.26774">
        <ele>416.2</ele>
        <time>2020-05-26T16:52:45Z</time>
      </trkpt>
      <trkpt lat="45.16469" lon="5.26771">
        <ele>416.4</ele>
        <time>2020-05-26T16:52:46Z</time>
      </trkpt>
      <trkpt lat="45.16471" lon="5.26767">
        <ele>416.6</ele>
        <time>2020-05-26T16:52:47Z</time>
      </trkpt>
      <trkpt lat="45.16472" lon="5.26763">
        <ele>416.8</ele>
        <time>2020-05-26T16:52:48Z</time>
      </trkpt>
      <trkpt lat="45.16474" lon="5.26759">
        <ele>417</ele>
        <time>2020-05-26T16:52:49Z</time>
      </trkpt>
      <trkpt lat="45.16475" lon="5.26755">
        <ele>417.3</ele>
        <time>2020-05-26T16:52:50Z</time>
      </trkpt>
      <trkpt lat="45.16476" lon="5.26754">
        <ele>417.3</ele>
        <time>2020-05-26T16:52:51Z</time>
      </trkpt>
      <trkpt lat="45.16479" lon="5.2675">
        <ele>417.5</ele>
        <time>2020-05-26T16:52:52Z</time>
      </trkpt>
      <trkpt lat="45.1648" lon="5.26749">
        <ele>417.6</ele>
        <time>2020-05-26T16:52:53Z</time>
      </trkpt>
      <trkpt lat="45.16481" lon="5.26745">
        <ele>417.8</ele>
        <time>2020-05-26T16:52:54Z</time>
      </trkpt>
      <trkpt lat="45.16482" lon="5.26744">
        <ele>417.9</ele>
        <time>2020-05-26T16:52:55Z</time>
      </trkpt>
      <trkpt lat="45.16484" lon="5.26739">
        <ele>418.1</ele>
        <time>2020-05-26T16:52:56Z</time>
      </trkpt>
      <trkpt lat="45.16484" lon="5.26738">
        <ele>418.1</ele>
        <time>2020-05-26T16:52:57Z</time>
      </trkpt>
      <trkpt lat="45.16486" lon="5.26733">
        <ele>418.4</ele>
        <time>2020-05-26T16:52:58Z</time>
      </trkpt>
      <trkpt lat="45.16486" lon="5.26731">
        <ele>418.5</ele>
        <time>2020-05-26T16:52:59Z</time>
      </trkpt>
      <trkpt lat="45.16489" lon="5.26727">
        <ele>418.7</ele>
        <time>2020-05-26T16:53:00Z</time>
      </trkpt>
      <trkpt lat="45.1649" lon="5.26726">
        <ele>418.8</ele>
        <time>2020-05-26T16:53:01Z</time>
      </trkpt>
      <trkpt lat="45.16492" lon="5.26723">
        <ele>419</ele>
        <time>2020-05-26T16:53:02Z</time>
      </trkpt>
      <trkpt lat="45.16494" lon="5.2672">
        <ele>419.2</ele>
        <time>2020-05-26T16:53:03Z</time>
      </trkpt>
      <trkpt lat="45.16494" lon="5.26719">
        <ele>419.3</ele>
        <time>2020-05-26T16:53:04Z</time>
      </trkpt>
      <trkpt lat="45.16497" lon="5.26715">
        <ele>419.6</ele>
        <time>2020-05-26T16:53:05Z</time>
      </trkpt>
      <trkpt lat="45.16497" lon="5.26714">
        <ele>419.7</ele>
        <time>2020-05-26T16:53:06Z</time>
      </trkpt>
      <trkpt lat="45.165" lon="5.26711">
        <ele>419.9</ele>
        <time>2020-05-26T16:53:07Z</time>
      </trkpt>
      <trkpt lat="45.165" lon="5.2671">
        <ele>420</ele>
        <time>2020-05-26T16:53:08Z</time>
      </trkpt>
      <trkpt lat="45.16502" lon="5.26706">
        <ele>420.2</ele>
        <time>2020-05-26T16:53:09Z</time>
      </trkpt>
      <trkpt lat="45.16502" lon="5.26705">
        <ele>420.3</ele>
        <time>2020-05-26T16:53:10Z</time>
      </trkpt>
      <trkpt lat="45.16504" lon="5.267">
        <ele>420.6</ele>
        <time>2020-05-26T16:53:11Z</time>
      </trkpt>
      <trkpt lat="45.16504" lon="5.26699">
        <ele>420.7</ele>
        <time>2020-05-26T16:53:12Z</time>
      </trkpt>
      <trkpt lat="45.16506" lon="5.26696">
        <ele>420.9</ele>
        <time>2020-05-26T16:53:13Z</time>
      </trkpt>
      <trkpt lat="45.16508" lon="5.26692">
        <ele>421.1</ele>
        <time>2020-05-26T16:53:14Z</time>
      </trkpt>
      <trkpt lat="45.16511" lon="5.26689">
        <ele>421.4</ele>
        <time>2020-05-26T16:53:15Z</time>
      </trkpt>
      <trkpt lat="45.16512" lon="5.26689">
        <ele>421.4</ele>
        <time>2020-05-26T16:53:16Z</time>
      </trkpt>
      <trkpt lat="45.16514" lon="5.26687">
        <ele>421.6</ele>
        <time>2020-05-26T16:53:17Z</time>
      </trkpt>
      <trkpt lat="45.16515" lon="5.26686">
        <ele>421.6</ele>
        <time>2020-05-26T16:53:18Z</time>
      </trkpt>
      <trkpt lat="45.16517" lon="5.26684">
        <ele>421.8</ele>
        <time>2020-05-26T16:53:19Z</time>
      </trkpt>
      <trkpt lat="45.1652" lon="5.26682">
        <ele>422</ele>
        <time>2020-05-26T16:53:20Z</time>
      </trkpt>
      <trkpt lat="45.16523" lon="5.2668">
        <ele>422.2</ele>
        <time>2020-05-26T16:53:21Z</time>
      </trkpt>
      <trkpt lat="45.16524" lon="5.26679">
        <ele>422.3</ele>
        <time>2020-05-26T16:53:22Z</time>
      </trkpt>
      <trkpt lat="45.16527" lon="5.26677">
        <ele>422.5</ele>
        <time>2020-05-26T16:53:23Z</time>
      </trkpt>
      <trkpt lat="45.16529" lon="5.26675">
        <ele>422.6</ele>
        <time>2020-05-26T16:53:24Z</time>
      </trkpt>
      <trkpt lat="45.16531" lon="5.26672">
        <ele>422.7</ele>
        <time>2020-05-26T16:53:25Z</time>
      </trkpt>
      <trkpt lat="45.16534" lon="5.26669">
        <ele>422.9</ele>
        <time>2020-05-26T16:53:26Z</time>
      </trkpt>
      <trkpt lat="45.16536" lon="5.26666">
        <ele>423</ele>
        <time>2020-05-26T16:53:27Z</time>
      </trkpt>
      <trkpt lat="45.16539" lon="5.26664">
        <ele>423.1</ele>
        <time>2020-05-26T16:53:28Z</time>
      </trkpt>
      <trkpt lat="45.16541" lon="5.26663">
        <ele>423.2</ele>
        <time>2020-05-26T16:53:29Z</time>
      </trkpt>
      <trkpt lat="45.16544" lon="5.26661">
        <ele>423.3</ele>
        <time>2020-05-26T16:53:30Z</time>
      </trkpt>
      <trkpt lat="45.16547" lon="5.2666">
        <ele>423.4</ele>
        <time>2020-05-26T16:53:31Z</time>
      </trkpt>
      <trkpt lat="45.1655" lon="5.26658">
        <ele>423.5</ele>
        <time>2020-05-26T16:53:32Z</time>
      </trkpt>
      <trkpt lat="45.16553" lon="5.26657">
        <ele>423.6</ele>
        <time>2020-05-26T16:53:33Z</time>
      </trkpt>
      <trkpt lat="45.16556" lon="5.26655">
        <ele>423.6</ele>
        <time>2020-05-26T16:53:34Z</time>
      </trkpt>
      <trkpt lat="45.16558" lon="5.26652">
        <ele>423.7</ele>
        <time>2020-05-26T16:53:35Z</time>
      </trkpt>
      <trkpt lat="45.1656" lon="5.26649">
        <ele>423.8</ele>
        <time>2020-05-26T16:53:36Z</time>
      </trkpt>
      <trkpt lat="45.16562" lon="5.26646">
        <ele>423.8</ele>
        <time>2020-05-26T16:53:37Z</time>
      </trkpt>
      <trkpt lat="45.16565" lon="5.26643">
        <ele>423.9</ele>
        <time>2020-05-26T16:53:38Z</time>
      </trkpt>
      <trkpt lat="45.16567" lon="5.26641">
        <ele>424</ele>
        <time>2020-05-26T16:53:39Z</time>
      </trkpt>
      <trkpt lat="45.1657" lon="5.26639">
        <ele>424.1</ele>
        <time>2020-05-26T16:53:40Z</time>
      </trkpt>
      <trkpt lat="45.16573" lon="5.26636">
        <ele>424.2</ele>
        <time>2020-05-26T16:53:41Z</time>
      </trkpt>
      <trkpt lat="45.16574" lon="5.26636">
        <ele>424.3</ele>
        <time>2020-05-26T16:53:42Z</time>
      </trkpt>
      <trkpt lat="45.16576" lon="5.26632">
        <ele>424.4</ele>
        <time>2020-05-26T16:53:43Z</time>
      </trkpt>
      <trkpt lat="45.16577" lon="5.2663">
        <ele>424.5</ele>
        <time>2020-05-26T16:53:44Z</time>
      </trkpt>
      <trkpt lat="45.1658" lon="5.26627">
        <ele>424.6</ele>
        <time>2020-05-26T16:53:45Z</time>
      </trkpt>
      <trkpt lat="45.16581" lon="5.26626">
        <ele>424.7</ele>
        <time>2020-05-26T16:53:46Z</time>
      </trkpt>
      <trkpt lat="45.16583" lon="5.26624">
        <ele>424.8</ele>
        <time>2020-05-26T16:53:47Z</time>
      </trkpt>
      <trkpt lat="45.16587" lon="5.26622">
        <ele>425</ele>
        <time>2020-05-26T16:53:48Z</time>
      </trkpt>
      <trkpt lat="45.16588" lon="5.26621">
        <ele>425.1</ele>
        <time>2020-05-26T16:53:49Z</time>
      </trkpt>
      <trkpt lat="45.16591" lon="5.26618">
        <ele>425.3</ele>
        <time>2020-05-26T16:53:50Z</time>
      </trkpt>
      <trkpt lat="45.16592" lon="5.26617">
        <ele>425.3</ele>
        <time>2020-05-26T16:53:51Z</time>
      </trkpt>
      <trkpt lat="45.16594" lon="5.26613">
        <ele>425.5</ele>
        <time>2020-05-26T16:53:52Z</time>
      </trkpt>
      <trkpt lat="45.16595" lon="5.26612">
        <ele>425.5</ele>
        <time>2020-05-26T16:53:53Z</time>
      </trkpt>
      <trkpt lat="45.16598" lon="5.26609">
        <ele>425.7</ele>
        <time>2020-05-26T16:53:54Z</time>
      </trkpt>
      <trkpt lat="45.16599" lon="5.26608">
        <ele>425.7</ele>
        <time>2020-05-26T16:53:55Z</time>
      </trkpt>
      <trkpt lat="45.16602" lon="5.26605">
        <ele>425.8</ele>
        <time>2020-05-26T16:53:56Z</time>
      </trkpt>
      <trkpt lat="45.16605" lon="5.26603">
        <ele>425.9</ele>
        <time>2020-05-26T16:53:57Z</time>
      </trkpt>
      <trkpt lat="45.16606" lon="5.26603">
        <ele>425.9</ele>
        <time>2020-05-26T16:53:58Z</time>
      </trkpt>
      <trkpt lat="45.16609" lon="5.26601">
        <ele>426</ele>
        <time>2020-05-26T16:53:59Z</time>
      </trkpt>
      <trkpt lat="45.1661" lon="5.266">
        <ele>426</ele>
        <time>2020-05-26T16:54:00Z</time>
      </trkpt>
      <trkpt lat="45.16613" lon="5.26599">
        <ele>426</ele>
        <time>2020-05-26T16:54:01Z</time>
      </trkpt>
      <trkpt lat="45.16617" lon="5.26598">
        <ele>426</ele>
        <time>2020-05-26T16:54:02Z</time>
      </trkpt>
      <trkpt lat="45.16618" lon="5.26598">
        <ele>426</ele>
        <time>2020-05-26T16:54:03Z</time>
      </trkpt>
      <trkpt lat="45.16621" lon="5.26598">
        <ele>426</ele>
        <time>2020-05-26T16:54:04Z</time>
      </trkpt>
      <trkpt lat="45.16623" lon="5.26598">
        <ele>426</ele>
        <time>2020-05-26T16:54:05Z</time>
      </trkpt>
      <trkpt lat="45.16625" lon="5.26598">
        <ele>426</ele>
        <time>2020-05-26T16:54:06Z</time>
      </trkpt>
      <trkpt lat="45.16629" lon="5.26599">
        <ele>426</ele>
        <time>2020-05-26T16:54:07Z</time>
      </trkpt>
      <trkpt lat="45.1663" lon="5.26599">
        <ele>426</ele>
        <time>2020-05-26T16:54:08Z</time>
      </trkpt>
      <trkpt lat="45.16634" lon="5.266">
        <ele>426</ele>
        <time>2020-05-26T16:54:09Z</time>
      </trkpt>
      <trkpt lat="45.16635" lon="5.266">
        <ele>426</ele>
        <time>2020-05-26T16:54:10Z</time>
      </trkpt>
      <trkpt lat="45.16638" lon="5.266">
        <ele>426</ele>
        <time>2020-05-26T16:54:11Z</time>
      </trkpt>
      <trkpt lat="45.16641" lon="5.26599">
        <ele>426</ele>
        <time>2020-05-26T16:54:12Z</time>
      </trkpt>
      <trkpt lat="45.16644" lon="5.26598">
        <ele>426</ele>
        <time>2020-05-26T16:54:13Z</time>
      </trkpt>
      <trkpt lat="45.16647" lon="5.26597">
        <ele>426.1</ele>
        <time>2020-05-26T16:54:14Z</time>
      </trkpt>
      <trkpt lat="45.1665" lon="5.26595">
        <ele>426.1</ele>
        <time>2020-05-26T16:54:15Z</time>
      </trkpt>
      <trkpt lat="45.16653" lon="5.26593">
        <ele>426.1</ele>
        <time>2020-05-26T16:54:16Z</time>
      </trkpt>
      <trkpt lat="45.16656" lon="5.26592">
        <ele>426.2</ele>
        <time>2020-05-26T16:54:17Z</time>
      </trkpt>
      <trkpt lat="45.16659" lon="5.2659">
        <ele>426.3</ele>
        <time>2020-05-26T16:54:18Z</time>
      </trkpt>
      <trkpt lat="45.16661" lon="5.26589">
        <ele>426.3</ele>
        <time>2020-05-26T16:54:19Z</time>
      </trkpt>
      <trkpt lat="45.16664" lon="5.26586">
        <ele>426.4</ele>
        <time>2020-05-26T16:54:20Z</time>
      </trkpt>
      <trkpt lat="45.16665" lon="5.26585">
        <ele>426.5</ele>
        <time>2020-05-26T16:54:21Z</time>
      </trkpt>
      <trkpt lat="45.16669" lon="5.26584">
        <ele>426.6</ele>
        <time>2020-05-26T16:54:22Z</time>
      </trkpt>
      <trkpt lat="45.1667" lon="5.26583">
        <ele>426.6</ele>
        <time>2020-05-26T16:54:23Z</time>
      </trkpt>
      <trkpt lat="45.16673" lon="5.2658">
        <ele>426.8</ele>
        <time>2020-05-26T16:54:24Z</time>
      </trkpt>
      <trkpt lat="45.16675" lon="5.26579">
        <ele>426.8</ele>
        <time>2020-05-26T16:54:25Z</time>
      </trkpt>
      <trkpt lat="45.16677" lon="5.26577">
        <ele>427</ele>
        <time>2020-05-26T16:54:26Z</time>
      </trkpt>
      <trkpt lat="45.16679" lon="5.26576">
        <ele>427</ele>
        <time>2020-05-26T16:54:27Z</time>
      </trkpt>
      <trkpt lat="45.1668" lon="5.26575">
        <ele>427.1</ele>
        <time>2020-05-26T16:54:28Z</time>
      </trkpt>
      <trkpt lat="45.16682" lon="5.26573">
        <ele>427.2</ele>
        <time>2020-05-26T16:54:29Z</time>
      </trkpt>
      <trkpt lat="45.16683" lon="5.26571">
        <ele>427.3</ele>
        <time>2020-05-26T16:54:30Z</time>
      </trkpt>
      <trkpt lat="45.16684" lon="5.26567">
        <ele>427.4</ele>
        <time>2020-05-26T16:54:31Z</time>
      </trkpt>
      <trkpt lat="45.16684" lon="5.26566">
        <ele>427.5</ele>
        <time>2020-05-26T16:54:32Z</time>
      </trkpt>
      <trkpt lat="45.16685" lon="5.26562">
        <ele>427.6</ele>
        <time>2020-05-26T16:54:33Z</time>
      </trkpt>
      <trkpt lat="45.16686" lon="5.26561">
        <ele>427.7</ele>
        <time>2020-05-26T16:54:34Z</time>
      </trkpt>
      <trkpt lat="45.16688" lon="5.26557">
        <ele>428</ele>
        <time>2020-05-26T16:54:35Z</time>
      </trkpt>
      <trkpt lat="45.16689" lon="5.26555">
        <ele>428.1</ele>
        <time>2020-05-26T16:54:36Z</time>
      </trkpt>
      <trkpt lat="45.16691" lon="5.26551">
        <ele>428.4</ele>
        <time>2020-05-26T16:54:37Z</time>
      </trkpt>
      <trkpt lat="45.16691" lon="5.26549">
        <ele>428.5</ele>
        <time>2020-05-26T16:54:38Z</time>
      </trkpt>
      <trkpt lat="45.16693" lon="5.26544">
        <ele>428.8</ele>
        <time>2020-05-26T16:54:39Z</time>
      </trkpt>
      <trkpt lat="45.16694" lon="5.26543">
        <ele>429</ele>
        <time>2020-05-26T16:54:40Z</time>
      </trkpt>
      <trkpt lat="45.16695" lon="5.26538">
        <ele>429.3</ele>
        <time>2020-05-26T16:54:41Z</time>
      </trkpt>
      <trkpt lat="45.16695" lon="5.26536">
        <ele>429.4</ele>
        <time>2020-05-26T16:54:42Z</time>
      </trkpt>
      <trkpt lat="45.16696" lon="5.26532">
        <ele>429.7</ele>
        <time>2020-05-26T16:54:43Z</time>
      </trkpt>
      <trkpt lat="45.16696" lon="5.26531">
        <ele>429.8</ele>
        <time>2020-05-26T16:54:44Z</time>
      </trkpt>
      <trkpt lat="45.16697" lon="5.26526">
        <ele>430.1</ele>
        <time>2020-05-26T16:54:45Z</time>
      </trkpt>
      <trkpt lat="45.16697" lon="5.26525">
        <ele>430.2</ele>
        <time>2020-05-26T16:54:46Z</time>
      </trkpt>
      <trkpt lat="45.16698" lon="5.2652">
        <ele>430.6</ele>
        <time>2020-05-26T16:54:47Z</time>
      </trkpt>
      <trkpt lat="45.16698" lon="5.26519">
        <ele>430.7</ele>
        <time>2020-05-26T16:54:48Z</time>
      </trkpt>
      <trkpt lat="45.16699" lon="5.26514">
        <ele>431</ele>
        <time>2020-05-26T16:54:49Z</time>
      </trkpt>
      <trkpt lat="45.16699" lon="5.26513">
        <ele>431.1</ele>
        <time>2020-05-26T16:54:50Z</time>
      </trkpt>
      <trkpt lat="45.167" lon="5.26509">
        <ele>431.4</ele>
        <time>2020-05-26T16:54:51Z</time>
      </trkpt>
      <trkpt lat="45.167" lon="5.26507">
        <ele>431.5</ele>
        <time>2020-05-26T16:54:52Z</time>
      </trkpt>
      <trkpt lat="45.16702" lon="5.26502">
        <ele>431.8</ele>
        <time>2020-05-26T16:54:53Z</time>
      </trkpt>
      <trkpt lat="45.16703" lon="5.265">
        <ele>432</ele>
        <time>2020-05-26T16:54:54Z</time>
      </trkpt>
      <trkpt lat="45.16704" lon="5.26495">
        <ele>432.3</ele>
        <time>2020-05-26T16:54:55Z</time>
      </trkpt>
      <trkpt lat="45.16704" lon="5.26494">
        <ele>432.4</ele>
        <time>2020-05-26T16:54:56Z</time>
      </trkpt>
      <trkpt lat="45.16703" lon="5.26489">
        <ele>432.6</ele>
        <time>2020-05-26T16:54:57Z</time>
      </trkpt>
      <trkpt lat="45.16703" lon="5.26487">
        <ele>432.7</ele>
        <time>2020-05-26T16:54:58Z</time>
      </trkpt>
      <trkpt lat="45.16703" lon="5.26483">
        <ele>432.9</ele>
        <time>2020-05-26T16:54:59Z</time>
      </trkpt>
      <trkpt lat="45.16702" lon="5.26479">
        <ele>433.2</ele>
        <time>2020-05-26T16:55:00Z</time>
      </trkpt>
      <trkpt lat="45.16702" lon="5.26478">
        <ele>433.2</ele>
        <time>2020-05-26T16:55:01Z</time>
      </trkpt>
      <trkpt lat="45.16701" lon="5.26474">
        <ele>433.4</ele>
        <time>2020-05-26T16:55:02Z</time>
      </trkpt>
      <trkpt lat="45.16701" lon="5.26472">
        <ele>433.5</ele>
        <time>2020-05-26T16:55:03Z</time>
      </trkpt>
      <trkpt lat="45.16702" lon="5.26468">
        <ele>433.7</ele>
        <time>2020-05-26T16:55:04Z</time>
      </trkpt>
      <trkpt lat="45.16702" lon="5.26466">
        <ele>433.7</ele>
        <time>2020-05-26T16:55:05Z</time>
      </trkpt>
      <trkpt lat="45.16704" lon="5.26462">
        <ele>433.9</ele>
        <time>2020-05-26T16:55:06Z</time>
      </trkpt>
      <trkpt lat="45.16705" lon="5.26461">
        <ele>433.9</ele>
        <time>2020-05-26T16:55:07Z</time>
      </trkpt>
      <trkpt lat="45.16707" lon="5.26458">
        <ele>434</ele>
        <time>2020-05-26T16:55:08Z</time>
      </trkpt>
      <trkpt lat="45.1671" lon="5.26456">
        <ele>434.1</ele>
        <time>2020-05-26T16:55:09Z</time>
      </trkpt>
      <trkpt lat="45.16713" lon="5.26454">
        <ele>434.2</ele>
        <time>2020-05-26T16:55:10Z</time>
      </trkpt>
      <trkpt lat="45.16716" lon="5.26451">
        <ele>434.3</ele>
        <time>2020-05-26T16:55:11Z</time>
      </trkpt>
      <trkpt lat="45.1672" lon="5.26448">
        <ele>434.3</ele>
        <time>2020-05-26T16:55:12Z</time>
      </trkpt>
      <trkpt lat="45.16723" lon="5.26447">
        <ele>434.3</ele>
        <time>2020-05-26T16:55:13Z</time>
      </trkpt>
      <trkpt lat="45.16726" lon="5.26445">
        <ele>434.4</ele>
        <time>2020-05-26T16:55:14Z</time>
      </trkpt>
      <trkpt lat="45.16729" lon="5.26442">
        <ele>434.4</ele>
        <time>2020-05-26T16:55:15Z</time>
      </trkpt>
      <trkpt lat="45.16731" lon="5.26438">
        <ele>434.3</ele>
        <time>2020-05-26T16:55:16Z</time>
      </trkpt>
      <trkpt lat="45.16731" lon="5.26437">
        <ele>434.3</ele>
        <time>2020-05-26T16:55:17Z</time>
      </trkpt>
      <trkpt lat="45.16734" lon="5.26433">
        <ele>434.2</ele>
        <time>2020-05-26T16:55:18Z</time>
      </trkpt>
      <trkpt lat="45.16735" lon="5.26431">
        <ele>434.2</ele>
        <time>2020-05-26T16:55:19Z</time>
      </trkpt>
      <trkpt lat="45.16739" lon="5.26429">
        <ele>434.1</ele>
        <time>2020-05-26T16:55:20Z</time>
      </trkpt>
      <trkpt lat="45.1674" lon="5.26429">
        <ele>434.1</ele>
        <time>2020-05-26T16:55:21Z</time>
      </trkpt>
      <trkpt lat="45.16743" lon="5.26428">
        <ele>433.9</ele>
        <time>2020-05-26T16:55:22Z</time>
      </trkpt>
      <trkpt lat="45.16747" lon="5.26428">
        <ele>433.8</ele>
        <time>2020-05-26T16:55:23Z</time>
      </trkpt>
      <trkpt lat="45.16751" lon="5.26427">
        <ele>433.7</ele>
        <time>2020-05-26T16:55:24Z</time>
      </trkpt>
      <trkpt lat="45.16752" lon="5.26427">
        <ele>433.6</ele>
        <time>2020-05-26T16:55:25Z</time>
      </trkpt>
      <trkpt lat="45.16755" lon="5.26425">
        <ele>433.5</ele>
        <time>2020-05-26T16:55:26Z</time>
      </trkpt>
      <trkpt lat="45.16758" lon="5.26424">
        <ele>433.4</ele>
        <time>2020-05-26T16:55:27Z</time>
      </trkpt>
      <trkpt lat="45.16761" lon="5.26423">
        <ele>433.3</ele>
        <time>2020-05-26T16:55:28Z</time>
      </trkpt>
      <trkpt lat="45.16765" lon="5.26421">
        <ele>433.1</ele>
        <time>2020-05-26T16:55:29Z</time>
      </trkpt>
      <trkpt lat="45.16767" lon="5.26419">
        <ele>433</ele>
        <time>2020-05-26T16:55:30Z</time>
      </trkpt>
      <trkpt lat="45.1677" lon="5.26415">
        <ele>432.9</ele>
        <time>2020-05-26T16:55:31Z</time>
      </trkpt>
      <trkpt lat="45.16771" lon="5.26414">
        <ele>432.8</ele>
        <time>2020-05-26T16:55:32Z</time>
      </trkpt>
      <trkpt lat="45.16772" lon="5.26411">
        <ele>432.7</ele>
        <time>2020-05-26T16:55:33Z</time>
      </trkpt>
      <trkpt lat="45.16774" lon="5.26408">
        <ele>432.6</ele>
        <time>2020-05-26T16:55:34Z</time>
      </trkpt>
      <trkpt lat="45.16777" lon="5.26405">
        <ele>432.5</ele>
        <time>2020-05-26T16:55:35Z</time>
      </trkpt>
      <trkpt lat="45.16779" lon="5.26403">
        <ele>432.4</ele>
        <time>2020-05-26T16:55:36Z</time>
      </trkpt>
      <trkpt lat="45.16782" lon="5.264">
        <ele>432.3</ele>
        <time>2020-05-26T16:55:37Z</time>
      </trkpt>
      <trkpt lat="45.16785" lon="5.26398">
        <ele>432.2</ele>
        <time>2020-05-26T16:55:38Z</time>
      </trkpt>
      <trkpt lat="45.16788" lon="5.26397">
        <ele>432.2</ele>
        <time>2020-05-26T16:55:39Z</time>
      </trkpt>
      <trkpt lat="45.1679" lon="5.26395">
        <ele>432.1</ele>
        <time>2020-05-26T16:55:40Z</time>
      </trkpt>
      <trkpt lat="45.16793" lon="5.26393">
        <ele>432</ele>
        <time>2020-05-26T16:55:41Z</time>
      </trkpt>
      <trkpt lat="45.16797" lon="5.26391">
        <ele>431.8</ele>
        <time>2020-05-26T16:55:42Z</time>
      </trkpt>
      <trkpt lat="45.16798" lon="5.2639">
        <ele>431.8</ele>
        <time>2020-05-26T16:55:43Z</time>
      </trkpt>
      <trkpt lat="45.16801" lon="5.26389">
        <ele>431.6</ele>
        <time>2020-05-26T16:55:44Z</time>
      </trkpt>
      <trkpt lat="45.16805" lon="5.26387">
        <ele>431.5</ele>
        <time>2020-05-26T16:55:45Z</time>
      </trkpt>
      <trkpt lat="45.16806" lon="5.26386">
        <ele>431.4</ele>
        <time>2020-05-26T16:55:46Z</time>
      </trkpt>
      <trkpt lat="45.16809" lon="5.26384">
        <ele>431.3</ele>
        <time>2020-05-26T16:55:47Z</time>
      </trkpt>
      <trkpt lat="45.16813" lon="5.26382">
        <ele>431.1</ele>
        <time>2020-05-26T16:55:48Z</time>
      </trkpt>
      <trkpt lat="45.16817" lon="5.26381">
        <ele>430.9</ele>
        <time>2020-05-26T16:55:49Z</time>
      </trkpt>
      <trkpt lat="45.16821" lon="5.2638">
        <ele>430.7</ele>
        <time>2020-05-26T16:55:50Z</time>
      </trkpt>
      <trkpt lat="45.16825" lon="5.26379">
        <ele>430.6</ele>
        <time>2020-05-26T16:55:51Z</time>
      </trkpt>
      <trkpt lat="45.16828" lon="5.26378">
        <ele>430.4</ele>
        <time>2020-05-26T16:55:52Z</time>
      </trkpt>
      <trkpt lat="45.16831" lon="5.26376">
        <ele>430.3</ele>
        <time>2020-05-26T16:55:53Z</time>
      </trkpt>
      <trkpt lat="45.16835" lon="5.26373">
        <ele>430.2</ele>
        <time>2020-05-26T16:55:54Z</time>
      </trkpt>
      <trkpt lat="45.16837" lon="5.26371">
        <ele>430.1</ele>
        <time>2020-05-26T16:55:55Z</time>
      </trkpt>
      <trkpt lat="45.16839" lon="5.26366">
        <ele>430</ele>
        <time>2020-05-26T16:55:56Z</time>
      </trkpt>
      <trkpt lat="45.1684" lon="5.26364">
        <ele>429.9</ele>
        <time>2020-05-26T16:55:57Z</time>
      </trkpt>
      <trkpt lat="45.16841" lon="5.26361">
        <ele>429.8</ele>
        <time>2020-05-26T16:55:58Z</time>
      </trkpt>
      <trkpt lat="45.16843" lon="5.26358">
        <ele>429.8</ele>
        <time>2020-05-26T16:55:59Z</time>
      </trkpt>
      <trkpt lat="45.16845" lon="5.26354">
        <ele>429.7</ele>
        <time>2020-05-26T16:56:00Z</time>
      </trkpt>
      <trkpt lat="45.16848" lon="5.26351">
        <ele>429.6</ele>
        <time>2020-05-26T16:56:01Z</time>
      </trkpt>
      <trkpt lat="45.16851" lon="5.26349">
        <ele>429.5</ele>
        <time>2020-05-26T16:56:02Z</time>
      </trkpt>
      <trkpt lat="45.16855" lon="5.26347">
        <ele>429.4</ele>
        <time>2020-05-26T16:56:03Z</time>
      </trkpt>
      <trkpt lat="45.16859" lon="5.26346">
        <ele>429.4</ele>
        <time>2020-05-26T16:56:04Z</time>
      </trkpt>
      <trkpt lat="45.16863" lon="5.26344">
        <ele>429.3</ele>
        <time>2020-05-26T16:56:05Z</time>
      </trkpt>
      <trkpt lat="45.16864" lon="5.26344">
        <ele>429.3</ele>
        <time>2020-05-26T16:56:06Z</time>
      </trkpt>
      <trkpt lat="45.16868" lon="5.26341">
        <ele>429.3</ele>
        <time>2020-05-26T16:56:07Z</time>
      </trkpt>
      <trkpt lat="45.16871" lon="5.26339">
        <ele>429.2</ele>
        <time>2020-05-26T16:56:08Z</time>
      </trkpt>
      <trkpt lat="45.16874" lon="5.26336">
        <ele>429.2</ele>
        <time>2020-05-26T16:56:09Z</time>
      </trkpt>
      <trkpt lat="45.16875" lon="5.26335">
        <ele>429.2</ele>
        <time>2020-05-26T16:56:10Z</time>
      </trkpt>
      <trkpt lat="45.16878" lon="5.26332">
        <ele>429.2</ele>
        <time>2020-05-26T16:56:11Z</time>
      </trkpt>
      <trkpt lat="45.16879" lon="5.26331">
        <ele>429.2</ele>
        <time>2020-05-26T16:56:12Z</time>
      </trkpt>
      <trkpt lat="45.16881" lon="5.26329">
        <ele>429.2</ele>
        <time>2020-05-26T16:56:13Z</time>
      </trkpt>
      <trkpt lat="45.16882" lon="5.26328">
        <ele>429.2</ele>
        <time>2020-05-26T16:56:14Z</time>
      </trkpt>
      <trkpt lat="45.16886" lon="5.26325">
        <ele>429.2</ele>
        <time>2020-05-26T16:56:15Z</time>
      </trkpt>
      <trkpt lat="45.16887" lon="5.26324">
        <ele>429.2</ele>
        <time>2020-05-26T16:56:16Z</time>
      </trkpt>
      <trkpt lat="45.16889" lon="5.26321">
        <ele>429.2</ele>
        <time>2020-05-26T16:56:17Z</time>
      </trkpt>
      <trkpt lat="45.16891" lon="5.26318">
        <ele>429.2</ele>
        <time>2020-05-26T16:56:18Z</time>
      </trkpt>
      <trkpt lat="45.16894" lon="5.26316">
        <ele>429.2</ele>
        <time>2020-05-26T16:56:19Z</time>
      </trkpt>
      <trkpt lat="45.16897" lon="5.26312">
        <ele>429.3</ele>
        <time>2020-05-26T16:56:20Z</time>
      </trkpt>
      <trkpt lat="45.169" lon="5.26309">
        <ele>429.3</ele>
        <time>2020-05-26T16:56:21Z</time>
      </trkpt>
      <trkpt lat="45.16903" lon="5.26307">
        <ele>429.3</ele>
        <time>2020-05-26T16:56:22Z</time>
      </trkpt>
      <trkpt lat="45.16906" lon="5.26304">
        <ele>429.4</ele>
        <time>2020-05-26T16:56:23Z</time>
      </trkpt>
      <trkpt lat="45.16908" lon="5.26301">
        <ele>429.4</ele>
        <time>2020-05-26T16:56:24Z</time>
      </trkpt>
      <trkpt lat="45.16911" lon="5.26298">
        <ele>429.5</ele>
        <time>2020-05-26T16:56:25Z</time>
      </trkpt>
      <trkpt lat="45.16913" lon="5.26295">
        <ele>429.5</ele>
        <time>2020-05-26T16:56:26Z</time>
      </trkpt>
      <trkpt lat="45.16914" lon="5.26292">
        <ele>429.6</ele>
        <time>2020-05-26T16:56:27Z</time>
      </trkpt>
      <trkpt lat="45.16916" lon="5.26288">
        <ele>429.6</ele>
        <time>2020-05-26T16:56:28Z</time>
      </trkpt>
      <trkpt lat="45.16916" lon="5.26287">
        <ele>429.6</ele>
        <time>2020-05-26T16:56:29Z</time>
      </trkpt>
      <trkpt lat="45.16918" lon="5.26284">
        <ele>429.7</ele>
        <time>2020-05-26T16:56:30Z</time>
      </trkpt>
      <trkpt lat="45.1692" lon="5.26281">
        <ele>429.7</ele>
        <time>2020-05-26T16:56:31Z</time>
      </trkpt>
      <trkpt lat="45.16923" lon="5.26278">
        <ele>429.7</ele>
        <time>2020-05-26T16:56:32Z</time>
      </trkpt>
      <trkpt lat="45.16924" lon="5.26277">
        <ele>429.8</ele>
        <time>2020-05-26T16:56:33Z</time>
      </trkpt>
      <trkpt lat="45.16926" lon="5.26274">
        <ele>429.8</ele>
        <time>2020-05-26T16:56:34Z</time>
      </trkpt>
      <trkpt lat="45.16929" lon="5.26272">
        <ele>429.8</ele>
        <time>2020-05-26T16:56:35Z</time>
      </trkpt>
      <trkpt lat="45.16931" lon="5.2627">
        <ele>429.8</ele>
        <time>2020-05-26T16:56:36Z</time>
      </trkpt>
      <trkpt lat="45.16934" lon="5.26268">
        <ele>429.9</ele>
        <time>2020-05-26T16:56:37Z</time>
      </trkpt>
      <trkpt lat="45.16936" lon="5.26268">
        <ele>429.9</ele>
        <time>2020-05-26T16:56:38Z</time>
      </trkpt>
      <trkpt lat="45.16939" lon="5.26266">
        <ele>429.9</ele>
        <time>2020-05-26T16:56:39Z</time>
      </trkpt>
      <trkpt lat="45.16942" lon="5.26264">
        <ele>430</ele>
        <time>2020-05-26T16:56:40Z</time>
      </trkpt>
      <trkpt lat="45.16943" lon="5.26263">
        <ele>430</ele>
        <time>2020-05-26T16:56:41Z</time>
      </trkpt>
      <trkpt lat="45.16946" lon="5.26261">
        <ele>430</ele>
        <time>2020-05-26T16:56:42Z</time>
      </trkpt>
      <trkpt lat="45.16949" lon="5.26259">
        <ele>430</ele>
        <time>2020-05-26T16:56:43Z</time>
      </trkpt>
      <trkpt lat="45.1695" lon="5.26258">
        <ele>430</ele>
        <time>2020-05-26T16:56:44Z</time>
      </trkpt>
      <trkpt lat="45.16954" lon="5.26257">
        <ele>429.9</ele>
        <time>2020-05-26T16:56:45Z</time>
      </trkpt>
      <trkpt lat="45.16955" lon="5.26256">
        <ele>429.9</ele>
        <time>2020-05-26T16:56:46Z</time>
      </trkpt>
      <trkpt lat="45.16958" lon="5.26254">
        <ele>429.9</ele>
        <time>2020-05-26T16:56:47Z</time>
      </trkpt>
      <trkpt lat="45.16961" lon="5.26251">
        <ele>430.1</ele>
        <time>2020-05-26T16:56:48Z</time>
      </trkpt>
      <trkpt lat="45.16964" lon="5.26249">
        <ele>430.3</ele>
        <time>2020-05-26T16:56:49Z</time>
      </trkpt>
      <trkpt lat="45.16967" lon="5.26246">
        <ele>430.4</ele>
        <time>2020-05-26T16:56:50Z</time>
      </trkpt>
      <trkpt lat="45.16971" lon="5.26242">
        <ele>430.6</ele>
        <time>2020-05-26T16:56:51Z</time>
      </trkpt>
      <trkpt lat="45.16973" lon="5.26238">
        <ele>430.7</ele>
        <time>2020-05-26T16:56:52Z</time>
      </trkpt>
      <trkpt lat="45.16975" lon="5.26234">
        <ele>430.8</ele>
        <time>2020-05-26T16:56:53Z</time>
      </trkpt>
      <trkpt lat="45.16976" lon="5.26229">
        <ele>430.9</ele>
        <time>2020-05-26T16:56:54Z</time>
      </trkpt>
      <trkpt lat="45.16977" lon="5.26225">
        <ele>431.1</ele>
        <time>2020-05-26T16:56:55Z</time>
      </trkpt>
      <trkpt lat="45.16978" lon="5.26221">
        <ele>431.2</ele>
        <time>2020-05-26T16:56:56Z</time>
      </trkpt>
      <trkpt lat="45.16979" lon="5.26217">
        <ele>431.3</ele>
        <time>2020-05-26T16:56:57Z</time>
      </trkpt>
      <trkpt lat="45.16979" lon="5.26213">
        <ele>431.5</ele>
        <time>2020-05-26T16:56:58Z</time>
      </trkpt>
      <trkpt lat="45.16979" lon="5.26209">
        <ele>431.6</ele>
        <time>2020-05-26T16:56:59Z</time>
      </trkpt>
      <trkpt lat="45.16979" lon="5.26205">
        <ele>431.8</ele>
        <time>2020-05-26T16:57:00Z</time>
      </trkpt>
      <trkpt lat="45.16979" lon="5.26201">
        <ele>431.9</ele>
        <time>2020-05-26T16:57:01Z</time>
      </trkpt>
      <trkpt lat="45.1698" lon="5.26196">
        <ele>432.1</ele>
        <time>2020-05-26T16:57:02Z</time>
      </trkpt>
      <trkpt lat="45.1698" lon="5.26195">
        <ele>432.1</ele>
        <time>2020-05-26T16:57:03Z</time>
      </trkpt>
      <trkpt lat="45.16982" lon="5.26191">
        <ele>432.3</ele>
        <time>2020-05-26T16:57:04Z</time>
      </trkpt>
      <trkpt lat="45.16983" lon="5.26187">
        <ele>432.4</ele>
        <time>2020-05-26T16:57:05Z</time>
      </trkpt>
      <trkpt lat="45.16983" lon="5.26186">
        <ele>432.5</ele>
        <time>2020-05-26T16:57:06Z</time>
      </trkpt>
      <trkpt lat="45.16984" lon="5.26181">
        <ele>432.7</ele>
        <time>2020-05-26T16:57:07Z</time>
      </trkpt>
      <trkpt lat="45.16984" lon="5.26179">
        <ele>432.7</ele>
        <time>2020-05-26T16:57:08Z</time>
      </trkpt>
      <trkpt lat="45.16986" lon="5.26174">
        <ele>433</ele>
        <time>2020-05-26T16:57:09Z</time>
      </trkpt>
      <trkpt lat="45.16987" lon="5.26172">
        <ele>433.1</ele>
        <time>2020-05-26T16:57:10Z</time>
      </trkpt>
      <trkpt lat="45.16989" lon="5.26168">
        <ele>433.3</ele>
        <time>2020-05-26T16:57:11Z</time>
      </trkpt>
      <trkpt lat="45.1699" lon="5.26167">
        <ele>433.4</ele>
        <time>2020-05-26T16:57:12Z</time>
      </trkpt>
      <trkpt lat="45.16993" lon="5.26165">
        <ele>433.6</ele>
        <time>2020-05-26T16:57:13Z</time>
      </trkpt>
      <trkpt lat="45.16995" lon="5.26163">
        <ele>433.7</ele>
        <time>2020-05-26T16:57:14Z</time>
      </trkpt>
      <trkpt lat="45.16997" lon="5.2616">
        <ele>433.9</ele>
        <time>2020-05-26T16:57:15Z</time>
      </trkpt>
      <trkpt lat="45.16999" lon="5.26157">
        <ele>434.1</ele>
        <time>2020-05-26T16:57:16Z</time>
      </trkpt>
      <trkpt lat="45.17001" lon="5.26152">
        <ele>434.4</ele>
        <time>2020-05-26T16:57:17Z</time>
      </trkpt>
      <trkpt lat="45.17002" lon="5.26151">
        <ele>434.4</ele>
        <time>2020-05-26T16:57:18Z</time>
      </trkpt>
      <trkpt lat="45.17005" lon="5.26147">
        <ele>434.6</ele>
        <time>2020-05-26T16:57:19Z</time>
      </trkpt>
      <trkpt lat="45.17008" lon="5.26143">
        <ele>434.8</ele>
        <time>2020-05-26T16:57:20Z</time>
      </trkpt>
      <trkpt lat="45.17009" lon="5.26142">
        <ele>434.9</ele>
        <time>2020-05-26T16:57:21Z</time>
      </trkpt>
      <trkpt lat="45.17011" lon="5.26139">
        <ele>435</ele>
        <time>2020-05-26T16:57:22Z</time>
      </trkpt>
      <trkpt lat="45.17013" lon="5.26136">
        <ele>435.1</ele>
        <time>2020-05-26T16:57:23Z</time>
      </trkpt>
      <trkpt lat="45.17016" lon="5.26133">
        <ele>435.2</ele>
        <time>2020-05-26T16:57:24Z</time>
      </trkpt>
      <trkpt lat="45.17018" lon="5.26129">
        <ele>435.3</ele>
        <time>2020-05-26T16:57:25Z</time>
      </trkpt>
      <trkpt lat="45.17021" lon="5.26125">
        <ele>435.5</ele>
        <time>2020-05-26T16:57:26Z</time>
      </trkpt>
      <trkpt lat="45.17022" lon="5.26124">
        <ele>435.5</ele>
        <time>2020-05-26T16:57:27Z</time>
      </trkpt>
      <trkpt lat="45.17025" lon="5.26121">
        <ele>435.6</ele>
        <time>2020-05-26T16:57:28Z</time>
      </trkpt>
      <trkpt lat="45.17028" lon="5.26117">
        <ele>435.7</ele>
        <time>2020-05-26T16:57:29Z</time>
      </trkpt>
      <trkpt lat="45.17029" lon="5.26116">
        <ele>435.8</ele>
        <time>2020-05-26T16:57:30Z</time>
      </trkpt>
      <trkpt lat="45.17031" lon="5.26113">
        <ele>435.9</ele>
        <time>2020-05-26T16:57:31Z</time>
      </trkpt>
      <trkpt lat="45.17034" lon="5.26109">
        <ele>436.1</ele>
        <time>2020-05-26T16:57:32Z</time>
      </trkpt>
      <trkpt lat="45.17035" lon="5.26108">
        <ele>436.1</ele>
        <time>2020-05-26T16:57:33Z</time>
      </trkpt>
      <trkpt lat="45.17038" lon="5.26105">
        <ele>436.3</ele>
        <time>2020-05-26T16:57:34Z</time>
      </trkpt>
      <trkpt lat="45.1704" lon="5.26102">
        <ele>436.4</ele>
        <time>2020-05-26T16:57:35Z</time>
      </trkpt>
      <trkpt lat="45.17041" lon="5.261">
        <ele>436.5</ele>
        <time>2020-05-26T16:57:36Z</time>
      </trkpt>
      <trkpt lat="45.17043" lon="5.26098">
        <ele>436.7</ele>
        <time>2020-05-26T16:57:37Z</time>
      </trkpt>
      <trkpt lat="45.17046" lon="5.26095">
        <ele>436.9</ele>
        <time>2020-05-26T16:57:38Z</time>
      </trkpt>
      <trkpt lat="45.17047" lon="5.26094">
        <ele>437</ele>
        <time>2020-05-26T16:57:39Z</time>
      </trkpt>
      <trkpt lat="45.17049" lon="5.26092">
        <ele>437.3</ele>
        <time>2020-05-26T16:57:40Z</time>
      </trkpt>
      <trkpt lat="45.17052" lon="5.2609">
        <ele>437.6</ele>
        <time>2020-05-26T16:57:41Z</time>
      </trkpt>
      <trkpt lat="45.17052" lon="5.26089">
        <ele>437.7</ele>
        <time>2020-05-26T16:57:42Z</time>
      </trkpt>
      <trkpt lat="45.17055" lon="5.26086">
        <ele>438</ele>
        <time>2020-05-26T16:57:43Z</time>
      </trkpt>
      <trkpt lat="45.17056" lon="5.26085">
        <ele>438.1</ele>
        <time>2020-05-26T16:57:44Z</time>
      </trkpt>
      <trkpt lat="45.17059" lon="5.26082">
        <ele>438.5</ele>
        <time>2020-05-26T16:57:45Z</time>
      </trkpt>
      <trkpt lat="45.1706" lon="5.26081">
        <ele>438.7</ele>
        <time>2020-05-26T16:57:46Z</time>
      </trkpt>
      <trkpt lat="45.17061" lon="5.2608">
        <ele>438.9</ele>
        <time>2020-05-26T16:57:47Z</time>
      </trkpt>
      <trkpt lat="45.17063" lon="5.26079">
        <ele>439.1</ele>
        <time>2020-05-26T16:57:48Z</time>
      </trkpt>
      <trkpt lat="45.17066" lon="5.26077">
        <ele>439.5</ele>
        <time>2020-05-26T16:57:49Z</time>
      </trkpt>
      <trkpt lat="45.17066" lon="5.26076">
        <ele>439.6</ele>
        <time>2020-05-26T16:57:50Z</time>
      </trkpt>
      <trkpt lat="45.17068" lon="5.26072">
        <ele>440.1</ele>
        <time>2020-05-26T16:57:51Z</time>
      </trkpt>
      <trkpt lat="45.17069" lon="5.2607">
        <ele>440.3</ele>
        <time>2020-05-26T16:57:52Z</time>
      </trkpt>
      <trkpt lat="45.1707" lon="5.26067">
        <ele>440.7</ele>
        <time>2020-05-26T16:57:53Z</time>
      </trkpt>
      <trkpt lat="45.1707" lon="5.26065">
        <ele>440.8</ele>
        <time>2020-05-26T16:57:54Z</time>
      </trkpt>
      <trkpt lat="45.17071" lon="5.26061">
        <ele>441.2</ele>
        <time>2020-05-26T16:57:55Z</time>
      </trkpt>
      <trkpt lat="45.17072" lon="5.2606">
        <ele>441.3</ele>
        <time>2020-05-26T16:57:56Z</time>
      </trkpt>
      <trkpt lat="45.17072" lon="5.26058">
        <ele>441.5</ele>
        <time>2020-05-26T16:57:57Z</time>
      </trkpt>
      <trkpt lat="45.17072" lon="5.26055">
        <ele>441.8</ele>
        <time>2020-05-26T16:57:58Z</time>
      </trkpt>
      <trkpt lat="45.17072" lon="5.26051">
        <ele>442.1</ele>
        <time>2020-05-26T16:57:59Z</time>
      </trkpt>
      <trkpt lat="45.17072" lon="5.2605">
        <ele>442.2</ele>
        <time>2020-05-26T16:58:00Z</time>
      </trkpt>
      <trkpt lat="45.17072" lon="5.26045">
        <ele>442.6</ele>
        <time>2020-05-26T16:58:01Z</time>
      </trkpt>
      <trkpt lat="45.17072" lon="5.26044">
        <ele>442.7</ele>
        <time>2020-05-26T16:58:02Z</time>
      </trkpt>
      <trkpt lat="45.17073" lon="5.26039">
        <ele>443.1</ele>
        <time>2020-05-26T16:58:03Z</time>
      </trkpt>
      <trkpt lat="45.17073" lon="5.26037">
        <ele>443.3</ele>
        <time>2020-05-26T16:58:04Z</time>
      </trkpt>
      <trkpt lat="45.17073" lon="5.26033">
        <ele>443.6</ele>
        <time>2020-05-26T16:58:05Z</time>
      </trkpt>
      <trkpt lat="45.17073" lon="5.26031">
        <ele>443.7</ele>
        <time>2020-05-26T16:58:06Z</time>
      </trkpt>
      <trkpt lat="45.17073" lon="5.26027">
        <ele>444</ele>
        <time>2020-05-26T16:58:07Z</time>
      </trkpt>
      <trkpt lat="45.17073" lon="5.26025">
        <ele>444.1</ele>
        <time>2020-05-26T16:58:08Z</time>
      </trkpt>
      <trkpt lat="45.17073" lon="5.2602">
        <ele>444.5</ele>
        <time>2020-05-26T16:58:09Z</time>
      </trkpt>
      <trkpt lat="45.17073" lon="5.26018">
        <ele>444.6</ele>
        <time>2020-05-26T16:58:10Z</time>
      </trkpt>
      <trkpt lat="45.17074" lon="5.26013">
        <ele>445</ele>
        <time>2020-05-26T16:58:11Z</time>
      </trkpt>
      <trkpt lat="45.17075" lon="5.26011">
        <ele>445.1</ele>
        <time>2020-05-26T16:58:12Z</time>
      </trkpt>
      <trkpt lat="45.17076" lon="5.26006">
        <ele>445.5</ele>
        <time>2020-05-26T16:58:13Z</time>
      </trkpt>
      <trkpt lat="45.17077" lon="5.26004">
        <ele>445.7</ele>
        <time>2020-05-26T16:58:14Z</time>
      </trkpt>
      <trkpt lat="45.17079" lon="5.26">
        <ele>446.1</ele>
        <time>2020-05-26T16:58:15Z</time>
      </trkpt>
      <trkpt lat="45.1708" lon="5.25998">
        <ele>446.2</ele>
        <time>2020-05-26T16:58:16Z</time>
      </trkpt>
      <trkpt lat="45.17083" lon="5.25995">
        <ele>446.5</ele>
        <time>2020-05-26T16:58:17Z</time>
      </trkpt>
      <trkpt lat="45.17085" lon="5.25993">
        <ele>446.8</ele>
        <time>2020-05-26T16:58:18Z</time>
      </trkpt>
      <trkpt lat="45.17087" lon="5.2599">
        <ele>447.1</ele>
        <time>2020-05-26T16:58:19Z</time>
      </trkpt>
      <trkpt lat="45.1709" lon="5.25986">
        <ele>447.4</ele>
        <time>2020-05-26T16:58:20Z</time>
      </trkpt>
      <trkpt lat="45.17091" lon="5.25984">
        <ele>447.5</ele>
        <time>2020-05-26T16:58:21Z</time>
      </trkpt>
      <trkpt lat="45.17093" lon="5.25981">
        <ele>447.7</ele>
        <time>2020-05-26T16:58:22Z</time>
      </trkpt>
      <trkpt lat="45.17096" lon="5.25977">
        <ele>448</ele>
        <time>2020-05-26T16:58:23Z</time>
      </trkpt>
      <trkpt lat="45.17097" lon="5.25976">
        <ele>448</ele>
        <time>2020-05-26T16:58:24Z</time>
      </trkpt>
      <trkpt lat="45.17099" lon="5.25973">
        <ele>448.2</ele>
        <time>2020-05-26T16:58:25Z</time>
      </trkpt>
      <trkpt lat="45.17102" lon="5.2597">
        <ele>448.2</ele>
        <time>2020-05-26T16:58:26Z</time>
      </trkpt>
      <trkpt lat="45.17103" lon="5.25968">
        <ele>448.2</ele>
        <time>2020-05-26T16:58:27Z</time>
      </trkpt>
      <trkpt lat="45.17106" lon="5.25965">
        <ele>448.3</ele>
        <time>2020-05-26T16:58:28Z</time>
      </trkpt>
      <trkpt lat="45.17108" lon="5.25963">
        <ele>448.3</ele>
        <time>2020-05-26T16:58:29Z</time>
      </trkpt>
      <trkpt lat="45.17111" lon="5.25961">
        <ele>448.3</ele>
        <time>2020-05-26T16:58:30Z</time>
      </trkpt>
      <trkpt lat="45.17114" lon="5.25959">
        <ele>448.3</ele>
        <time>2020-05-26T16:58:31Z</time>
      </trkpt>
      <trkpt lat="45.17117" lon="5.25957">
        <ele>448.3</ele>
        <time>2020-05-26T16:58:32Z</time>
      </trkpt>
      <trkpt lat="45.17119" lon="5.25956">
        <ele>448.3</ele>
        <time>2020-05-26T16:58:33Z</time>
      </trkpt>
      <trkpt lat="45.17122" lon="5.25954">
        <ele>448.2</ele>
        <time>2020-05-26T16:58:34Z</time>
      </trkpt>
      <trkpt lat="45.17125" lon="5.25952">
        <ele>448.2</ele>
        <time>2020-05-26T16:58:35Z</time>
      </trkpt>
      <trkpt lat="45.17129" lon="5.2595">
        <ele>448.2</ele>
        <time>2020-05-26T16:58:36Z</time>
      </trkpt>
      <trkpt lat="45.1713" lon="5.25949">
        <ele>448.2</ele>
        <time>2020-05-26T16:58:37Z</time>
      </trkpt>
      <trkpt lat="45.17132" lon="5.25947">
        <ele>448.1</ele>
        <time>2020-05-26T16:58:38Z</time>
      </trkpt>
      <trkpt lat="45.17136" lon="5.25945">
        <ele>448.1</ele>
        <time>2020-05-26T16:58:39Z</time>
      </trkpt>
      <trkpt lat="45.17137" lon="5.25944">
        <ele>448.1</ele>
        <time>2020-05-26T16:58:40Z</time>
      </trkpt>
      <trkpt lat="45.1714" lon="5.25942">
        <ele>448.1</ele>
        <time>2020-05-26T16:58:41Z</time>
      </trkpt>
      <trkpt lat="45.17143" lon="5.2594">
        <ele>448</ele>
        <time>2020-05-26T16:58:42Z</time>
      </trkpt>
      <trkpt lat="45.17145" lon="5.2594">
        <ele>448</ele>
        <time>2020-05-26T16:58:43Z</time>
      </trkpt>
      <trkpt lat="45.17147" lon="5.25938">
        <ele>448</ele>
        <time>2020-05-26T16:58:44Z</time>
      </trkpt>
      <trkpt lat="45.17151" lon="5.25935">
        <ele>448</ele>
        <time>2020-05-26T16:58:45Z</time>
      </trkpt>
      <trkpt lat="45.17153" lon="5.25935">
        <ele>448</ele>
        <time>2020-05-26T16:58:46Z</time>
      </trkpt>
      <trkpt lat="45.17155" lon="5.25933">
        <ele>448</ele>
        <time>2020-05-26T16:58:47Z</time>
      </trkpt>
      <trkpt lat="45.17159" lon="5.25932">
        <ele>448.1</ele>
        <time>2020-05-26T16:58:48Z</time>
      </trkpt>
      <trkpt lat="45.1716" lon="5.25931">
        <ele>448.1</ele>
        <time>2020-05-26T16:58:49Z</time>
      </trkpt>
      <trkpt lat="45.17163" lon="5.25929">
        <ele>448.1</ele>
        <time>2020-05-26T16:58:50Z</time>
      </trkpt>
      <trkpt lat="45.17167" lon="5.25927">
        <ele>448.2</ele>
        <time>2020-05-26T16:58:51Z</time>
      </trkpt>
      <trkpt lat="45.17168" lon="5.25927">
        <ele>448.2</ele>
        <time>2020-05-26T16:58:52Z</time>
      </trkpt>
      <trkpt lat="45.17171" lon="5.25925">
        <ele>448.3</ele>
        <time>2020-05-26T16:58:53Z</time>
      </trkpt>
      <trkpt lat="45.17174" lon="5.25923">
        <ele>448.4</ele>
        <time>2020-05-26T16:58:54Z</time>
      </trkpt>
      <trkpt lat="45.17175" lon="5.25923">
        <ele>448.5</ele>
        <time>2020-05-26T16:58:55Z</time>
      </trkpt>
      <trkpt lat="45.17178" lon="5.25921">
        <ele>448.5</ele>
        <time>2020-05-26T16:58:56Z</time>
      </trkpt>
      <trkpt lat="45.17181" lon="5.25919">
        <ele>448.6</ele>
        <time>2020-05-26T16:58:57Z</time>
      </trkpt>
      <trkpt lat="45.17183" lon="5.25919">
        <ele>448.7</ele>
        <time>2020-05-26T16:58:58Z</time>
      </trkpt>
      <trkpt lat="45.17185" lon="5.25917">
        <ele>448.7</ele>
        <time>2020-05-26T16:58:59Z</time>
      </trkpt>
      <trkpt lat="45.17189" lon="5.25915">
        <ele>448.8</ele>
        <time>2020-05-26T16:59:00Z</time>
      </trkpt>
      <trkpt lat="45.1719" lon="5.25915">
        <ele>448.9</ele>
        <time>2020-05-26T16:59:01Z</time>
      </trkpt>
      <trkpt lat="45.17193" lon="5.25913">
        <ele>449</ele>
        <time>2020-05-26T16:59:02Z</time>
      </trkpt>
      <trkpt lat="45.17198" lon="5.25911">
        <ele>449.1</ele>
        <time>2020-05-26T16:59:03Z</time>
      </trkpt>
      <trkpt lat="45.17199" lon="5.25911">
        <ele>449.1</ele>
        <time>2020-05-26T16:59:04Z</time>
      </trkpt>
      <trkpt lat="45.17202" lon="5.25909">
        <ele>449.2</ele>
        <time>2020-05-26T16:59:05Z</time>
      </trkpt>
      <trkpt lat="45.17206" lon="5.25908">
        <ele>449.3</ele>
        <time>2020-05-26T16:59:06Z</time>
      </trkpt>
      <trkpt lat="45.17207" lon="5.25907">
        <ele>449.4</ele>
        <time>2020-05-26T16:59:07Z</time>
      </trkpt>
      <trkpt lat="45.1721" lon="5.25906">
        <ele>449.5</ele>
        <time>2020-05-26T16:59:08Z</time>
      </trkpt>
      <trkpt lat="45.17214" lon="5.25904">
        <ele>449.5</ele>
        <time>2020-05-26T16:59:09Z</time>
      </trkpt>
      <trkpt lat="45.17216" lon="5.25904">
        <ele>449.6</ele>
        <time>2020-05-26T16:59:10Z</time>
      </trkpt>
      <trkpt lat="45.17219" lon="5.25903">
        <ele>449.7</ele>
        <time>2020-05-26T16:59:11Z</time>
      </trkpt>
      <trkpt lat="45.17222" lon="5.25903">
        <ele>449.7</ele>
        <time>2020-05-26T16:59:12Z</time>
      </trkpt>
      <trkpt lat="45.17225" lon="5.25902">
        <ele>449.7</ele>
        <time>2020-05-26T16:59:13Z</time>
      </trkpt>
      <trkpt lat="45.17228" lon="5.25901">
        <ele>449.8</ele>
        <time>2020-05-26T16:59:14Z</time>
      </trkpt>
      <trkpt lat="45.17231" lon="5.259">
        <ele>449.8</ele>
        <time>2020-05-26T16:59:15Z</time>
      </trkpt>
      <trkpt lat="45.17234" lon="5.25898">
        <ele>449.9</ele>
        <time>2020-05-26T16:59:16Z</time>
      </trkpt>
      <trkpt lat="45.17237" lon="5.25897">
        <ele>449.9</ele>
        <time>2020-05-26T16:59:17Z</time>
      </trkpt>
      <trkpt lat="45.1724" lon="5.25896">
        <ele>449.9</ele>
        <time>2020-05-26T16:59:18Z</time>
      </trkpt>
      <trkpt lat="45.17243" lon="5.25895">
        <ele>450</ele>
        <time>2020-05-26T16:59:19Z</time>
      </trkpt>
      <trkpt lat="45.17247" lon="5.25893">
        <ele>450</ele>
        <time>2020-05-26T16:59:20Z</time>
      </trkpt>
      <trkpt lat="45.17249" lon="5.25892">
        <ele>450</ele>
        <time>2020-05-26T16:59:21Z</time>
      </trkpt>
      <trkpt lat="45.17252" lon="5.25891">
        <ele>450</ele>
        <time>2020-05-26T16:59:22Z</time>
      </trkpt>
      <trkpt lat="45.17256" lon="5.2589">
        <ele>450.1</ele>
        <time>2020-05-26T16:59:23Z</time>
      </trkpt>
      <trkpt lat="45.17257" lon="5.25889">
        <ele>450.1</ele>
        <time>2020-05-26T16:59:24Z</time>
      </trkpt>
      <trkpt lat="45.1726" lon="5.25888">
        <ele>450.1</ele>
        <time>2020-05-26T16:59:25Z</time>
      </trkpt>
      <trkpt lat="45.17263" lon="5.25887">
        <ele>450.1</ele>
        <time>2020-05-26T16:59:26Z</time>
      </trkpt>
      <trkpt lat="45.17266" lon="5.25885">
        <ele>450.1</ele>
        <time>2020-05-26T16:59:27Z</time>
      </trkpt>
      <trkpt lat="45.17269" lon="5.25883">
        <ele>450.1</ele>
        <time>2020-05-26T16:59:28Z</time>
      </trkpt>
      <trkpt lat="45.17272" lon="5.25882">
        <ele>450</ele>
        <time>2020-05-26T16:59:29Z</time>
      </trkpt>
      <trkpt lat="45.17275" lon="5.2588">
        <ele>450</ele>
        <time>2020-05-26T16:59:30Z</time>
      </trkpt>
      <trkpt lat="45.17279" lon="5.25878">
        <ele>450</ele>
        <time>2020-05-26T16:59:31Z</time>
      </trkpt>
      <trkpt lat="45.17281" lon="5.25877">
        <ele>450</ele>
        <time>2020-05-26T16:59:32Z</time>
      </trkpt>
      <trkpt lat="45.17285" lon="5.25875">
        <ele>450</ele>
        <time>2020-05-26T16:59:33Z</time>
      </trkpt>
      <trkpt lat="45.17288" lon="5.25874">
        <ele>450</ele>
        <time>2020-05-26T16:59:34Z</time>
      </trkpt>
      <trkpt lat="45.17291" lon="5.25872">
        <ele>450</ele>
        <time>2020-05-26T16:59:35Z</time>
      </trkpt>
      <trkpt lat="45.17293" lon="5.2587">
        <ele>450</ele>
        <time>2020-05-26T16:59:36Z</time>
      </trkpt>
      <trkpt lat="45.17296" lon="5.25869">
        <ele>450</ele>
        <time>2020-05-26T16:59:37Z</time>
      </trkpt>
      <trkpt lat="45.17299" lon="5.25867">
        <ele>450</ele>
        <time>2020-05-26T16:59:38Z</time>
      </trkpt>
      <trkpt lat="45.17302" lon="5.25865">
        <ele>450</ele>
        <time>2020-05-26T16:59:39Z</time>
      </trkpt>
      <trkpt lat="45.17304" lon="5.25862">
        <ele>450.1</ele>
        <time>2020-05-26T16:59:40Z</time>
      </trkpt>
      <trkpt lat="45.17307" lon="5.2586">
        <ele>450.1</ele>
        <time>2020-05-26T16:59:41Z</time>
      </trkpt>
      <trkpt lat="45.17309" lon="5.25858">
        <ele>450.1</ele>
        <time>2020-05-26T16:59:42Z</time>
      </trkpt>
      <trkpt lat="45.17312" lon="5.25856">
        <ele>450.1</ele>
        <time>2020-05-26T16:59:43Z</time>
      </trkpt>
      <trkpt lat="45.17315" lon="5.25854">
        <ele>450</ele>
        <time>2020-05-26T16:59:44Z</time>
      </trkpt>
      <trkpt lat="45.17317" lon="5.25852">
        <ele>450</ele>
        <time>2020-05-26T16:59:45Z</time>
      </trkpt>
      <trkpt lat="45.1732" lon="5.25849">
        <ele>449.9</ele>
        <time>2020-05-26T16:59:46Z</time>
      </trkpt>
      <trkpt lat="45.17322" lon="5.25846">
        <ele>449.8</ele>
        <time>2020-05-26T16:59:47Z</time>
      </trkpt>
      <trkpt lat="45.17325" lon="5.25843">
        <ele>449.5</ele>
        <time>2020-05-26T16:59:48Z</time>
      </trkpt>
      <trkpt lat="45.17327" lon="5.25841">
        <ele>449.3</ele>
        <time>2020-05-26T16:59:49Z</time>
      </trkpt>
      <trkpt lat="45.17329" lon="5.25838">
        <ele>449</ele>
        <time>2020-05-26T16:59:50Z</time>
      </trkpt>
      <trkpt lat="45.17332" lon="5.25835">
        <ele>449.2</ele>
        <time>2020-05-26T16:59:51Z</time>
      </trkpt>
      <trkpt lat="45.17334" lon="5.25833">
        <ele>449.3</ele>
        <time>2020-05-26T16:59:52Z</time>
      </trkpt>
      <trkpt lat="45.17336" lon="5.2583">
        <ele>449.3</ele>
        <time>2020-05-26T16:59:53Z</time>
      </trkpt>
      <trkpt lat="45.17339" lon="5.25827">
        <ele>449.4</ele>
        <time>2020-05-26T16:59:54Z</time>
      </trkpt>
      <trkpt lat="45.17341" lon="5.25823">
        <ele>449.3</ele>
        <time>2020-05-26T16:59:55Z</time>
      </trkpt>
      <trkpt lat="45.17343" lon="5.2582">
        <ele>449.3</ele>
        <time>2020-05-26T16:59:56Z</time>
      </trkpt>
      <trkpt lat="45.17346" lon="5.25816">
        <ele>449.2</ele>
        <time>2020-05-26T16:59:57Z</time>
      </trkpt>
      <trkpt lat="45.17348" lon="5.25812">
        <ele>449</ele>
        <time>2020-05-26T16:59:58Z</time>
      </trkpt>
      <trkpt lat="45.1735" lon="5.25809">
        <ele>448.9</ele>
        <time>2020-05-26T16:59:59Z</time>
      </trkpt>
      <trkpt lat="45.17352" lon="5.25805">
        <ele>448.8</ele>
        <time>2020-05-26T17:00:00Z</time>
      </trkpt>
      <trkpt lat="45.17354" lon="5.25801">
        <ele>448.6</ele>
        <time>2020-05-26T17:00:01Z</time>
      </trkpt>
      <trkpt lat="45.17356" lon="5.25797">
        <ele>448.5</ele>
        <time>2020-05-26T17:00:02Z</time>
      </trkpt>
      <trkpt lat="45.17357" lon="5.25793">
        <ele>448.4</ele>
        <time>2020-05-26T17:00:03Z</time>
      </trkpt>
      <trkpt lat="45.17359" lon="5.25789">
        <ele>448.2</ele>
        <time>2020-05-26T17:00:04Z</time>
      </trkpt>
      <trkpt lat="45.17361" lon="5.25785">
        <ele>448.1</ele>
        <time>2020-05-26T17:00:05Z</time>
      </trkpt>
      <trkpt lat="45.17363" lon="5.25782">
        <ele>447.9</ele>
        <time>2020-05-26T17:00:06Z</time>
      </trkpt>
      <trkpt lat="45.17365" lon="5.25779">
        <ele>447.8</ele>
        <time>2020-05-26T17:00:07Z</time>
      </trkpt>
      <trkpt lat="45.17368" lon="5.25775">
        <ele>447.7</ele>
        <time>2020-05-26T17:00:08Z</time>
      </trkpt>
      <trkpt lat="45.1737" lon="5.2577">
        <ele>447.5</ele>
        <time>2020-05-26T17:00:09Z</time>
      </trkpt>
      <trkpt lat="45.17371" lon="5.25769">
        <ele>447.5</ele>
        <time>2020-05-26T17:00:10Z</time>
      </trkpt>
      <trkpt lat="45.17372" lon="5.25765">
        <ele>447.4</ele>
        <time>2020-05-26T17:00:11Z</time>
      </trkpt>
      <trkpt lat="45.17373" lon="5.25761">
        <ele>447.3</ele>
        <time>2020-05-26T17:00:12Z</time>
      </trkpt>
      <trkpt lat="45.17373" lon="5.25757">
        <ele>447.2</ele>
        <time>2020-05-26T17:00:13Z</time>
      </trkpt>
      <trkpt lat="45.17374" lon="5.25753">
        <ele>447.1</ele>
        <time>2020-05-26T17:00:14Z</time>
      </trkpt>
      <trkpt lat="45.17375" lon="5.25748">
        <ele>447</ele>
        <time>2020-05-26T17:00:15Z</time>
      </trkpt>
      <trkpt lat="45.17376" lon="5.25743">
        <ele>446.9</ele>
        <time>2020-05-26T17:00:16Z</time>
      </trkpt>
      <trkpt lat="45.17378" lon="5.25739">
        <ele>446.8</ele>
        <time>2020-05-26T17:00:17Z</time>
      </trkpt>
      <trkpt lat="45.17381" lon="5.25735">
        <ele>446.7</ele>
        <time>2020-05-26T17:00:18Z</time>
      </trkpt>
      <trkpt lat="45.17383" lon="5.2573">
        <ele>446.5</ele>
        <time>2020-05-26T17:00:19Z</time>
      </trkpt>
      <trkpt lat="45.17385" lon="5.25726">
        <ele>446.3</ele>
        <time>2020-05-26T17:00:20Z</time>
      </trkpt>
      <trkpt lat="45.17387" lon="5.25722">
        <ele>446.1</ele>
        <time>2020-05-26T17:00:21Z</time>
      </trkpt>
      <trkpt lat="45.1739" lon="5.25718">
        <ele>445.8</ele>
        <time>2020-05-26T17:00:22Z</time>
      </trkpt>
      <trkpt lat="45.17392" lon="5.25711">
        <ele>445.4</ele>
        <time>2020-05-26T17:00:23Z</time>
      </trkpt>
      <trkpt lat="45.17394" lon="5.25705">
        <ele>445</ele>
        <time>2020-05-26T17:00:24Z</time>
      </trkpt>
      <trkpt lat="45.17396" lon="5.25701">
        <ele>444.7</ele>
        <time>2020-05-26T17:00:25Z</time>
      </trkpt>
      <trkpt lat="45.17397" lon="5.25697">
        <ele>444.3</ele>
        <time>2020-05-26T17:00:26Z</time>
      </trkpt>
      <trkpt lat="45.17398" lon="5.25693">
        <ele>444</ele>
        <time>2020-05-26T17:00:27Z</time>
      </trkpt>
      <trkpt lat="45.17399" lon="5.25689">
        <ele>443.7</ele>
        <time>2020-05-26T17:00:28Z</time>
      </trkpt>
      <trkpt lat="45.17401" lon="5.25685">
        <ele>443.4</ele>
        <time>2020-05-26T17:00:29Z</time>
      </trkpt>
      <trkpt lat="45.17402" lon="5.25681">
        <ele>443.1</ele>
        <time>2020-05-26T17:00:30Z</time>
      </trkpt>
      <trkpt lat="45.17404" lon="5.25677">
        <ele>442.7</ele>
        <time>2020-05-26T17:00:31Z</time>
      </trkpt>
      <trkpt lat="45.17406" lon="5.25674">
        <ele>442.4</ele>
        <time>2020-05-26T17:00:32Z</time>
      </trkpt>
      <trkpt lat="45.17408" lon="5.25669">
        <ele>442.1</ele>
        <time>2020-05-26T17:00:33Z</time>
      </trkpt>
      <trkpt lat="45.1741" lon="5.25665">
        <ele>441.8</ele>
        <time>2020-05-26T17:00:34Z</time>
      </trkpt>
      <trkpt lat="45.17412" lon="5.25661">
        <ele>441.6</ele>
        <time>2020-05-26T17:00:35Z</time>
      </trkpt>
      <trkpt lat="45.17413" lon="5.25658">
        <ele>441.3</ele>
        <time>2020-05-26T17:00:36Z</time>
      </trkpt>
      <trkpt lat="45.17416" lon="5.25654">
        <ele>441.1</ele>
        <time>2020-05-26T17:00:37Z</time>
      </trkpt>
      <trkpt lat="45.17418" lon="5.2565">
        <ele>440.9</ele>
        <time>2020-05-26T17:00:38Z</time>
      </trkpt>
      <trkpt lat="45.17419" lon="5.25648">
        <ele>440.8</ele>
        <time>2020-05-26T17:00:39Z</time>
      </trkpt>
      <trkpt lat="45.17421" lon="5.25645">
        <ele>440.6</ele>
        <time>2020-05-26T17:00:40Z</time>
      </trkpt>
      <trkpt lat="45.17423" lon="5.25642">
        <ele>440.7</ele>
        <time>2020-05-26T17:00:41Z</time>
      </trkpt>
      <trkpt lat="45.17426" lon="5.25638">
        <ele>440.7</ele>
        <time>2020-05-26T17:00:42Z</time>
      </trkpt>
      <trkpt lat="45.17428" lon="5.25635">
        <ele>440.7</ele>
        <time>2020-05-26T17:00:43Z</time>
      </trkpt>
      <trkpt lat="45.1743" lon="5.25632">
        <ele>440.7</ele>
        <time>2020-05-26T17:00:44Z</time>
      </trkpt>
      <trkpt lat="45.17433" lon="5.25628">
        <ele>440.8</ele>
        <time>2020-05-26T17:00:45Z</time>
      </trkpt>
      <trkpt lat="45.17436" lon="5.25625">
        <ele>440.8</ele>
        <time>2020-05-26T17:00:46Z</time>
      </trkpt>
      <trkpt lat="45.17438" lon="5.25622">
        <ele>440.9</ele>
        <time>2020-05-26T17:00:47Z</time>
      </trkpt>
      <trkpt lat="45.17441" lon="5.25619">
        <ele>440.9</ele>
        <time>2020-05-26T17:00:48Z</time>
      </trkpt>
      <trkpt lat="45.17443" lon="5.25616">
        <ele>441</ele>
        <time>2020-05-26T17:00:49Z</time>
      </trkpt>
      <trkpt lat="45.17447" lon="5.25612">
        <ele>441.1</ele>
        <time>2020-05-26T17:00:50Z</time>
      </trkpt>
      <trkpt lat="45.17448" lon="5.25611">
        <ele>441.2</ele>
        <time>2020-05-26T17:00:51Z</time>
      </trkpt>
      <trkpt lat="45.1745" lon="5.25609">
        <ele>441.3</ele>
        <time>2020-05-26T17:00:52Z</time>
      </trkpt>
      <trkpt lat="45.17453" lon="5.25606">
        <ele>441.4</ele>
        <time>2020-05-26T17:00:53Z</time>
      </trkpt>
      <trkpt lat="45.17454" lon="5.25606">
        <ele>441.4</ele>
        <time>2020-05-26T17:00:54Z</time>
      </trkpt>
      <trkpt lat="45.17456" lon="5.25603">
        <ele>441.6</ele>
        <time>2020-05-26T17:00:55Z</time>
      </trkpt>
      <trkpt lat="45.17459" lon="5.25599">
        <ele>441.8</ele>
        <time>2020-05-26T17:00:56Z</time>
      </trkpt>
      <trkpt lat="45.1746" lon="5.25597">
        <ele>441.8</ele>
        <time>2020-05-26T17:00:57Z</time>
      </trkpt>
      <trkpt lat="45.17462" lon="5.25594">
        <ele>442</ele>
        <time>2020-05-26T17:00:58Z</time>
      </trkpt>
      <trkpt lat="45.17464" lon="5.25591">
        <ele>442.2</ele>
        <time>2020-05-26T17:00:59Z</time>
      </trkpt>
      <trkpt lat="45.17465" lon="5.25589">
        <ele>442.3</ele>
        <time>2020-05-26T17:01:00Z</time>
      </trkpt>
      <trkpt lat="45.17468" lon="5.25585">
        <ele>442.6</ele>
        <time>2020-05-26T17:01:01Z</time>
      </trkpt>
      <trkpt lat="45.17468" lon="5.25584">
        <ele>442.7</ele>
        <time>2020-05-26T17:01:02Z</time>
      </trkpt>
      <trkpt lat="45.17471" lon="5.2558">
        <ele>443</ele>
        <time>2020-05-26T17:01:03Z</time>
      </trkpt>
      <trkpt lat="45.17472" lon="5.25579">
        <ele>443.2</ele>
        <time>2020-05-26T17:01:04Z</time>
      </trkpt>
      <trkpt lat="45.17474" lon="5.25575">
        <ele>443.5</ele>
        <time>2020-05-26T17:01:05Z</time>
      </trkpt>
      <trkpt lat="45.17475" lon="5.25573">
        <ele>443.6</ele>
        <time>2020-05-26T17:01:06Z</time>
      </trkpt>
      <trkpt lat="45.17477" lon="5.2557">
        <ele>443.9</ele>
        <time>2020-05-26T17:01:07Z</time>
      </trkpt>
      <trkpt lat="45.17478" lon="5.25569">
        <ele>444.1</ele>
        <time>2020-05-26T17:01:08Z</time>
      </trkpt>
      <trkpt lat="45.17481" lon="5.25565">
        <ele>444.4</ele>
        <time>2020-05-26T17:01:09Z</time>
      </trkpt>
      <trkpt lat="45.17481" lon="5.25564">
        <ele>444.5</ele>
        <time>2020-05-26T17:01:10Z</time>
      </trkpt>
      <trkpt lat="45.17484" lon="5.25561">
        <ele>444.8</ele>
        <time>2020-05-26T17:01:11Z</time>
      </trkpt>
      <trkpt lat="45.17486" lon="5.25558">
        <ele>445.1</ele>
        <time>2020-05-26T17:01:12Z</time>
      </trkpt>
      <trkpt lat="45.17488" lon="5.25555">
        <ele>445.4</ele>
        <time>2020-05-26T17:01:13Z</time>
      </trkpt>
      <trkpt lat="45.17491" lon="5.25553">
        <ele>445.7</ele>
        <time>2020-05-26T17:01:14Z</time>
      </trkpt>
      <trkpt lat="45.17493" lon="5.25551">
        <ele>445.9</ele>
        <time>2020-05-26T17:01:15Z</time>
      </trkpt>
      <trkpt lat="45.17494" lon="5.25551">
        <ele>446</ele>
        <time>2020-05-26T17:01:16Z</time>
      </trkpt>
      <trkpt lat="45.17498" lon="5.25549">
        <ele>446.3</ele>
        <time>2020-05-26T17:01:17Z</time>
      </trkpt>
      <trkpt lat="45.17499" lon="5.25548">
        <ele>446.4</ele>
        <time>2020-05-26T17:01:18Z</time>
      </trkpt>
      <trkpt lat="45.17502" lon="5.25547">
        <ele>446.5</ele>
        <time>2020-05-26T17:01:19Z</time>
      </trkpt>
      <trkpt lat="45.17505" lon="5.25547">
        <ele>446.7</ele>
        <time>2020-05-26T17:01:20Z</time>
      </trkpt>
      <trkpt lat="45.17508" lon="5.25547">
        <ele>446.8</ele>
        <time>2020-05-26T17:01:21Z</time>
      </trkpt>
      <trkpt lat="45.1751" lon="5.25548">
        <ele>446.8</ele>
        <time>2020-05-26T17:01:22Z</time>
      </trkpt>
      <trkpt lat="45.17513" lon="5.25549">
        <ele>446.9</ele>
        <time>2020-05-26T17:01:23Z</time>
      </trkpt>
      <trkpt lat="45.17516" lon="5.25551">
        <ele>447</ele>
        <time>2020-05-26T17:01:24Z</time>
      </trkpt>
      <trkpt lat="45.17518" lon="5.25552">
        <ele>447</ele>
        <time>2020-05-26T17:01:25Z</time>
      </trkpt>
      <trkpt lat="45.17521" lon="5.25553">
        <ele>447</ele>
        <time>2020-05-26T17:01:26Z</time>
      </trkpt>
      <trkpt lat="45.17525" lon="5.25555">
        <ele>446.9</ele>
        <time>2020-05-26T17:01:27Z</time>
      </trkpt>
      <trkpt lat="45.17527" lon="5.25555">
        <ele>446.9</ele>
        <time>2020-05-26T17:01:28Z</time>
      </trkpt>
      <trkpt lat="45.1753" lon="5.25556">
        <ele>446.9</ele>
        <time>2020-05-26T17:01:29Z</time>
      </trkpt>
      <trkpt lat="45.17534" lon="5.25557">
        <ele>446.9</ele>
        <time>2020-05-26T17:01:30Z</time>
      </trkpt>
      <trkpt lat="45.17535" lon="5.25557">
        <ele>446.8</ele>
        <time>2020-05-26T17:01:31Z</time>
      </trkpt>
      <trkpt lat="45.17538" lon="5.25558">
        <ele>446.8</ele>
        <time>2020-05-26T17:01:32Z</time>
      </trkpt>
      <trkpt lat="45.17542" lon="5.25558">
        <ele>446.7</ele>
        <time>2020-05-26T17:01:33Z</time>
      </trkpt>
      <trkpt lat="45.17543" lon="5.25558">
        <ele>446.7</ele>
        <time>2020-05-26T17:01:34Z</time>
      </trkpt>
      <trkpt lat="45.17546" lon="5.25558">
        <ele>446.7</ele>
        <time>2020-05-26T17:01:35Z</time>
      </trkpt>
      <trkpt lat="45.17549" lon="5.25559">
        <ele>446.6</ele>
        <time>2020-05-26T17:01:36Z</time>
      </trkpt>
      <trkpt lat="45.17552" lon="5.25559">
        <ele>446.6</ele>
        <time>2020-05-26T17:01:37Z</time>
      </trkpt>
      <trkpt lat="45.17556" lon="5.2556">
        <ele>446.5</ele>
        <time>2020-05-26T17:01:38Z</time>
      </trkpt>
      <trkpt lat="45.17559" lon="5.2556">
        <ele>446.5</ele>
        <time>2020-05-26T17:01:39Z</time>
      </trkpt>
      <trkpt lat="45.17561" lon="5.2556">
        <ele>446.4</ele>
        <time>2020-05-26T17:01:40Z</time>
      </trkpt>
      <trkpt lat="45.17565" lon="5.25561">
        <ele>446.3</ele>
        <time>2020-05-26T17:01:41Z</time>
      </trkpt>
      <trkpt lat="45.17568" lon="5.25561">
        <ele>446.2</ele>
        <time>2020-05-26T17:01:42Z</time>
      </trkpt>
      <trkpt lat="45.17571" lon="5.25562">
        <ele>446.1</ele>
        <time>2020-05-26T17:01:43Z</time>
      </trkpt>
      <trkpt lat="45.17574" lon="5.25563">
        <ele>446</ele>
        <time>2020-05-26T17:01:44Z</time>
      </trkpt>
      <trkpt lat="45.17578" lon="5.25564">
        <ele>445.9</ele>
        <time>2020-05-26T17:01:45Z</time>
      </trkpt>
      <trkpt lat="45.17581" lon="5.25565">
        <ele>445.7</ele>
        <time>2020-05-26T17:01:46Z</time>
      </trkpt>
      <trkpt lat="45.17583" lon="5.25566">
        <ele>445.6</ele>
        <time>2020-05-26T17:01:47Z</time>
      </trkpt>
      <trkpt lat="45.17586" lon="5.25568">
        <ele>445.4</ele>
        <time>2020-05-26T17:01:48Z</time>
      </trkpt>
      <trkpt lat="45.17589" lon="5.25569">
        <ele>445.3</ele>
        <time>2020-05-26T17:01:49Z</time>
      </trkpt>
      <trkpt lat="45.17592" lon="5.25571">
        <ele>445.1</ele>
        <time>2020-05-26T17:01:50Z</time>
      </trkpt>
      <trkpt lat="45.17595" lon="5.25573">
        <ele>444.9</ele>
        <time>2020-05-26T17:01:51Z</time>
      </trkpt>
      <trkpt lat="45.17599" lon="5.25576">
        <ele>444.7</ele>
        <time>2020-05-26T17:01:52Z</time>
      </trkpt>
      <trkpt lat="45.17601" lon="5.25578">
        <ele>444.5</ele>
        <time>2020-05-26T17:01:53Z</time>
      </trkpt>
      <trkpt lat="45.17603" lon="5.2558">
        <ele>444.3</ele>
        <time>2020-05-26T17:01:54Z</time>
      </trkpt>
      <trkpt lat="45.17606" lon="5.25582">
        <ele>444</ele>
        <time>2020-05-26T17:01:55Z</time>
      </trkpt>
      <trkpt lat="45.17609" lon="5.25585">
        <ele>443.8</ele>
        <time>2020-05-26T17:01:56Z</time>
      </trkpt>
      <trkpt lat="45.17612" lon="5.25588">
        <ele>443.5</ele>
        <time>2020-05-26T17:01:57Z</time>
      </trkpt>
      <trkpt lat="45.17614" lon="5.2559">
        <ele>443.3</ele>
        <time>2020-05-26T17:01:58Z</time>
      </trkpt>
      <trkpt lat="45.17617" lon="5.25593">
        <ele>443</ele>
        <time>2020-05-26T17:01:59Z</time>
      </trkpt>
      <trkpt lat="45.17619" lon="5.25596">
        <ele>442.8</ele>
        <time>2020-05-26T17:02:00Z</time>
      </trkpt>
      <trkpt lat="45.17621" lon="5.25599">
        <ele>442.6</ele>
        <time>2020-05-26T17:02:01Z</time>
      </trkpt>
      <trkpt lat="45.17624" lon="5.25602">
        <ele>442.3</ele>
        <time>2020-05-26T17:02:02Z</time>
      </trkpt>
      <trkpt lat="45.17627" lon="5.25605">
        <ele>442</ele>
        <time>2020-05-26T17:02:03Z</time>
      </trkpt>
      <trkpt lat="45.17629" lon="5.25607">
        <ele>441.8</ele>
        <time>2020-05-26T17:02:04Z</time>
      </trkpt>
      <trkpt lat="45.17632" lon="5.2561">
        <ele>441.6</ele>
        <time>2020-05-26T17:02:05Z</time>
      </trkpt>
      <trkpt lat="45.17635" lon="5.25613">
        <ele>441.3</ele>
        <time>2020-05-26T17:02:06Z</time>
      </trkpt>
      <trkpt lat="45.17637" lon="5.25615">
        <ele>440.3</ele>
        <time>2020-05-26T17:02:07Z</time>
      </trkpt>
      <trkpt lat="45.17639" lon="5.25619">
        <ele>440</ele>
        <time>2020-05-26T17:02:08Z</time>
      </trkpt>
      <trkpt lat="45.1764" lon="5.25623">
        <ele>439.7</ele>
        <time>2020-05-26T17:02:09Z</time>
      </trkpt>
      <trkpt lat="45.17641" lon="5.25628">
        <ele>439.4</ele>
        <time>2020-05-26T17:02:10Z</time>
      </trkpt>
      <trkpt lat="45.17641" lon="5.25632">
        <ele>439.1</ele>
        <time>2020-05-26T17:02:11Z</time>
      </trkpt>
      <trkpt lat="45.17641" lon="5.25637">
        <ele>438.8</ele>
        <time>2020-05-26T17:02:12Z</time>
      </trkpt>
      <trkpt lat="45.17642" lon="5.25642">
        <ele>438.4</ele>
        <time>2020-05-26T17:02:13Z</time>
      </trkpt>
      <trkpt lat="45.17643" lon="5.25646">
        <ele>438.3</ele>
        <time>2020-05-26T17:02:14Z</time>
      </trkpt>
      <trkpt lat="45.17645" lon="5.2565">
        <ele>438</ele>
        <time>2020-05-26T17:02:15Z</time>
      </trkpt>
      <trkpt lat="45.17647" lon="5.25655">
        <ele>437.7</ele>
        <time>2020-05-26T17:02:16Z</time>
      </trkpt>
      <trkpt lat="45.17649" lon="5.25659">
        <ele>437.5</ele>
        <time>2020-05-26T17:02:17Z</time>
      </trkpt>
      <trkpt lat="45.17651" lon="5.25662">
        <ele>437.3</ele>
        <time>2020-05-26T17:02:18Z</time>
      </trkpt>
      <trkpt lat="45.17654" lon="5.25666">
        <ele>437</ele>
        <time>2020-05-26T17:02:19Z</time>
      </trkpt>
      <trkpt lat="45.17658" lon="5.25669">
        <ele>436.7</ele>
        <time>2020-05-26T17:02:20Z</time>
      </trkpt>
      <trkpt lat="45.17661" lon="5.25669">
        <ele>436.5</ele>
        <time>2020-05-26T17:02:21Z</time>
      </trkpt>
      <trkpt lat="45.17665" lon="5.25666">
        <ele>436.3</ele>
        <time>2020-05-26T17:02:22Z</time>
      </trkpt>
      <trkpt lat="45.17666" lon="5.25664">
        <ele>436.2</ele>
        <time>2020-05-26T17:02:23Z</time>
      </trkpt>
      <trkpt lat="45.17668" lon="5.25659">
        <ele>435.9</ele>
        <time>2020-05-26T17:02:24Z</time>
      </trkpt>
      <trkpt lat="45.17669" lon="5.25653">
        <ele>435.7</ele>
        <time>2020-05-26T17:02:25Z</time>
      </trkpt>
      <trkpt lat="45.17671" lon="5.25647">
        <ele>435.5</ele>
        <time>2020-05-26T17:02:26Z</time>
      </trkpt>
      <trkpt lat="45.17672" lon="5.25641">
        <ele>435.2</ele>
        <time>2020-05-26T17:02:27Z</time>
      </trkpt>
      <trkpt lat="45.17672" lon="5.25635">
        <ele>435.1</ele>
        <time>2020-05-26T17:02:28Z</time>
      </trkpt>
      <trkpt lat="45.17671" lon="5.25629">
        <ele>434.9</ele>
        <time>2020-05-26T17:02:29Z</time>
      </trkpt>
      <trkpt lat="45.17671" lon="5.25623">
        <ele>434.7</ele>
        <time>2020-05-26T17:02:30Z</time>
      </trkpt>
      <trkpt lat="45.17671" lon="5.25619">
        <ele>434.5</ele>
        <time>2020-05-26T17:02:31Z</time>
      </trkpt>
      <trkpt lat="45.17671" lon="5.25613">
        <ele>434.3</ele>
        <time>2020-05-26T17:02:32Z</time>
      </trkpt>
      <trkpt lat="45.17672" lon="5.25606">
        <ele>434.1</ele>
        <time>2020-05-26T17:02:33Z</time>
      </trkpt>
      <trkpt lat="45.17673" lon="5.25601">
        <ele>434</ele>
        <time>2020-05-26T17:02:34Z</time>
      </trkpt>
      <trkpt lat="45.17673" lon="5.25596">
        <ele>433.8</ele>
        <time>2020-05-26T17:02:35Z</time>
      </trkpt>
      <trkpt lat="45.17675" lon="5.2559">
        <ele>433.6</ele>
        <time>2020-05-26T17:02:36Z</time>
      </trkpt>
      <trkpt lat="45.17676" lon="5.25586">
        <ele>433.4</ele>
        <time>2020-05-26T17:02:37Z</time>
      </trkpt>
      <trkpt lat="45.17677" lon="5.25582">
        <ele>433.3</ele>
        <time>2020-05-26T17:02:38Z</time>
      </trkpt>
      <trkpt lat="45.17679" lon="5.25579">
        <ele>433.2</ele>
        <time>2020-05-26T17:02:39Z</time>
      </trkpt>
      <trkpt lat="45.17681" lon="5.25576">
        <ele>433</ele>
        <time>2020-05-26T17:02:40Z</time>
      </trkpt>
      <trkpt lat="45.17684" lon="5.25573">
        <ele>432.9</ele>
        <time>2020-05-26T17:02:41Z</time>
      </trkpt>
      <trkpt lat="45.17686" lon="5.2557">
        <ele>432.7</ele>
        <time>2020-05-26T17:02:42Z</time>
      </trkpt>
      <trkpt lat="45.17689" lon="5.25567">
        <ele>432.5</ele>
        <time>2020-05-26T17:02:43Z</time>
      </trkpt>
      <trkpt lat="45.17692" lon="5.25565">
        <ele>432.3</ele>
        <time>2020-05-26T17:02:44Z</time>
      </trkpt>
      <trkpt lat="45.17695" lon="5.25562">
        <ele>432.2</ele>
        <time>2020-05-26T17:02:45Z</time>
      </trkpt>
      <trkpt lat="45.17698" lon="5.25559">
        <ele>432</ele>
        <time>2020-05-26T17:02:46Z</time>
      </trkpt>
      <trkpt lat="45.17701" lon="5.25555">
        <ele>431.8</ele>
        <time>2020-05-26T17:02:47Z</time>
      </trkpt>
      <trkpt lat="45.17702" lon="5.25553">
        <ele>431.7</ele>
        <time>2020-05-26T17:02:48Z</time>
      </trkpt>
      <trkpt lat="45.17705" lon="5.25549">
        <ele>431.5</ele>
        <time>2020-05-26T17:02:49Z</time>
      </trkpt>
      <trkpt lat="45.17707" lon="5.25546">
        <ele>431.3</ele>
        <time>2020-05-26T17:02:50Z</time>
      </trkpt>
      <trkpt lat="45.17709" lon="5.25543">
        <ele>431.1</ele>
        <time>2020-05-26T17:02:51Z</time>
      </trkpt>
      <trkpt lat="45.17713" lon="5.25542">
        <ele>430.8</ele>
        <time>2020-05-26T17:02:52Z</time>
      </trkpt>
      <trkpt lat="45.17716" lon="5.25542">
        <ele>430.6</ele>
        <time>2020-05-26T17:02:53Z</time>
      </trkpt>
      <trkpt lat="45.17719" lon="5.25543">
        <ele>430.4</ele>
        <time>2020-05-26T17:02:54Z</time>
      </trkpt>
      <trkpt lat="45.17722" lon="5.25544">
        <ele>430.2</ele>
        <time>2020-05-26T17:02:55Z</time>
      </trkpt>
      <trkpt lat="45.17725" lon="5.25545">
        <ele>430</ele>
        <time>2020-05-26T17:02:56Z</time>
      </trkpt>
      <trkpt lat="45.17728" lon="5.25547">
        <ele>429.8</ele>
        <time>2020-05-26T17:02:57Z</time>
      </trkpt>
      <trkpt lat="45.17732" lon="5.2555">
        <ele>429.5</ele>
        <time>2020-05-26T17:02:58Z</time>
      </trkpt>
      <trkpt lat="45.17735" lon="5.25552">
        <ele>429.3</ele>
        <time>2020-05-26T17:02:59Z</time>
      </trkpt>
      <trkpt lat="45.17738" lon="5.25554">
        <ele>429.1</ele>
        <time>2020-05-26T17:03:00Z</time>
      </trkpt>
      <trkpt lat="45.17741" lon="5.25556">
        <ele>428.9</ele>
        <time>2020-05-26T17:03:01Z</time>
      </trkpt>
      <trkpt lat="45.17744" lon="5.25559">
        <ele>428.7</ele>
        <time>2020-05-26T17:03:02Z</time>
      </trkpt>
      <trkpt lat="45.17748" lon="5.25562">
        <ele>428.4</ele>
        <time>2020-05-26T17:03:03Z</time>
      </trkpt>
      <trkpt lat="45.17751" lon="5.25566">
        <ele>428.1</ele>
        <time>2020-05-26T17:03:04Z</time>
      </trkpt>
      <trkpt lat="45.17754" lon="5.25569">
        <ele>427.9</ele>
        <time>2020-05-26T17:03:05Z</time>
      </trkpt>
      <trkpt lat="45.17757" lon="5.25571">
        <ele>427.6</ele>
        <time>2020-05-26T17:03:06Z</time>
      </trkpt>
      <trkpt lat="45.17761" lon="5.25574">
        <ele>427.4</ele>
        <time>2020-05-26T17:03:07Z</time>
      </trkpt>
      <trkpt lat="45.17764" lon="5.25577">
        <ele>427.1</ele>
        <time>2020-05-26T17:03:08Z</time>
      </trkpt>
      <trkpt lat="45.17767" lon="5.25578">
        <ele>426.9</ele>
        <time>2020-05-26T17:03:09Z</time>
      </trkpt>
      <trkpt lat="45.17771" lon="5.25579">
        <ele>426.7</ele>
        <time>2020-05-26T17:03:10Z</time>
      </trkpt>
      <trkpt lat="45.17775" lon="5.2558">
        <ele>426.4</ele>
        <time>2020-05-26T17:03:11Z</time>
      </trkpt>
      <trkpt lat="45.17779" lon="5.2558">
        <ele>426.1</ele>
        <time>2020-05-26T17:03:12Z</time>
      </trkpt>
      <trkpt lat="45.17783" lon="5.2558">
        <ele>425.8</ele>
        <time>2020-05-26T17:03:13Z</time>
      </trkpt>
      <trkpt lat="45.17787" lon="5.25579">
        <ele>425.6</ele>
        <time>2020-05-26T17:03:14Z</time>
      </trkpt>
      <trkpt lat="45.1779" lon="5.2558">
        <ele>425.4</ele>
        <time>2020-05-26T17:03:15Z</time>
      </trkpt>
      <trkpt lat="45.17794" lon="5.2558">
        <ele>425.1</ele>
        <time>2020-05-26T17:03:16Z</time>
      </trkpt>
      <trkpt lat="45.17795" lon="5.2558">
        <ele>425</ele>
        <time>2020-05-26T17:03:17Z</time>
      </trkpt>
      <trkpt lat="45.17799" lon="5.25579">
        <ele>424.8</ele>
        <time>2020-05-26T17:03:18Z</time>
      </trkpt>
      <trkpt lat="45.17802" lon="5.25578">
        <ele>424.5</ele>
        <time>2020-05-26T17:03:19Z</time>
      </trkpt>
      <trkpt lat="45.17805" lon="5.25577">
        <ele>424.3</ele>
        <time>2020-05-26T17:03:20Z</time>
      </trkpt>
      <trkpt lat="45.17809" lon="5.25575">
        <ele>424</ele>
        <time>2020-05-26T17:03:21Z</time>
      </trkpt>
      <trkpt lat="45.17812" lon="5.25572">
        <ele>423.8</ele>
        <time>2020-05-26T17:03:22Z</time>
      </trkpt>
      <trkpt lat="45.17816" lon="5.2557">
        <ele>423.5</ele>
        <time>2020-05-26T17:03:23Z</time>
      </trkpt>
      <trkpt lat="45.1782" lon="5.25567">
        <ele>423.2</ele>
        <time>2020-05-26T17:03:24Z</time>
      </trkpt>
      <trkpt lat="45.17823" lon="5.25565">
        <ele>422.9</ele>
        <time>2020-05-26T17:03:25Z</time>
      </trkpt>
      <trkpt lat="45.17826" lon="5.25562">
        <ele>422.7</ele>
        <time>2020-05-26T17:03:26Z</time>
      </trkpt>
      <trkpt lat="45.17829" lon="5.25559">
        <ele>422.5</ele>
        <time>2020-05-26T17:03:27Z</time>
      </trkpt>
      <trkpt lat="45.17831" lon="5.25557">
        <ele>422.3</ele>
        <time>2020-05-26T17:03:28Z</time>
      </trkpt>
      <trkpt lat="45.17834" lon="5.25554">
        <ele>422</ele>
        <time>2020-05-26T17:03:29Z</time>
      </trkpt>
      <trkpt lat="45.17837" lon="5.2555">
        <ele>421.8</ele>
        <time>2020-05-26T17:03:30Z</time>
      </trkpt>
      <trkpt lat="45.17839" lon="5.25546">
        <ele>421.6</ele>
        <time>2020-05-26T17:03:31Z</time>
      </trkpt>
      <trkpt lat="45.17839" lon="5.25545">
        <ele>421.5</ele>
        <time>2020-05-26T17:03:32Z</time>
      </trkpt>
      <trkpt lat="45.17841" lon="5.25541">
        <ele>421.4</ele>
        <time>2020-05-26T17:03:33Z</time>
      </trkpt>
      <trkpt lat="45.17841" lon="5.2554">
        <ele>421.3</ele>
        <time>2020-05-26T17:03:34Z</time>
      </trkpt>
      <trkpt lat="45.17841" lon="5.2554">
        <ele>421.3</ele>
        <time>2020-05-26T17:03:35Z</time>
      </trkpt>
      <trkpt lat="45.17842" lon="5.25534">
        <ele>421.1</ele>
        <time>2020-05-26T17:03:42Z</time>
      </trkpt>
      <trkpt lat="45.17842" lon="5.25529">
        <ele>420.9</ele>
        <time>2020-05-26T17:03:43Z</time>
      </trkpt>
      <trkpt lat="45.17842" lon="5.25525">
        <ele>420.7</ele>
        <time>2020-05-26T17:03:44Z</time>
      </trkpt>
      <trkpt lat="45.17843" lon="5.2552">
        <ele>420.5</ele>
        <time>2020-05-26T17:03:45Z</time>
      </trkpt>
      <trkpt lat="45.17843" lon="5.25515">
        <ele>420.3</ele>
        <time>2020-05-26T17:03:46Z</time>
      </trkpt>
      <trkpt lat="45.17843" lon="5.2551">
        <ele>420.1</ele>
        <time>2020-05-26T17:03:47Z</time>
      </trkpt>
      <trkpt lat="45.17843" lon="5.25505">
        <ele>419.9</ele>
        <time>2020-05-26T17:03:48Z</time>
      </trkpt>
      <trkpt lat="45.17843" lon="5.25501">
        <ele>419.8</ele>
        <time>2020-05-26T17:03:49Z</time>
      </trkpt>
      <trkpt lat="45.17842" lon="5.25497">
        <ele>419.6</ele>
        <time>2020-05-26T17:03:50Z</time>
      </trkpt>
      <trkpt lat="45.17841" lon="5.25493">
        <ele>419.4</ele>
        <time>2020-05-26T17:03:51Z</time>
      </trkpt>
      <trkpt lat="45.17841" lon="5.25488">
        <ele>419.3</ele>
        <time>2020-05-26T17:03:52Z</time>
      </trkpt>
      <trkpt lat="45.1784" lon="5.25487">
        <ele>419.2</ele>
        <time>2020-05-26T17:03:53Z</time>
      </trkpt>
      <trkpt lat="45.17841" lon="5.25482">
        <ele>419</ele>
        <time>2020-05-26T17:03:54Z</time>
      </trkpt>
      <trkpt lat="45.17841" lon="5.2548">
        <ele>419</ele>
        <time>2020-05-26T17:03:55Z</time>
      </trkpt>
      <trkpt lat="45.17842" lon="5.25475">
        <ele>418.8</ele>
        <time>2020-05-26T17:03:56Z</time>
      </trkpt>
      <trkpt lat="45.17843" lon="5.25471">
        <ele>418.6</ele>
        <time>2020-05-26T17:03:57Z</time>
      </trkpt>
      <trkpt lat="45.17845" lon="5.25466">
        <ele>418.4</ele>
        <time>2020-05-26T17:03:58Z</time>
      </trkpt>
      <trkpt lat="45.17845" lon="5.25464">
        <ele>418.3</ele>
        <time>2020-05-26T17:03:59Z</time>
      </trkpt>
      <trkpt lat="45.17846" lon="5.25459">
        <ele>418.1</ele>
        <time>2020-05-26T17:04:00Z</time>
      </trkpt>
      <trkpt lat="45.17847" lon="5.25455">
        <ele>417.9</ele>
        <time>2020-05-26T17:04:01Z</time>
      </trkpt>
      <trkpt lat="45.17848" lon="5.25451">
        <ele>417.8</ele>
        <time>2020-05-26T17:04:02Z</time>
      </trkpt>
      <trkpt lat="45.17849" lon="5.25447">
        <ele>417.6</ele>
        <time>2020-05-26T17:04:03Z</time>
      </trkpt>
      <trkpt lat="45.17851" lon="5.25442">
        <ele>417.4</ele>
        <time>2020-05-26T17:04:04Z</time>
      </trkpt>
      <trkpt lat="45.17854" lon="5.25438">
        <ele>417.1</ele>
        <time>2020-05-26T17:04:05Z</time>
      </trkpt>
      <trkpt lat="45.17857" lon="5.25434">
        <ele>416.8</ele>
        <time>2020-05-26T17:04:06Z</time>
      </trkpt>
      <trkpt lat="45.1786" lon="5.2543">
        <ele>416.6</ele>
        <time>2020-05-26T17:04:07Z</time>
      </trkpt>
      <trkpt lat="45.17862" lon="5.25427">
        <ele>416.4</ele>
        <time>2020-05-26T17:04:08Z</time>
      </trkpt>
      <trkpt lat="45.17864" lon="5.25423">
        <ele>416.2</ele>
        <time>2020-05-26T17:04:09Z</time>
      </trkpt>
      <trkpt lat="45.17866" lon="5.2542">
        <ele>416</ele>
        <time>2020-05-26T17:04:10Z</time>
      </trkpt>
      <trkpt lat="45.17868" lon="5.25416">
        <ele>415.8</ele>
        <time>2020-05-26T17:04:11Z</time>
      </trkpt>
      <trkpt lat="45.1787" lon="5.25412">
        <ele>415.6</ele>
        <time>2020-05-26T17:04:12Z</time>
      </trkpt>
      <trkpt lat="45.17872" lon="5.25407">
        <ele>415.3</ele>
        <time>2020-05-26T17:04:13Z</time>
      </trkpt>
      <trkpt lat="45.17874" lon="5.25402">
        <ele>415.1</ele>
        <time>2020-05-26T17:04:14Z</time>
      </trkpt>
      <trkpt lat="45.17877" lon="5.25398">
        <ele>414.8</ele>
        <time>2020-05-26T17:04:15Z</time>
      </trkpt>
      <trkpt lat="45.17879" lon="5.25395">
        <ele>414.6</ele>
        <time>2020-05-26T17:04:16Z</time>
      </trkpt>
      <trkpt lat="45.17881" lon="5.25391">
        <ele>414.4</ele>
        <time>2020-05-26T17:04:17Z</time>
      </trkpt>
      <trkpt lat="45.17882" lon="5.25387">
        <ele>414.2</ele>
        <time>2020-05-26T17:04:18Z</time>
      </trkpt>
      <trkpt lat="45.17883" lon="5.25382">
        <ele>414</ele>
        <time>2020-05-26T17:04:19Z</time>
      </trkpt>
      <trkpt lat="45.17884" lon="5.25377">
        <ele>413.8</ele>
        <time>2020-05-26T17:04:20Z</time>
      </trkpt>
      <trkpt lat="45.17886" lon="5.25372">
        <ele>413.6</ele>
        <time>2020-05-26T17:04:21Z</time>
      </trkpt>
      <trkpt lat="45.17887" lon="5.25367">
        <ele>413.4</ele>
        <time>2020-05-26T17:04:22Z</time>
      </trkpt>
      <trkpt lat="45.17888" lon="5.25362">
        <ele>413.2</ele>
        <time>2020-05-26T17:04:23Z</time>
      </trkpt>
      <trkpt lat="45.17889" lon="5.25357">
        <ele>413</ele>
        <time>2020-05-26T17:04:24Z</time>
      </trkpt>
      <trkpt lat="45.17889" lon="5.25352">
        <ele>412.8</ele>
        <time>2020-05-26T17:04:25Z</time>
      </trkpt>
      <trkpt lat="45.17889" lon="5.25348">
        <ele>412.6</ele>
        <time>2020-05-26T17:04:26Z</time>
      </trkpt>
      <trkpt lat="45.17889" lon="5.25343">
        <ele>412.4</ele>
        <time>2020-05-26T17:04:27Z</time>
      </trkpt>
      <trkpt lat="45.17888" lon="5.25338">
        <ele>412.3</ele>
        <time>2020-05-26T17:04:28Z</time>
      </trkpt>
      <trkpt lat="45.17888" lon="5.25333">
        <ele>412.1</ele>
        <time>2020-05-26T17:04:29Z</time>
      </trkpt>
      <trkpt lat="45.17887" lon="5.2533">
        <ele>412</ele>
        <time>2020-05-26T17:04:30Z</time>
      </trkpt>
      <trkpt lat="45.17888" lon="5.25325">
        <ele>411.8</ele>
        <time>2020-05-26T17:04:31Z</time>
      </trkpt>
      <trkpt lat="45.17888" lon="5.25323">
        <ele>411.7</ele>
        <time>2020-05-26T17:04:32Z</time>
      </trkpt>
      <trkpt lat="45.17889" lon="5.2532">
        <ele>411.6</ele>
        <time>2020-05-26T17:04:33Z</time>
      </trkpt>
      <trkpt lat="45.17892" lon="5.25317">
        <ele>411.4</ele>
        <time>2020-05-26T17:04:34Z</time>
      </trkpt>
      <trkpt lat="45.17893" lon="5.25317">
        <ele>411.3</ele>
        <time>2020-05-26T17:04:35Z</time>
      </trkpt>
      <trkpt lat="45.17897" lon="5.25318">
        <ele>411.1</ele>
        <time>2020-05-26T17:04:36Z</time>
      </trkpt>
      <trkpt lat="45.17898" lon="5.2532">
        <ele>411</ele>
        <time>2020-05-26T17:04:37Z</time>
      </trkpt>
      <trkpt lat="45.179" lon="5.25323">
        <ele>410.8</ele>
        <time>2020-05-26T17:04:38Z</time>
      </trkpt>
      <trkpt lat="45.17902" lon="5.25326">
        <ele>410.7</ele>
        <time>2020-05-26T17:04:39Z</time>
      </trkpt>
      <trkpt lat="45.17904" lon="5.2533">
        <ele>410.4</ele>
        <time>2020-05-26T17:04:40Z</time>
      </trkpt>
      <trkpt lat="45.17906" lon="5.25335">
        <ele>410.2</ele>
        <time>2020-05-26T17:04:41Z</time>
      </trkpt>
      <trkpt lat="45.17907" lon="5.2534">
        <ele>409.9</ele>
        <time>2020-05-26T17:04:42Z</time>
      </trkpt>
      <trkpt lat="45.17908" lon="5.25345">
        <ele>409.7</ele>
        <time>2020-05-26T17:04:43Z</time>
      </trkpt>
      <trkpt lat="45.17908" lon="5.25351">
        <ele>409.4</ele>
        <time>2020-05-26T17:04:44Z</time>
      </trkpt>
      <trkpt lat="45.17908" lon="5.25356">
        <ele>409.2</ele>
        <time>2020-05-26T17:04:45Z</time>
      </trkpt>
      <trkpt lat="45.17907" lon="5.25361">
        <ele>409</ele>
        <time>2020-05-26T17:04:46Z</time>
      </trkpt>
      <trkpt lat="45.17906" lon="5.25366">
        <ele>408.7</ele>
        <time>2020-05-26T17:04:47Z</time>
      </trkpt>
      <trkpt lat="45.17905" lon="5.2537">
        <ele>408.4</ele>
        <time>2020-05-26T17:04:48Z</time>
      </trkpt>
      <trkpt lat="45.17904" lon="5.25374">
        <ele>408.2</ele>
        <time>2020-05-26T17:04:49Z</time>
      </trkpt>
      <trkpt lat="45.17903" lon="5.25379">
        <ele>407.9</ele>
        <time>2020-05-26T17:04:50Z</time>
      </trkpt>
      <trkpt lat="45.17903" lon="5.25383">
        <ele>407.7</ele>
        <time>2020-05-26T17:04:51Z</time>
      </trkpt>
      <trkpt lat="45.17903" lon="5.25388">
        <ele>407.4</ele>
        <time>2020-05-26T17:04:52Z</time>
      </trkpt>
      <trkpt lat="45.17904" lon="5.25394">
        <ele>407.1</ele>
        <time>2020-05-26T17:04:53Z</time>
      </trkpt>
      <trkpt lat="45.17905" lon="5.254">
        <ele>406.8</ele>
        <time>2020-05-26T17:04:54Z</time>
      </trkpt>
      <trkpt lat="45.17906" lon="5.25405">
        <ele>406.5</ele>
        <time>2020-05-26T17:04:55Z</time>
      </trkpt>
      <trkpt lat="45.17906" lon="5.2541">
        <ele>406.3</ele>
        <time>2020-05-26T17:04:56Z</time>
      </trkpt>
      <trkpt lat="45.17906" lon="5.25415">
        <ele>406.1</ele>
        <time>2020-05-26T17:04:57Z</time>
      </trkpt>
      <trkpt lat="45.17906" lon="5.25419">
        <ele>405.9</ele>
        <time>2020-05-26T17:04:58Z</time>
      </trkpt>
      <trkpt lat="45.17906" lon="5.25424">
        <ele>405.6</ele>
        <time>2020-05-26T17:04:59Z</time>
      </trkpt>
      <trkpt lat="45.17907" lon="5.25428">
        <ele>405.4</ele>
        <time>2020-05-26T17:05:00Z</time>
      </trkpt>
      <trkpt lat="45.17907" lon="5.25433">
        <ele>405.2</ele>
        <time>2020-05-26T17:05:01Z</time>
      </trkpt>
      <trkpt lat="45.17907" lon="5.25437">
        <ele>405</ele>
        <time>2020-05-26T17:05:02Z</time>
      </trkpt>
      <trkpt lat="45.17908" lon="5.25442">
        <ele>404.8</ele>
        <time>2020-05-26T17:05:03Z</time>
      </trkpt>
      <trkpt lat="45.1791" lon="5.25448">
        <ele>404.5</ele>
        <time>2020-05-26T17:05:04Z</time>
      </trkpt>
      <trkpt lat="45.17911" lon="5.25451">
        <ele>404.4</ele>
        <time>2020-05-26T17:05:05Z</time>
      </trkpt>
      <trkpt lat="45.17912" lon="5.25455">
        <ele>404.2</ele>
        <time>2020-05-26T17:05:06Z</time>
      </trkpt>
      <trkpt lat="45.17913" lon="5.2546">
        <ele>404</ele>
        <time>2020-05-26T17:05:07Z</time>
      </trkpt>
      <trkpt lat="45.17914" lon="5.25464">
        <ele>403.8</ele>
        <time>2020-05-26T17:05:08Z</time>
      </trkpt>
      <trkpt lat="45.17915" lon="5.25468">
        <ele>403.7</ele>
        <time>2020-05-26T17:05:09Z</time>
      </trkpt>
      <trkpt lat="45.17916" lon="5.25472">
        <ele>403.5</ele>
        <time>2020-05-26T17:05:10Z</time>
      </trkpt>
      <trkpt lat="45.17918" lon="5.25476">
        <ele>403.3</ele>
        <time>2020-05-26T17:05:11Z</time>
      </trkpt>
      <trkpt lat="45.17919" lon="5.2548">
        <ele>403.1</ele>
        <time>2020-05-26T17:05:12Z</time>
      </trkpt>
      <trkpt lat="45.17921" lon="5.25484">
        <ele>402.9</ele>
        <time>2020-05-26T17:05:13Z</time>
      </trkpt>
      <trkpt lat="45.17924" lon="5.25488">
        <ele>402.7</ele>
        <time>2020-05-26T17:05:14Z</time>
      </trkpt>
      <trkpt lat="45.17925" lon="5.25491">
        <ele>402.5</ele>
        <time>2020-05-26T17:05:15Z</time>
      </trkpt>
      <trkpt lat="45.17928" lon="5.25495">
        <ele>402.3</ele>
        <time>2020-05-26T17:05:16Z</time>
      </trkpt>
      <trkpt lat="45.17931" lon="5.25498">
        <ele>402</ele>
        <time>2020-05-26T17:05:17Z</time>
      </trkpt>
      <trkpt lat="45.17933" lon="5.25501">
        <ele>401.8</ele>
        <time>2020-05-26T17:05:18Z</time>
      </trkpt>
      <trkpt lat="45.17936" lon="5.25503">
        <ele>401.6</ele>
        <time>2020-05-26T17:05:19Z</time>
      </trkpt>
      <trkpt lat="45.17939" lon="5.25506">
        <ele>401.4</ele>
        <time>2020-05-26T17:05:20Z</time>
      </trkpt>
      <trkpt lat="45.17942" lon="5.25509">
        <ele>401.1</ele>
        <time>2020-05-26T17:05:21Z</time>
      </trkpt>
      <trkpt lat="45.17944" lon="5.25511">
        <ele>400.9</ele>
        <time>2020-05-26T17:05:22Z</time>
      </trkpt>
      <trkpt lat="45.17948" lon="5.25514">
        <ele>400.7</ele>
        <time>2020-05-26T17:05:23Z</time>
      </trkpt>
      <trkpt lat="45.17951" lon="5.25517">
        <ele>400.4</ele>
        <time>2020-05-26T17:05:24Z</time>
      </trkpt>
      <trkpt lat="45.17953" lon="5.25519">
        <ele>400.3</ele>
        <time>2020-05-26T17:05:25Z</time>
      </trkpt>
      <trkpt lat="45.17956" lon="5.25521">
        <ele>400.1</ele>
        <time>2020-05-26T17:05:26Z</time>
      </trkpt>
      <trkpt lat="45.1796" lon="5.25523">
        <ele>399.9</ele>
        <time>2020-05-26T17:05:27Z</time>
      </trkpt>
      <trkpt lat="45.17962" lon="5.25525">
        <ele>399.7</ele>
        <time>2020-05-26T17:05:28Z</time>
      </trkpt>
      <trkpt lat="45.17965" lon="5.25527">
        <ele>399.5</ele>
        <time>2020-05-26T17:05:29Z</time>
      </trkpt>
      <trkpt lat="45.17968" lon="5.25529">
        <ele>399.3</ele>
        <time>2020-05-26T17:05:30Z</time>
      </trkpt>
      <trkpt lat="45.17971" lon="5.25531">
        <ele>399.1</ele>
        <time>2020-05-26T17:05:31Z</time>
      </trkpt>
      <trkpt lat="45.17974" lon="5.25533">
        <ele>399</ele>
        <time>2020-05-26T17:05:32Z</time>
      </trkpt>
      <trkpt lat="45.17978" lon="5.25535">
        <ele>398.7</ele>
        <time>2020-05-26T17:05:33Z</time>
      </trkpt>
      <trkpt lat="45.17981" lon="5.25537">
        <ele>398.5</ele>
        <time>2020-05-26T17:05:34Z</time>
      </trkpt>
      <trkpt lat="45.17985" lon="5.25539">
        <ele>398.4</ele>
        <time>2020-05-26T17:05:35Z</time>
      </trkpt>
      <trkpt lat="45.17988" lon="5.2554">
        <ele>398.2</ele>
        <time>2020-05-26T17:05:36Z</time>
      </trkpt>
      <trkpt lat="45.17992" lon="5.25541">
        <ele>398.1</ele>
        <time>2020-05-26T17:05:37Z</time>
      </trkpt>
      <trkpt lat="45.17995" lon="5.2554">
        <ele>397.9</ele>
        <time>2020-05-26T17:05:38Z</time>
      </trkpt>
      <trkpt lat="45.17998" lon="5.25539">
        <ele>397.8</ele>
        <time>2020-05-26T17:05:39Z</time>
      </trkpt>
      <trkpt lat="45.18001" lon="5.25538">
        <ele>397.7</ele>
        <time>2020-05-26T17:05:40Z</time>
      </trkpt>
      <trkpt lat="45.18004" lon="5.25537">
        <ele>397.5</ele>
        <time>2020-05-26T17:05:41Z</time>
      </trkpt>
      <trkpt lat="45.18008" lon="5.25536">
        <ele>397.4</ele>
        <time>2020-05-26T17:05:42Z</time>
      </trkpt>
      <trkpt lat="45.18011" lon="5.25534">
        <ele>397.3</ele>
        <time>2020-05-26T17:05:43Z</time>
      </trkpt>
      <trkpt lat="45.18013" lon="5.25533">
        <ele>397.1</ele>
        <time>2020-05-26T17:05:44Z</time>
      </trkpt>
      <trkpt lat="45.18017" lon="5.2553">
        <ele>397</ele>
        <time>2020-05-26T17:05:45Z</time>
      </trkpt>
      <trkpt lat="45.18019" lon="5.25525">
        <ele>396.8</ele>
        <time>2020-05-26T17:05:46Z</time>
      </trkpt>
      <trkpt lat="45.18022" lon="5.25521">
        <ele>396.6</ele>
        <time>2020-05-26T17:05:47Z</time>
      </trkpt>
      <trkpt lat="45.18024" lon="5.25517">
        <ele>396.4</ele>
        <time>2020-05-26T17:05:48Z</time>
      </trkpt>
      <trkpt lat="45.18027" lon="5.25513">
        <ele>396.2</ele>
        <time>2020-05-26T17:05:49Z</time>
      </trkpt>
      <trkpt lat="45.18029" lon="5.25509">
        <ele>396</ele>
        <time>2020-05-26T17:05:50Z</time>
      </trkpt>
      <trkpt lat="45.18031" lon="5.25506">
        <ele>395.8</ele>
        <time>2020-05-26T17:05:51Z</time>
      </trkpt>
      <trkpt lat="45.18033" lon="5.25503">
        <ele>395.6</ele>
        <time>2020-05-26T17:05:52Z</time>
      </trkpt>
      <trkpt lat="45.18035" lon="5.255">
        <ele>395.4</ele>
        <time>2020-05-26T17:05:53Z</time>
      </trkpt>
      <trkpt lat="45.18038" lon="5.25498">
        <ele>395.1</ele>
        <time>2020-05-26T17:05:54Z</time>
      </trkpt>
      <trkpt lat="45.18041" lon="5.25495">
        <ele>394.8</ele>
        <time>2020-05-26T17:05:55Z</time>
      </trkpt>
      <trkpt lat="45.18045" lon="5.25495">
        <ele>394.5</ele>
        <time>2020-05-26T17:05:56Z</time>
      </trkpt>
      <trkpt lat="45.18046" lon="5.25496">
        <ele>394.4</ele>
        <time>2020-05-26T17:05:57Z</time>
      </trkpt>
      <trkpt lat="45.18049" lon="5.25499">
        <ele>394.2</ele>
        <time>2020-05-26T17:05:58Z</time>
      </trkpt>
      <trkpt lat="45.18052" lon="5.25503">
        <ele>393.9</ele>
        <time>2020-05-26T17:05:59Z</time>
      </trkpt>
      <trkpt lat="45.18052" lon="5.25507">
        <ele>393.7</ele>
        <time>2020-05-26T17:06:00Z</time>
      </trkpt>
      <trkpt lat="45.18052" lon="5.25512">
        <ele>393.5</ele>
        <time>2020-05-26T17:06:01Z</time>
      </trkpt>
      <trkpt lat="45.18051" lon="5.25517">
        <ele>393.3</ele>
        <time>2020-05-26T17:06:02Z</time>
      </trkpt>
      <trkpt lat="45.18049" lon="5.25521">
        <ele>393.1</ele>
        <time>2020-05-26T17:06:03Z</time>
      </trkpt>
      <trkpt lat="45.18047" lon="5.25524">
        <ele>392.9</ele>
        <time>2020-05-26T17:06:04Z</time>
      </trkpt>
      <trkpt lat="45.18043" lon="5.25527">
        <ele>392.6</ele>
        <time>2020-05-26T17:06:05Z</time>
      </trkpt>
      <trkpt lat="45.18039" lon="5.2553">
        <ele>392.4</ele>
        <time>2020-05-26T17:06:06Z</time>
      </trkpt>
      <trkpt lat="45.18037" lon="5.25532">
        <ele>392.2</ele>
        <time>2020-05-26T17:06:07Z</time>
      </trkpt>
      <trkpt lat="45.18034" lon="5.25534">
        <ele>391.9</ele>
        <time>2020-05-26T17:06:08Z</time>
      </trkpt>
      <trkpt lat="45.18031" lon="5.25537">
        <ele>391.7</ele>
        <time>2020-05-26T17:06:09Z</time>
      </trkpt>
      <trkpt lat="45.18028" lon="5.2554">
        <ele>391.5</ele>
        <time>2020-05-26T17:06:10Z</time>
      </trkpt>
      <trkpt lat="45.18025" lon="5.25542">
        <ele>391.3</ele>
        <time>2020-05-26T17:06:11Z</time>
      </trkpt>
      <trkpt lat="45.18022" lon="5.25543">
        <ele>391.1</ele>
        <time>2020-05-26T17:06:12Z</time>
      </trkpt>
      <trkpt lat="45.18019" lon="5.25545">
        <ele>390.9</ele>
        <time>2020-05-26T17:06:13Z</time>
      </trkpt>
      <trkpt lat="45.18016" lon="5.25547">
        <ele>390.7</ele>
        <time>2020-05-26T17:06:14Z</time>
      </trkpt>
      <trkpt lat="45.18013" lon="5.25551">
        <ele>390.5</ele>
        <time>2020-05-26T17:06:15Z</time>
      </trkpt>
      <trkpt lat="45.18011" lon="5.25554">
        <ele>390.3</ele>
        <time>2020-05-26T17:06:16Z</time>
      </trkpt>
      <trkpt lat="45.18009" lon="5.25557">
        <ele>390.1</ele>
        <time>2020-05-26T17:06:17Z</time>
      </trkpt>
      <trkpt lat="45.18007" lon="5.2556">
        <ele>389.9</ele>
        <time>2020-05-26T17:06:18Z</time>
      </trkpt>
      <trkpt lat="45.18004" lon="5.25563">
        <ele>389.7</ele>
        <time>2020-05-26T17:06:19Z</time>
      </trkpt>
      <trkpt lat="45.18002" lon="5.25565">
        <ele>389.5</ele>
        <time>2020-05-26T17:06:20Z</time>
      </trkpt>
      <trkpt lat="45.17999" lon="5.25568">
        <ele>389.3</ele>
        <time>2020-05-26T17:06:21Z</time>
      </trkpt>
      <trkpt lat="45.17996" lon="5.2557">
        <ele>389.1</ele>
        <time>2020-05-26T17:06:22Z</time>
      </trkpt>
      <trkpt lat="45.17993" lon="5.25572">
        <ele>388.8</ele>
        <time>2020-05-26T17:06:23Z</time>
      </trkpt>
      <trkpt lat="45.17991" lon="5.25574">
        <ele>388.6</ele>
        <time>2020-05-26T17:06:24Z</time>
      </trkpt>
      <trkpt lat="45.17988" lon="5.25576">
        <ele>388.3</ele>
        <time>2020-05-26T17:06:25Z</time>
      </trkpt>
      <trkpt lat="45.17985" lon="5.25578">
        <ele>388</ele>
        <time>2020-05-26T17:06:26Z</time>
      </trkpt>
      <trkpt lat="45.17982" lon="5.2558">
        <ele>387.7</ele>
        <time>2020-05-26T17:06:27Z</time>
      </trkpt>
      <trkpt lat="45.17979" lon="5.25582">
        <ele>387.4</ele>
        <time>2020-05-26T17:06:28Z</time>
      </trkpt>
      <trkpt lat="45.17976" lon="5.25585">
        <ele>387.1</ele>
        <time>2020-05-26T17:06:29Z</time>
      </trkpt>
      <trkpt lat="45.17973" lon="5.25587">
        <ele>386.8</ele>
        <time>2020-05-26T17:06:30Z</time>
      </trkpt>
      <trkpt lat="45.1797" lon="5.2559">
        <ele>386.5</ele>
        <time>2020-05-26T17:06:31Z</time>
      </trkpt>
      <trkpt lat="45.17967" lon="5.25591">
        <ele>386.3</ele>
        <time>2020-05-26T17:06:32Z</time>
      </trkpt>
      <trkpt lat="45.17964" lon="5.25593">
        <ele>385.9</ele>
        <time>2020-05-26T17:06:33Z</time>
      </trkpt>
      <trkpt lat="45.17961" lon="5.25595">
        <ele>385.6</ele>
        <time>2020-05-26T17:06:34Z</time>
      </trkpt>
      <trkpt lat="45.17958" lon="5.25597">
        <ele>385.3</ele>
        <time>2020-05-26T17:06:35Z</time>
      </trkpt>
      <trkpt lat="45.17955" lon="5.256">
        <ele>385</ele>
        <time>2020-05-26T17:06:36Z</time>
      </trkpt>
      <trkpt lat="45.17952" lon="5.25602">
        <ele>384.8</ele>
        <time>2020-05-26T17:06:37Z</time>
      </trkpt>
      <trkpt lat="45.17949" lon="5.25604">
        <ele>384.4</ele>
        <time>2020-05-26T17:06:38Z</time>
      </trkpt>
      <trkpt lat="45.17948" lon="5.25605">
        <ele>384.3</ele>
        <time>2020-05-26T17:06:39Z</time>
      </trkpt>
      <trkpt lat="45.17945" lon="5.25607">
        <ele>384.1</ele>
        <time>2020-05-26T17:06:40Z</time>
      </trkpt>
      <trkpt lat="45.17941" lon="5.25608">
        <ele>383.8</ele>
        <time>2020-05-26T17:06:41Z</time>
      </trkpt>
      <trkpt lat="45.17938" lon="5.2561">
        <ele>383.5</ele>
        <time>2020-05-26T17:06:42Z</time>
      </trkpt>
      <trkpt lat="45.17935" lon="5.25611">
        <ele>383.2</ele>
        <time>2020-05-26T17:06:43Z</time>
      </trkpt>
      <trkpt lat="45.17931" lon="5.25612">
        <ele>382.9</ele>
        <time>2020-05-26T17:06:44Z</time>
      </trkpt>
      <trkpt lat="45.17928" lon="5.25614">
        <ele>382.7</ele>
        <time>2020-05-26T17:06:45Z</time>
      </trkpt>
      <trkpt lat="45.17925" lon="5.25615">
        <ele>382.4</ele>
        <time>2020-05-26T17:06:46Z</time>
      </trkpt>
      <trkpt lat="45.17922" lon="5.25617">
        <ele>382.1</ele>
        <time>2020-05-26T17:06:47Z</time>
      </trkpt>
      <trkpt lat="45.17919" lon="5.25619">
        <ele>381.9</ele>
        <time>2020-05-26T17:06:48Z</time>
      </trkpt>
      <trkpt lat="45.17916" lon="5.25621">
        <ele>381.6</ele>
        <time>2020-05-26T17:06:49Z</time>
      </trkpt>
      <trkpt lat="45.17912" lon="5.25623">
        <ele>381.3</ele>
        <time>2020-05-26T17:06:50Z</time>
      </trkpt>
      <trkpt lat="45.17909" lon="5.25625">
        <ele>381</ele>
        <time>2020-05-26T17:06:51Z</time>
      </trkpt>
      <trkpt lat="45.17906" lon="5.25627">
        <ele>380.8</ele>
        <time>2020-05-26T17:06:52Z</time>
      </trkpt>
      <trkpt lat="45.17902" lon="5.2563">
        <ele>380.5</ele>
        <time>2020-05-26T17:06:53Z</time>
      </trkpt>
      <trkpt lat="45.17899" lon="5.25633">
        <ele>380.2</ele>
        <time>2020-05-26T17:06:54Z</time>
      </trkpt>
      <trkpt lat="45.17897" lon="5.25636">
        <ele>379.9</ele>
        <time>2020-05-26T17:06:55Z</time>
      </trkpt>
      <trkpt lat="45.17894" lon="5.2564">
        <ele>379.6</ele>
        <time>2020-05-26T17:06:56Z</time>
      </trkpt>
      <trkpt lat="45.17891" lon="5.25645">
        <ele>379.3</ele>
        <time>2020-05-26T17:06:57Z</time>
      </trkpt>
      <trkpt lat="45.17889" lon="5.25649">
        <ele>379.1</ele>
        <time>2020-05-26T17:06:58Z</time>
      </trkpt>
      <trkpt lat="45.17887" lon="5.25653">
        <ele>378.8</ele>
        <time>2020-05-26T17:06:59Z</time>
      </trkpt>
      <trkpt lat="45.17885" lon="5.25658">
        <ele>378.6</ele>
        <time>2020-05-26T17:07:00Z</time>
      </trkpt>
      <trkpt lat="45.17883" lon="5.25662">
        <ele>378.4</ele>
        <time>2020-05-26T17:07:01Z</time>
      </trkpt>
      <trkpt lat="45.17881" lon="5.25666">
        <ele>378.2</ele>
        <time>2020-05-26T17:07:02Z</time>
      </trkpt>
      <trkpt lat="45.17879" lon="5.25671">
        <ele>378</ele>
        <time>2020-05-26T17:07:03Z</time>
      </trkpt>
      <trkpt lat="45.17877" lon="5.25675">
        <ele>377.8</ele>
        <time>2020-05-26T17:07:04Z</time>
      </trkpt>
      <trkpt lat="45.17875" lon="5.25679">
        <ele>377.6</ele>
        <time>2020-05-26T17:07:05Z</time>
      </trkpt>
      <trkpt lat="45.17874" lon="5.25683">
        <ele>377.4</ele>
        <time>2020-05-26T17:07:06Z</time>
      </trkpt>
      <trkpt lat="45.17872" lon="5.25687">
        <ele>377.3</ele>
        <time>2020-05-26T17:07:07Z</time>
      </trkpt>
      <trkpt lat="45.1787" lon="5.25691">
        <ele>377.2</ele>
        <time>2020-05-26T17:07:08Z</time>
      </trkpt>
      <trkpt lat="45.17868" lon="5.25695">
        <ele>377.1</ele>
        <time>2020-05-26T17:07:09Z</time>
      </trkpt>
      <trkpt lat="45.17866" lon="5.25698">
        <ele>377</ele>
        <time>2020-05-26T17:07:10Z</time>
      </trkpt>
      <trkpt lat="45.17864" lon="5.25702">
        <ele>376.9</ele>
        <time>2020-05-26T17:07:11Z</time>
      </trkpt>
      <trkpt lat="45.17861" lon="5.25706">
        <ele>376.9</ele>
        <time>2020-05-26T17:07:12Z</time>
      </trkpt>
      <trkpt lat="45.17859" lon="5.2571">
        <ele>376.8</ele>
        <time>2020-05-26T17:07:13Z</time>
      </trkpt>
      <trkpt lat="45.17857" lon="5.25714">
        <ele>376.7</ele>
        <time>2020-05-26T17:07:14Z</time>
      </trkpt>
      <trkpt lat="45.17855" lon="5.25718">
        <ele>376.6</ele>
        <time>2020-05-26T17:07:15Z</time>
      </trkpt>
      <trkpt lat="45.17853" lon="5.25722">
        <ele>376.5</ele>
        <time>2020-05-26T17:07:16Z</time>
      </trkpt>
      <trkpt lat="45.17851" lon="5.25726">
        <ele>376.4</ele>
        <time>2020-05-26T17:07:17Z</time>
      </trkpt>
      <trkpt lat="45.17849" lon="5.25729">
        <ele>376.4</ele>
        <time>2020-05-26T17:07:18Z</time>
      </trkpt>
      <trkpt lat="45.17847" lon="5.25733">
        <ele>376.3</ele>
        <time>2020-05-26T17:07:19Z</time>
      </trkpt>
      <trkpt lat="45.17845" lon="5.25737">
        <ele>376.2</ele>
        <time>2020-05-26T17:07:20Z</time>
      </trkpt>
      <trkpt lat="45.17843" lon="5.25741">
        <ele>376.1</ele>
        <time>2020-05-26T17:07:21Z</time>
      </trkpt>
      <trkpt lat="45.17842" lon="5.25746">
        <ele>376</ele>
        <time>2020-05-26T17:07:22Z</time>
      </trkpt>
      <trkpt lat="45.17841" lon="5.2575">
        <ele>375.9</ele>
        <time>2020-05-26T17:07:23Z</time>
      </trkpt>
      <trkpt lat="45.17839" lon="5.25755">
        <ele>375.8</ele>
        <time>2020-05-26T17:07:24Z</time>
      </trkpt>
      <trkpt lat="45.17838" lon="5.2576">
        <ele>375.7</ele>
        <time>2020-05-26T17:07:25Z</time>
      </trkpt>
      <trkpt lat="45.17836" lon="5.25763">
        <ele>375.6</ele>
        <time>2020-05-26T17:07:26Z</time>
      </trkpt>
      <trkpt lat="45.17834" lon="5.25766">
        <ele>375.5</ele>
        <time>2020-05-26T17:07:27Z</time>
      </trkpt>
      <trkpt lat="45.17833" lon="5.25771">
        <ele>375.4</ele>
        <time>2020-05-26T17:07:28Z</time>
      </trkpt>
      <trkpt lat="45.17831" lon="5.25774">
        <ele>375.3</ele>
        <time>2020-05-26T17:07:29Z</time>
      </trkpt>
      <trkpt lat="45.17829" lon="5.25778">
        <ele>375.1</ele>
        <time>2020-05-26T17:07:30Z</time>
      </trkpt>
      <trkpt lat="45.17827" lon="5.25782">
        <ele>374.9</ele>
        <time>2020-05-26T17:07:31Z</time>
      </trkpt>
      <trkpt lat="45.17825" lon="5.25786">
        <ele>374.8</ele>
        <time>2020-05-26T17:07:32Z</time>
      </trkpt>
      <trkpt lat="45.17823" lon="5.25789">
        <ele>374.6</ele>
        <time>2020-05-26T17:07:33Z</time>
      </trkpt>
      <trkpt lat="45.17821" lon="5.25793">
        <ele>374.3</ele>
        <time>2020-05-26T17:07:34Z</time>
      </trkpt>
      <trkpt lat="45.17819" lon="5.25797">
        <ele>374.1</ele>
        <time>2020-05-26T17:07:35Z</time>
      </trkpt>
      <trkpt lat="45.17817" lon="5.258">
        <ele>373.9</ele>
        <time>2020-05-26T17:07:36Z</time>
      </trkpt>
      <trkpt lat="45.17815" lon="5.25804">
        <ele>373.7</ele>
        <time>2020-05-26T17:07:37Z</time>
      </trkpt>
      <trkpt lat="45.17813" lon="5.25807">
        <ele>373.5</ele>
        <time>2020-05-26T17:07:38Z</time>
      </trkpt>
      <trkpt lat="45.17811" lon="5.25811">
        <ele>373.3</ele>
        <time>2020-05-26T17:07:39Z</time>
      </trkpt>
      <trkpt lat="45.17809" lon="5.25814">
        <ele>373.1</ele>
        <time>2020-05-26T17:07:40Z</time>
      </trkpt>
      <trkpt lat="45.17807" lon="5.25818">
        <ele>372.9</ele>
        <time>2020-05-26T17:07:41Z</time>
      </trkpt>
      <trkpt lat="45.17805" lon="5.25822">
        <ele>372.8</ele>
        <time>2020-05-26T17:07:42Z</time>
      </trkpt>
      <trkpt lat="45.17804" lon="5.25826">
        <ele>372.6</ele>
        <time>2020-05-26T17:07:43Z</time>
      </trkpt>
      <trkpt lat="45.17802" lon="5.2583">
        <ele>372.4</ele>
        <time>2020-05-26T17:07:44Z</time>
      </trkpt>
      <trkpt lat="45.178" lon="5.25834">
        <ele>372.2</ele>
        <time>2020-05-26T17:07:45Z</time>
      </trkpt>
      <trkpt lat="45.17798" lon="5.25838">
        <ele>372.1</ele>
        <time>2020-05-26T17:07:46Z</time>
      </trkpt>
      <trkpt lat="45.17795" lon="5.25842">
        <ele>371.9</ele>
        <time>2020-05-26T17:07:47Z</time>
      </trkpt>
      <trkpt lat="45.17794" lon="5.25846">
        <ele>371.8</ele>
        <time>2020-05-26T17:07:48Z</time>
      </trkpt>
      <trkpt lat="45.17792" lon="5.2585">
        <ele>371.7</ele>
        <time>2020-05-26T17:07:49Z</time>
      </trkpt>
      <trkpt lat="45.17791" lon="5.25854">
        <ele>371.5</ele>
        <time>2020-05-26T17:07:50Z</time>
      </trkpt>
      <trkpt lat="45.17789" lon="5.25857">
        <ele>371.4</ele>
        <time>2020-05-26T17:07:51Z</time>
      </trkpt>
      <trkpt lat="45.17788" lon="5.25862">
        <ele>371.3</ele>
        <time>2020-05-26T17:07:52Z</time>
      </trkpt>
      <trkpt lat="45.17787" lon="5.25866">
        <ele>371.2</ele>
        <time>2020-05-26T17:07:53Z</time>
      </trkpt>
      <trkpt lat="45.17786" lon="5.2587">
        <ele>371.1</ele>
        <time>2020-05-26T17:07:54Z</time>
      </trkpt>
      <trkpt lat="45.17784" lon="5.25874">
        <ele>371</ele>
        <time>2020-05-26T17:07:55Z</time>
      </trkpt>
      <trkpt lat="45.17783" lon="5.25879">
        <ele>370.9</ele>
        <time>2020-05-26T17:07:56Z</time>
      </trkpt>
      <trkpt lat="45.17781" lon="5.25882">
        <ele>370.8</ele>
        <time>2020-05-26T17:07:57Z</time>
      </trkpt>
      <trkpt lat="45.17779" lon="5.25887">
        <ele>370.8</ele>
        <time>2020-05-26T17:07:58Z</time>
      </trkpt>
      <trkpt lat="45.17778" lon="5.25892">
        <ele>370.7</ele>
        <time>2020-05-26T17:07:59Z</time>
      </trkpt>
      <trkpt lat="45.17776" lon="5.25896">
        <ele>370.7</ele>
        <time>2020-05-26T17:08:00Z</time>
      </trkpt>
      <trkpt lat="45.17775" lon="5.25901">
        <ele>370.6</ele>
        <time>2020-05-26T17:08:01Z</time>
      </trkpt>
      <trkpt lat="45.17774" lon="5.25906">
        <ele>370.6</ele>
        <time>2020-05-26T17:08:02Z</time>
      </trkpt>
      <trkpt lat="45.17773" lon="5.2591">
        <ele>370.5</ele>
        <time>2020-05-26T17:08:03Z</time>
      </trkpt>
      <trkpt lat="45.17772" lon="5.25914">
        <ele>370.5</ele>
        <time>2020-05-26T17:08:04Z</time>
      </trkpt>
      <trkpt lat="45.17771" lon="5.25918">
        <ele>370.5</ele>
        <time>2020-05-26T17:08:05Z</time>
      </trkpt>
      <trkpt lat="45.1777" lon="5.25922">
        <ele>370.4</ele>
        <time>2020-05-26T17:08:06Z</time>
      </trkpt>
      <trkpt lat="45.17769" lon="5.25927">
        <ele>370.4</ele>
        <time>2020-05-26T17:08:07Z</time>
      </trkpt>
      <trkpt lat="45.17768" lon="5.25931">
        <ele>370.3</ele>
        <time>2020-05-26T17:08:08Z</time>
      </trkpt>
      <trkpt lat="45.17767" lon="5.25935">
        <ele>370.3</ele>
        <time>2020-05-26T17:08:09Z</time>
      </trkpt>
      <trkpt lat="45.17767" lon="5.2594">
        <ele>370.3</ele>
        <time>2020-05-26T17:08:10Z</time>
      </trkpt>
      <trkpt lat="45.17766" lon="5.25944">
        <ele>370.2</ele>
        <time>2020-05-26T17:08:11Z</time>
      </trkpt>
      <trkpt lat="45.17765" lon="5.2595">
        <ele>370.1</ele>
        <time>2020-05-26T17:08:12Z</time>
      </trkpt>
      <trkpt lat="45.17765" lon="5.25953">
        <ele>370.1</ele>
        <time>2020-05-26T17:08:13Z</time>
      </trkpt>
      <trkpt lat="45.17765" lon="5.25957">
        <ele>370</ele>
        <time>2020-05-26T17:08:14Z</time>
      </trkpt>
      <trkpt lat="45.17766" lon="5.25963">
        <ele>370</ele>
        <time>2020-05-26T17:08:15Z</time>
      </trkpt>
      <trkpt lat="45.17766" lon="5.25965">
        <ele>369.9</ele>
        <time>2020-05-26T17:08:16Z</time>
      </trkpt>
      <trkpt lat="45.17766" lon="5.2597">
        <ele>369.9</ele>
        <time>2020-05-26T17:08:17Z</time>
      </trkpt>
      <trkpt lat="45.17767" lon="5.25975">
        <ele>369.8</ele>
        <time>2020-05-26T17:08:18Z</time>
      </trkpt>
      <trkpt lat="45.17767" lon="5.25977">
        <ele>369.7</ele>
        <time>2020-05-26T17:08:19Z</time>
      </trkpt>
      <trkpt lat="45.17768" lon="5.25982">
        <ele>369.7</ele>
        <time>2020-05-26T17:08:20Z</time>
      </trkpt>
      <trkpt lat="45.17769" lon="5.25986">
        <ele>369.6</ele>
        <time>2020-05-26T17:08:21Z</time>
      </trkpt>
      <trkpt lat="45.1777" lon="5.2599">
        <ele>369.5</ele>
        <time>2020-05-26T17:08:22Z</time>
      </trkpt>
      <trkpt lat="45.17771" lon="5.25993">
        <ele>369.4</ele>
        <time>2020-05-26T17:08:23Z</time>
      </trkpt>
      <trkpt lat="45.17773" lon="5.25999">
        <ele>369.3</ele>
        <time>2020-05-26T17:08:24Z</time>
      </trkpt>
      <trkpt lat="45.17774" lon="5.26001">
        <ele>369.3</ele>
        <time>2020-05-26T17:08:25Z</time>
      </trkpt>
      <trkpt lat="45.17774" lon="5.26006">
        <ele>369.2</ele>
        <time>2020-05-26T17:08:26Z</time>
      </trkpt>
      <trkpt lat="45.17775" lon="5.2601">
        <ele>369.1</ele>
        <time>2020-05-26T17:08:27Z</time>
      </trkpt>
      <trkpt lat="45.17776" lon="5.26014">
        <ele>369</ele>
        <time>2020-05-26T17:08:28Z</time>
      </trkpt>
      <trkpt lat="45.17777" lon="5.26019">
        <ele>368.9</ele>
        <time>2020-05-26T17:08:29Z</time>
      </trkpt>
      <trkpt lat="45.17777" lon="5.26024">
        <ele>368.8</ele>
        <time>2020-05-26T17:08:30Z</time>
      </trkpt>
      <trkpt lat="45.17778" lon="5.26029">
        <ele>368.7</ele>
        <time>2020-05-26T17:08:31Z</time>
      </trkpt>
      <trkpt lat="45.17778" lon="5.26032">
        <ele>368.6</ele>
        <time>2020-05-26T17:08:32Z</time>
      </trkpt>
      <trkpt lat="45.17779" lon="5.26037">
        <ele>368.5</ele>
        <time>2020-05-26T17:08:33Z</time>
      </trkpt>
      <trkpt lat="45.17779" lon="5.26041">
        <ele>368.4</ele>
        <time>2020-05-26T17:08:34Z</time>
      </trkpt>
      <trkpt lat="45.1778" lon="5.26046">
        <ele>368.3</ele>
        <time>2020-05-26T17:08:35Z</time>
      </trkpt>
      <trkpt lat="45.17779" lon="5.26051">
        <ele>368.3</ele>
        <time>2020-05-26T17:08:36Z</time>
      </trkpt>
      <trkpt lat="45.17779" lon="5.26055">
        <ele>368.2</ele>
        <time>2020-05-26T17:08:37Z</time>
      </trkpt>
      <trkpt lat="45.17779" lon="5.2606">
        <ele>368.2</ele>
        <time>2020-05-26T17:08:38Z</time>
      </trkpt>
      <trkpt lat="45.17778" lon="5.26066">
        <ele>368.3</ele>
        <time>2020-05-26T17:08:39Z</time>
      </trkpt>
      <trkpt lat="45.17777" lon="5.26069">
        <ele>368.3</ele>
        <time>2020-05-26T17:08:40Z</time>
      </trkpt>
      <trkpt lat="45.17775" lon="5.26074">
        <ele>368.4</ele>
        <time>2020-05-26T17:08:41Z</time>
      </trkpt>
      <trkpt lat="45.17774" lon="5.26079">
        <ele>368.4</ele>
        <time>2020-05-26T17:08:42Z</time>
      </trkpt>
      <trkpt lat="45.17773" lon="5.26082">
        <ele>368.4</ele>
        <time>2020-05-26T17:08:43Z</time>
      </trkpt>
      <trkpt lat="45.17771" lon="5.26086">
        <ele>368.5</ele>
        <time>2020-05-26T17:08:44Z</time>
      </trkpt>
      <trkpt lat="45.1777" lon="5.26091">
        <ele>368.6</ele>
        <time>2020-05-26T17:08:45Z</time>
      </trkpt>
      <trkpt lat="45.17768" lon="5.26094">
        <ele>368.6</ele>
        <time>2020-05-26T17:08:46Z</time>
      </trkpt>
      <trkpt lat="45.17766" lon="5.26098">
        <ele>368.7</ele>
        <time>2020-05-26T17:08:47Z</time>
      </trkpt>
      <trkpt lat="45.17765" lon="5.26101">
        <ele>368.8</ele>
        <time>2020-05-26T17:08:48Z</time>
      </trkpt>
      <trkpt lat="45.17763" lon="5.26105">
        <ele>368.9</ele>
        <time>2020-05-26T17:08:49Z</time>
      </trkpt>
      <trkpt lat="45.17761" lon="5.26109">
        <ele>369</ele>
        <time>2020-05-26T17:08:50Z</time>
      </trkpt>
      <trkpt lat="45.17759" lon="5.26112">
        <ele>369.1</ele>
        <time>2020-05-26T17:08:51Z</time>
      </trkpt>
      <trkpt lat="45.17757" lon="5.26115">
        <ele>369.2</ele>
        <time>2020-05-26T17:08:52Z</time>
      </trkpt>
      <trkpt lat="45.17755" lon="5.26119">
        <ele>369.3</ele>
        <time>2020-05-26T17:08:53Z</time>
      </trkpt>
      <trkpt lat="45.17753" lon="5.26122">
        <ele>369.4</ele>
        <time>2020-05-26T17:08:54Z</time>
      </trkpt>
      <trkpt lat="45.17751" lon="5.26125">
        <ele>369.5</ele>
        <time>2020-05-26T17:08:55Z</time>
      </trkpt>
      <trkpt lat="45.17749" lon="5.26128">
        <ele>369.6</ele>
        <time>2020-05-26T17:08:56Z</time>
      </trkpt>
      <trkpt lat="45.17747" lon="5.26132">
        <ele>369.8</ele>
        <time>2020-05-26T17:08:57Z</time>
      </trkpt>
      <trkpt lat="45.17745" lon="5.26135">
        <ele>369.9</ele>
        <time>2020-05-26T17:08:58Z</time>
      </trkpt>
      <trkpt lat="45.17743" lon="5.26138">
        <ele>370</ele>
        <time>2020-05-26T17:08:59Z</time>
      </trkpt>
      <trkpt lat="45.17741" lon="5.26141">
        <ele>370.2</ele>
        <time>2020-05-26T17:09:00Z</time>
      </trkpt>
      <trkpt lat="45.17739" lon="5.26145">
        <ele>370.3</ele>
        <time>2020-05-26T17:09:01Z</time>
      </trkpt>
      <trkpt lat="45.17737" lon="5.26148">
        <ele>370.5</ele>
        <time>2020-05-26T17:09:02Z</time>
      </trkpt>
      <trkpt lat="45.17734" lon="5.26152">
        <ele>370.7</ele>
        <time>2020-05-26T17:09:03Z</time>
      </trkpt>
      <trkpt lat="45.17733" lon="5.26153">
        <ele>370.8</ele>
        <time>2020-05-26T17:09:04Z</time>
      </trkpt>
      <trkpt lat="45.1773" lon="5.26156">
        <ele>370.9</ele>
        <time>2020-05-26T17:09:05Z</time>
      </trkpt>
      <trkpt lat="45.17727" lon="5.2616">
        <ele>371.1</ele>
        <time>2020-05-26T17:09:06Z</time>
      </trkpt>
      <trkpt lat="45.17726" lon="5.26161">
        <ele>371.2</ele>
        <time>2020-05-26T17:09:07Z</time>
      </trkpt>
      <trkpt lat="45.17724" lon="5.26164">
        <ele>371.3</ele>
        <time>2020-05-26T17:09:08Z</time>
      </trkpt>
      <trkpt lat="45.17722" lon="5.26168">
        <ele>371.5</ele>
        <time>2020-05-26T17:09:09Z</time>
      </trkpt>
      <trkpt lat="45.17721" lon="5.26169">
        <ele>371.5</ele>
        <time>2020-05-26T17:09:10Z</time>
      </trkpt>
      <trkpt lat="45.17719" lon="5.26172">
        <ele>371.6</ele>
        <time>2020-05-26T17:09:11Z</time>
      </trkpt>
      <trkpt lat="45.17716" lon="5.26176">
        <ele>371.8</ele>
        <time>2020-05-26T17:09:12Z</time>
      </trkpt>
      <trkpt lat="45.17715" lon="5.26177">
        <ele>371.8</ele>
        <time>2020-05-26T17:09:13Z</time>
      </trkpt>
      <trkpt lat="45.17713" lon="5.26181">
        <ele>371.9</ele>
        <time>2020-05-26T17:09:14Z</time>
      </trkpt>
      <trkpt lat="45.17712" lon="5.26183">
        <ele>372</ele>
        <time>2020-05-26T17:09:15Z</time>
      </trkpt>
      <trkpt lat="45.17711" lon="5.26186">
        <ele>372.1</ele>
        <time>2020-05-26T17:09:16Z</time>
      </trkpt>
      <trkpt lat="45.1771" lon="5.26191">
        <ele>372.1</ele>
        <time>2020-05-26T17:09:17Z</time>
      </trkpt>
      <trkpt lat="45.17709" lon="5.26194">
        <ele>372.2</ele>
        <time>2020-05-26T17:09:18Z</time>
      </trkpt>
      <trkpt lat="45.17707" lon="5.26199">
        <ele>372.2</ele>
        <time>2020-05-26T17:09:19Z</time>
      </trkpt>
      <trkpt lat="45.17705" lon="5.26202">
        <ele>372.1</ele>
        <time>2020-05-26T17:09:20Z</time>
      </trkpt>
      <trkpt lat="45.17703" lon="5.26206">
        <ele>372</ele>
        <time>2020-05-26T17:09:21Z</time>
      </trkpt>
      <trkpt lat="45.17701" lon="5.26209">
        <ele>371.9</ele>
        <time>2020-05-26T17:09:22Z</time>
      </trkpt>
      <trkpt lat="45.17698" lon="5.26212">
        <ele>371.8</ele>
        <time>2020-05-26T17:09:23Z</time>
      </trkpt>
      <trkpt lat="45.17696" lon="5.26214">
        <ele>371.7</ele>
        <time>2020-05-26T17:09:24Z</time>
      </trkpt>
      <trkpt lat="45.17693" lon="5.26217">
        <ele>371.6</ele>
        <time>2020-05-26T17:09:25Z</time>
      </trkpt>
      <trkpt lat="45.1769" lon="5.26219">
        <ele>371.5</ele>
        <time>2020-05-26T17:09:26Z</time>
      </trkpt>
      <trkpt lat="45.17687" lon="5.26222">
        <ele>371.4</ele>
        <time>2020-05-26T17:09:27Z</time>
      </trkpt>
      <trkpt lat="45.17685" lon="5.26224">
        <ele>371.3</ele>
        <time>2020-05-26T17:09:28Z</time>
      </trkpt>
      <trkpt lat="45.17683" lon="5.26226">
        <ele>371.2</ele>
        <time>2020-05-26T17:09:29Z</time>
      </trkpt>
      <trkpt lat="45.17679" lon="5.2623">
        <ele>371.1</ele>
        <time>2020-05-26T17:09:30Z</time>
      </trkpt>
      <trkpt lat="45.17678" lon="5.26231">
        <ele>371.1</ele>
        <time>2020-05-26T17:09:31Z</time>
      </trkpt>
      <trkpt lat="45.17676" lon="5.26233">
        <ele>371</ele>
        <time>2020-05-26T17:09:32Z</time>
      </trkpt>
      <trkpt lat="45.17674" lon="5.26235">
        <ele>371</ele>
        <time>2020-05-26T17:09:33Z</time>
      </trkpt>
      <trkpt lat="45.17671" lon="5.26237">
        <ele>370.9</ele>
        <time>2020-05-26T17:09:34Z</time>
      </trkpt>
      <trkpt lat="45.17667" lon="5.2624">
        <ele>370.8</ele>
        <time>2020-05-26T17:09:35Z</time>
      </trkpt>
      <trkpt lat="45.17665" lon="5.26242">
        <ele>370.8</ele>
        <time>2020-05-26T17:09:36Z</time>
      </trkpt>
      <trkpt lat="45.17662" lon="5.26244">
        <ele>370.8</ele>
        <time>2020-05-26T17:09:37Z</time>
      </trkpt>
      <trkpt lat="45.17659" lon="5.26246">
        <ele>370.7</ele>
        <time>2020-05-26T17:09:38Z</time>
      </trkpt>
      <trkpt lat="45.17657" lon="5.26248">
        <ele>370.7</ele>
        <time>2020-05-26T17:09:39Z</time>
      </trkpt>
      <trkpt lat="45.17654" lon="5.26251">
        <ele>370.6</ele>
        <time>2020-05-26T17:09:40Z</time>
      </trkpt>
      <trkpt lat="45.17651" lon="5.26253">
        <ele>370.5</ele>
        <time>2020-05-26T17:09:41Z</time>
      </trkpt>
      <trkpt lat="45.17647" lon="5.26255">
        <ele>370.4</ele>
        <time>2020-05-26T17:09:42Z</time>
      </trkpt>
      <trkpt lat="45.17645" lon="5.26256">
        <ele>370.4</ele>
        <time>2020-05-26T17:09:43Z</time>
      </trkpt>
      <trkpt lat="45.17642" lon="5.26257">
        <ele>370.3</ele>
        <time>2020-05-26T17:09:44Z</time>
      </trkpt>
      <trkpt lat="45.17639" lon="5.26258">
        <ele>370.2</ele>
        <time>2020-05-26T17:09:45Z</time>
      </trkpt>
      <trkpt lat="45.17636" lon="5.2626">
        <ele>370.2</ele>
        <time>2020-05-26T17:09:46Z</time>
      </trkpt>
      <trkpt lat="45.17633" lon="5.26263">
        <ele>370.1</ele>
        <time>2020-05-26T17:09:47Z</time>
      </trkpt>
      <trkpt lat="45.1763" lon="5.26265">
        <ele>370</ele>
        <time>2020-05-26T17:09:48Z</time>
      </trkpt>
      <trkpt lat="45.17628" lon="5.26268">
        <ele>370</ele>
        <time>2020-05-26T17:09:49Z</time>
      </trkpt>
      <trkpt lat="45.17625" lon="5.2627">
        <ele>369.9</ele>
        <time>2020-05-26T17:09:50Z</time>
      </trkpt>
      <trkpt lat="45.17623" lon="5.26273">
        <ele>369.9</ele>
        <time>2020-05-26T17:09:51Z</time>
      </trkpt>
      <trkpt lat="45.1762" lon="5.26275">
        <ele>369.8</ele>
        <time>2020-05-26T17:09:52Z</time>
      </trkpt>
      <trkpt lat="45.17616" lon="5.26278">
        <ele>369.7</ele>
        <time>2020-05-26T17:09:53Z</time>
      </trkpt>
      <trkpt lat="45.17613" lon="5.2628">
        <ele>369.6</ele>
        <time>2020-05-26T17:09:54Z</time>
      </trkpt>
      <trkpt lat="45.1761" lon="5.26283">
        <ele>369.5</ele>
        <time>2020-05-26T17:09:55Z</time>
      </trkpt>
      <trkpt lat="45.17607" lon="5.26286">
        <ele>369.5</ele>
        <time>2020-05-26T17:09:56Z</time>
      </trkpt>
      <trkpt lat="45.17605" lon="5.26288">
        <ele>369.4</ele>
        <time>2020-05-26T17:09:57Z</time>
      </trkpt>
      <trkpt lat="45.17602" lon="5.26291">
        <ele>369.3</ele>
        <time>2020-05-26T17:09:58Z</time>
      </trkpt>
      <trkpt lat="45.17599" lon="5.26294">
        <ele>369.2</ele>
        <time>2020-05-26T17:09:59Z</time>
      </trkpt>
      <trkpt lat="45.17597" lon="5.26297">
        <ele>369.1</ele>
        <time>2020-05-26T17:10:00Z</time>
      </trkpt>
      <trkpt lat="45.17594" lon="5.26299">
        <ele>369.1</ele>
        <time>2020-05-26T17:10:01Z</time>
      </trkpt>
      <trkpt lat="45.17591" lon="5.26302">
        <ele>369</ele>
        <time>2020-05-26T17:10:02Z</time>
      </trkpt>
      <trkpt lat="45.17589" lon="5.26305">
        <ele>368.9</ele>
        <time>2020-05-26T17:10:03Z</time>
      </trkpt>
      <trkpt lat="45.17586" lon="5.26308">
        <ele>368.8</ele>
        <time>2020-05-26T17:10:04Z</time>
      </trkpt>
      <trkpt lat="45.17584" lon="5.2631">
        <ele>368.8</ele>
        <time>2020-05-26T17:10:05Z</time>
      </trkpt>
      <trkpt lat="45.17581" lon="5.26313">
        <ele>368.7</ele>
        <time>2020-05-26T17:10:06Z</time>
      </trkpt>
      <trkpt lat="45.17578" lon="5.26316">
        <ele>368.6</ele>
        <time>2020-05-26T17:10:07Z</time>
      </trkpt>
      <trkpt lat="45.17576" lon="5.26319">
        <ele>368.5</ele>
        <time>2020-05-26T17:10:08Z</time>
      </trkpt>
      <trkpt lat="45.17573" lon="5.26322">
        <ele>368.5</ele>
        <time>2020-05-26T17:10:09Z</time>
      </trkpt>
      <trkpt lat="45.1757" lon="5.26325">
        <ele>368.4</ele>
        <time>2020-05-26T17:10:10Z</time>
      </trkpt>
      <trkpt lat="45.17568" lon="5.26328">
        <ele>368.4</ele>
        <time>2020-05-26T17:10:11Z</time>
      </trkpt>
      <trkpt lat="45.17565" lon="5.26331">
        <ele>368.3</ele>
        <time>2020-05-26T17:10:12Z</time>
      </trkpt>
      <trkpt lat="45.17562" lon="5.26334">
        <ele>368.3</ele>
        <time>2020-05-26T17:10:13Z</time>
      </trkpt>
      <trkpt lat="45.1756" lon="5.26337">
        <ele>368.3</ele>
        <time>2020-05-26T17:10:14Z</time>
      </trkpt>
      <trkpt lat="45.17557" lon="5.26339">
        <ele>368.1</ele>
        <time>2020-05-26T17:10:15Z</time>
      </trkpt>
      <trkpt lat="45.17555" lon="5.26342">
        <ele>368</ele>
        <time>2020-05-26T17:10:16Z</time>
      </trkpt>
      <trkpt lat="45.17552" lon="5.26345">
        <ele>367.9</ele>
        <time>2020-05-26T17:10:17Z</time>
      </trkpt>
      <trkpt lat="45.1755" lon="5.26347">
        <ele>367.8</ele>
        <time>2020-05-26T17:10:18Z</time>
      </trkpt>
      <trkpt lat="45.17547" lon="5.2635">
        <ele>367.6</ele>
        <time>2020-05-26T17:10:19Z</time>
      </trkpt>
      <trkpt lat="45.17545" lon="5.26353">
        <ele>367.5</ele>
        <time>2020-05-26T17:10:20Z</time>
      </trkpt>
      <trkpt lat="45.17542" lon="5.26356">
        <ele>367.4</ele>
        <time>2020-05-26T17:10:21Z</time>
      </trkpt>
      <trkpt lat="45.17539" lon="5.2636">
        <ele>367.3</ele>
        <time>2020-05-26T17:10:22Z</time>
      </trkpt>
      <trkpt lat="45.17536" lon="5.26362">
        <ele>367.2</ele>
        <time>2020-05-26T17:10:23Z</time>
      </trkpt>
      <trkpt lat="45.17533" lon="5.26365">
        <ele>367.1</ele>
        <time>2020-05-26T17:10:24Z</time>
      </trkpt>
      <trkpt lat="45.1753" lon="5.26368">
        <ele>367</ele>
        <time>2020-05-26T17:10:25Z</time>
      </trkpt>
      <trkpt lat="45.17528" lon="5.2637">
        <ele>366.9</ele>
        <time>2020-05-26T17:10:26Z</time>
      </trkpt>
      <trkpt lat="45.17525" lon="5.26373">
        <ele>366.8</ele>
        <time>2020-05-26T17:10:27Z</time>
      </trkpt>
      <trkpt lat="45.17522" lon="5.26376">
        <ele>366.7</ele>
        <time>2020-05-26T17:10:28Z</time>
      </trkpt>
      <trkpt lat="45.17518" lon="5.26379">
        <ele>366.6</ele>
        <time>2020-05-26T17:10:29Z</time>
      </trkpt>
      <trkpt lat="45.17517" lon="5.26381">
        <ele>366.5</ele>
        <time>2020-05-26T17:10:30Z</time>
      </trkpt>
      <trkpt lat="45.17514" lon="5.26384">
        <ele>366.4</ele>
        <time>2020-05-26T17:10:31Z</time>
      </trkpt>
      <trkpt lat="45.17512" lon="5.26386">
        <ele>366.3</ele>
        <time>2020-05-26T17:10:32Z</time>
      </trkpt>
      <trkpt lat="45.1751" lon="5.26389">
        <ele>366.2</ele>
        <time>2020-05-26T17:10:33Z</time>
      </trkpt>
      <trkpt lat="45.17507" lon="5.26393">
        <ele>366.1</ele>
        <time>2020-05-26T17:10:34Z</time>
      </trkpt>
      <trkpt lat="45.17505" lon="5.26397">
        <ele>366</ele>
        <time>2020-05-26T17:10:35Z</time>
      </trkpt>
      <trkpt lat="45.17502" lon="5.26403">
        <ele>365.9</ele>
        <time>2020-05-26T17:10:36Z</time>
      </trkpt>
      <trkpt lat="45.175" lon="5.26407">
        <ele>365.8</ele>
        <time>2020-05-26T17:10:37Z</time>
      </trkpt>
      <trkpt lat="45.17497" lon="5.26411">
        <ele>365.7</ele>
        <time>2020-05-26T17:10:38Z</time>
      </trkpt>
      <trkpt lat="45.17495" lon="5.26415">
        <ele>365.6</ele>
        <time>2020-05-26T17:10:39Z</time>
      </trkpt>
      <trkpt lat="45.17494" lon="5.26418">
        <ele>365.5</ele>
        <time>2020-05-26T17:10:40Z</time>
      </trkpt>
      <trkpt lat="45.17492" lon="5.26423">
        <ele>365.4</ele>
        <time>2020-05-26T17:10:41Z</time>
      </trkpt>
      <trkpt lat="45.17491" lon="5.26427">
        <ele>365.3</ele>
        <time>2020-05-26T17:10:42Z</time>
      </trkpt>
      <trkpt lat="45.17489" lon="5.26431">
        <ele>365.2</ele>
        <time>2020-05-26T17:10:43Z</time>
      </trkpt>
      <trkpt lat="45.17488" lon="5.26436">
        <ele>365.1</ele>
        <time>2020-05-26T17:10:44Z</time>
      </trkpt>
      <trkpt lat="45.17486" lon="5.2644">
        <ele>365</ele>
        <time>2020-05-26T17:10:45Z</time>
      </trkpt>
      <trkpt lat="45.17485" lon="5.26444">
        <ele>364.9</ele>
        <time>2020-05-26T17:10:46Z</time>
      </trkpt>
      <trkpt lat="45.17483" lon="5.26449">
        <ele>364.8</ele>
        <time>2020-05-26T17:10:47Z</time>
      </trkpt>
      <trkpt lat="45.17482" lon="5.26453">
        <ele>364.7</ele>
        <time>2020-05-26T17:10:48Z</time>
      </trkpt>
      <trkpt lat="45.17481" lon="5.26458">
        <ele>364.6</ele>
        <time>2020-05-26T17:10:49Z</time>
      </trkpt>
      <trkpt lat="45.17481" lon="5.26462">
        <ele>364.5</ele>
        <time>2020-05-26T17:10:50Z</time>
      </trkpt>
      <trkpt lat="45.1748" lon="5.26467">
        <ele>364.4</ele>
        <time>2020-05-26T17:10:51Z</time>
      </trkpt>
      <trkpt lat="45.17479" lon="5.26471">
        <ele>364.3</ele>
        <time>2020-05-26T17:10:52Z</time>
      </trkpt>
      <trkpt lat="45.17477" lon="5.26475">
        <ele>364.2</ele>
        <time>2020-05-26T17:10:53Z</time>
      </trkpt>
      <trkpt lat="45.17476" lon="5.26479">
        <ele>364.1</ele>
        <time>2020-05-26T17:10:54Z</time>
      </trkpt>
      <trkpt lat="45.17474" lon="5.26483">
        <ele>364</ele>
        <time>2020-05-26T17:10:55Z</time>
      </trkpt>
      <trkpt lat="45.17473" lon="5.26488">
        <ele>363.8</ele>
        <time>2020-05-26T17:10:56Z</time>
      </trkpt>
      <trkpt lat="45.17473" lon="5.26492">
        <ele>363.7</ele>
        <time>2020-05-26T17:10:57Z</time>
      </trkpt>
      <trkpt lat="45.17472" lon="5.26496">
        <ele>363.6</ele>
        <time>2020-05-26T17:10:58Z</time>
      </trkpt>
      <trkpt lat="45.17471" lon="5.265">
        <ele>363.5</ele>
        <time>2020-05-26T17:10:59Z</time>
      </trkpt>
      <trkpt lat="45.1747" lon="5.26505">
        <ele>363.4</ele>
        <time>2020-05-26T17:11:00Z</time>
      </trkpt>
      <trkpt lat="45.17469" lon="5.26509">
        <ele>363.3</ele>
        <time>2020-05-26T17:11:01Z</time>
      </trkpt>
      <trkpt lat="45.17468" lon="5.26514">
        <ele>363.1</ele>
        <time>2020-05-26T17:11:02Z</time>
      </trkpt>
      <trkpt lat="45.17468" lon="5.26519">
        <ele>363</ele>
        <time>2020-05-26T17:11:03Z</time>
      </trkpt>
      <trkpt lat="45.17467" lon="5.26523">
        <ele>362.9</ele>
        <time>2020-05-26T17:11:04Z</time>
      </trkpt>
      <trkpt lat="45.17466" lon="5.26528">
        <ele>362.8</ele>
        <time>2020-05-26T17:11:05Z</time>
      </trkpt>
      <trkpt lat="45.17465" lon="5.26532">
        <ele>362.7</ele>
        <time>2020-05-26T17:11:06Z</time>
      </trkpt>
      <trkpt lat="45.17464" lon="5.26537">
        <ele>362.5</ele>
        <time>2020-05-26T17:11:07Z</time>
      </trkpt>
      <trkpt lat="45.17462" lon="5.26542">
        <ele>362.4</ele>
        <time>2020-05-26T17:11:08Z</time>
      </trkpt>
      <trkpt lat="45.17461" lon="5.26546">
        <ele>362.3</ele>
        <time>2020-05-26T17:11:09Z</time>
      </trkpt>
      <trkpt lat="45.17459" lon="5.26551">
        <ele>362.2</ele>
        <time>2020-05-26T17:11:10Z</time>
      </trkpt>
      <trkpt lat="45.17458" lon="5.26555">
        <ele>362.1</ele>
        <time>2020-05-26T17:11:11Z</time>
      </trkpt>
      <trkpt lat="45.17456" lon="5.2656">
        <ele>361.9</ele>
        <time>2020-05-26T17:11:12Z</time>
      </trkpt>
      <trkpt lat="45.17455" lon="5.26564">
        <ele>361.8</ele>
        <time>2020-05-26T17:11:13Z</time>
      </trkpt>
      <trkpt lat="45.17453" lon="5.26568">
        <ele>361.7</ele>
        <time>2020-05-26T17:11:14Z</time>
      </trkpt>
      <trkpt lat="45.17452" lon="5.26572">
        <ele>361.5</ele>
        <time>2020-05-26T17:11:15Z</time>
      </trkpt>
      <trkpt lat="45.1745" lon="5.26576">
        <ele>361.4</ele>
        <time>2020-05-26T17:11:16Z</time>
      </trkpt>
      <trkpt lat="45.17448" lon="5.2658">
        <ele>361.3</ele>
        <time>2020-05-26T17:11:17Z</time>
      </trkpt>
      <trkpt lat="45.17446" lon="5.26584">
        <ele>361.1</ele>
        <time>2020-05-26T17:11:18Z</time>
      </trkpt>
      <trkpt lat="45.17445" lon="5.26588">
        <ele>361</ele>
        <time>2020-05-26T17:11:19Z</time>
      </trkpt>
      <trkpt lat="45.17444" lon="5.26592">
        <ele>360.8</ele>
        <time>2020-05-26T17:11:20Z</time>
      </trkpt>
      <trkpt lat="45.17442" lon="5.26597">
        <ele>360.7</ele>
        <time>2020-05-26T17:11:21Z</time>
      </trkpt>
      <trkpt lat="45.17442" lon="5.26602">
        <ele>360.5</ele>
        <time>2020-05-26T17:11:22Z</time>
      </trkpt>
      <trkpt lat="45.1744" lon="5.26606">
        <ele>360.4</ele>
        <time>2020-05-26T17:11:23Z</time>
      </trkpt>
      <trkpt lat="45.17439" lon="5.26611">
        <ele>360.2</ele>
        <time>2020-05-26T17:11:24Z</time>
      </trkpt>
      <trkpt lat="45.17437" lon="5.26615">
        <ele>360.1</ele>
        <time>2020-05-26T17:11:25Z</time>
      </trkpt>
      <trkpt lat="45.17435" lon="5.26618">
        <ele>359.9</ele>
        <time>2020-05-26T17:11:26Z</time>
      </trkpt>
      <trkpt lat="45.17433" lon="5.26622">
        <ele>359.8</ele>
        <time>2020-05-26T17:11:27Z</time>
      </trkpt>
      <trkpt lat="45.17431" lon="5.26625">
        <ele>359.7</ele>
        <time>2020-05-26T17:11:28Z</time>
      </trkpt>
      <trkpt lat="45.17429" lon="5.26628">
        <ele>359.5</ele>
        <time>2020-05-26T17:11:29Z</time>
      </trkpt>
      <trkpt lat="45.17426" lon="5.26632">
        <ele>359.4</ele>
        <time>2020-05-26T17:11:30Z</time>
      </trkpt>
      <trkpt lat="45.17424" lon="5.26635">
        <ele>359.2</ele>
        <time>2020-05-26T17:11:31Z</time>
      </trkpt>
      <trkpt lat="45.17422" lon="5.26639">
        <ele>359.1</ele>
        <time>2020-05-26T17:11:32Z</time>
      </trkpt>
      <trkpt lat="45.17419" lon="5.26643">
        <ele>359</ele>
        <time>2020-05-26T17:11:33Z</time>
      </trkpt>
      <trkpt lat="45.17417" lon="5.26646">
        <ele>358.8</ele>
        <time>2020-05-26T17:11:34Z</time>
      </trkpt>
      <trkpt lat="45.17415" lon="5.2665">
        <ele>358.7</ele>
        <time>2020-05-26T17:11:35Z</time>
      </trkpt>
      <trkpt lat="45.17412" lon="5.26654">
        <ele>358.6</ele>
        <time>2020-05-26T17:11:36Z</time>
      </trkpt>
      <trkpt lat="45.1741" lon="5.26657">
        <ele>358.5</ele>
        <time>2020-05-26T17:11:37Z</time>
      </trkpt>
      <trkpt lat="45.17408" lon="5.26661">
        <ele>358.4</ele>
        <time>2020-05-26T17:11:38Z</time>
      </trkpt>
      <trkpt lat="45.17405" lon="5.26664">
        <ele>358.2</ele>
        <time>2020-05-26T17:11:39Z</time>
      </trkpt>
      <trkpt lat="45.17403" lon="5.26668">
        <ele>358.1</ele>
        <time>2020-05-26T17:11:40Z</time>
      </trkpt>
      <trkpt lat="45.17401" lon="5.26671">
        <ele>358</ele>
        <time>2020-05-26T17:11:41Z</time>
      </trkpt>
      <trkpt lat="45.17398" lon="5.26675">
        <ele>357.9</ele>
        <time>2020-05-26T17:11:42Z</time>
      </trkpt>
      <trkpt lat="45.17396" lon="5.26679">
        <ele>357.8</ele>
        <time>2020-05-26T17:11:43Z</time>
      </trkpt>
      <trkpt lat="45.17394" lon="5.26682">
        <ele>357.7</ele>
        <time>2020-05-26T17:11:44Z</time>
      </trkpt>
      <trkpt lat="45.17392" lon="5.26685">
        <ele>357.6</ele>
        <time>2020-05-26T17:11:45Z</time>
      </trkpt>
      <trkpt lat="45.17389" lon="5.26689">
        <ele>357.5</ele>
        <time>2020-05-26T17:11:46Z</time>
      </trkpt>
      <trkpt lat="45.17387" lon="5.26692">
        <ele>357.4</ele>
        <time>2020-05-26T17:11:47Z</time>
      </trkpt>
      <trkpt lat="45.17385" lon="5.26696">
        <ele>357.4</ele>
        <time>2020-05-26T17:11:48Z</time>
      </trkpt>
      <trkpt lat="45.17383" lon="5.267">
        <ele>357.3</ele>
        <time>2020-05-26T17:11:49Z</time>
      </trkpt>
      <trkpt lat="45.17381" lon="5.26703">
        <ele>357.3</ele>
        <time>2020-05-26T17:11:50Z</time>
      </trkpt>
      <trkpt lat="45.1738" lon="5.26707">
        <ele>357.2</ele>
        <time>2020-05-26T17:11:51Z</time>
      </trkpt>
      <trkpt lat="45.17377" lon="5.2671">
        <ele>357.2</ele>
        <time>2020-05-26T17:11:52Z</time>
      </trkpt>
      <trkpt lat="45.17375" lon="5.26714">
        <ele>357.2</ele>
        <time>2020-05-26T17:11:53Z</time>
      </trkpt>
      <trkpt lat="45.17373" lon="5.26717">
        <ele>357</ele>
        <time>2020-05-26T17:11:54Z</time>
      </trkpt>
      <trkpt lat="45.17371" lon="5.26721">
        <ele>356.9</ele>
        <time>2020-05-26T17:11:55Z</time>
      </trkpt>
      <trkpt lat="45.17368" lon="5.26724">
        <ele>356.8</ele>
        <time>2020-05-26T17:11:56Z</time>
      </trkpt>
      <trkpt lat="45.17366" lon="5.26728">
        <ele>356.7</ele>
        <time>2020-05-26T17:11:57Z</time>
      </trkpt>
      <trkpt lat="45.17363" lon="5.26731">
        <ele>356.6</ele>
        <time>2020-05-26T17:11:58Z</time>
      </trkpt>
      <trkpt lat="45.17361" lon="5.26733">
        <ele>356.5</ele>
        <time>2020-05-26T17:11:59Z</time>
      </trkpt>
      <trkpt lat="45.17358" lon="5.26736">
        <ele>356.4</ele>
        <time>2020-05-26T17:12:00Z</time>
      </trkpt>
      <trkpt lat="45.17355" lon="5.26739">
        <ele>356.3</ele>
        <time>2020-05-26T17:12:01Z</time>
      </trkpt>
      <trkpt lat="45.17353" lon="5.26742">
        <ele>356.2</ele>
        <time>2020-05-26T17:12:02Z</time>
      </trkpt>
      <trkpt lat="45.17351" lon="5.26745">
        <ele>356.1</ele>
        <time>2020-05-26T17:12:03Z</time>
      </trkpt>
      <trkpt lat="45.17349" lon="5.26749">
        <ele>356</ele>
        <time>2020-05-26T17:12:04Z</time>
      </trkpt>
      <trkpt lat="45.1735" lon="5.26755">
        <ele>356.7</ele>
        <time>2020-05-26T17:12:05Z</time>
      </trkpt>
      <trkpt lat="45.17351" lon="5.26756">
        <ele>356.9</ele>
        <time>2020-05-26T17:12:06Z</time>
      </trkpt>
      <trkpt lat="45.17353" lon="5.2676">
        <ele>357.3</ele>
        <time>2020-05-26T17:12:07Z</time>
      </trkpt>
      <trkpt lat="45.17355" lon="5.26764">
        <ele>357.8</ele>
        <time>2020-05-26T17:12:08Z</time>
      </trkpt>
      <trkpt lat="45.17356" lon="5.26766">
        <ele>358</ele>
        <time>2020-05-26T17:12:09Z</time>
      </trkpt>
      <trkpt lat="45.17357" lon="5.26771">
        <ele>358.6</ele>
        <time>2020-05-26T17:12:10Z</time>
      </trkpt>
      <trkpt lat="45.17358" lon="5.26772">
        <ele>358.8</ele>
        <time>2020-05-26T17:12:11Z</time>
      </trkpt>
      <trkpt lat="45.17359" lon="5.26777">
        <ele>359.4</ele>
        <time>2020-05-26T17:12:12Z</time>
      </trkpt>
      <trkpt lat="45.1736" lon="5.26778">
        <ele>359.6</ele>
        <time>2020-05-26T17:12:13Z</time>
      </trkpt>
      <trkpt lat="45.17361" lon="5.26782">
        <ele>360.1</ele>
        <time>2020-05-26T17:12:14Z</time>
      </trkpt>
      <trkpt lat="45.17361" lon="5.26784">
        <ele>360.4</ele>
        <time>2020-05-26T17:12:15Z</time>
      </trkpt>
      <trkpt lat="45.17363" lon="5.26787">
        <ele>360.8</ele>
        <time>2020-05-26T17:12:16Z</time>
      </trkpt>
      <trkpt lat="45.17364" lon="5.26789">
        <ele>361.1</ele>
        <time>2020-05-26T17:12:17Z</time>
      </trkpt>
      <trkpt lat="45.17365" lon="5.26791">
        <ele>361.4</ele>
        <time>2020-05-26T17:12:18Z</time>
      </trkpt>
      <trkpt lat="45.17368" lon="5.26794">
        <ele>361.9</ele>
        <time>2020-05-26T17:12:19Z</time>
      </trkpt>
      <trkpt lat="45.17368" lon="5.26794">
        <ele>362</ele>
        <time>2020-05-26T17:12:20Z</time>
      </trkpt>
      <trkpt lat="45.17371" lon="5.26796">
        <ele>362.4</ele>
        <time>2020-05-26T17:12:21Z</time>
      </trkpt>
      <trkpt lat="45.17371" lon="5.26797">
        <ele>362.6</ele>
        <time>2020-05-26T17:12:22Z</time>
      </trkpt>
      <trkpt lat="45.17372" lon="5.26799">
        <ele>362.8</ele>
        <time>2020-05-26T17:12:23Z</time>
      </trkpt>
      <trkpt lat="45.17373" lon="5.26801">
        <ele>363.1</ele>
        <time>2020-05-26T17:12:24Z</time>
      </trkpt>
      <trkpt lat="45.17375" lon="5.26805">
        <ele>363.6</ele>
        <time>2020-05-26T17:12:25Z</time>
      </trkpt>
      <trkpt lat="45.17375" lon="5.26806">
        <ele>363.8</ele>
        <time>2020-05-26T17:12:26Z</time>
      </trkpt>
      <trkpt lat="45.17377" lon="5.2681">
        <ele>364.3</ele>
        <time>2020-05-26T17:12:27Z</time>
      </trkpt>
      <trkpt lat="45.17378" lon="5.26811">
        <ele>364.5</ele>
        <time>2020-05-26T17:12:28Z</time>
      </trkpt>
      <trkpt lat="45.17379" lon="5.26813">
        <ele>364.8</ele>
        <time>2020-05-26T17:12:29Z</time>
      </trkpt>
      <trkpt lat="45.1738" lon="5.26814">
        <ele>365.1</ele>
        <time>2020-05-26T17:12:30Z</time>
      </trkpt>
      <trkpt lat="45.17381" lon="5.26816">
        <ele>365.3</ele>
        <time>2020-05-26T17:12:31Z</time>
      </trkpt>
      <trkpt lat="45.17382" lon="5.26817">
        <ele>365.6</ele>
        <time>2020-05-26T17:12:32Z</time>
      </trkpt>
      <trkpt lat="45.17384" lon="5.2682">
        <ele>366.2</ele>
        <time>2020-05-26T17:12:33Z</time>
      </trkpt>
      <trkpt lat="45.17385" lon="5.2682">
        <ele>366.3</ele>
        <time>2020-05-26T17:12:34Z</time>
      </trkpt>
      <trkpt lat="45.17387" lon="5.26823">
        <ele>366.9</ele>
        <time>2020-05-26T17:12:35Z</time>
      </trkpt>
      <trkpt lat="45.17388" lon="5.26824">
        <ele>367.2</ele>
        <time>2020-05-26T17:12:36Z</time>
      </trkpt>
      <trkpt lat="45.1739" lon="5.26826">
        <ele>367.6</ele>
        <time>2020-05-26T17:12:37Z</time>
      </trkpt>
      <trkpt lat="45.1739" lon="5.26828">
        <ele>367.8</ele>
        <time>2020-05-26T17:12:38Z</time>
      </trkpt>
      <trkpt lat="45.17391" lon="5.26829">
        <ele>368.1</ele>
        <time>2020-05-26T17:12:39Z</time>
      </trkpt>
      <trkpt lat="45.17392" lon="5.26831">
        <ele>368.5</ele>
        <time>2020-05-26T17:12:40Z</time>
      </trkpt>
      <trkpt lat="45.17393" lon="5.26834">
        <ele>368.9</ele>
        <time>2020-05-26T17:12:41Z</time>
      </trkpt>
      <trkpt lat="45.17394" lon="5.26835">
        <ele>369.3</ele>
        <time>2020-05-26T17:12:42Z</time>
      </trkpt>
      <trkpt lat="45.17395" lon="5.26837">
        <ele>369.7</ele>
        <time>2020-05-26T17:12:43Z</time>
      </trkpt>
      <trkpt lat="45.17396" lon="5.26839">
        <ele>370.1</ele>
        <time>2020-05-26T17:12:44Z</time>
      </trkpt>
      <trkpt lat="45.17397" lon="5.2684">
        <ele>370.3</ele>
        <time>2020-05-26T17:12:45Z</time>
      </trkpt>
      <trkpt lat="45.17397" lon="5.26841">
        <ele>370.5</ele>
        <time>2020-05-26T17:12:46Z</time>
      </trkpt>
      <trkpt lat="45.17397" lon="5.26843">
        <ele>370.8</ele>
        <time>2020-05-26T17:12:47Z</time>
      </trkpt>
      <trkpt lat="45.17398" lon="5.26845">
        <ele>371.3</ele>
        <time>2020-05-26T17:12:48Z</time>
      </trkpt>
      <trkpt lat="45.17398" lon="5.26847">
        <ele>371.5</ele>
        <time>2020-05-26T17:12:49Z</time>
      </trkpt>
      <trkpt lat="45.17398" lon="5.26848">
        <ele>371.7</ele>
        <time>2020-05-26T17:12:50Z</time>
      </trkpt>
      <trkpt lat="45.17398" lon="5.2685">
        <ele>372.2</ele>
        <time>2020-05-26T17:12:51Z</time>
      </trkpt>
      <trkpt lat="45.17398" lon="5.26851">
        <ele>372.4</ele>
        <time>2020-05-26T17:12:52Z</time>
      </trkpt>
      <trkpt lat="45.17399" lon="5.26851">
        <ele>372.5</ele>
        <time>2020-05-26T17:12:53Z</time>
      </trkpt>
      <trkpt lat="45.17399" lon="5.26853">
        <ele>372.7</ele>
        <time>2020-05-26T17:12:54Z</time>
      </trkpt>
      <trkpt lat="45.17398" lon="5.26855">
        <ele>373.2</ele>
        <time>2020-05-26T17:12:55Z</time>
      </trkpt>
      <trkpt lat="45.17398" lon="5.26857">
        <ele>373.6</ele>
        <time>2020-05-26T17:12:56Z</time>
      </trkpt>
      <trkpt lat="45.17397" lon="5.26857">
        <ele>373.8</ele>
        <time>2020-05-26T17:12:57Z</time>
      </trkpt>
      <trkpt lat="45.17395" lon="5.26858">
        <ele>374.4</ele>
        <time>2020-05-26T17:12:58Z</time>
      </trkpt>
      <trkpt lat="45.17393" lon="5.26858">
        <ele>375</ele>
        <time>2020-05-26T17:12:59Z</time>
      </trkpt>
      <trkpt lat="45.17392" lon="5.26858">
        <ele>375.4</ele>
        <time>2020-05-26T17:13:00Z</time>
      </trkpt>
      <trkpt lat="45.17391" lon="5.26859">
        <ele>375.7</ele>
        <time>2020-05-26T17:13:01Z</time>
      </trkpt>
      <trkpt lat="45.1739" lon="5.26859">
        <ele>376.2</ele>
        <time>2020-05-26T17:13:02Z</time>
      </trkpt>
      <trkpt lat="45.17388" lon="5.26859">
        <ele>376.5</ele>
        <time>2020-05-26T17:13:03Z</time>
      </trkpt>
      <trkpt lat="45.17388" lon="5.26859">
        <ele>376.8</ele>
        <time>2020-05-26T17:13:04Z</time>
      </trkpt>
      <trkpt lat="45.17386" lon="5.26859">
        <ele>377.2</ele>
        <time>2020-05-26T17:13:05Z</time>
      </trkpt>
      <trkpt lat="45.17385" lon="5.2686">
        <ele>377.6</ele>
        <time>2020-05-26T17:13:06Z</time>
      </trkpt>
      <trkpt lat="45.17384" lon="5.2686">
        <ele>377.9</ele>
        <time>2020-05-26T17:13:07Z</time>
      </trkpt>
      <trkpt lat="45.17383" lon="5.2686">
        <ele>378.3</ele>
        <time>2020-05-26T17:13:08Z</time>
      </trkpt>
      <trkpt lat="45.17381" lon="5.26861">
        <ele>378.7</ele>
        <time>2020-05-26T17:13:09Z</time>
      </trkpt>
      <trkpt lat="45.1738" lon="5.26862">
        <ele>379.1</ele>
        <time>2020-05-26T17:13:10Z</time>
      </trkpt>
      <trkpt lat="45.1738" lon="5.26863">
        <ele>379.4</ele>
        <time>2020-05-26T17:13:11Z</time>
      </trkpt>
      <trkpt lat="45.17379" lon="5.26865">
        <ele>379.8</ele>
        <time>2020-05-26T17:13:12Z</time>
      </trkpt>
      <trkpt lat="45.17379" lon="5.26867">
        <ele>380.3</ele>
        <time>2020-05-26T17:13:13Z</time>
      </trkpt>
      <trkpt lat="45.17378" lon="5.26869">
        <ele>380.7</ele>
        <time>2020-05-26T17:13:14Z</time>
      </trkpt>
      <trkpt lat="45.17377" lon="5.26871">
        <ele>381.2</ele>
        <time>2020-05-26T17:13:15Z</time>
      </trkpt>
      <trkpt lat="45.17376" lon="5.26872">
        <ele>381.5</ele>
        <time>2020-05-26T17:13:16Z</time>
      </trkpt>
      <trkpt lat="45.17375" lon="5.26873">
        <ele>382</ele>
        <time>2020-05-26T17:13:17Z</time>
      </trkpt>
      <trkpt lat="45.17374" lon="5.26875">
        <ele>382.3</ele>
        <time>2020-05-26T17:13:18Z</time>
      </trkpt>
      <trkpt lat="45.17373" lon="5.26876">
        <ele>382.5</ele>
        <time>2020-05-26T17:13:19Z</time>
      </trkpt>
      <trkpt lat="45.17372" lon="5.26878">
        <ele>383.2</ele>
        <time>2020-05-26T17:13:20Z</time>
      </trkpt>
      <trkpt lat="45.17371" lon="5.26879">
        <ele>383.5</ele>
        <time>2020-05-26T17:13:21Z</time>
      </trkpt>
      <trkpt lat="45.1737" lon="5.2688">
        <ele>383.7</ele>
        <time>2020-05-26T17:13:22Z</time>
      </trkpt>
      <trkpt lat="45.17369" lon="5.26881">
        <ele>384.1</ele>
        <time>2020-05-26T17:13:23Z</time>
      </trkpt>
      <trkpt lat="45.17368" lon="5.26882">
        <ele>384.3</ele>
        <time>2020-05-26T17:13:24Z</time>
      </trkpt>
      <trkpt lat="45.17367" lon="5.26883">
        <ele>384.6</ele>
        <time>2020-05-26T17:13:25Z</time>
      </trkpt>
      <trkpt lat="45.17366" lon="5.26884">
        <ele>384.9</ele>
        <time>2020-05-26T17:13:26Z</time>
      </trkpt>
      <trkpt lat="45.17365" lon="5.26885">
        <ele>385.1</ele>
        <time>2020-05-26T17:13:27Z</time>
      </trkpt>
      <trkpt lat="45.17364" lon="5.26885">
        <ele>385.5</ele>
        <time>2020-05-26T17:13:28Z</time>
      </trkpt>
      <trkpt lat="45.17363" lon="5.26886">
        <ele>385.9</ele>
        <time>2020-05-26T17:13:29Z</time>
      </trkpt>
      <trkpt lat="45.17361" lon="5.26887">
        <ele>386.2</ele>
        <time>2020-05-26T17:13:30Z</time>
      </trkpt>
      <trkpt lat="45.1736" lon="5.26888">
        <ele>386.5</ele>
        <time>2020-05-26T17:13:31Z</time>
      </trkpt>
      <trkpt lat="45.17359" lon="5.2689">
        <ele>386.9</ele>
        <time>2020-05-26T17:13:32Z</time>
      </trkpt>
      <trkpt lat="45.17357" lon="5.26891">
        <ele>387.3</ele>
        <time>2020-05-26T17:13:33Z</time>
      </trkpt>
      <trkpt lat="45.17355" lon="5.26891">
        <ele>387.7</ele>
        <time>2020-05-26T17:13:34Z</time>
      </trkpt>
      <trkpt lat="45.17354" lon="5.26892">
        <ele>388</ele>
        <time>2020-05-26T17:13:35Z</time>
      </trkpt>
      <trkpt lat="45.17352" lon="5.26893">
        <ele>388.3</ele>
        <time>2020-05-26T17:13:36Z</time>
      </trkpt>
      <trkpt lat="45.1735" lon="5.26895">
        <ele>388.7</ele>
        <time>2020-05-26T17:13:37Z</time>
      </trkpt>
      <trkpt lat="45.17349" lon="5.26895">
        <ele>388.9</ele>
        <time>2020-05-26T17:13:38Z</time>
      </trkpt>
      <trkpt lat="45.17348" lon="5.26896">
        <ele>389.1</ele>
        <time>2020-05-26T17:13:39Z</time>
      </trkpt>
      <trkpt lat="45.17347" lon="5.26899">
        <ele>389.5</ele>
        <time>2020-05-26T17:13:40Z</time>
      </trkpt>
      <trkpt lat="45.17347" lon="5.269">
        <ele>389.7</ele>
        <time>2020-05-26T17:13:41Z</time>
      </trkpt>
      <trkpt lat="45.17347" lon="5.26902">
        <ele>389.9</ele>
        <time>2020-05-26T17:13:42Z</time>
      </trkpt>
      <trkpt lat="45.17346" lon="5.26904">
        <ele>390.2</ele>
        <time>2020-05-26T17:13:43Z</time>
      </trkpt>
      <trkpt lat="45.17346" lon="5.26906">
        <ele>390.5</ele>
        <time>2020-05-26T17:13:44Z</time>
      </trkpt>
      <trkpt lat="45.17345" lon="5.26908">
        <ele>390.8</ele>
        <time>2020-05-26T17:13:45Z</time>
      </trkpt>
      <trkpt lat="45.17345" lon="5.2691">
        <ele>391</ele>
        <time>2020-05-26T17:13:46Z</time>
      </trkpt>
      <trkpt lat="45.17344" lon="5.26912">
        <ele>391.3</ele>
        <time>2020-05-26T17:13:47Z</time>
      </trkpt>
      <trkpt lat="45.17344" lon="5.26914">
        <ele>391.6</ele>
        <time>2020-05-26T17:13:48Z</time>
      </trkpt>
      <trkpt lat="45.17343" lon="5.26917">
        <ele>392.1</ele>
        <time>2020-05-26T17:13:49Z</time>
      </trkpt>
      <trkpt lat="45.17343" lon="5.26918">
        <ele>392.3</ele>
        <time>2020-05-26T17:13:50Z</time>
      </trkpt>
      <trkpt lat="45.17342" lon="5.2692">
        <ele>392.5</ele>
        <time>2020-05-26T17:13:51Z</time>
      </trkpt>
      <trkpt lat="45.17341" lon="5.26922">
        <ele>392.9</ele>
        <time>2020-05-26T17:13:52Z</time>
      </trkpt>
      <trkpt lat="45.1734" lon="5.26923">
        <ele>393.2</ele>
        <time>2020-05-26T17:13:53Z</time>
      </trkpt>
      <trkpt lat="45.1734" lon="5.26925">
        <ele>393.6</ele>
        <time>2020-05-26T17:13:54Z</time>
      </trkpt>
      <trkpt lat="45.17339" lon="5.26927">
        <ele>393.9</ele>
        <time>2020-05-26T17:13:55Z</time>
      </trkpt>
      <trkpt lat="45.17337" lon="5.26931">
        <ele>394.7</ele>
        <time>2020-05-26T17:13:56Z</time>
      </trkpt>
      <trkpt lat="45.17337" lon="5.26932">
        <ele>394.9</ele>
        <time>2020-05-26T17:13:57Z</time>
      </trkpt>
      <trkpt lat="45.17335" lon="5.26936">
        <ele>395.6</ele>
        <time>2020-05-26T17:13:58Z</time>
      </trkpt>
      <trkpt lat="45.17335" lon="5.26937">
        <ele>395.8</ele>
        <time>2020-05-26T17:13:59Z</time>
      </trkpt>
      <trkpt lat="45.17334" lon="5.26939">
        <ele>396.1</ele>
        <time>2020-05-26T17:14:00Z</time>
      </trkpt>
      <trkpt lat="45.17333" lon="5.2694">
        <ele>396.4</ele>
        <time>2020-05-26T17:14:01Z</time>
      </trkpt>
      <trkpt lat="45.17332" lon="5.26943">
        <ele>396.9</ele>
        <time>2020-05-26T17:14:02Z</time>
      </trkpt>
      <trkpt lat="45.17332" lon="5.26945">
        <ele>397.1</ele>
        <time>2020-05-26T17:14:03Z</time>
      </trkpt>
      <trkpt lat="45.17331" lon="5.26946">
        <ele>397.3</ele>
        <time>2020-05-26T17:14:04Z</time>
      </trkpt>
      <trkpt lat="45.17331" lon="5.26948">
        <ele>397.7</ele>
        <time>2020-05-26T17:14:05Z</time>
      </trkpt>
      <trkpt lat="45.1733" lon="5.2695">
        <ele>397.9</ele>
        <time>2020-05-26T17:14:06Z</time>
      </trkpt>
      <trkpt lat="45.17329" lon="5.26954">
        <ele>398.5</ele>
        <time>2020-05-26T17:14:07Z</time>
      </trkpt>
      <trkpt lat="45.17329" lon="5.26956">
        <ele>398.7</ele>
        <time>2020-05-26T17:14:08Z</time>
      </trkpt>
      <trkpt lat="45.17329" lon="5.2696">
        <ele>399.2</ele>
        <time>2020-05-26T17:14:09Z</time>
      </trkpt>
      <trkpt lat="45.17329" lon="5.26961">
        <ele>399.3</ele>
        <time>2020-05-26T17:14:10Z</time>
      </trkpt>
      <trkpt lat="45.17329" lon="5.26966">
        <ele>399.7</ele>
        <time>2020-05-26T17:14:11Z</time>
      </trkpt>
      <trkpt lat="45.17329" lon="5.26967">
        <ele>399.8</ele>
        <time>2020-05-26T17:14:12Z</time>
      </trkpt>
      <trkpt lat="45.1733" lon="5.2697">
        <ele>400.1</ele>
        <time>2020-05-26T17:14:13Z</time>
      </trkpt>
      <trkpt lat="45.17331" lon="5.26972">
        <ele>400.2</ele>
        <time>2020-05-26T17:14:14Z</time>
      </trkpt>
      <trkpt lat="45.17331" lon="5.26975">
        <ele>400.5</ele>
        <time>2020-05-26T17:14:15Z</time>
      </trkpt>
      <trkpt lat="45.17331" lon="5.26977">
        <ele>400.6</ele>
        <time>2020-05-26T17:14:16Z</time>
      </trkpt>
      <trkpt lat="45.1733" lon="5.26979">
        <ele>400.8</ele>
        <time>2020-05-26T17:14:17Z</time>
      </trkpt>
      <trkpt lat="45.17329" lon="5.26982">
        <ele>401</ele>
        <time>2020-05-26T17:14:18Z</time>
      </trkpt>
      <trkpt lat="45.17328" lon="5.26984">
        <ele>401.1</ele>
        <time>2020-05-26T17:14:19Z</time>
      </trkpt>
      <trkpt lat="45.17328" lon="5.26986">
        <ele>401.2</ele>
        <time>2020-05-26T17:14:20Z</time>
      </trkpt>
      <trkpt lat="45.17327" lon="5.26988">
        <ele>401.4</ele>
        <time>2020-05-26T17:14:21Z</time>
      </trkpt>
      <trkpt lat="45.17326" lon="5.2699">
        <ele>401.5</ele>
        <time>2020-05-26T17:14:22Z</time>
      </trkpt>
      <trkpt lat="45.17325" lon="5.26994">
        <ele>401.8</ele>
        <time>2020-05-26T17:14:23Z</time>
      </trkpt>
      <trkpt lat="45.17325" lon="5.26995">
        <ele>401.8</ele>
        <time>2020-05-26T17:14:24Z</time>
      </trkpt>
      <trkpt lat="45.17324" lon="5.27001">
        <ele>402.1</ele>
        <time>2020-05-26T17:14:25Z</time>
      </trkpt>
      <trkpt lat="45.17324" lon="5.27002">
        <ele>402.2</ele>
        <time>2020-05-26T17:14:26Z</time>
      </trkpt>
      <trkpt lat="45.17324" lon="5.27006">
        <ele>402.5</ele>
        <time>2020-05-26T17:14:27Z</time>
      </trkpt>
      <trkpt lat="45.17324" lon="5.27008">
        <ele>402.6</ele>
        <time>2020-05-26T17:14:28Z</time>
      </trkpt>
      <trkpt lat="45.17325" lon="5.27012">
        <ele>402.8</ele>
        <time>2020-05-26T17:14:29Z</time>
      </trkpt>
      <trkpt lat="45.17325" lon="5.27013">
        <ele>402.9</ele>
        <time>2020-05-26T17:14:30Z</time>
      </trkpt>
      <trkpt lat="45.17327" lon="5.27017">
        <ele>403.2</ele>
        <time>2020-05-26T17:14:31Z</time>
      </trkpt>
      <trkpt lat="45.17328" lon="5.2702">
        <ele>403.4</ele>
        <time>2020-05-26T17:14:32Z</time>
      </trkpt>
      <trkpt lat="45.17328" lon="5.27025">
        <ele>403.7</ele>
        <time>2020-05-26T17:14:33Z</time>
      </trkpt>
      <trkpt lat="45.17328" lon="5.27027">
        <ele>403.9</ele>
        <time>2020-05-26T17:14:34Z</time>
      </trkpt>
      <trkpt lat="45.17328" lon="5.27031">
        <ele>404.1</ele>
        <time>2020-05-26T17:14:35Z</time>
      </trkpt>
      <trkpt lat="45.17328" lon="5.27033">
        <ele>404.2</ele>
        <time>2020-05-26T17:14:36Z</time>
      </trkpt>
      <trkpt lat="45.17329" lon="5.27037">
        <ele>404.5</ele>
        <time>2020-05-26T17:14:37Z</time>
      </trkpt>
      <trkpt lat="45.17329" lon="5.27039">
        <ele>404.6</ele>
        <time>2020-05-26T17:14:38Z</time>
      </trkpt>
      <trkpt lat="45.1733" lon="5.2704">
        <ele>404.7</ele>
        <time>2020-05-26T17:14:39Z</time>
      </trkpt>
      <trkpt lat="45.1733" lon="5.27042">
        <ele>404.8</ele>
        <time>2020-05-26T17:14:40Z</time>
      </trkpt>
      <trkpt lat="45.1733" lon="5.27043">
        <ele>404.8</ele>
        <time>2020-05-26T17:14:41Z</time>
      </trkpt>
      <trkpt lat="45.17328" lon="5.27047">
        <ele>405.1</ele>
        <time>2020-05-26T17:14:42Z</time>
      </trkpt>
      <trkpt lat="45.17327" lon="5.27048">
        <ele>405.1</ele>
        <time>2020-05-26T17:14:43Z</time>
      </trkpt>
      <trkpt lat="45.17326" lon="5.27052">
        <ele>405.3</ele>
        <time>2020-05-26T17:14:44Z</time>
      </trkpt>
      <trkpt lat="45.17326" lon="5.27054">
        <ele>405.4</ele>
        <time>2020-05-26T17:14:45Z</time>
      </trkpt>
      <trkpt lat="45.17326" lon="5.27056">
        <ele>405.5</ele>
        <time>2020-05-26T17:14:46Z</time>
      </trkpt>
      <trkpt lat="45.17326" lon="5.27058">
        <ele>405.6</ele>
        <time>2020-05-26T17:14:47Z</time>
      </trkpt>
      <trkpt lat="45.17325" lon="5.2706">
        <ele>405.7</ele>
        <time>2020-05-26T17:14:48Z</time>
      </trkpt>
      <trkpt lat="45.17324" lon="5.27062">
        <ele>405.8</ele>
        <time>2020-05-26T17:14:49Z</time>
      </trkpt>
      <trkpt lat="45.17324" lon="5.27065">
        <ele>405.9</ele>
        <time>2020-05-26T17:14:50Z</time>
      </trkpt>
      <trkpt lat="45.17324" lon="5.27067">
        <ele>405.9</ele>
        <time>2020-05-26T17:14:51Z</time>
      </trkpt>
      <trkpt lat="45.17324" lon="5.27069">
        <ele>406</ele>
        <time>2020-05-26T17:14:52Z</time>
      </trkpt>
      <trkpt lat="45.17323" lon="5.27071">
        <ele>406.1</ele>
        <time>2020-05-26T17:14:53Z</time>
      </trkpt>
      <trkpt lat="45.1732" lon="5.27074">
        <ele>406.3</ele>
        <time>2020-05-26T17:14:54Z</time>
      </trkpt>
      <trkpt lat="45.1732" lon="5.27075">
        <ele>406.4</ele>
        <time>2020-05-26T17:14:55Z</time>
      </trkpt>
      <trkpt lat="45.17318" lon="5.27079">
        <ele>406.6</ele>
        <time>2020-05-26T17:14:56Z</time>
      </trkpt>
      <trkpt lat="45.17318" lon="5.27081">
        <ele>406.6</ele>
        <time>2020-05-26T17:14:57Z</time>
      </trkpt>
      <trkpt lat="45.17318" lon="5.27085">
        <ele>406.9</ele>
        <time>2020-05-26T17:14:58Z</time>
      </trkpt>
      <trkpt lat="45.17318" lon="5.27087">
        <ele>406.9</ele>
        <time>2020-05-26T17:14:59Z</time>
      </trkpt>
      <trkpt lat="45.17319" lon="5.27091">
        <ele>407.2</ele>
        <time>2020-05-26T17:15:00Z</time>
      </trkpt>
      <trkpt lat="45.1732" lon="5.27092">
        <ele>407.3</ele>
        <time>2020-05-26T17:15:01Z</time>
      </trkpt>
      <trkpt lat="45.1732" lon="5.27094">
        <ele>407.4</ele>
        <time>2020-05-26T17:15:02Z</time>
      </trkpt>
      <trkpt lat="45.17319" lon="5.27096">
        <ele>407.5</ele>
        <time>2020-05-26T17:15:03Z</time>
      </trkpt>
      <trkpt lat="45.17318" lon="5.271">
        <ele>407.8</ele>
        <time>2020-05-26T17:15:04Z</time>
      </trkpt>
      <trkpt lat="45.17317" lon="5.27101">
        <ele>407.9</ele>
        <time>2020-05-26T17:15:05Z</time>
      </trkpt>
      <trkpt lat="45.17315" lon="5.27106">
        <ele>408.2</ele>
        <time>2020-05-26T17:15:06Z</time>
      </trkpt>
      <trkpt lat="45.17315" lon="5.27107">
        <ele>408.3</ele>
        <time>2020-05-26T17:15:07Z</time>
      </trkpt>
      <trkpt lat="45.17314" lon="5.27112">
        <ele>408.6</ele>
        <time>2020-05-26T17:15:08Z</time>
      </trkpt>
      <trkpt lat="45.17315" lon="5.27113">
        <ele>408.7</ele>
        <time>2020-05-26T17:15:09Z</time>
      </trkpt>
      <trkpt lat="45.17316" lon="5.27115">
        <ele>408.8</ele>
        <time>2020-05-26T17:15:10Z</time>
      </trkpt>
      <trkpt lat="45.17316" lon="5.27116">
        <ele>408.9</ele>
        <time>2020-05-26T17:15:11Z</time>
      </trkpt>
      <trkpt lat="45.17317" lon="5.27117">
        <ele>409</ele>
        <time>2020-05-26T17:15:12Z</time>
      </trkpt>
      <trkpt lat="45.17318" lon="5.27119">
        <ele>409.2</ele>
        <time>2020-05-26T17:15:13Z</time>
      </trkpt>
      <trkpt lat="45.17318" lon="5.27122">
        <ele>409.3</ele>
        <time>2020-05-26T17:15:14Z</time>
      </trkpt>
      <trkpt lat="45.17318" lon="5.27126">
        <ele>409.6</ele>
        <time>2020-05-26T17:15:15Z</time>
      </trkpt>
      <trkpt lat="45.17318" lon="5.27127">
        <ele>409.6</ele>
        <time>2020-05-26T17:15:16Z</time>
      </trkpt>
      <trkpt lat="45.17318" lon="5.27132">
        <ele>409.9</ele>
        <time>2020-05-26T17:15:17Z</time>
      </trkpt>
      <trkpt lat="45.17319" lon="5.27133">
        <ele>410</ele>
        <time>2020-05-26T17:15:18Z</time>
      </trkpt>
      <trkpt lat="45.17319" lon="5.27137">
        <ele>410.2</ele>
        <time>2020-05-26T17:15:19Z</time>
      </trkpt>
      <trkpt lat="45.17319" lon="5.27139">
        <ele>410.3</ele>
        <time>2020-05-26T17:15:20Z</time>
      </trkpt>
      <trkpt lat="45.17319" lon="5.27143">
        <ele>410.5</ele>
        <time>2020-05-26T17:15:21Z</time>
      </trkpt>
      <trkpt lat="45.17319" lon="5.27145">
        <ele>410.6</ele>
        <time>2020-05-26T17:15:22Z</time>
      </trkpt>
      <trkpt lat="45.17319" lon="5.27149">
        <ele>410.7</ele>
        <time>2020-05-26T17:15:23Z</time>
      </trkpt>
      <trkpt lat="45.17319" lon="5.27151">
        <ele>410.8</ele>
        <time>2020-05-26T17:15:24Z</time>
      </trkpt>
      <trkpt lat="45.17319" lon="5.27153">
        <ele>410.9</ele>
        <time>2020-05-26T17:15:25Z</time>
      </trkpt>
      <trkpt lat="45.1732" lon="5.27157">
        <ele>411</ele>
        <time>2020-05-26T17:15:26Z</time>
      </trkpt>
      <trkpt lat="45.1732" lon="5.27159">
        <ele>411</ele>
        <time>2020-05-26T17:15:27Z</time>
      </trkpt>
      <trkpt lat="45.17322" lon="5.27162">
        <ele>411.1</ele>
        <time>2020-05-26T17:15:28Z</time>
      </trkpt>
      <trkpt lat="45.17323" lon="5.27164">
        <ele>411.1</ele>
        <time>2020-05-26T17:15:29Z</time>
      </trkpt>
      <trkpt lat="45.17325" lon="5.27167">
        <ele>411.2</ele>
        <time>2020-05-26T17:15:30Z</time>
      </trkpt>
      <trkpt lat="45.17326" lon="5.27168">
        <ele>411.2</ele>
        <time>2020-05-26T17:15:31Z</time>
      </trkpt>
      <trkpt lat="45.17328" lon="5.27171">
        <ele>411.2</ele>
        <time>2020-05-26T17:15:32Z</time>
      </trkpt>
      <trkpt lat="45.17331" lon="5.27173">
        <ele>411.2</ele>
        <time>2020-05-26T17:15:33Z</time>
      </trkpt>
      <trkpt lat="45.17334" lon="5.27176">
        <ele>411.2</ele>
        <time>2020-05-26T17:15:34Z</time>
      </trkpt>
      <trkpt lat="45.17335" lon="5.27177">
        <ele>411.2</ele>
        <time>2020-05-26T17:15:35Z</time>
      </trkpt>
      <trkpt lat="45.17337" lon="5.27181">
        <ele>411.2</ele>
        <time>2020-05-26T17:15:36Z</time>
      </trkpt>
      <trkpt lat="45.17338" lon="5.27183">
        <ele>411.1</ele>
        <time>2020-05-26T17:15:37Z</time>
      </trkpt>
      <trkpt lat="45.17338" lon="5.27185">
        <ele>411.1</ele>
        <time>2020-05-26T17:15:38Z</time>
      </trkpt>
      <trkpt lat="45.17338" lon="5.27186">
        <ele>411.1</ele>
        <time>2020-05-26T17:15:39Z</time>
      </trkpt>
      <trkpt lat="45.17339" lon="5.27186">
        <ele>411.1</ele>
        <time>2020-05-26T17:15:40Z</time>
      </trkpt>
      <trkpt lat="45.17341" lon="5.27184">
        <ele>411</ele>
        <time>2020-05-26T17:15:41Z</time>
      </trkpt>
      <trkpt lat="45.17341" lon="5.27182">
        <ele>411</ele>
        <time>2020-05-26T17:15:42Z</time>
      </trkpt>
      <trkpt lat="45.17343" lon="5.27182">
        <ele>410.9</ele>
        <time>2020-05-26T17:15:43Z</time>
      </trkpt>
      <trkpt lat="45.17344" lon="5.27183">
        <ele>410.9</ele>
        <time>2020-05-26T17:15:44Z</time>
      </trkpt>
      <trkpt lat="45.17345" lon="5.27184">
        <ele>410.8</ele>
        <time>2020-05-26T17:15:45Z</time>
      </trkpt>
      <trkpt lat="45.17346" lon="5.27186">
        <ele>410.8</ele>
        <time>2020-05-26T17:15:46Z</time>
      </trkpt>
      <trkpt lat="45.17347" lon="5.27188">
        <ele>410.7</ele>
        <time>2020-05-26T17:15:47Z</time>
      </trkpt>
      <trkpt lat="45.17349" lon="5.27191">
        <ele>410.5</ele>
        <time>2020-05-26T17:15:48Z</time>
      </trkpt>
      <trkpt lat="45.17349" lon="5.27192">
        <ele>410.5</ele>
        <time>2020-05-26T17:15:49Z</time>
      </trkpt>
      <trkpt lat="45.17352" lon="5.27194">
        <ele>410.3</ele>
        <time>2020-05-26T17:15:50Z</time>
      </trkpt>
      <trkpt lat="45.17354" lon="5.27198">
        <ele>410.1</ele>
        <time>2020-05-26T17:15:51Z</time>
      </trkpt>
      <trkpt lat="45.17355" lon="5.27199">
        <ele>410</ele>
        <time>2020-05-26T17:15:52Z</time>
      </trkpt>
      <trkpt lat="45.17358" lon="5.272">
        <ele>409.8</ele>
        <time>2020-05-26T17:15:53Z</time>
      </trkpt>
      <trkpt lat="45.17359" lon="5.27201">
        <ele>409.7</ele>
        <time>2020-05-26T17:15:54Z</time>
      </trkpt>
      <trkpt lat="45.17362" lon="5.27203">
        <ele>409.5</ele>
        <time>2020-05-26T17:15:55Z</time>
      </trkpt>
      <trkpt lat="45.17363" lon="5.27205">
        <ele>409.4</ele>
        <time>2020-05-26T17:15:56Z</time>
      </trkpt>
      <trkpt lat="45.17364" lon="5.27209">
        <ele>409.1</ele>
        <time>2020-05-26T17:15:57Z</time>
      </trkpt>
      <trkpt lat="45.17365" lon="5.27211">
        <ele>409</ele>
        <time>2020-05-26T17:15:58Z</time>
      </trkpt>
      <trkpt lat="45.17366" lon="5.27216">
        <ele>408.8</ele>
        <time>2020-05-26T17:15:59Z</time>
      </trkpt>
      <trkpt lat="45.17368" lon="5.27219">
        <ele>408.6</ele>
        <time>2020-05-26T17:16:00Z</time>
      </trkpt>
      <trkpt lat="45.1737" lon="5.27222">
        <ele>408.5</ele>
        <time>2020-05-26T17:16:01Z</time>
      </trkpt>
      <trkpt lat="45.17373" lon="5.27224">
        <ele>408.4</ele>
        <time>2020-05-26T17:16:02Z</time>
      </trkpt>
      <trkpt lat="45.17376" lon="5.27225">
        <ele>408.3</ele>
        <time>2020-05-26T17:16:03Z</time>
      </trkpt>
      <trkpt lat="45.17377" lon="5.27226">
        <ele>408.3</ele>
        <time>2020-05-26T17:16:04Z</time>
      </trkpt>
      <trkpt lat="45.17379" lon="5.27227">
        <ele>408.2</ele>
        <time>2020-05-26T17:16:05Z</time>
      </trkpt>
      <trkpt lat="45.17382" lon="5.27228">
        <ele>408.2</ele>
        <time>2020-05-26T17:16:06Z</time>
      </trkpt>
      <trkpt lat="45.17385" lon="5.27229">
        <ele>408.2</ele>
        <time>2020-05-26T17:16:07Z</time>
      </trkpt>
      <trkpt lat="45.17387" lon="5.2723">
        <ele>408.2</ele>
        <time>2020-05-26T17:16:08Z</time>
      </trkpt>
      <trkpt lat="45.1739" lon="5.27231">
        <ele>408.3</ele>
        <time>2020-05-26T17:16:09Z</time>
      </trkpt>
      <trkpt lat="45.17391" lon="5.27231">
        <ele>408.3</ele>
        <time>2020-05-26T17:16:10Z</time>
      </trkpt>
      <trkpt lat="45.17394" lon="5.27233">
        <ele>408.4</ele>
        <time>2020-05-26T17:16:11Z</time>
      </trkpt>
      <trkpt lat="45.17395" lon="5.27233">
        <ele>408.4</ele>
        <time>2020-05-26T17:16:12Z</time>
      </trkpt>
      <trkpt lat="45.17397" lon="5.27234">
        <ele>408.4</ele>
        <time>2020-05-26T17:16:13Z</time>
      </trkpt>
      <trkpt lat="45.17398" lon="5.27234">
        <ele>408.5</ele>
        <time>2020-05-26T17:16:14Z</time>
      </trkpt>
      <trkpt lat="45.17401" lon="5.27238">
        <ele>408.6</ele>
        <time>2020-05-26T17:16:15Z</time>
      </trkpt>
      <trkpt lat="45.17401" lon="5.27239">
        <ele>408.7</ele>
        <time>2020-05-26T17:16:16Z</time>
      </trkpt>
      <trkpt lat="45.17403" lon="5.27244">
        <ele>408.9</ele>
        <time>2020-05-26T17:16:17Z</time>
      </trkpt>
      <trkpt lat="45.17404" lon="5.27245">
        <ele>408.9</ele>
        <time>2020-05-26T17:16:18Z</time>
      </trkpt>
      <trkpt lat="45.17405" lon="5.27249">
        <ele>409.1</ele>
        <time>2020-05-26T17:16:19Z</time>
      </trkpt>
      <trkpt lat="45.17406" lon="5.27251">
        <ele>409.2</ele>
        <time>2020-05-26T17:16:20Z</time>
      </trkpt>
      <trkpt lat="45.17407" lon="5.27255">
        <ele>409.4</ele>
        <time>2020-05-26T17:16:21Z</time>
      </trkpt>
      <trkpt lat="45.17409" lon="5.27258">
        <ele>409.6</ele>
        <time>2020-05-26T17:16:22Z</time>
      </trkpt>
      <trkpt lat="45.17411" lon="5.27261">
        <ele>409.8</ele>
        <time>2020-05-26T17:16:23Z</time>
      </trkpt>
      <trkpt lat="45.17412" lon="5.27264">
        <ele>410</ele>
        <time>2020-05-26T17:16:24Z</time>
      </trkpt>
      <trkpt lat="45.17414" lon="5.27268">
        <ele>410.2</ele>
        <time>2020-05-26T17:16:25Z</time>
      </trkpt>
      <trkpt lat="45.17415" lon="5.27269">
        <ele>410.3</ele>
        <time>2020-05-26T17:16:26Z</time>
      </trkpt>
      <trkpt lat="45.17416" lon="5.27274">
        <ele>410.5</ele>
        <time>2020-05-26T17:16:27Z</time>
      </trkpt>
      <trkpt lat="45.17417" lon="5.27275">
        <ele>410.6</ele>
        <time>2020-05-26T17:16:28Z</time>
      </trkpt>
      <trkpt lat="45.17419" lon="5.27278">
        <ele>410.9</ele>
        <time>2020-05-26T17:16:29Z</time>
      </trkpt>
      <trkpt lat="45.1742" lon="5.27278">
        <ele>410.9</ele>
        <time>2020-05-26T17:16:30Z</time>
      </trkpt>
      <trkpt lat="45.17423" lon="5.2728">
        <ele>411.1</ele>
        <time>2020-05-26T17:16:31Z</time>
      </trkpt>
      <trkpt lat="45.17424" lon="5.2728">
        <ele>411.2</ele>
        <time>2020-05-26T17:16:32Z</time>
      </trkpt>
      <trkpt lat="45.17427" lon="5.27282">
        <ele>411.5</ele>
        <time>2020-05-26T17:16:33Z</time>
      </trkpt>
      <trkpt lat="45.17428" lon="5.27282">
        <ele>411.5</ele>
        <time>2020-05-26T17:16:34Z</time>
      </trkpt>
      <trkpt lat="45.17431" lon="5.27285">
        <ele>411.8</ele>
        <time>2020-05-26T17:16:35Z</time>
      </trkpt>
      <trkpt lat="45.17433" lon="5.27286">
        <ele>411.9</ele>
        <time>2020-05-26T17:16:36Z</time>
      </trkpt>
      <trkpt lat="45.17436" lon="5.27289">
        <ele>412.2</ele>
        <time>2020-05-26T17:16:37Z</time>
      </trkpt>
      <trkpt lat="45.17436" lon="5.2729">
        <ele>412.2</ele>
        <time>2020-05-26T17:16:38Z</time>
      </trkpt>
      <trkpt lat="45.17439" lon="5.27292">
        <ele>412.5</ele>
        <time>2020-05-26T17:16:39Z</time>
      </trkpt>
      <trkpt lat="45.1744" lon="5.27294">
        <ele>412.5</ele>
        <time>2020-05-26T17:16:40Z</time>
      </trkpt>
      <trkpt lat="45.17443" lon="5.27297">
        <ele>412.7</ele>
        <time>2020-05-26T17:16:41Z</time>
      </trkpt>
      <trkpt lat="45.17444" lon="5.27299">
        <ele>412.8</ele>
        <time>2020-05-26T17:16:42Z</time>
      </trkpt>
      <trkpt lat="45.17446" lon="5.27303">
        <ele>412.9</ele>
        <time>2020-05-26T17:16:43Z</time>
      </trkpt>
      <trkpt lat="45.17448" lon="5.27306">
        <ele>413.1</ele>
        <time>2020-05-26T17:16:44Z</time>
      </trkpt>
      <trkpt lat="45.1745" lon="5.2731">
        <ele>413.2</ele>
        <time>2020-05-26T17:16:45Z</time>
      </trkpt>
      <trkpt lat="45.17453" lon="5.27312">
        <ele>413.2</ele>
        <time>2020-05-26T17:16:46Z</time>
      </trkpt>
      <trkpt lat="45.17455" lon="5.27315">
        <ele>413.3</ele>
        <time>2020-05-26T17:16:47Z</time>
      </trkpt>
      <trkpt lat="45.17457" lon="5.27319">
        <ele>413.4</ele>
        <time>2020-05-26T17:16:48Z</time>
      </trkpt>
      <trkpt lat="45.17459" lon="5.27323">
        <ele>413.4</ele>
        <time>2020-05-26T17:16:49Z</time>
      </trkpt>
      <trkpt lat="45.17462" lon="5.27327">
        <ele>413.5</ele>
        <time>2020-05-26T17:16:50Z</time>
      </trkpt>
      <trkpt lat="45.17463" lon="5.27329">
        <ele>413.5</ele>
        <time>2020-05-26T17:16:51Z</time>
      </trkpt>
      <trkpt lat="45.17465" lon="5.27332">
        <ele>413.6</ele>
        <time>2020-05-26T17:16:52Z</time>
      </trkpt>
      <trkpt lat="45.17468" lon="5.27335">
        <ele>413.6</ele>
        <time>2020-05-26T17:16:53Z</time>
      </trkpt>
      <trkpt lat="45.1747" lon="5.27338">
        <ele>413.7</ele>
        <time>2020-05-26T17:16:54Z</time>
      </trkpt>
      <trkpt lat="45.17473" lon="5.27341">
        <ele>413.7</ele>
        <time>2020-05-26T17:16:55Z</time>
      </trkpt>
      <trkpt lat="45.17476" lon="5.27344">
        <ele>413.8</ele>
        <time>2020-05-26T17:16:56Z</time>
      </trkpt>
      <trkpt lat="45.17477" lon="5.27345">
        <ele>413.8</ele>
        <time>2020-05-26T17:16:57Z</time>
      </trkpt>
      <trkpt lat="45.1748" lon="5.27347">
        <ele>413.9</ele>
        <time>2020-05-26T17:16:58Z</time>
      </trkpt>
      <trkpt lat="45.17483" lon="5.27349">
        <ele>414</ele>
        <time>2020-05-26T17:16:59Z</time>
      </trkpt>
      <trkpt lat="45.17484" lon="5.2735">
        <ele>414</ele>
        <time>2020-05-26T17:17:00Z</time>
      </trkpt>
      <trkpt lat="45.17486" lon="5.27351">
        <ele>414</ele>
        <time>2020-05-26T17:17:01Z</time>
      </trkpt>
      <trkpt lat="45.17487" lon="5.27352">
        <ele>414</ele>
        <time>2020-05-26T17:17:02Z</time>
      </trkpt>
      <trkpt lat="45.1749" lon="5.27355">
        <ele>414.1</ele>
        <time>2020-05-26T17:17:03Z</time>
      </trkpt>
      <trkpt lat="45.17491" lon="5.27356">
        <ele>414.1</ele>
        <time>2020-05-26T17:17:04Z</time>
      </trkpt>
      <trkpt lat="45.17494" lon="5.2736">
        <ele>414.2</ele>
        <time>2020-05-26T17:17:05Z</time>
      </trkpt>
      <trkpt lat="45.17495" lon="5.27361">
        <ele>414.2</ele>
        <time>2020-05-26T17:17:06Z</time>
      </trkpt>
      <trkpt lat="45.17498" lon="5.27364">
        <ele>414.2</ele>
        <time>2020-05-26T17:17:07Z</time>
      </trkpt>
      <trkpt lat="45.17501" lon="5.27368">
        <ele>414.3</ele>
        <time>2020-05-26T17:17:08Z</time>
      </trkpt>
      <trkpt lat="45.17502" lon="5.27369">
        <ele>414.3</ele>
        <time>2020-05-26T17:17:09Z</time>
      </trkpt>
      <trkpt lat="45.17505" lon="5.27372">
        <ele>414.4</ele>
        <time>2020-05-26T17:17:10Z</time>
      </trkpt>
      <trkpt lat="45.17506" lon="5.27373">
        <ele>414.4</ele>
        <time>2020-05-26T17:17:11Z</time>
      </trkpt>
      <trkpt lat="45.17509" lon="5.27376">
        <ele>414.5</ele>
        <time>2020-05-26T17:17:12Z</time>
      </trkpt>
      <trkpt lat="45.1751" lon="5.27378">
        <ele>414.5</ele>
        <time>2020-05-26T17:17:13Z</time>
      </trkpt>
      <trkpt lat="45.17513" lon="5.27381">
        <ele>414.6</ele>
        <time>2020-05-26T17:17:14Z</time>
      </trkpt>
      <trkpt lat="45.17515" lon="5.27383">
        <ele>414.6</ele>
        <time>2020-05-26T17:17:15Z</time>
      </trkpt>
      <trkpt lat="45.17518" lon="5.27386">
        <ele>414.7</ele>
        <time>2020-05-26T17:17:16Z</time>
      </trkpt>
      <trkpt lat="45.17521" lon="5.27389">
        <ele>414.8</ele>
        <time>2020-05-26T17:17:17Z</time>
      </trkpt>
      <trkpt lat="45.17523" lon="5.27392">
        <ele>414.9</ele>
        <time>2020-05-26T17:17:18Z</time>
      </trkpt>
      <trkpt lat="45.17526" lon="5.27393">
        <ele>415</ele>
        <time>2020-05-26T17:17:19Z</time>
      </trkpt>
      <trkpt lat="45.17529" lon="5.27395">
        <ele>415.1</ele>
        <time>2020-05-26T17:17:20Z</time>
      </trkpt>
      <trkpt lat="45.1753" lon="5.27396">
        <ele>415.1</ele>
        <time>2020-05-26T17:17:21Z</time>
      </trkpt>
      <trkpt lat="45.17533" lon="5.27399">
        <ele>415.2</ele>
        <time>2020-05-26T17:17:22Z</time>
      </trkpt>
      <trkpt lat="45.17534" lon="5.27401">
        <ele>415.3</ele>
        <time>2020-05-26T17:17:23Z</time>
      </trkpt>
      <trkpt lat="45.17536" lon="5.27404">
        <ele>415.4</ele>
        <time>2020-05-26T17:17:24Z</time>
      </trkpt>
      <trkpt lat="45.17537" lon="5.27405">
        <ele>415.5</ele>
        <time>2020-05-26T17:17:25Z</time>
      </trkpt>
      <trkpt lat="45.17539" lon="5.27409">
        <ele>415.6</ele>
        <time>2020-05-26T17:17:26Z</time>
      </trkpt>
      <trkpt lat="45.1754" lon="5.27411">
        <ele>415.6</ele>
        <time>2020-05-26T17:17:27Z</time>
      </trkpt>
      <trkpt lat="45.1754" lon="5.27413">
        <ele>415.7</ele>
        <time>2020-05-26T17:17:28Z</time>
      </trkpt>
      <trkpt lat="45.1754" lon="5.27415">
        <ele>415.8</ele>
        <time>2020-05-26T17:17:29Z</time>
      </trkpt>
      <trkpt lat="45.17537" lon="5.27418">
        <ele>416</ele>
        <time>2020-05-26T17:17:30Z</time>
      </trkpt>
      <trkpt lat="45.17535" lon="5.27419">
        <ele>416.1</ele>
        <time>2020-05-26T17:17:31Z</time>
      </trkpt>
      <trkpt lat="45.17532" lon="5.2742">
        <ele>416.3</ele>
        <time>2020-05-26T17:17:32Z</time>
      </trkpt>
      <trkpt lat="45.17529" lon="5.2742">
        <ele>416.5</ele>
        <time>2020-05-26T17:17:33Z</time>
      </trkpt>
      <trkpt lat="45.17526" lon="5.27421">
        <ele>415.7</ele>
        <time>2020-05-26T17:17:34Z</time>
      </trkpt>
      <trkpt lat="45.17522" lon="5.27422">
        <ele>415.3</ele>
        <time>2020-05-26T17:17:35Z</time>
      </trkpt>
      <trkpt lat="45.17519" lon="5.27423">
        <ele>414.9</ele>
        <time>2020-05-26T17:17:36Z</time>
      </trkpt>
      <trkpt lat="45.17516" lon="5.27424">
        <ele>414.5</ele>
        <time>2020-05-26T17:17:37Z</time>
      </trkpt>
      <trkpt lat="45.17512" lon="5.27425">
        <ele>414</ele>
        <time>2020-05-26T17:17:38Z</time>
      </trkpt>
      <trkpt lat="45.17508" lon="5.27426">
        <ele>413.3</ele>
        <time>2020-05-26T17:17:39Z</time>
      </trkpt>
      <trkpt lat="45.17504" lon="5.27428">
        <ele>412.7</ele>
        <time>2020-05-26T17:17:40Z</time>
      </trkpt>
      <trkpt lat="45.175" lon="5.2743">
        <ele>412.1</ele>
        <time>2020-05-26T17:17:41Z</time>
      </trkpt>
      <trkpt lat="45.17496" lon="5.27431">
        <ele>411.4</ele>
        <time>2020-05-26T17:17:42Z</time>
      </trkpt>
      <trkpt lat="45.17493" lon="5.27432">
        <ele>410.8</ele>
        <time>2020-05-26T17:17:43Z</time>
      </trkpt>
      <trkpt lat="45.1749" lon="5.27433">
        <ele>410.2</ele>
        <time>2020-05-26T17:17:44Z</time>
      </trkpt>
      <trkpt lat="45.17487" lon="5.27434">
        <ele>409.7</ele>
        <time>2020-05-26T17:17:45Z</time>
      </trkpt>
      <trkpt lat="45.17484" lon="5.27435">
        <ele>409.2</ele>
        <time>2020-05-26T17:17:46Z</time>
      </trkpt>
      <trkpt lat="45.17481" lon="5.27438">
        <ele>408.4</ele>
        <time>2020-05-26T17:17:47Z</time>
      </trkpt>
      <trkpt lat="45.1748" lon="5.27439">
        <ele>408.2</ele>
        <time>2020-05-26T17:17:48Z</time>
      </trkpt>
      <trkpt lat="45.17477" lon="5.27442">
        <ele>407.5</ele>
        <time>2020-05-26T17:17:49Z</time>
      </trkpt>
      <trkpt lat="45.17474" lon="5.27446">
        <ele>406.6</ele>
        <time>2020-05-26T17:17:50Z</time>
      </trkpt>
      <trkpt lat="45.1747" lon="5.27449">
        <ele>405.6</ele>
        <time>2020-05-26T17:17:51Z</time>
      </trkpt>
      <trkpt lat="45.17466" lon="5.27453">
        <ele>404.8</ele>
        <time>2020-05-26T17:17:52Z</time>
      </trkpt>
      <trkpt lat="45.17463" lon="5.27455">
        <ele>404.1</ele>
        <time>2020-05-26T17:17:53Z</time>
      </trkpt>
      <trkpt lat="45.1746" lon="5.27457">
        <ele>403.5</ele>
        <time>2020-05-26T17:17:54Z</time>
      </trkpt>
      <trkpt lat="45.17457" lon="5.27458">
        <ele>402.9</ele>
        <time>2020-05-26T17:17:55Z</time>
      </trkpt>
      <trkpt lat="45.17454" lon="5.27459">
        <ele>402.2</ele>
        <time>2020-05-26T17:17:56Z</time>
      </trkpt>
      <trkpt lat="45.1745" lon="5.2746">
        <ele>401.5</ele>
        <time>2020-05-26T17:17:57Z</time>
      </trkpt>
      <trkpt lat="45.17446" lon="5.27461">
        <ele>400.8</ele>
        <time>2020-05-26T17:17:58Z</time>
      </trkpt>
      <trkpt lat="45.17442" lon="5.27463">
        <ele>400.2</ele>
        <time>2020-05-26T17:17:59Z</time>
      </trkpt>
      <trkpt lat="45.17438" lon="5.27464">
        <ele>399.7</ele>
        <time>2020-05-26T17:18:00Z</time>
      </trkpt>
      <trkpt lat="45.17435" lon="5.27467">
        <ele>399.2</ele>
        <time>2020-05-26T17:18:01Z</time>
      </trkpt>
      <trkpt lat="45.17433" lon="5.27469">
        <ele>399</ele>
        <time>2020-05-26T17:18:02Z</time>
      </trkpt>
      <trkpt lat="45.1743" lon="5.27472">
        <ele>398.4</ele>
        <time>2020-05-26T17:18:03Z</time>
      </trkpt>
      <trkpt lat="45.17426" lon="5.27475">
        <ele>397.8</ele>
        <time>2020-05-26T17:18:04Z</time>
      </trkpt>
      <trkpt lat="45.17423" lon="5.27477">
        <ele>397.3</ele>
        <time>2020-05-26T17:18:05Z</time>
      </trkpt>
      <trkpt lat="45.17419" lon="5.27479">
        <ele>396.8</ele>
        <time>2020-05-26T17:18:06Z</time>
      </trkpt>
      <trkpt lat="45.17416" lon="5.2748">
        <ele>396.3</ele>
        <time>2020-05-26T17:18:07Z</time>
      </trkpt>
      <trkpt lat="45.17412" lon="5.27482">
        <ele>395.8</ele>
        <time>2020-05-26T17:18:08Z</time>
      </trkpt>
      <trkpt lat="45.17409" lon="5.27485">
        <ele>395.3</ele>
        <time>2020-05-26T17:18:09Z</time>
      </trkpt>
      <trkpt lat="45.17406" lon="5.27488">
        <ele>394.8</ele>
        <time>2020-05-26T17:18:10Z</time>
      </trkpt>
      <trkpt lat="45.17404" lon="5.27492">
        <ele>394.2</ele>
        <time>2020-05-26T17:18:11Z</time>
      </trkpt>
      <trkpt lat="45.174" lon="5.27497">
        <ele>393.6</ele>
        <time>2020-05-26T17:18:12Z</time>
      </trkpt>
      <trkpt lat="45.17397" lon="5.27501">
        <ele>392.9</ele>
        <time>2020-05-26T17:18:13Z</time>
      </trkpt>
      <trkpt lat="45.17393" lon="5.27505">
        <ele>392.3</ele>
        <time>2020-05-26T17:18:14Z</time>
      </trkpt>
      <trkpt lat="45.1739" lon="5.27507">
        <ele>391.8</ele>
        <time>2020-05-26T17:18:15Z</time>
      </trkpt>
      <trkpt lat="45.17387" lon="5.2751">
        <ele>391.3</ele>
        <time>2020-05-26T17:18:16Z</time>
      </trkpt>
      <trkpt lat="45.17384" lon="5.27512">
        <ele>390.8</ele>
        <time>2020-05-26T17:18:17Z</time>
      </trkpt>
      <trkpt lat="45.17381" lon="5.27513">
        <ele>390.3</ele>
        <time>2020-05-26T17:18:18Z</time>
      </trkpt>
      <trkpt lat="45.17378" lon="5.27514">
        <ele>389.8</ele>
        <time>2020-05-26T17:18:19Z</time>
      </trkpt>
      <trkpt lat="45.17375" lon="5.27515">
        <ele>389.3</ele>
        <time>2020-05-26T17:18:20Z</time>
      </trkpt>
      <trkpt lat="45.17371" lon="5.27516">
        <ele>388.8</ele>
        <time>2020-05-26T17:18:21Z</time>
      </trkpt>
      <trkpt lat="45.17366" lon="5.27518">
        <ele>388</ele>
        <time>2020-05-26T17:18:22Z</time>
      </trkpt>
      <trkpt lat="45.17362" lon="5.27518">
        <ele>387.3</ele>
        <time>2020-05-26T17:18:23Z</time>
      </trkpt>
      <trkpt lat="45.17358" lon="5.27519">
        <ele>386.7</ele>
        <time>2020-05-26T17:18:24Z</time>
      </trkpt>
      <trkpt lat="45.17355" lon="5.27519">
        <ele>386.1</ele>
        <time>2020-05-26T17:18:25Z</time>
      </trkpt>
      <trkpt lat="45.17351" lon="5.27519">
        <ele>385.5</ele>
        <time>2020-05-26T17:18:26Z</time>
      </trkpt>
      <trkpt lat="45.17347" lon="5.2752">
        <ele>384.7</ele>
        <time>2020-05-26T17:18:27Z</time>
      </trkpt>
      <trkpt lat="45.17342" lon="5.2752">
        <ele>383.8</ele>
        <time>2020-05-26T17:18:28Z</time>
      </trkpt>
      <trkpt lat="45.17338" lon="5.2752">
        <ele>383.1</ele>
        <time>2020-05-26T17:18:29Z</time>
      </trkpt>
      <trkpt lat="45.17335" lon="5.27521">
        <ele>382.5</ele>
        <time>2020-05-26T17:18:30Z</time>
      </trkpt>
      <trkpt lat="45.17331" lon="5.27523">
        <ele>381.7</ele>
        <time>2020-05-26T17:18:31Z</time>
      </trkpt>
      <trkpt lat="45.17327" lon="5.27525">
        <ele>381</ele>
        <time>2020-05-26T17:18:32Z</time>
      </trkpt>
      <trkpt lat="45.17324" lon="5.27526">
        <ele>380.3</ele>
        <time>2020-05-26T17:18:33Z</time>
      </trkpt>
      <trkpt lat="45.17321" lon="5.27527">
        <ele>379.8</ele>
        <time>2020-05-26T17:18:34Z</time>
      </trkpt>
      <trkpt lat="45.17317" lon="5.27527">
        <ele>379</ele>
        <time>2020-05-26T17:18:35Z</time>
      </trkpt>
      <trkpt lat="45.17316" lon="5.27527">
        <ele>378.8</ele>
        <time>2020-05-26T17:18:36Z</time>
      </trkpt>
      <trkpt lat="45.17312" lon="5.27528">
        <ele>378.1</ele>
        <time>2020-05-26T17:18:37Z</time>
      </trkpt>
      <trkpt lat="45.17308" lon="5.27527">
        <ele>377.3</ele>
        <time>2020-05-26T17:18:38Z</time>
      </trkpt>
      <trkpt lat="45.17304" lon="5.27526">
        <ele>376.4</ele>
        <time>2020-05-26T17:18:39Z</time>
      </trkpt>
      <trkpt lat="45.173" lon="5.27524">
        <ele>375.6</ele>
        <time>2020-05-26T17:18:40Z</time>
      </trkpt>
      <trkpt lat="45.17296" lon="5.27522">
        <ele>374.7</ele>
        <time>2020-05-26T17:18:41Z</time>
      </trkpt>
      <trkpt lat="45.17293" lon="5.27519">
        <ele>374</ele>
        <time>2020-05-26T17:18:42Z</time>
      </trkpt>
      <trkpt lat="45.1729" lon="5.27517">
        <ele>373.4</ele>
        <time>2020-05-26T17:18:43Z</time>
      </trkpt>
      <trkpt lat="45.17287" lon="5.27515">
        <ele>372.8</ele>
        <time>2020-05-26T17:18:44Z</time>
      </trkpt>
      <trkpt lat="45.17285" lon="5.27513">
        <ele>372.3</ele>
        <time>2020-05-26T17:18:45Z</time>
      </trkpt>
      <trkpt lat="45.17282" lon="5.27512">
        <ele>371.8</ele>
        <time>2020-05-26T17:18:46Z</time>
      </trkpt>
      <trkpt lat="45.17279" lon="5.2751">
        <ele>371.2</ele>
        <time>2020-05-26T17:18:47Z</time>
      </trkpt>
      <trkpt lat="45.17277" lon="5.27508">
        <ele>370.8</ele>
        <time>2020-05-26T17:18:48Z</time>
      </trkpt>
      <trkpt lat="45.17273" lon="5.27506">
        <ele>370.3</ele>
        <time>2020-05-26T17:18:49Z</time>
      </trkpt>
      <trkpt lat="45.1727" lon="5.27504">
        <ele>369.7</ele>
        <time>2020-05-26T17:18:50Z</time>
      </trkpt>
      <trkpt lat="45.17266" lon="5.27502">
        <ele>369.2</ele>
        <time>2020-05-26T17:18:51Z</time>
      </trkpt>
      <trkpt lat="45.17263" lon="5.275">
        <ele>368.7</ele>
        <time>2020-05-26T17:18:52Z</time>
      </trkpt>
      <trkpt lat="45.17259" lon="5.27497">
        <ele>368.2</ele>
        <time>2020-05-26T17:18:53Z</time>
      </trkpt>
      <trkpt lat="45.17256" lon="5.27494">
        <ele>367.6</ele>
        <time>2020-05-26T17:18:54Z</time>
      </trkpt>
      <trkpt lat="45.17251" lon="5.27491">
        <ele>367.1</ele>
        <time>2020-05-26T17:18:55Z</time>
      </trkpt>
      <trkpt lat="45.17247" lon="5.27489">
        <ele>366.6</ele>
        <time>2020-05-26T17:18:56Z</time>
      </trkpt>
      <trkpt lat="45.17243" lon="5.27487">
        <ele>366.1</ele>
        <time>2020-05-26T17:18:57Z</time>
      </trkpt>
      <trkpt lat="45.17239" lon="5.27486">
        <ele>365.7</ele>
        <time>2020-05-26T17:18:58Z</time>
      </trkpt>
      <trkpt lat="45.17235" lon="5.27486">
        <ele>365.4</ele>
        <time>2020-05-26T17:18:59Z</time>
      </trkpt>
      <trkpt lat="45.17232" lon="5.27484">
        <ele>365.1</ele>
        <time>2020-05-26T17:19:00Z</time>
      </trkpt>
      <trkpt lat="45.17228" lon="5.27483">
        <ele>364.8</ele>
        <time>2020-05-26T17:19:01Z</time>
      </trkpt>
      <trkpt lat="45.17225" lon="5.27482">
        <ele>364.6</ele>
        <time>2020-05-26T17:19:02Z</time>
      </trkpt>
      <trkpt lat="45.17221" lon="5.27482">
        <ele>364.5</ele>
        <time>2020-05-26T17:19:03Z</time>
      </trkpt>
      <trkpt lat="45.17217" lon="5.27482">
        <ele>364.3</ele>
        <time>2020-05-26T17:19:04Z</time>
      </trkpt>
      <trkpt lat="45.17214" lon="5.27482">
        <ele>364.2</ele>
        <time>2020-05-26T17:19:05Z</time>
      </trkpt>
      <trkpt lat="45.1721" lon="5.27483">
        <ele>364.1</ele>
        <time>2020-05-26T17:19:06Z</time>
      </trkpt>
      <trkpt lat="45.17206" lon="5.27483">
        <ele>364.1</ele>
        <time>2020-05-26T17:19:07Z</time>
      </trkpt>
      <trkpt lat="45.17203" lon="5.27483">
        <ele>364</ele>
        <time>2020-05-26T17:19:08Z</time>
      </trkpt>
      <trkpt lat="45.17199" lon="5.27483">
        <ele>363.9</ele>
        <time>2020-05-26T17:19:09Z</time>
      </trkpt>
      <trkpt lat="45.17196" lon="5.27484">
        <ele>363.8</ele>
        <time>2020-05-26T17:19:10Z</time>
      </trkpt>
      <trkpt lat="45.17193" lon="5.27484">
        <ele>363.8</ele>
        <time>2020-05-26T17:19:11Z</time>
      </trkpt>
      <trkpt lat="45.1719" lon="5.27485">
        <ele>363.7</ele>
        <time>2020-05-26T17:19:12Z</time>
      </trkpt>
      <trkpt lat="45.17186" lon="5.27485">
        <ele>363.6</ele>
        <time>2020-05-26T17:19:13Z</time>
      </trkpt>
      <trkpt lat="45.17183" lon="5.27485">
        <ele>363.5</ele>
        <time>2020-05-26T17:19:14Z</time>
      </trkpt>
      <trkpt lat="45.1718" lon="5.27485">
        <ele>363.4</ele>
        <time>2020-05-26T17:19:15Z</time>
      </trkpt>
      <trkpt lat="45.17177" lon="5.27485">
        <ele>363.3</ele>
        <time>2020-05-26T17:19:16Z</time>
      </trkpt>
      <trkpt lat="45.17173" lon="5.27484">
        <ele>363.2</ele>
        <time>2020-05-26T17:19:17Z</time>
      </trkpt>
      <trkpt lat="45.1717" lon="5.27484">
        <ele>363.1</ele>
        <time>2020-05-26T17:19:18Z</time>
      </trkpt>
      <trkpt lat="45.17167" lon="5.27484">
        <ele>363</ele>
        <time>2020-05-26T17:19:19Z</time>
      </trkpt>
      <trkpt lat="45.17164" lon="5.27483">
        <ele>362.9</ele>
        <time>2020-05-26T17:19:20Z</time>
      </trkpt>
      <trkpt lat="45.17161" lon="5.27482">
        <ele>362.8</ele>
        <time>2020-05-26T17:19:21Z</time>
      </trkpt>
      <trkpt lat="45.17158" lon="5.27481">
        <ele>362.6</ele>
        <time>2020-05-26T17:19:22Z</time>
      </trkpt>
      <trkpt lat="45.17155" lon="5.2748">
        <ele>362.5</ele>
        <time>2020-05-26T17:19:23Z</time>
      </trkpt>
      <trkpt lat="45.17152" lon="5.27479">
        <ele>362.3</ele>
        <time>2020-05-26T17:19:24Z</time>
      </trkpt>
      <trkpt lat="45.17148" lon="5.27479">
        <ele>362.1</ele>
        <time>2020-05-26T17:19:25Z</time>
      </trkpt>
      <trkpt lat="45.17144" lon="5.27479">
        <ele>361.9</ele>
        <time>2020-05-26T17:19:26Z</time>
      </trkpt>
      <trkpt lat="45.17141" lon="5.27479">
        <ele>361.8</ele>
        <time>2020-05-26T17:19:27Z</time>
      </trkpt>
      <trkpt lat="45.17137" lon="5.2748">
        <ele>361.7</ele>
        <time>2020-05-26T17:19:28Z</time>
      </trkpt>
      <trkpt lat="45.17134" lon="5.2748">
        <ele>361.6</ele>
        <time>2020-05-26T17:19:29Z</time>
      </trkpt>
      <trkpt lat="45.17131" lon="5.2748">
        <ele>361.5</ele>
        <time>2020-05-26T17:19:30Z</time>
      </trkpt>
      <trkpt lat="45.17127" lon="5.2748">
        <ele>361.3</ele>
        <time>2020-05-26T17:19:31Z</time>
      </trkpt>
      <trkpt lat="45.17124" lon="5.2748">
        <ele>361.2</ele>
        <time>2020-05-26T17:19:32Z</time>
      </trkpt>
      <trkpt lat="45.17121" lon="5.2748">
        <ele>361.2</ele>
        <time>2020-05-26T17:19:33Z</time>
      </trkpt>
      <trkpt lat="45.17117" lon="5.2748">
        <ele>361.1</ele>
        <time>2020-05-26T17:19:34Z</time>
      </trkpt>
      <trkpt lat="45.17114" lon="5.2748">
        <ele>361</ele>
        <time>2020-05-26T17:19:35Z</time>
      </trkpt>
      <trkpt lat="45.1711" lon="5.2748">
        <ele>360.9</ele>
        <time>2020-05-26T17:19:36Z</time>
      </trkpt>
      <trkpt lat="45.17107" lon="5.2748">
        <ele>360.8</ele>
        <time>2020-05-26T17:19:37Z</time>
      </trkpt>
      <trkpt lat="45.17104" lon="5.2748">
        <ele>360.8</ele>
        <time>2020-05-26T17:19:38Z</time>
      </trkpt>
      <trkpt lat="45.171" lon="5.2748">
        <ele>360.7</ele>
        <time>2020-05-26T17:19:39Z</time>
      </trkpt>
      <trkpt lat="45.17097" lon="5.27481">
        <ele>360.7</ele>
        <time>2020-05-26T17:19:40Z</time>
      </trkpt>
      <trkpt lat="45.17094" lon="5.27482">
        <ele>360.6</ele>
        <time>2020-05-26T17:19:41Z</time>
      </trkpt>
      <trkpt lat="45.17091" lon="5.27483">
        <ele>360.6</ele>
        <time>2020-05-26T17:19:42Z</time>
      </trkpt>
      <trkpt lat="45.17087" lon="5.27483">
        <ele>360.5</ele>
        <time>2020-05-26T17:19:43Z</time>
      </trkpt>
      <trkpt lat="45.17084" lon="5.27484">
        <ele>360.5</ele>
        <time>2020-05-26T17:19:44Z</time>
      </trkpt>
      <trkpt lat="45.17081" lon="5.27484">
        <ele>360.4</ele>
        <time>2020-05-26T17:19:45Z</time>
      </trkpt>
      <trkpt lat="45.17078" lon="5.27485">
        <ele>360.4</ele>
        <time>2020-05-26T17:19:46Z</time>
      </trkpt>
      <trkpt lat="45.17075" lon="5.27485">
        <ele>360.4</ele>
        <time>2020-05-26T17:19:47Z</time>
      </trkpt>
      <trkpt lat="45.17071" lon="5.27485">
        <ele>360.3</ele>
        <time>2020-05-26T17:19:48Z</time>
      </trkpt>
      <trkpt lat="45.17069" lon="5.27486">
        <ele>360.3</ele>
        <time>2020-05-26T17:19:49Z</time>
      </trkpt>
      <trkpt lat="45.17067" lon="5.27486">
        <ele>360.2</ele>
        <time>2020-05-26T17:19:50Z</time>
      </trkpt>
      <trkpt lat="45.17063" lon="5.27486">
        <ele>360.1</ele>
        <time>2020-05-26T17:19:51Z</time>
      </trkpt>
      <trkpt lat="45.17061" lon="5.27485">
        <ele>360.1</ele>
        <time>2020-05-26T17:19:52Z</time>
      </trkpt>
      <trkpt lat="45.17058" lon="5.27485">
        <ele>359.9</ele>
        <time>2020-05-26T17:19:53Z</time>
      </trkpt>
      <trkpt lat="45.17054" lon="5.27484">
        <ele>359.8</ele>
        <time>2020-05-26T17:19:54Z</time>
      </trkpt>
      <trkpt lat="45.17052" lon="5.27483">
        <ele>359.7</ele>
        <time>2020-05-26T17:19:55Z</time>
      </trkpt>
      <trkpt lat="45.17049" lon="5.27481">
        <ele>359.4</ele>
        <time>2020-05-26T17:19:56Z</time>
      </trkpt>
      <trkpt lat="45.17046" lon="5.27479">
        <ele>359.3</ele>
        <time>2020-05-26T17:19:57Z</time>
      </trkpt>
      <trkpt lat="45.17043" lon="5.27478">
        <ele>359.1</ele>
        <time>2020-05-26T17:19:58Z</time>
      </trkpt>
      <trkpt lat="45.1704" lon="5.27477">
        <ele>358.9</ele>
        <time>2020-05-26T17:19:59Z</time>
      </trkpt>
      <trkpt lat="45.17037" lon="5.27475">
        <ele>358.7</ele>
        <time>2020-05-26T17:20:00Z</time>
      </trkpt>
      <trkpt lat="45.17033" lon="5.27473">
        <ele>358.4</ele>
        <time>2020-05-26T17:20:01Z</time>
      </trkpt>
      <trkpt lat="45.17032" lon="5.27473">
        <ele>358.4</ele>
        <time>2020-05-26T17:20:02Z</time>
      </trkpt>
      <trkpt lat="45.17028" lon="5.27471">
        <ele>358.2</ele>
        <time>2020-05-26T17:20:03Z</time>
      </trkpt>
      <trkpt lat="45.17025" lon="5.27468">
        <ele>358</ele>
        <time>2020-05-26T17:20:04Z</time>
      </trkpt>
      <trkpt lat="45.17023" lon="5.27467">
        <ele>357.9</ele>
        <time>2020-05-26T17:20:05Z</time>
      </trkpt>
      <trkpt lat="45.1702" lon="5.27463">
        <ele>357.7</ele>
        <time>2020-05-26T17:20:06Z</time>
      </trkpt>
      <trkpt lat="45.17017" lon="5.2746">
        <ele>357.5</ele>
        <time>2020-05-26T17:20:07Z</time>
      </trkpt>
      <trkpt lat="45.17016" lon="5.27458">
        <ele>357.4</ele>
        <time>2020-05-26T17:20:08Z</time>
      </trkpt>
      <trkpt lat="45.17013" lon="5.27454">
        <ele>357.1</ele>
        <time>2020-05-26T17:20:09Z</time>
      </trkpt>
      <trkpt lat="45.17011" lon="5.27451">
        <ele>356.9</ele>
        <time>2020-05-26T17:20:10Z</time>
      </trkpt>
      <trkpt lat="45.1701" lon="5.27448">
        <ele>356.7</ele>
        <time>2020-05-26T17:20:11Z</time>
      </trkpt>
      <trkpt lat="45.17007" lon="5.27444">
        <ele>356.4</ele>
        <time>2020-05-26T17:20:12Z</time>
      </trkpt>
      <trkpt lat="45.17005" lon="5.2744">
        <ele>356.1</ele>
        <time>2020-05-26T17:20:13Z</time>
      </trkpt>
      <trkpt lat="45.17003" lon="5.27436">
        <ele>355.8</ele>
        <time>2020-05-26T17:20:14Z</time>
      </trkpt>
      <trkpt lat="45.17" lon="5.27432">
        <ele>355.4</ele>
        <time>2020-05-26T17:20:15Z</time>
      </trkpt>
      <trkpt lat="45.16998" lon="5.27429">
        <ele>355.1</ele>
        <time>2020-05-26T17:20:16Z</time>
      </trkpt>
      <trkpt lat="45.16996" lon="5.27426">
        <ele>354.9</ele>
        <time>2020-05-26T17:20:17Z</time>
      </trkpt>
      <trkpt lat="45.16993" lon="5.27422">
        <ele>354.5</ele>
        <time>2020-05-26T17:20:18Z</time>
      </trkpt>
      <trkpt lat="45.16991" lon="5.27418">
        <ele>354.2</ele>
        <time>2020-05-26T17:20:19Z</time>
      </trkpt>
      <trkpt lat="45.16988" lon="5.27414">
        <ele>353.9</ele>
        <time>2020-05-26T17:20:20Z</time>
      </trkpt>
      <trkpt lat="45.16987" lon="5.27412">
        <ele>353.8</ele>
        <time>2020-05-26T17:20:21Z</time>
      </trkpt>
      <trkpt lat="45.16984" lon="5.27411">
        <ele>353.5</ele>
        <time>2020-05-26T17:20:22Z</time>
      </trkpt>
      <trkpt lat="45.16981" lon="5.27409">
        <ele>353.3</ele>
        <time>2020-05-26T17:20:23Z</time>
      </trkpt>
      <trkpt lat="45.16981" lon="5.27409">
        <ele>353.2</ele>
        <time>2020-05-26T17:20:24Z</time>
      </trkpt>
      <trkpt lat="45.16978" lon="5.27407">
        <ele>353</ele>
        <time>2020-05-26T17:20:25Z</time>
      </trkpt>
      <trkpt lat="45.16977" lon="5.27406">
        <ele>352.9</ele>
        <time>2020-05-26T17:20:26Z</time>
      </trkpt>
      <trkpt lat="45.16974" lon="5.27402">
        <ele>352.7</ele>
        <time>2020-05-26T17:20:27Z</time>
      </trkpt>
      <trkpt lat="45.16973" lon="5.274">
        <ele>352.6</ele>
        <time>2020-05-26T17:20:28Z</time>
      </trkpt>
      <trkpt lat="45.1697" lon="5.27397">
        <ele>352.4</ele>
        <time>2020-05-26T17:20:29Z</time>
      </trkpt>
      <trkpt lat="45.16969" lon="5.27396">
        <ele>352.3</ele>
        <time>2020-05-26T17:20:30Z</time>
      </trkpt>
      <trkpt lat="45.16966" lon="5.27394">
        <ele>352.2</ele>
        <time>2020-05-26T17:20:31Z</time>
      </trkpt>
      <trkpt lat="45.16964" lon="5.27391">
        <ele>352</ele>
        <time>2020-05-26T17:20:32Z</time>
      </trkpt>
      <trkpt lat="45.16961" lon="5.27388">
        <ele>351.8</ele>
        <time>2020-05-26T17:20:33Z</time>
      </trkpt>
      <trkpt lat="45.16959" lon="5.27385">
        <ele>351.5</ele>
        <time>2020-05-26T17:20:34Z</time>
      </trkpt>
      <trkpt lat="45.16956" lon="5.27381">
        <ele>351.3</ele>
        <time>2020-05-26T17:20:35Z</time>
      </trkpt>
      <trkpt lat="45.16954" lon="5.27378">
        <ele>351</ele>
        <time>2020-05-26T17:20:36Z</time>
      </trkpt>
      <trkpt lat="45.16952" lon="5.27374">
        <ele>350.8</ele>
        <time>2020-05-26T17:20:37Z</time>
      </trkpt>
      <trkpt lat="45.16951" lon="5.2737">
        <ele>350.6</ele>
        <time>2020-05-26T17:20:38Z</time>
      </trkpt>
      <trkpt lat="45.16949" lon="5.27366">
        <ele>350.4</ele>
        <time>2020-05-26T17:20:39Z</time>
      </trkpt>
      <trkpt lat="45.16947" lon="5.27363">
        <ele>350.2</ele>
        <time>2020-05-26T17:20:40Z</time>
      </trkpt>
      <trkpt lat="45.16944" lon="5.27359">
        <ele>350</ele>
        <time>2020-05-26T17:20:41Z</time>
      </trkpt>
      <trkpt lat="45.16941" lon="5.27357">
        <ele>349.8</ele>
        <time>2020-05-26T17:20:42Z</time>
      </trkpt>
      <trkpt lat="45.16939" lon="5.27355">
        <ele>349.7</ele>
        <time>2020-05-26T17:20:43Z</time>
      </trkpt>
      <trkpt lat="45.16935" lon="5.27351">
        <ele>349.5</ele>
        <time>2020-05-26T17:20:44Z</time>
      </trkpt>
      <trkpt lat="45.16932" lon="5.27348">
        <ele>349.4</ele>
        <time>2020-05-26T17:20:45Z</time>
      </trkpt>
      <trkpt lat="45.16929" lon="5.27345">
        <ele>349.3</ele>
        <time>2020-05-26T17:20:46Z</time>
      </trkpt>
      <trkpt lat="45.16926" lon="5.27343">
        <ele>349.2</ele>
        <time>2020-05-26T17:20:47Z</time>
      </trkpt>
      <trkpt lat="45.16923" lon="5.27341">
        <ele>349.1</ele>
        <time>2020-05-26T17:20:48Z</time>
      </trkpt>
      <trkpt lat="45.16919" lon="5.2734">
        <ele>349</ele>
        <time>2020-05-26T17:20:49Z</time>
      </trkpt>
      <trkpt lat="45.16916" lon="5.27338">
        <ele>349</ele>
        <time>2020-05-26T17:20:50Z</time>
      </trkpt>
      <trkpt lat="45.16913" lon="5.27335">
        <ele>348.9</ele>
        <time>2020-05-26T17:20:51Z</time>
      </trkpt>
      <trkpt lat="45.1691" lon="5.27333">
        <ele>348.9</ele>
        <time>2020-05-26T17:20:52Z</time>
      </trkpt>
      <trkpt lat="45.16907" lon="5.27331">
        <ele>348.8</ele>
        <time>2020-05-26T17:20:53Z</time>
      </trkpt>
      <trkpt lat="45.16903" lon="5.27329">
        <ele>348.5</ele>
        <time>2020-05-26T17:20:54Z</time>
      </trkpt>
      <trkpt lat="45.16901" lon="5.27328">
        <ele>348.3</ele>
        <time>2020-05-26T17:20:55Z</time>
      </trkpt>
      <trkpt lat="45.16898" lon="5.27327">
        <ele>348</ele>
        <time>2020-05-26T17:20:56Z</time>
      </trkpt>
      <trkpt lat="45.16894" lon="5.27326">
        <ele>347.6</ele>
        <time>2020-05-26T17:20:57Z</time>
      </trkpt>
      <trkpt lat="45.16893" lon="5.27326">
        <ele>347.5</ele>
        <time>2020-05-26T17:20:58Z</time>
      </trkpt>
      <trkpt lat="45.1689" lon="5.27325">
        <ele>347.2</ele>
        <time>2020-05-26T17:20:59Z</time>
      </trkpt>
      <trkpt lat="45.16887" lon="5.27324">
        <ele>346.8</ele>
        <time>2020-05-26T17:21:00Z</time>
      </trkpt>
      <trkpt lat="45.16884" lon="5.27323">
        <ele>346.5</ele>
        <time>2020-05-26T17:21:01Z</time>
      </trkpt>
      <trkpt lat="45.16882" lon="5.27322">
        <ele>346.1</ele>
        <time>2020-05-26T17:21:02Z</time>
      </trkpt>
      <trkpt lat="45.16878" lon="5.27321">
        <ele>345.7</ele>
        <time>2020-05-26T17:21:03Z</time>
      </trkpt>
      <trkpt lat="45.16875" lon="5.2732">
        <ele>345.3</ele>
        <time>2020-05-26T17:21:04Z</time>
      </trkpt>
      <trkpt lat="45.16872" lon="5.27318">
        <ele>344.8</ele>
        <time>2020-05-26T17:21:05Z</time>
      </trkpt>
      <trkpt lat="45.16869" lon="5.27316">
        <ele>344.4</ele>
        <time>2020-05-26T17:21:06Z</time>
      </trkpt>
      <trkpt lat="45.16866" lon="5.27314">
        <ele>344</ele>
        <time>2020-05-26T17:21:07Z</time>
      </trkpt>
      <trkpt lat="45.16863" lon="5.27314">
        <ele>343.6</ele>
        <time>2020-05-26T17:21:08Z</time>
      </trkpt>
      <trkpt lat="45.16859" lon="5.27313">
        <ele>343.1</ele>
        <time>2020-05-26T17:21:09Z</time>
      </trkpt>
      <trkpt lat="45.16855" lon="5.27313">
        <ele>342.6</ele>
        <time>2020-05-26T17:21:10Z</time>
      </trkpt>
      <trkpt lat="45.16851" lon="5.27312">
        <ele>342.1</ele>
        <time>2020-05-26T17:21:11Z</time>
      </trkpt>
      <trkpt lat="45.16848" lon="5.27312">
        <ele>341.7</ele>
        <time>2020-05-26T17:21:12Z</time>
      </trkpt>
      <trkpt lat="45.16845" lon="5.27313">
        <ele>341.3</ele>
        <time>2020-05-26T17:21:13Z</time>
      </trkpt>
      <trkpt lat="45.16842" lon="5.27315">
        <ele>341</ele>
        <time>2020-05-26T17:21:14Z</time>
      </trkpt>
      <trkpt lat="45.16839" lon="5.27318">
        <ele>340.7</ele>
        <time>2020-05-26T17:21:15Z</time>
      </trkpt>
      <trkpt lat="45.16836" lon="5.27322">
        <ele>340.3</ele>
        <time>2020-05-26T17:21:16Z</time>
      </trkpt>
      <trkpt lat="45.16834" lon="5.27327">
        <ele>339.9</ele>
        <time>2020-05-26T17:21:17Z</time>
      </trkpt>
      <trkpt lat="45.16832" lon="5.27332">
        <ele>339.4</ele>
        <time>2020-05-26T17:21:18Z</time>
      </trkpt>
      <trkpt lat="45.1683" lon="5.27337">
        <ele>339.2</ele>
        <time>2020-05-26T17:21:19Z</time>
      </trkpt>
      <trkpt lat="45.16829" lon="5.27341">
        <ele>339</ele>
        <time>2020-05-26T17:21:20Z</time>
      </trkpt>
      <trkpt lat="45.16827" lon="5.27345">
        <ele>338.9</ele>
        <time>2020-05-26T17:21:21Z</time>
      </trkpt>
      <trkpt lat="45.16825" lon="5.2735">
        <ele>338.7</ele>
        <time>2020-05-26T17:21:22Z</time>
      </trkpt>
      <trkpt lat="45.16823" lon="5.27354">
        <ele>338.6</ele>
        <time>2020-05-26T17:21:23Z</time>
      </trkpt>
      <trkpt lat="45.16821" lon="5.27358">
        <ele>338.4</ele>
        <time>2020-05-26T17:21:24Z</time>
      </trkpt>
      <trkpt lat="45.16819" lon="5.27363">
        <ele>338.3</ele>
        <time>2020-05-26T17:21:25Z</time>
      </trkpt>
      <trkpt lat="45.16817" lon="5.27367">
        <ele>338.2</ele>
        <time>2020-05-26T17:21:26Z</time>
      </trkpt>
      <trkpt lat="45.16816" lon="5.27371">
        <ele>338</ele>
        <time>2020-05-26T17:21:27Z</time>
      </trkpt>
      <trkpt lat="45.16814" lon="5.27376">
        <ele>337.9</ele>
        <time>2020-05-26T17:21:28Z</time>
      </trkpt>
      <trkpt lat="45.16812" lon="5.2738">
        <ele>337.8</ele>
        <time>2020-05-26T17:21:29Z</time>
      </trkpt>
      <trkpt lat="45.16809" lon="5.27383">
        <ele>337.7</ele>
        <time>2020-05-26T17:21:30Z</time>
      </trkpt>
      <trkpt lat="45.16807" lon="5.27387">
        <ele>337.6</ele>
        <time>2020-05-26T17:21:31Z</time>
      </trkpt>
      <trkpt lat="45.16804" lon="5.2739">
        <ele>337.5</ele>
        <time>2020-05-26T17:21:32Z</time>
      </trkpt>
      <trkpt lat="45.16801" lon="5.27393">
        <ele>337.4</ele>
        <time>2020-05-26T17:21:33Z</time>
      </trkpt>
      <trkpt lat="45.16797" lon="5.27395">
        <ele>337.2</ele>
        <time>2020-05-26T17:21:34Z</time>
      </trkpt>
      <trkpt lat="45.16795" lon="5.27398">
        <ele>337.1</ele>
        <time>2020-05-26T17:21:35Z</time>
      </trkpt>
      <trkpt lat="45.16792" lon="5.27402">
        <ele>337</ele>
        <time>2020-05-26T17:21:36Z</time>
      </trkpt>
      <trkpt lat="45.16789" lon="5.27405">
        <ele>336.9</ele>
        <time>2020-05-26T17:21:37Z</time>
      </trkpt>
      <trkpt lat="45.16787" lon="5.27409">
        <ele>336.8</ele>
        <time>2020-05-26T17:21:38Z</time>
      </trkpt>
      <trkpt lat="45.16784" lon="5.27413">
        <ele>336.7</ele>
        <time>2020-05-26T17:21:39Z</time>
      </trkpt>
      <trkpt lat="45.16782" lon="5.27417">
        <ele>336.6</ele>
        <time>2020-05-26T17:21:40Z</time>
      </trkpt>
      <trkpt lat="45.16779" lon="5.27421">
        <ele>336.5</ele>
        <time>2020-05-26T17:21:41Z</time>
      </trkpt>
      <trkpt lat="45.16777" lon="5.27424">
        <ele>336.4</ele>
        <time>2020-05-26T17:21:42Z</time>
      </trkpt>
      <trkpt lat="45.16774" lon="5.27427">
        <ele>336.3</ele>
        <time>2020-05-26T17:21:43Z</time>
      </trkpt>
      <trkpt lat="45.16772" lon="5.27431">
        <ele>336.2</ele>
        <time>2020-05-26T17:21:44Z</time>
      </trkpt>
      <trkpt lat="45.16769" lon="5.27434">
        <ele>336.1</ele>
        <time>2020-05-26T17:21:45Z</time>
      </trkpt>
      <trkpt lat="45.16766" lon="5.27437">
        <ele>336</ele>
        <time>2020-05-26T17:21:46Z</time>
      </trkpt>
      <trkpt lat="45.16764" lon="5.2744">
        <ele>336</ele>
        <time>2020-05-26T17:21:47Z</time>
      </trkpt>
      <trkpt lat="45.16761" lon="5.27444">
        <ele>335.9</ele>
        <time>2020-05-26T17:21:48Z</time>
      </trkpt>
      <trkpt lat="45.16759" lon="5.27447">
        <ele>335.8</ele>
        <time>2020-05-26T17:21:49Z</time>
      </trkpt>
      <trkpt lat="45.16756" lon="5.27451">
        <ele>335.7</ele>
        <time>2020-05-26T17:21:50Z</time>
      </trkpt>
      <trkpt lat="45.16754" lon="5.27455">
        <ele>335.6</ele>
        <time>2020-05-26T17:21:51Z</time>
      </trkpt>
      <trkpt lat="45.16751" lon="5.27459">
        <ele>335.5</ele>
        <time>2020-05-26T17:21:52Z</time>
      </trkpt>
      <trkpt lat="45.16749" lon="5.27463">
        <ele>335.4</ele>
        <time>2020-05-26T17:21:53Z</time>
      </trkpt>
      <trkpt lat="45.16746" lon="5.27467">
        <ele>335.3</ele>
        <time>2020-05-26T17:21:54Z</time>
      </trkpt>
      <trkpt lat="45.16744" lon="5.2747">
        <ele>335.2</ele>
        <time>2020-05-26T17:21:55Z</time>
      </trkpt>
      <trkpt lat="45.16741" lon="5.27474">
        <ele>335.1</ele>
        <time>2020-05-26T17:21:56Z</time>
      </trkpt>
      <trkpt lat="45.16738" lon="5.27477">
        <ele>335</ele>
        <time>2020-05-26T17:21:57Z</time>
      </trkpt>
      <trkpt lat="45.16736" lon="5.2748">
        <ele>334.9</ele>
        <time>2020-05-26T17:21:58Z</time>
      </trkpt>
      <trkpt lat="45.16733" lon="5.27484">
        <ele>334.7</ele>
        <time>2020-05-26T17:21:59Z</time>
      </trkpt>
      <trkpt lat="45.16731" lon="5.27487">
        <ele>334.6</ele>
        <time>2020-05-26T17:22:00Z</time>
      </trkpt>
      <trkpt lat="45.16728" lon="5.2749">
        <ele>334.5</ele>
        <time>2020-05-26T17:22:01Z</time>
      </trkpt>
      <trkpt lat="45.16725" lon="5.27494">
        <ele>334.4</ele>
        <time>2020-05-26T17:22:02Z</time>
      </trkpt>
      <trkpt lat="45.16723" lon="5.27497">
        <ele>334.3</ele>
        <time>2020-05-26T17:22:03Z</time>
      </trkpt>
      <trkpt lat="45.16721" lon="5.27501">
        <ele>334.2</ele>
        <time>2020-05-26T17:22:04Z</time>
      </trkpt>
      <trkpt lat="45.16718" lon="5.27505">
        <ele>334.1</ele>
        <time>2020-05-26T17:22:05Z</time>
      </trkpt>
      <trkpt lat="45.16716" lon="5.27509">
        <ele>334</ele>
        <time>2020-05-26T17:22:06Z</time>
      </trkpt>
      <trkpt lat="45.16713" lon="5.27513">
        <ele>333.9</ele>
        <time>2020-05-26T17:22:07Z</time>
      </trkpt>
      <trkpt lat="45.16711" lon="5.27516">
        <ele>333.9</ele>
        <time>2020-05-26T17:22:08Z</time>
      </trkpt>
      <trkpt lat="45.16709" lon="5.2752">
        <ele>333.8</ele>
        <time>2020-05-26T17:22:09Z</time>
      </trkpt>
      <trkpt lat="45.16706" lon="5.27524">
        <ele>333.7</ele>
        <time>2020-05-26T17:22:10Z</time>
      </trkpt>
      <trkpt lat="45.16704" lon="5.27529">
        <ele>333.6</ele>
        <time>2020-05-26T17:22:11Z</time>
      </trkpt>
      <trkpt lat="45.16701" lon="5.27532">
        <ele>333.5</ele>
        <time>2020-05-26T17:22:12Z</time>
      </trkpt>
      <trkpt lat="45.16699" lon="5.27537">
        <ele>333.5</ele>
        <time>2020-05-26T17:22:13Z</time>
      </trkpt>
      <trkpt lat="45.16696" lon="5.2754">
        <ele>333.4</ele>
        <time>2020-05-26T17:22:14Z</time>
      </trkpt>
      <trkpt lat="45.16694" lon="5.27543">
        <ele>333.3</ele>
        <time>2020-05-26T17:22:15Z</time>
      </trkpt>
      <trkpt lat="45.16691" lon="5.27547">
        <ele>333.2</ele>
        <time>2020-05-26T17:22:16Z</time>
      </trkpt>
      <trkpt lat="45.1669" lon="5.27551">
        <ele>333.1</ele>
        <time>2020-05-26T17:22:17Z</time>
      </trkpt>
      <trkpt lat="45.16687" lon="5.27555">
        <ele>333.1</ele>
        <time>2020-05-26T17:22:18Z</time>
      </trkpt>
      <trkpt lat="45.16685" lon="5.27559">
        <ele>333</ele>
        <time>2020-05-26T17:22:19Z</time>
      </trkpt>
      <trkpt lat="45.16683" lon="5.27562">
        <ele>332.9</ele>
        <time>2020-05-26T17:22:20Z</time>
      </trkpt>
      <trkpt lat="45.16681" lon="5.27566">
        <ele>332.8</ele>
        <time>2020-05-26T17:22:21Z</time>
      </trkpt>
      <trkpt lat="45.16678" lon="5.2757">
        <ele>332.8</ele>
        <time>2020-05-26T17:22:22Z</time>
      </trkpt>
      <trkpt lat="45.16676" lon="5.27574">
        <ele>332.7</ele>
        <time>2020-05-26T17:22:23Z</time>
      </trkpt>
      <trkpt lat="45.16674" lon="5.27578">
        <ele>332.6</ele>
        <time>2020-05-26T17:22:24Z</time>
      </trkpt>
      <trkpt lat="45.16671" lon="5.27581">
        <ele>332.6</ele>
        <time>2020-05-26T17:22:25Z</time>
      </trkpt>
      <trkpt lat="45.16669" lon="5.27585">
        <ele>332.5</ele>
        <time>2020-05-26T17:22:26Z</time>
      </trkpt>
      <trkpt lat="45.16666" lon="5.27589">
        <ele>332.4</ele>
        <time>2020-05-26T17:22:27Z</time>
      </trkpt>
      <trkpt lat="45.16663" lon="5.27592">
        <ele>332.4</ele>
        <time>2020-05-26T17:22:28Z</time>
      </trkpt>
      <trkpt lat="45.16661" lon="5.27596">
        <ele>332.3</ele>
        <time>2020-05-26T17:22:29Z</time>
      </trkpt>
      <trkpt lat="45.16658" lon="5.276">
        <ele>332.3</ele>
        <time>2020-05-26T17:22:30Z</time>
      </trkpt>
      <trkpt lat="45.16655" lon="5.27603">
        <ele>332.2</ele>
        <time>2020-05-26T17:22:31Z</time>
      </trkpt>
      <trkpt lat="45.16653" lon="5.27607">
        <ele>332.2</ele>
        <time>2020-05-26T17:22:32Z</time>
      </trkpt>
      <trkpt lat="45.1665" lon="5.2761">
        <ele>332.1</ele>
        <time>2020-05-26T17:22:33Z</time>
      </trkpt>
      <trkpt lat="45.16647" lon="5.27613">
        <ele>332.1</ele>
        <time>2020-05-26T17:22:34Z</time>
      </trkpt>
      <trkpt lat="45.16644" lon="5.27616">
        <ele>332</ele>
        <time>2020-05-26T17:22:35Z</time>
      </trkpt>
      <trkpt lat="45.16642" lon="5.27619">
        <ele>332</ele>
        <time>2020-05-26T17:22:36Z</time>
      </trkpt>
      <trkpt lat="45.16639" lon="5.27623">
        <ele>331.9</ele>
        <time>2020-05-26T17:22:37Z</time>
      </trkpt>
      <trkpt lat="45.16637" lon="5.27626">
        <ele>331.9</ele>
        <time>2020-05-26T17:22:38Z</time>
      </trkpt>
      <trkpt lat="45.16634" lon="5.2763">
        <ele>331.8</ele>
        <time>2020-05-26T17:22:39Z</time>
      </trkpt>
      <trkpt lat="45.16631" lon="5.27633">
        <ele>331.8</ele>
        <time>2020-05-26T17:22:40Z</time>
      </trkpt>
      <trkpt lat="45.16629" lon="5.27636">
        <ele>331.7</ele>
        <time>2020-05-26T17:22:41Z</time>
      </trkpt>
      <trkpt lat="45.16626" lon="5.27639">
        <ele>331.7</ele>
        <time>2020-05-26T17:22:42Z</time>
      </trkpt>
      <trkpt lat="45.16623" lon="5.27642">
        <ele>331.7</ele>
        <time>2020-05-26T17:22:43Z</time>
      </trkpt>
      <trkpt lat="45.16621" lon="5.27645">
        <ele>331.6</ele>
        <time>2020-05-26T17:22:44Z</time>
      </trkpt>
      <trkpt lat="45.16618" lon="5.27649">
        <ele>331.6</ele>
        <time>2020-05-26T17:22:45Z</time>
      </trkpt>
      <trkpt lat="45.16615" lon="5.27653">
        <ele>331.6</ele>
        <time>2020-05-26T17:22:46Z</time>
      </trkpt>
      <trkpt lat="45.16613" lon="5.27656">
        <ele>331.5</ele>
        <time>2020-05-26T17:22:47Z</time>
      </trkpt>
      <trkpt lat="45.16609" lon="5.2766">
        <ele>331.4</ele>
        <time>2020-05-26T17:22:48Z</time>
      </trkpt>
      <trkpt lat="45.16607" lon="5.27663">
        <ele>331.4</ele>
        <time>2020-05-26T17:22:49Z</time>
      </trkpt>
      <trkpt lat="45.16604" lon="5.27667">
        <ele>331.3</ele>
        <time>2020-05-26T17:22:50Z</time>
      </trkpt>
      <trkpt lat="45.16601" lon="5.2767">
        <ele>331.3</ele>
        <time>2020-05-26T17:22:51Z</time>
      </trkpt>
      <trkpt lat="45.16598" lon="5.27673">
        <ele>331.2</ele>
        <time>2020-05-26T17:22:52Z</time>
      </trkpt>
      <trkpt lat="45.16595" lon="5.27677">
        <ele>331.2</ele>
        <time>2020-05-26T17:22:53Z</time>
      </trkpt>
      <trkpt lat="45.16592" lon="5.2768">
        <ele>331.1</ele>
        <time>2020-05-26T17:22:54Z</time>
      </trkpt>
      <trkpt lat="45.16589" lon="5.27683">
        <ele>331.1</ele>
        <time>2020-05-26T17:22:55Z</time>
      </trkpt>
      <trkpt lat="45.16587" lon="5.27687">
        <ele>331.1</ele>
        <time>2020-05-26T17:22:56Z</time>
      </trkpt>
      <trkpt lat="45.16584" lon="5.2769">
        <ele>331</ele>
        <time>2020-05-26T17:22:57Z</time>
      </trkpt>
      <trkpt lat="45.16581" lon="5.27693">
        <ele>331</ele>
        <time>2020-05-26T17:22:58Z</time>
      </trkpt>
      <trkpt lat="45.16578" lon="5.27696">
        <ele>330.9</ele>
        <time>2020-05-26T17:22:59Z</time>
      </trkpt>
      <trkpt lat="45.16576" lon="5.277">
        <ele>330.9</ele>
        <time>2020-05-26T17:23:00Z</time>
      </trkpt>
      <trkpt lat="45.16573" lon="5.27704">
        <ele>330.8</ele>
        <time>2020-05-26T17:23:01Z</time>
      </trkpt>
      <trkpt lat="45.16571" lon="5.27707">
        <ele>330.8</ele>
        <time>2020-05-26T17:23:02Z</time>
      </trkpt>
      <trkpt lat="45.16568" lon="5.27711">
        <ele>330.7</ele>
        <time>2020-05-26T17:23:03Z</time>
      </trkpt>
      <trkpt lat="45.16566" lon="5.27714">
        <ele>330.7</ele>
        <time>2020-05-26T17:23:04Z</time>
      </trkpt>
      <trkpt lat="45.16563" lon="5.27718">
        <ele>330.7</ele>
        <time>2020-05-26T17:23:05Z</time>
      </trkpt>
      <trkpt lat="45.1656" lon="5.27722">
        <ele>330.6</ele>
        <time>2020-05-26T17:23:06Z</time>
      </trkpt>
      <trkpt lat="45.16557" lon="5.27725">
        <ele>330.6</ele>
        <time>2020-05-26T17:23:07Z</time>
      </trkpt>
      <trkpt lat="45.16555" lon="5.27729">
        <ele>330.6</ele>
        <time>2020-05-26T17:23:08Z</time>
      </trkpt>
      <trkpt lat="45.16552" lon="5.27733">
        <ele>330.5</ele>
        <time>2020-05-26T17:23:09Z</time>
      </trkpt>
      <trkpt lat="45.16549" lon="5.27737">
        <ele>330.5</ele>
        <time>2020-05-26T17:23:10Z</time>
      </trkpt>
      <trkpt lat="45.16546" lon="5.27741">
        <ele>330.5</ele>
        <time>2020-05-26T17:23:11Z</time>
      </trkpt>
      <trkpt lat="45.16544" lon="5.27744">
        <ele>330.5</ele>
        <time>2020-05-26T17:23:12Z</time>
      </trkpt>
      <trkpt lat="45.16541" lon="5.27748">
        <ele>330.5</ele>
        <time>2020-05-26T17:23:13Z</time>
      </trkpt>
      <trkpt lat="45.16538" lon="5.27751">
        <ele>330.4</ele>
        <time>2020-05-26T17:23:14Z</time>
      </trkpt>
      <trkpt lat="45.16535" lon="5.27755">
        <ele>330.4</ele>
        <time>2020-05-26T17:23:15Z</time>
      </trkpt>
      <trkpt lat="45.16532" lon="5.27759">
        <ele>330.4</ele>
        <time>2020-05-26T17:23:16Z</time>
      </trkpt>
      <trkpt lat="45.1653" lon="5.27763">
        <ele>330.3</ele>
        <time>2020-05-26T17:23:17Z</time>
      </trkpt>
      <trkpt lat="45.16527" lon="5.27767">
        <ele>330.1</ele>
        <time>2020-05-26T17:23:18Z</time>
      </trkpt>
      <trkpt lat="45.16524" lon="5.27771">
        <ele>329.8</ele>
        <time>2020-05-26T17:23:19Z</time>
      </trkpt>
      <trkpt lat="45.16522" lon="5.27775">
        <ele>329.6</ele>
        <time>2020-05-26T17:23:20Z</time>
      </trkpt>
      <trkpt lat="45.16518" lon="5.27779">
        <ele>329.4</ele>
        <time>2020-05-26T17:23:21Z</time>
      </trkpt>
      <trkpt lat="45.16516" lon="5.27783">
        <ele>329.3</ele>
        <time>2020-05-26T17:23:22Z</time>
      </trkpt>
      <trkpt lat="45.16513" lon="5.27786">
        <ele>329.2</ele>
        <time>2020-05-26T17:23:23Z</time>
      </trkpt>
      <trkpt lat="45.1651" lon="5.27789">
        <ele>329.2</ele>
        <time>2020-05-26T17:23:24Z</time>
      </trkpt>
      <trkpt lat="45.16507" lon="5.27793">
        <ele>329.1</ele>
        <time>2020-05-26T17:23:25Z</time>
      </trkpt>
      <trkpt lat="45.16504" lon="5.27796">
        <ele>329</ele>
        <time>2020-05-26T17:23:26Z</time>
      </trkpt>
      <trkpt lat="45.16502" lon="5.278">
        <ele>329</ele>
        <time>2020-05-26T17:23:27Z</time>
      </trkpt>
      <trkpt lat="45.16499" lon="5.27804">
        <ele>328.9</ele>
        <time>2020-05-26T17:23:28Z</time>
      </trkpt>
      <trkpt lat="45.16496" lon="5.27808">
        <ele>328.8</ele>
        <time>2020-05-26T17:23:29Z</time>
      </trkpt>
      <trkpt lat="45.16494" lon="5.27811">
        <ele>328.7</ele>
        <time>2020-05-26T17:23:30Z</time>
      </trkpt>
      <trkpt lat="45.16491" lon="5.27816">
        <ele>328.6</ele>
        <time>2020-05-26T17:23:31Z</time>
      </trkpt>
      <trkpt lat="45.16489" lon="5.2782">
        <ele>328.6</ele>
        <time>2020-05-26T17:23:32Z</time>
      </trkpt>
      <trkpt lat="45.16487" lon="5.27824">
        <ele>328.6</ele>
        <time>2020-05-26T17:23:33Z</time>
      </trkpt>
      <trkpt lat="45.16485" lon="5.27828">
        <ele>328.5</ele>
        <time>2020-05-26T17:23:34Z</time>
      </trkpt>
      <trkpt lat="45.16483" lon="5.27833">
        <ele>328.3</ele>
        <time>2020-05-26T17:23:35Z</time>
      </trkpt>
      <trkpt lat="45.16481" lon="5.27838">
        <ele>328.2</ele>
        <time>2020-05-26T17:23:36Z</time>
      </trkpt>
      <trkpt lat="45.16479" lon="5.27842">
        <ele>328.1</ele>
        <time>2020-05-26T17:23:37Z</time>
      </trkpt>
      <trkpt lat="45.16477" lon="5.27847">
        <ele>328</ele>
        <time>2020-05-26T17:23:38Z</time>
      </trkpt>
      <trkpt lat="45.16475" lon="5.27852">
        <ele>327.9</ele>
        <time>2020-05-26T17:23:39Z</time>
      </trkpt>
      <trkpt lat="45.16474" lon="5.27857">
        <ele>327.8</ele>
        <time>2020-05-26T17:23:40Z</time>
      </trkpt>
      <trkpt lat="45.16472" lon="5.27863">
        <ele>327.6</ele>
        <time>2020-05-26T17:23:41Z</time>
      </trkpt>
      <trkpt lat="45.16471" lon="5.27868">
        <ele>327.5</ele>
        <time>2020-05-26T17:23:42Z</time>
      </trkpt>
      <trkpt lat="45.1647" lon="5.27873">
        <ele>327.4</ele>
        <time>2020-05-26T17:23:43Z</time>
      </trkpt>
      <trkpt lat="45.16468" lon="5.27877">
        <ele>327.3</ele>
        <time>2020-05-26T17:23:44Z</time>
      </trkpt>
      <trkpt lat="45.16466" lon="5.27882">
        <ele>327.2</ele>
        <time>2020-05-26T17:23:45Z</time>
      </trkpt>
      <trkpt lat="45.16464" lon="5.27888">
        <ele>327.1</ele>
        <time>2020-05-26T17:23:46Z</time>
      </trkpt>
      <trkpt lat="45.16463" lon="5.27893">
        <ele>326.9</ele>
        <time>2020-05-26T17:23:47Z</time>
      </trkpt>
      <trkpt lat="45.16461" lon="5.27899">
        <ele>326.8</ele>
        <time>2020-05-26T17:23:48Z</time>
      </trkpt>
      <trkpt lat="45.1646" lon="5.27904">
        <ele>326.7</ele>
        <time>2020-05-26T17:23:49Z</time>
      </trkpt>
      <trkpt lat="45.16458" lon="5.27909">
        <ele>326.6</ele>
        <time>2020-05-26T17:23:50Z</time>
      </trkpt>
      <trkpt lat="45.16456" lon="5.27915">
        <ele>326.5</ele>
        <time>2020-05-26T17:23:51Z</time>
      </trkpt>
      <trkpt lat="45.16454" lon="5.2792">
        <ele>326.4</ele>
        <time>2020-05-26T17:23:52Z</time>
      </trkpt>
      <trkpt lat="45.16453" lon="5.27926">
        <ele>326.3</ele>
        <time>2020-05-26T17:23:53Z</time>
      </trkpt>
      <trkpt lat="45.16451" lon="5.27931">
        <ele>326.1</ele>
        <time>2020-05-26T17:23:54Z</time>
      </trkpt>
      <trkpt lat="45.16449" lon="5.27936">
        <ele>326</ele>
        <time>2020-05-26T17:23:55Z</time>
      </trkpt>
      <trkpt lat="45.16447" lon="5.27941">
        <ele>325.9</ele>
        <time>2020-05-26T17:23:56Z</time>
      </trkpt>
      <trkpt lat="45.16445" lon="5.27947">
        <ele>325.8</ele>
        <time>2020-05-26T17:23:57Z</time>
      </trkpt>
      <trkpt lat="45.16442" lon="5.27953">
        <ele>325.7</ele>
        <time>2020-05-26T17:23:58Z</time>
      </trkpt>
      <trkpt lat="45.1644" lon="5.27958">
        <ele>325.6</ele>
        <time>2020-05-26T17:23:59Z</time>
      </trkpt>
      <trkpt lat="45.16439" lon="5.27963">
        <ele>325.6</ele>
        <time>2020-05-26T17:24:00Z</time>
      </trkpt>
      <trkpt lat="45.16437" lon="5.27969">
        <ele>325.5</ele>
        <time>2020-05-26T17:24:01Z</time>
      </trkpt>
      <trkpt lat="45.16435" lon="5.27974">
        <ele>325.4</ele>
        <time>2020-05-26T17:24:02Z</time>
      </trkpt>
      <trkpt lat="45.16433" lon="5.27979">
        <ele>325.3</ele>
        <time>2020-05-26T17:24:03Z</time>
      </trkpt>
      <trkpt lat="45.16431" lon="5.27984">
        <ele>325.2</ele>
        <time>2020-05-26T17:24:04Z</time>
      </trkpt>
      <trkpt lat="45.16429" lon="5.27989">
        <ele>325</ele>
        <time>2020-05-26T17:24:05Z</time>
      </trkpt>
      <trkpt lat="45.16427" lon="5.27994">
        <ele>324.9</ele>
        <time>2020-05-26T17:24:06Z</time>
      </trkpt>
      <trkpt lat="45.16424" lon="5.27998">
        <ele>324.7</ele>
        <time>2020-05-26T17:24:07Z</time>
      </trkpt>
      <trkpt lat="45.16421" lon="5.28003">
        <ele>324.6</ele>
        <time>2020-05-26T17:24:08Z</time>
      </trkpt>
      <trkpt lat="45.16418" lon="5.28008">
        <ele>324.5</ele>
        <time>2020-05-26T17:24:09Z</time>
      </trkpt>
      <trkpt lat="45.16416" lon="5.28012">
        <ele>324.4</ele>
        <time>2020-05-26T17:24:10Z</time>
      </trkpt>
      <trkpt lat="45.16413" lon="5.28017">
        <ele>324.2</ele>
        <time>2020-05-26T17:24:11Z</time>
      </trkpt>
      <trkpt lat="45.1641" lon="5.28022">
        <ele>324.1</ele>
        <time>2020-05-26T17:24:12Z</time>
      </trkpt>
      <trkpt lat="45.16408" lon="5.28026">
        <ele>324</ele>
        <time>2020-05-26T17:24:13Z</time>
      </trkpt>
      <trkpt lat="45.16405" lon="5.28031">
        <ele>323.9</ele>
        <time>2020-05-26T17:24:14Z</time>
      </trkpt>
      <trkpt lat="45.16403" lon="5.28035">
        <ele>323.8</ele>
        <time>2020-05-26T17:24:15Z</time>
      </trkpt>
      <trkpt lat="45.16399" lon="5.28041">
        <ele>323.7</ele>
        <time>2020-05-26T17:24:16Z</time>
      </trkpt>
      <trkpt lat="45.16395" lon="5.28046">
        <ele>323.5</ele>
        <time>2020-05-26T17:24:17Z</time>
      </trkpt>
      <trkpt lat="45.16392" lon="5.28051">
        <ele>323.4</ele>
        <time>2020-05-26T17:24:18Z</time>
      </trkpt>
      <trkpt lat="45.16389" lon="5.28055">
        <ele>323.3</ele>
        <time>2020-05-26T17:24:19Z</time>
      </trkpt>
      <trkpt lat="45.16387" lon="5.2806">
        <ele>323.3</ele>
        <time>2020-05-26T17:24:20Z</time>
      </trkpt>
      <trkpt lat="45.16385" lon="5.28064">
        <ele>323.2</ele>
        <time>2020-05-26T17:24:21Z</time>
      </trkpt>
      <trkpt lat="45.16382" lon="5.28069">
        <ele>323.1</ele>
        <time>2020-05-26T17:24:22Z</time>
      </trkpt>
      <trkpt lat="45.16379" lon="5.28074">
        <ele>323</ele>
        <time>2020-05-26T17:24:23Z</time>
      </trkpt>
      <trkpt lat="45.16376" lon="5.28079">
        <ele>322.9</ele>
        <time>2020-05-26T17:24:24Z</time>
      </trkpt>
      <trkpt lat="45.16373" lon="5.28083">
        <ele>322.8</ele>
        <time>2020-05-26T17:24:25Z</time>
      </trkpt>
      <trkpt lat="45.16369" lon="5.28087">
        <ele>322.6</ele>
        <time>2020-05-26T17:24:26Z</time>
      </trkpt>
      <trkpt lat="45.16366" lon="5.28092">
        <ele>322.5</ele>
        <time>2020-05-26T17:24:27Z</time>
      </trkpt>
      <trkpt lat="45.16363" lon="5.28097">
        <ele>322.4</ele>
        <time>2020-05-26T17:24:28Z</time>
      </trkpt>
      <trkpt lat="45.1636" lon="5.28102">
        <ele>322.2</ele>
        <time>2020-05-26T17:24:29Z</time>
      </trkpt>
      <trkpt lat="45.16357" lon="5.28107">
        <ele>322.1</ele>
        <time>2020-05-26T17:24:30Z</time>
      </trkpt>
      <trkpt lat="45.16355" lon="5.28112">
        <ele>322</ele>
        <time>2020-05-26T17:24:31Z</time>
      </trkpt>
      <trkpt lat="45.16352" lon="5.28117">
        <ele>321.9</ele>
        <time>2020-05-26T17:24:32Z</time>
      </trkpt>
      <trkpt lat="45.16349" lon="5.28123">
        <ele>321.8</ele>
        <time>2020-05-26T17:24:33Z</time>
      </trkpt>
      <trkpt lat="45.16346" lon="5.28128">
        <ele>321.7</ele>
        <time>2020-05-26T17:24:34Z</time>
      </trkpt>
      <trkpt lat="45.16343" lon="5.28134">
        <ele>321.6</ele>
        <time>2020-05-26T17:24:35Z</time>
      </trkpt>
      <trkpt lat="45.1634" lon="5.28139">
        <ele>321.5</ele>
        <time>2020-05-26T17:24:36Z</time>
      </trkpt>
      <trkpt lat="45.16337" lon="5.28144">
        <ele>321.3</ele>
        <time>2020-05-26T17:24:37Z</time>
      </trkpt>
      <trkpt lat="45.16335" lon="5.28148">
        <ele>321.2</ele>
        <time>2020-05-26T17:24:38Z</time>
      </trkpt>
      <trkpt lat="45.16332" lon="5.28153">
        <ele>321.1</ele>
        <time>2020-05-26T17:24:39Z</time>
      </trkpt>
      <trkpt lat="45.16329" lon="5.28158">
        <ele>320.9</ele>
        <time>2020-05-26T17:24:40Z</time>
      </trkpt>
      <trkpt lat="45.16326" lon="5.28163">
        <ele>320.8</ele>
        <time>2020-05-26T17:24:41Z</time>
      </trkpt>
      <trkpt lat="45.16323" lon="5.28168">
        <ele>320.7</ele>
        <time>2020-05-26T17:24:42Z</time>
      </trkpt>
      <trkpt lat="45.1632" lon="5.28172">
        <ele>320.5</ele>
        <time>2020-05-26T17:24:43Z</time>
      </trkpt>
      <trkpt lat="45.16317" lon="5.28175">
        <ele>320.4</ele>
        <time>2020-05-26T17:24:44Z</time>
      </trkpt>
      <trkpt lat="45.16315" lon="5.28179">
        <ele>320.4</ele>
        <time>2020-05-26T17:24:45Z</time>
      </trkpt>
      <trkpt lat="45.16313" lon="5.28181">
        <ele>320.3</ele>
        <time>2020-05-26T17:24:46Z</time>
      </trkpt>
      <trkpt lat="45.16312" lon="5.28183">
        <ele>320.2</ele>
        <time>2020-05-26T17:24:47Z</time>
      </trkpt>
    </trkseg>
  </trk>
</gpx>